<?xml version='1.0' encoding='UTF-8'?><gpx version="1.1" creator="JPX - https://github.com/jenetics/jpx" xmlns="http://www.topografix.com/GPX/1/1"><trk><trkseg><trkpt lat="42.81015701130294" lon="12.916410695773472"><ele>414.0</ele><time>2026-04-12T14:49:53.998Z</time></trkpt><trkpt lat="42.81000756196939" lon="12.91637247429501"><ele>414.0</ele><time>2026-04-12T14:49:54.998Z</time></trkpt><trkpt lat="42.80985727444553" lon="12.916322853428234"><ele>414.0</ele><time>2026-04-12T14:49:55.998Z</time></trkpt><trkpt lat="42.809716848163795" lon="12.916257352301477"><ele>414.0</ele><time>2026-04-12T14:49:56.998Z</time></trkpt><trkpt lat="42.809568199625666" lon="12.916200974763973"><ele>414.0</ele><time>2026-04-12T14:49:57.998Z</time></trkpt><trkpt lat="42.809415827413495" lon="12.916126304456343"><ele>414.0</ele><time>2026-04-12T14:49:58.998Z</time></trkpt><trkpt lat="42.80926228278607" lon="12.91604464650285"><ele>408.66666666666663</ele><time>2026-04-12T14:49:59.998Z</time></trkpt><trkpt lat="42.80911735561488" lon="12.915942303074136"><ele>403.3333333333333</ele><time>2026-04-12T14:50:00.999Z</time></trkpt><trkpt lat="42.80898090771408" lon="12.915817457109803"><ele>398.0</ele><time>2026-04-12T14:50:01.999Z</time></trkpt><trkpt lat="42.80883279369352" lon="12.915691698008695"><ele>398.0</ele><time>2026-04-12T14:50:02.999Z</time></trkpt><trkpt lat="42.80867930565871" lon="12.91555178048898"><ele>398.0</ele><time>2026-04-12T14:50:03.999Z</time></trkpt><trkpt lat="42.80855550448554" lon="12.915432112289693"><ele>398.0</ele><time>2026-04-12T14:50:04.999Z</time></trkpt><trkpt lat="42.80844998474309" lon="12.915335782146975"><ele>400.66666666666663</ele><time>2026-04-12T14:50:05.999Z</time></trkpt><trkpt lat="42.808322607140795" lon="12.915215450987128"><ele>403.33333333333337</ele><time>2026-04-12T14:50:06.999Z</time></trkpt><trkpt lat="42.80818381110294" lon="12.915090883028595"><ele>406.0</ele><time>2026-04-12T14:50:07.999Z</time></trkpt><trkpt lat="42.80803220740965" lon="12.914941891382872"><ele>406.0</ele><time>2026-04-12T14:50:08.999Z</time></trkpt><trkpt lat="42.807891456537554" lon="12.914791087882245"><ele>406.0</ele><time>2026-04-12T14:50:09.999Z</time></trkpt><trkpt lat="42.80774252929333" lon="12.914658989174665"><ele>406.0</ele><time>2026-04-12T14:50:10.999Z</time></trkpt><trkpt lat="42.80762127513082" lon="12.914521192370918"><ele>407.6666666666667</ele><time>2026-04-12T14:50:11.999Z</time></trkpt><trkpt lat="42.807482123223636" lon="12.914389617611375"><ele>409.33333333333337</ele><time>2026-04-12T14:50:12.999Z</time></trkpt><trkpt lat="42.80734808945697" lon="12.914232779589273"><ele>411.0</ele><time>2026-04-12T14:50:13.999Z</time></trkpt><trkpt lat="42.80722494373784" lon="12.914039539768783"><ele>411.0</ele><time>2026-04-12T14:50:14.999Z</time></trkpt><trkpt lat="42.80710473699593" lon="12.913866063683223"><ele>411.0</ele><time>2026-04-12T14:50:15.999Z</time></trkpt><trkpt lat="42.80698336319975" lon="12.91370456150686"><ele>411.0</ele><time>2026-04-12T14:50:16.999Z</time></trkpt><trkpt lat="42.806904756505276" lon="12.913543598194055"><ele>416.0</ele><time>2026-04-12T14:50:17.999Z</time></trkpt><trkpt lat="42.806807705382575" lon="12.913379680972431"><ele>421.0</ele><time>2026-04-12T14:50:18.999Z</time></trkpt><trkpt lat="42.80671245971572" lon="12.91322356901782"><ele>426.0</ele><time>2026-04-12T14:50:19.999Z</time></trkpt><trkpt lat="42.806634761138476" lon="12.91309761363086"><ele>431.0</ele><time>2026-04-12T14:50:20.999Z</time></trkpt><trkpt lat="42.80655846294093" lon="12.912966273650827"><ele>430.99999999999994</ele><time>2026-04-12T14:50:21.999Z</time></trkpt><trkpt lat="42.80649628390567" lon="12.912858040813038"><ele>431.0</ele><time>2026-04-12T14:50:22.999Z</time></trkpt><trkpt lat="42.80643998785706" lon="12.912772966467154"><ele>431.0</ele><time>2026-04-12T14:50:24Z</time></trkpt><trkpt lat="42.80638304777343" lon="12.912682460109611"><ele>431.0</ele><time>2026-04-12T14:50:25Z</time></trkpt><trkpt lat="42.80633013801725" lon="12.912604391159487"><ele>430.99999999999994</ele><time>2026-04-12T14:50:26Z</time></trkpt><trkpt lat="42.80627171977371" lon="12.912545396224502"><ele>431.0</ele><time>2026-04-12T14:50:27Z</time></trkpt><trkpt lat="42.806133472639104" lon="12.912503538094237"><ele>431.0</ele><time>2026-04-12T14:50:29Z</time></trkpt><trkpt lat="42.806037087220304" lon="12.912580551919872"><ele>431.0</ele><time>2026-04-12T14:50:30Z</time></trkpt><trkpt lat="42.805940986841996" lon="12.912666591520894"><ele>431.0</ele><time>2026-04-12T14:50:31Z</time></trkpt><trkpt lat="42.805858615467734" lon="12.912788928565702"><ele>431.0</ele><time>2026-04-12T14:50:32Z</time></trkpt><trkpt lat="42.80580806141844" lon="12.912959894971246"><ele>433.25</ele><time>2026-04-12T14:50:33Z</time></trkpt><trkpt lat="42.80576431434171" lon="12.913148491367075"><ele>435.5</ele><time>2026-04-12T14:50:34Z</time></trkpt><trkpt lat="42.805725796109854" lon="12.913338200604167"><ele>437.75</ele><time>2026-04-12T14:50:35Z</time></trkpt><trkpt lat="42.805684553603" lon="12.913515642238101"><ele>440.0</ele><time>2026-04-12T14:50:36Z</time></trkpt><trkpt lat="42.805669875728654" lon="12.91370992477303"><ele>443.25</ele><time>2026-04-12T14:50:37Z</time></trkpt><trkpt lat="42.805661810766296" lon="12.913904380073854"><ele>446.5</ele><time>2026-04-12T14:50:38Z</time></trkpt><trkpt lat="42.80564829507638" lon="12.914105111058046"><ele>449.75</ele><time>2026-04-12T14:50:39Z</time></trkpt><trkpt lat="42.8056211103299" lon="12.914305387056322"><ele>453.0</ele><time>2026-04-12T14:50:40Z</time></trkpt><trkpt lat="42.80556607920867" lon="12.91447799087546"><ele>458.5</ele><time>2026-04-12T14:50:41Z</time></trkpt><trkpt lat="42.80549053515663" lon="12.91464382326925"><ele>464.0</ele><time>2026-04-12T14:50:42Z</time></trkpt><trkpt lat="42.80540406760304" lon="12.914808735923277"><ele>469.5</ele><time>2026-04-12T14:50:43Z</time></trkpt><trkpt lat="42.80530054953579" lon="12.91496923466862"><ele>475.0</ele><time>2026-04-12T14:50:44Z</time></trkpt><trkpt lat="42.80520095147879" lon="12.915106185099601"><ele>474.4</ele><time>2026-04-12T14:50:45Z</time></trkpt><trkpt lat="42.80511523673951" lon="12.915222332893492"><ele>473.8</ele><time>2026-04-12T14:50:46Z</time></trkpt><trkpt lat="42.80503854760896" lon="12.915327171351606"><ele>473.20000000000005</ele><time>2026-04-12T14:50:47Z</time></trkpt><trkpt lat="42.80498873874434" lon="12.915427275549069"><ele>472.6</ele><time>2026-04-12T14:50:48Z</time></trkpt><trkpt lat="42.80493364815947" lon="12.915494366849614"><ele>472.0</ele><time>2026-04-12T14:50:49Z</time></trkpt><trkpt lat="42.80494548339084" lon="12.915596955100499"><ele>472.0</ele><time>2026-04-12T14:50:50Z</time></trkpt><trkpt lat="42.80497247705135" lon="12.915689361431648"><ele>472.00000000000006</ele><time>2026-04-12T14:50:51Z</time></trkpt><trkpt lat="42.80507269528137" lon="12.915703132430801"><ele>472.00000000000006</ele><time>2026-04-12T14:50:52Z</time></trkpt><trkpt lat="42.80516395309296" lon="12.915669942047916"><ele>472.0</ele><time>2026-04-12T14:50:53Z</time></trkpt><trkpt lat="42.80524709419795" lon="12.915583494369223"><ele>472.0</ele><time>2026-04-12T14:50:54Z</time></trkpt><trkpt lat="42.805325622514154" lon="12.915485772121631"><ele>472.75</ele><time>2026-04-12T14:50:55Z</time></trkpt><trkpt lat="42.80540634945428" lon="12.915372862988933"><ele>473.5</ele><time>2026-04-12T14:50:56Z</time></trkpt><trkpt lat="42.80549095105076" lon="12.915248405703649"><ele>474.25</ele><time>2026-04-12T14:50:57Z</time></trkpt><trkpt lat="42.80558269000439" lon="12.915114751783682"><ele>475.0</ele><time>2026-04-12T14:50:58Z</time></trkpt><trkpt lat="42.805691110585634" lon="12.91499996186561"><ele>475.0</ele><time>2026-04-12T14:50:59Z</time></trkpt><trkpt lat="42.80578247233626" lon="12.91487162779816"><ele>475.0</ele><time>2026-04-12T14:51:00Z</time></trkpt><trkpt lat="42.805879337727426" lon="12.914749722917053"><ele>475.0</ele><time>2026-04-12T14:51:01Z</time></trkpt><trkpt lat="42.80597753422258" lon="12.914639889035968"><ele>475.0</ele><time>2026-04-12T14:51:02Z</time></trkpt><trkpt lat="42.8060820096317" lon="12.914544385244273"><ele>475.75</ele><time>2026-04-12T14:51:03Z</time></trkpt><trkpt lat="42.80619532011723" lon="12.914495074170986"><ele>476.5</ele><time>2026-04-12T14:51:04Z</time></trkpt><trkpt lat="42.80630036517742" lon="12.914516134942193"><ele>477.25</ele><time>2026-04-12T14:51:05Z</time></trkpt><trkpt lat="42.80639669685577" lon="12.914602014346679"><ele>478.0</ele><time>2026-04-12T14:51:06Z</time></trkpt><trkpt lat="42.80649736749628" lon="12.914705823569793"><ele>478.00000000000006</ele><time>2026-04-12T14:51:07Z</time></trkpt><trkpt lat="42.80658594040303" lon="12.91480120212258"><ele>478.0</ele><time>2026-04-12T14:51:08Z</time></trkpt><trkpt lat="42.80665171412917" lon="12.91487854302926"><ele>478.0</ele><time>2026-04-12T14:51:09Z</time></trkpt><trkpt lat="42.80670784578151" lon="12.914955217435127"><ele>478.0</ele><time>2026-04-12T14:51:10Z</time></trkpt><trkpt lat="42.80675331087546" lon="12.915027585291721"><ele>478.00000000000006</ele><time>2026-04-12T14:51:11Z</time></trkpt><trkpt lat="42.80678592284582" lon="12.915106882231521"><ele>478.0</ele><time>2026-04-12T14:51:12Z</time></trkpt><trkpt lat="42.806782999372224" lon="12.915217099175125"><ele>478.0</ele><time>2026-04-12T14:51:14Z</time></trkpt><trkpt lat="42.80668233678339" lon="12.91523358761156"><ele>477.99999999999994</ele><time>2026-04-12T14:51:16Z</time></trkpt><trkpt lat="42.80664657300025" lon="12.915143248228063"><ele>477.99999999999994</ele><time>2026-04-12T14:51:17Z</time></trkpt><trkpt lat="42.80659227697154" lon="12.915031049687142"><ele>478.0</ele><time>2026-04-12T14:51:18Z</time></trkpt><trkpt lat="42.80651657613098" lon="12.914935246954894"><ele>478.0</ele><time>2026-04-12T14:51:19Z</time></trkpt><trkpt lat="42.806416870211315" lon="12.914891255880065"><ele>478.0</ele><time>2026-04-12T14:51:20Z</time></trkpt><trkpt lat="42.80630466009886" lon="12.914905204197922"><ele>478.0</ele><time>2026-04-12T14:51:21Z</time></trkpt><trkpt lat="42.80620062375422" lon="12.91497396544441"><ele>478.0</ele><time>2026-04-12T14:51:22Z</time></trkpt><trkpt lat="42.80610982721069" lon="12.915102725429733"><ele>478.0</ele><time>2026-04-12T14:51:23Z</time></trkpt><trkpt lat="42.80603432163095" lon="12.915269327022957"><ele>484.5</ele><time>2026-04-12T14:51:24Z</time></trkpt><trkpt lat="42.80596266265499" lon="12.91544003251095"><ele>491.0</ele><time>2026-04-12T14:51:25Z</time></trkpt><trkpt lat="42.805861205282675" lon="12.915587661068688"><ele>497.5</ele><time>2026-04-12T14:51:26Z</time></trkpt><trkpt lat="42.8057647890651" lon="12.915724683264688"><ele>504.0</ele><time>2026-04-12T14:51:27Z</time></trkpt><trkpt lat="42.805655247260255" lon="12.915866349858879"><ele>515.0</ele><time>2026-04-12T14:51:28Z</time></trkpt><trkpt lat="42.80554512611221" lon="12.916006957231527"><ele>526.0</ele><time>2026-04-12T14:51:29Z</time></trkpt><trkpt lat="42.80543158473506" lon="12.916156286505075"><ele>537.0</ele><time>2026-04-12T14:51:30Z</time></trkpt><trkpt lat="42.805322995559216" lon="12.916310380850788"><ele>537.0</ele><time>2026-04-12T14:51:31Z</time></trkpt><trkpt lat="42.80522300414383" lon="12.91648697880668"><ele>537.0</ele><time>2026-04-12T14:51:32Z</time></trkpt><trkpt lat="42.80511455734936" lon="12.91664236176525"><ele>537.0</ele><time>2026-04-12T14:51:33Z</time></trkpt><trkpt lat="42.805008096321785" lon="12.916801793896354"><ele>538.3333333333334</ele><time>2026-04-12T14:51:34Z</time></trkpt><trkpt lat="42.804899092262126" lon="12.916960418832026"><ele>539.6666666666667</ele><time>2026-04-12T14:51:35Z</time></trkpt><trkpt lat="42.80478575128902" lon="12.917121516270814"><ele>541.0</ele><time>2026-04-12T14:51:36Z</time></trkpt><trkpt lat="42.804674965956" lon="12.91727800388629"><ele>541.0</ele><time>2026-04-12T14:51:37Z</time></trkpt><trkpt lat="42.80457025797177" lon="12.917426226845985"><ele>541.0</ele><time>2026-04-12T14:51:38Z</time></trkpt><trkpt lat="42.804474092867814" lon="12.917561946887659"><ele>541.0</ele><time>2026-04-12T14:51:39Z</time></trkpt><trkpt lat="42.8043873766843" lon="12.917686617792633"><ele>541.0</ele><time>2026-04-12T14:51:40Z</time></trkpt><trkpt lat="42.80429190057491" lon="12.917787137838582"><ele>540.25</ele><time>2026-04-12T14:51:41Z</time></trkpt><trkpt lat="42.80420128611449" lon="12.917911060856639"><ele>539.5</ele><time>2026-04-12T14:51:42Z</time></trkpt><trkpt lat="42.80410954308069" lon="12.918025674094439"><ele>538.75</ele><time>2026-04-12T14:51:43Z</time></trkpt><trkpt lat="42.80402274409098" lon="12.918155519490302"><ele>538.0</ele><time>2026-04-12T14:51:44Z</time></trkpt><trkpt lat="42.80391723150743" lon="12.918261010938231"><ele>538.0</ele><time>2026-04-12T14:51:45Z</time></trkpt><trkpt lat="42.803810928007884" lon="12.918362956008576"><ele>538.0</ele><time>2026-04-12T14:51:46Z</time></trkpt><trkpt lat="42.80370879813294" lon="12.918463713070768"><ele>538.0</ele><time>2026-04-12T14:51:47Z</time></trkpt><trkpt lat="42.80359778117205" lon="12.918560848352776"><ele>538.0</ele><time>2026-04-12T14:51:48Z</time></trkpt><trkpt lat="42.80349116004187" lon="12.918669548118185"><ele>539.75</ele><time>2026-04-12T14:51:49Z</time></trkpt><trkpt lat="42.803384477600964" lon="12.918785338840925"><ele>541.5</ele><time>2026-04-12T14:51:50Z</time></trkpt><trkpt lat="42.803277759231065" lon="12.918907944013721"><ele>543.25</ele><time>2026-04-12T14:51:51Z</time></trkpt><trkpt lat="42.8031719325293" lon="12.919032170203907"><ele>545.0</ele><time>2026-04-12T14:51:52Z</time></trkpt><trkpt lat="42.80306579639652" lon="12.919164139649777"><ele>557.3333333333333</ele><time>2026-04-12T14:51:53Z</time></trkpt><trkpt lat="42.802947487689174" lon="12.919305714823786"><ele>569.6666666666666</ele><time>2026-04-12T14:51:54Z</time></trkpt><trkpt lat="42.8028238658013" lon="12.91947112938427"><ele>582.0</ele><time>2026-04-12T14:51:55Z</time></trkpt><trkpt lat="42.80269570631503" lon="12.919643016054115"><ele>581.0</ele><time>2026-04-12T14:51:56Z</time></trkpt><trkpt lat="42.802548752033076" lon="12.919843257525045"><ele>580.0</ele><time>2026-04-12T14:51:56.998Z</time></trkpt><trkpt lat="42.80239440954705" lon="12.920055519377009"><ele>579.0</ele><time>2026-04-12T14:51:57.998Z</time></trkpt><trkpt lat="42.80223699157277" lon="12.920273210362827"><ele>579.0</ele><time>2026-04-12T14:51:58.998Z</time></trkpt><trkpt lat="42.8020752408973" lon="12.920489521847793"><ele>579.0</ele><time>2026-04-12T14:51:59.998Z</time></trkpt><trkpt lat="42.80191917673099" lon="12.920683844066996"><ele>579.0</ele><time>2026-04-12T14:52:00.998Z</time></trkpt><trkpt lat="42.801762934942516" lon="12.92084990192551"><ele>580.6666666666666</ele><time>2026-04-12T14:52:01.998Z</time></trkpt><trkpt lat="42.801607051987645" lon="12.92098451301127"><ele>582.3333333333333</ele><time>2026-04-12T14:52:02.998Z</time></trkpt><trkpt lat="42.80144360071413" lon="12.921122514096679"><ele>584.0</ele><time>2026-04-12T14:52:03.998Z</time></trkpt><trkpt lat="42.80130882923592" lon="12.921289410644105"><ele>584.0</ele><time>2026-04-12T14:52:04.998Z</time></trkpt><trkpt lat="42.801186271831206" lon="12.921493778230955"><ele>584.0</ele><time>2026-04-12T14:52:05.998Z</time></trkpt><trkpt lat="42.8010640217559" lon="12.921710087437281"><ele>584.0</ele><time>2026-04-12T14:52:06.998Z</time></trkpt><trkpt lat="42.80094509656817" lon="12.921915413231646"><ele>582.3333333333333</ele><time>2026-04-12T14:52:07.998Z</time></trkpt><trkpt lat="42.80082840443611" lon="12.922118853553798"><ele>580.6666666666666</ele><time>2026-04-12T14:52:08.998Z</time></trkpt><trkpt lat="42.80072649845386" lon="12.92230171179469"><ele>579.0</ele><time>2026-04-12T14:52:09.998Z</time></trkpt><trkpt lat="42.800640158240945" lon="12.922470494228964"><ele>586.5</ele><time>2026-04-12T14:52:10.999Z</time></trkpt><trkpt lat="42.800557367715726" lon="12.922618180063962"><ele>594.0</ele><time>2026-04-12T14:52:11.999Z</time></trkpt><trkpt lat="42.8004622242188" lon="12.922748565704161"><ele>601.5</ele><time>2026-04-12T14:52:12.999Z</time></trkpt><trkpt lat="42.8003552215607" lon="12.922864879030168"><ele>609.0</ele><time>2026-04-12T14:52:13.999Z</time></trkpt><trkpt lat="42.800252334863366" lon="12.922983553202501"><ele>601.5</ele><time>2026-04-12T14:52:14.999Z</time></trkpt><trkpt lat="42.80016569021884" lon="12.923109506841461"><ele>594.0</ele><time>2026-04-12T14:52:15.999Z</time></trkpt><trkpt lat="42.800085331312324" lon="12.923238571205026"><ele>586.5</ele><time>2026-04-12T14:52:16.999Z</time></trkpt><trkpt lat="42.800011208156356" lon="12.923358257404058"><ele>579.0</ele><time>2026-04-12T14:52:17.999Z</time></trkpt><trkpt lat="42.799949150618986" lon="12.923458386548685"><ele>579.0</ele><time>2026-04-12T14:52:18.999Z</time></trkpt><trkpt lat="42.79990195504745" lon="12.92353778948005"><ele>579.0</ele><time>2026-04-12T14:52:19.999Z</time></trkpt><trkpt lat="42.79987929587401" lon="12.923621726621624"><ele>579.0</ele><time>2026-04-12T14:52:20.999Z</time></trkpt><trkpt lat="42.79987964820437" lon="12.923711812271042"><ele>579.0</ele><time>2026-04-12T14:52:21.999Z</time></trkpt><trkpt lat="42.79994416791972" lon="12.923788849751956"><ele>579.0</ele><time>2026-04-12T14:52:22.999Z</time></trkpt><trkpt lat="42.8000501499957" lon="12.92376191681173"><ele>579.0</ele><time>2026-04-12T14:52:23.999Z</time></trkpt><trkpt lat="42.80012894152759" lon="12.923638550840193"><ele>586.5</ele><time>2026-04-12T14:52:24.999Z</time></trkpt><trkpt lat="42.80021264034736" lon="12.92350858714763"><ele>594.0</ele><time>2026-04-12T14:52:25.999Z</time></trkpt><trkpt lat="42.800304512689436" lon="12.923368497807633"><ele>601.5</ele><time>2026-04-12T14:52:26.999Z</time></trkpt><trkpt lat="42.80042275942526" lon="12.923242292739465"><ele>609.0</ele><time>2026-04-12T14:52:27.999Z</time></trkpt><trkpt lat="42.800568356732164" lon="12.923184657486425"><ele>609.0</ele><time>2026-04-12T14:52:28.999Z</time></trkpt><trkpt lat="42.80068204800341" lon="12.923094796013068"><ele>609.0</ele><time>2026-04-12T14:52:29.999Z</time></trkpt><trkpt lat="42.80077776184859" lon="12.923032302523506"><ele>609.0</ele><time>2026-04-12T14:52:30.999Z</time></trkpt><trkpt lat="42.80084726570284" lon="12.92298897232957"><ele>609.0</ele><time>2026-04-12T14:52:31.999Z</time></trkpt><trkpt lat="42.80093100074442" lon="12.923074444342044"><ele>609.0</ele><time>2026-04-12T14:52:33.999Z</time></trkpt><trkpt lat="42.800914134660395" lon="12.923175920138643"><ele>609.0</ele><time>2026-04-12T14:52:34.999Z</time></trkpt><trkpt lat="42.80086020245095" lon="12.9232635966611"><ele>609.0</ele><time>2026-04-12T14:52:35.999Z</time></trkpt><trkpt lat="42.800755266851176" lon="12.923312356307877"><ele>609.0</ele><time>2026-04-12T14:52:36.999Z</time></trkpt><trkpt lat="42.80063151476907" lon="12.923365986436398"><ele>609.0</ele><time>2026-04-12T14:52:37.999Z</time></trkpt><trkpt lat="42.80051365718006" lon="12.92346306877341"><ele>615.5</ele><time>2026-04-12T14:52:38.999Z</time></trkpt><trkpt lat="42.80042624656722" lon="12.92359308805671"><ele>622.0</ele><time>2026-04-12T14:52:39.999Z</time></trkpt><trkpt lat="42.800377002653235" lon="12.923782489386253"><ele>628.5</ele><time>2026-04-12T14:52:40.999Z</time></trkpt><trkpt lat="42.80034765895179" lon="12.923970813180485"><ele>635.0</ele><time>2026-04-12T14:52:41.999Z</time></trkpt><trkpt lat="42.80034368981977" lon="12.924151064974183"><ele>636.0</ele><time>2026-04-12T14:52:42.999Z</time></trkpt><trkpt lat="42.80034482318091" lon="12.924333762069569"><ele>637.0</ele><time>2026-04-12T14:52:43.999Z</time></trkpt><trkpt lat="42.800348200067965" lon="12.924516349233558"><ele>638.0</ele><time>2026-04-12T14:52:44.999Z</time></trkpt><trkpt lat="42.800355824100556" lon="12.924701576575861"><ele>639.0</ele><time>2026-04-12T14:52:45.999Z</time></trkpt><trkpt lat="42.800371379502764" lon="12.92488533131903"><ele>639.0</ele><time>2026-04-12T14:52:46.999Z</time></trkpt><trkpt lat="42.80042100970904" lon="12.925053840312474"><ele>639.0</ele><time>2026-04-12T14:52:47.999Z</time></trkpt><trkpt lat="42.800490490373065" lon="12.925215382956335"><ele>639.0</ele><time>2026-04-12T14:52:48.999Z</time></trkpt><trkpt lat="42.800592244260955" lon="12.925357794664292"><ele>639.0</ele><time>2026-04-12T14:52:50Z</time></trkpt><trkpt lat="42.80070993514092" lon="12.925477853637975"><ele>644.6666666666666</ele><time>2026-04-12T14:52:51Z</time></trkpt><trkpt lat="42.800839506247634" lon="12.925581393754136"><ele>650.3333333333333</ele><time>2026-04-12T14:52:52Z</time></trkpt><trkpt lat="42.8009784515885" lon="12.92564835093617"><ele>656.0</ele><time>2026-04-12T14:52:53Z</time></trkpt><trkpt lat="42.801128632827094" lon="12.925714017421953"><ele>656.0</ele><time>2026-04-12T14:52:54Z</time></trkpt><trkpt lat="42.80124724664413" lon="12.925831204227007"><ele>656.0</ele><time>2026-04-12T14:52:55Z</time></trkpt><trkpt lat="42.80133291062199" lon="12.925964890902073"><ele>656.0</ele><time>2026-04-12T14:52:56Z</time></trkpt><trkpt lat="42.80137964972685" lon="12.926136522027953"><ele>656.0</ele><time>2026-04-12T14:52:57Z</time></trkpt><trkpt lat="42.801445337810996" lon="12.926305268004784"><ele>655.1999999999999</ele><time>2026-04-12T14:52:58Z</time></trkpt><trkpt lat="42.80150696250293" lon="12.926464648384345"><ele>654.4</ele><time>2026-04-12T14:52:59Z</time></trkpt><trkpt lat="42.80156835654171" lon="12.926641167614246"><ele>653.6</ele><time>2026-04-12T14:53:00Z</time></trkpt><trkpt lat="42.801625123016095" lon="12.92673583071005"><ele>652.8</ele><time>2026-04-12T14:53:01Z</time></trkpt><trkpt lat="42.80164484011584" lon="12.926843340402863"><ele>652.0</ele><time>2026-04-12T14:53:02Z</time></trkpt><trkpt lat="42.80160426129074" lon="12.926945072850717"><ele>652.0</ele><time>2026-04-12T14:53:03Z</time></trkpt><trkpt lat="42.80155551469767" lon="12.927026571982179"><ele>652.0</ele><time>2026-04-12T14:53:04Z</time></trkpt><trkpt lat="42.80145318512196" lon="12.927072707414041"><ele>652.0</ele><time>2026-04-12T14:53:05Z</time></trkpt><trkpt lat="42.801324850570445" lon="12.927015187246546"><ele>652.0</ele><time>2026-04-12T14:53:06Z</time></trkpt><trkpt lat="42.80118880031692" lon="12.926996411847714"><ele>652.0</ele><time>2026-04-12T14:53:07Z</time></trkpt><trkpt lat="42.801057728509335" lon="12.926974156920428"><ele>652.0</ele><time>2026-04-12T14:53:08Z</time></trkpt><trkpt lat="42.800922444912864" lon="12.926963580205982"><ele>652.0</ele><time>2026-04-12T14:53:09Z</time></trkpt><trkpt lat="42.80078093063682" lon="12.926970176504707"><ele>652.0</ele><time>2026-04-12T14:53:10Z</time></trkpt><trkpt lat="42.80064037066833" lon="12.927028225295103"><ele>650.6666666666667</ele><time>2026-04-12T14:53:11Z</time></trkpt><trkpt lat="42.80049033015177" lon="12.92708104585537"><ele>649.3333333333334</ele><time>2026-04-12T14:53:12Z</time></trkpt><trkpt lat="42.80033092279491" lon="12.927114397125253"><ele>648.0</ele><time>2026-04-12T14:53:13Z</time></trkpt><trkpt lat="42.80016482181538" lon="12.927142600418797"><ele>647.0</ele><time>2026-04-12T14:53:14Z</time></trkpt><trkpt lat="42.79999735641935" lon="12.92715047278347"><ele>646.0</ele><time>2026-04-12T14:53:15Z</time></trkpt><trkpt lat="42.7998327114944" lon="12.92713669442029"><ele>645.0</ele><time>2026-04-12T14:53:16Z</time></trkpt><trkpt lat="42.7996805573366" lon="12.927132264943301"><ele>645.0</ele><time>2026-04-12T14:53:17Z</time></trkpt><trkpt lat="42.79955164770182" lon="12.927184454937118"><ele>645.0</ele><time>2026-04-12T14:53:18Z</time></trkpt><trkpt lat="42.79942724134295" lon="12.927203710015947"><ele>645.0</ele><time>2026-04-12T14:53:19Z</time></trkpt><trkpt lat="42.79931570381214" lon="12.927197019519252"><ele>645.0</ele><time>2026-04-12T14:53:20Z</time></trkpt><trkpt lat="42.79920135531954" lon="12.92714723241005"><ele>646.25</ele><time>2026-04-12T14:53:21Z</time></trkpt><trkpt lat="42.79909547443767" lon="12.927034817704843"><ele>647.5</ele><time>2026-04-12T14:53:22Z</time></trkpt><trkpt lat="42.79898767450979" lon="12.92689770498877"><ele>648.75</ele><time>2026-04-12T14:53:23Z</time></trkpt><trkpt lat="42.79885876583857" lon="12.926788594126888"><ele>650.0</ele><time>2026-04-12T14:53:24Z</time></trkpt><trkpt lat="42.798712504697896" lon="12.9267010529159"><ele>644.3333333333333</ele><time>2026-04-12T14:53:25Z</time></trkpt><trkpt lat="42.79854510591006" lon="12.926653504756615"><ele>638.6666666666666</ele><time>2026-04-12T14:53:26Z</time></trkpt><trkpt lat="42.79836443007446" lon="12.926611749974972"><ele>633.0</ele><time>2026-04-12T14:53:27Z</time></trkpt><trkpt lat="42.79819220830254" lon="12.926580034550481"><ele>633.0</ele><time>2026-04-12T14:53:28Z</time></trkpt><trkpt lat="42.79803205817998" lon="12.926559475108887"><ele>633.0</ele><time>2026-04-12T14:53:29Z</time></trkpt><trkpt lat="42.79788573204007" lon="12.926573748082093"><ele>633.0</ele><time>2026-04-12T14:53:30Z</time></trkpt><trkpt lat="42.79776475540399" lon="12.926648108626857"><ele>633.0</ele><time>2026-04-12T14:53:31Z</time></trkpt><trkpt lat="42.7976577044645" lon="12.926778628768291"><ele>637.0</ele><time>2026-04-12T14:53:32Z</time></trkpt><trkpt lat="42.79756394591575" lon="12.926944885857885"><ele>641.0</ele><time>2026-04-12T14:53:33Z</time></trkpt><trkpt lat="42.79744393869407" lon="12.927095896279031"><ele>645.0</ele><time>2026-04-12T14:53:34Z</time></trkpt><trkpt lat="42.797315242981696" lon="12.927259536390505"><ele>645.0</ele><time>2026-04-12T14:53:35Z</time></trkpt><trkpt lat="42.79722428281793" lon="12.927441164981554"><ele>645.0</ele><time>2026-04-12T14:53:36Z</time></trkpt><trkpt lat="42.79713523278824" lon="12.927607556969775"><ele>645.0</ele><time>2026-04-12T14:53:37Z</time></trkpt><trkpt lat="42.79704866470349" lon="12.927756143071663"><ele>647.0</ele><time>2026-04-12T14:53:38Z</time></trkpt><trkpt lat="42.79697826425683" lon="12.927893643921527"><ele>649.0</ele><time>2026-04-12T14:53:39Z</time></trkpt><trkpt lat="42.796910651354274" lon="12.92800902020314"><ele>651.0</ele><time>2026-04-12T14:53:40Z</time></trkpt><trkpt lat="42.796842337888016" lon="12.928087778678947"><ele>653.0</ele><time>2026-04-12T14:53:41Z</time></trkpt><trkpt lat="42.79677761222008" lon="12.928142223162533"><ele>655.0</ele><time>2026-04-12T14:53:42Z</time></trkpt><trkpt lat="42.79671725806231" lon="12.928175828034693"><ele>655.0</ele><time>2026-04-12T14:53:43Z</time></trkpt><trkpt lat="42.79663502736437" lon="12.928124496382878"><ele>655.0</ele><time>2026-04-12T14:53:44Z</time></trkpt><trkpt lat="42.79656480316971" lon="12.92808088025878"><ele>655.0</ele><time>2026-04-12T14:53:45Z</time></trkpt><trkpt lat="42.79649490937502" lon="12.928049318509247"><ele>655.0</ele><time>2026-04-12T14:53:47Z</time></trkpt><trkpt lat="42.79649443342827" lon="12.92759594041677"><ele>647.0</ele><time>2026-04-12T14:53:48Z</time></trkpt><trkpt lat="42.79642286466833" lon="12.927434571323591"><ele>639.0</ele><time>2026-04-12T14:53:49Z</time></trkpt><trkpt lat="42.79632919862757" lon="12.92725429632898"><ele>631.0</ele><time>2026-04-12T14:53:50Z</time></trkpt><trkpt lat="42.79624318500558" lon="12.927056483259717"><ele>631.0</ele><time>2026-04-12T14:53:51Z</time></trkpt><trkpt lat="42.7961674466245" lon="12.926839178273827"><ele>631.0</ele><time>2026-04-12T14:53:52Z</time></trkpt><trkpt lat="42.79608897122821" lon="12.926629288858013"><ele>631.0</ele><time>2026-04-12T14:53:53Z</time></trkpt><trkpt lat="42.79598448344547" lon="12.926435272311851"><ele>640.3333333333334</ele><time>2026-04-12T14:53:54Z</time></trkpt><trkpt lat="42.795865773204426" lon="12.926254689985198"><ele>649.6666666666666</ele><time>2026-04-12T14:53:55Z</time></trkpt><trkpt lat="42.79576306695418" lon="12.926075531447164"><ele>659.0</ele><time>2026-04-12T14:53:56Z</time></trkpt><trkpt lat="42.79568063644531" lon="12.925914861355285"><ele>651.5</ele><time>2026-04-12T14:53:57Z</time></trkpt><trkpt lat="42.79560272848767" lon="12.925781425222885"><ele>644.0</ele><time>2026-04-12T14:53:58Z</time></trkpt><trkpt lat="42.79551898455171" lon="12.925678116645702"><ele>636.5</ele><time>2026-04-12T14:53:59Z</time></trkpt><trkpt lat="42.79541806250805" lon="12.925613486532889"><ele>629.0</ele><time>2026-04-12T14:54:00Z</time></trkpt><trkpt lat="42.795293539437495" lon="12.925600343269624"><ele>635.6666666666666</ele><time>2026-04-12T14:54:01Z</time></trkpt><trkpt lat="42.795147468590216" lon="12.925635439181471"><ele>642.3333333333334</ele><time>2026-04-12T14:54:02Z</time></trkpt><trkpt lat="42.79500273425406" lon="12.925690336619839"><ele>649.0</ele><time>2026-04-12T14:54:02.999Z</time></trkpt><trkpt lat="42.79485257292317" lon="12.925752976314204"><ele>649.0</ele><time>2026-04-12T14:54:03.999Z</time></trkpt><trkpt lat="42.794700022509716" lon="12.925822007180408"><ele>649.0</ele><time>2026-04-12T14:54:04.999Z</time></trkpt><trkpt lat="42.794544893569125" lon="12.925888236147724"><ele>649.0</ele><time>2026-04-12T14:54:05.999Z</time></trkpt><trkpt lat="42.79438902053384" lon="12.92596026251625"><ele>659.6666666666667</ele><time>2026-04-12T14:54:06.999Z</time></trkpt><trkpt lat="42.79423545412643" lon="12.92603296739236"><ele>670.3333333333334</ele><time>2026-04-12T14:54:07.999Z</time></trkpt><trkpt lat="42.79407462686318" lon="12.926109613182962"><ele>681.0</ele><time>2026-04-12T14:54:08.999Z</time></trkpt><trkpt lat="42.793923675844255" lon="12.926185666812561"><ele>681.0</ele><time>2026-04-12T14:54:09.999Z</time></trkpt><trkpt lat="42.7937694745578" lon="12.926268271979806"><ele>681.0</ele><time>2026-04-12T14:54:10.999Z</time></trkpt><trkpt lat="42.79361237425908" lon="12.92633206317972"><ele>681.0</ele><time>2026-04-12T14:54:11.999Z</time></trkpt><trkpt lat="42.79346367829044" lon="12.926397888392435"><ele>676.0</ele><time>2026-04-12T14:54:12.999Z</time></trkpt><trkpt lat="42.793319626407666" lon="12.926464824565787"><ele>671.0</ele><time>2026-04-12T14:54:13.999Z</time></trkpt><trkpt lat="42.79318069976733" lon="12.926538256279365"><ele>666.0</ele><time>2026-04-12T14:54:14.999Z</time></trkpt><trkpt lat="42.79303701421412" lon="12.926624151996332"><ele>666.0</ele><time>2026-04-12T14:54:15.999Z</time></trkpt><trkpt lat="42.79289444260966" lon="12.926717425846462"><ele>666.0</ele><time>2026-04-12T14:54:16.999Z</time></trkpt><trkpt lat="42.792750457663175" lon="12.92681699703928"><ele>666.0</ele><time>2026-04-12T14:54:17.999Z</time></trkpt><trkpt lat="42.7926045311224" lon="12.92692825579026"><ele>672.3333333333334</ele><time>2026-04-12T14:54:18.999Z</time></trkpt><trkpt lat="42.79245606948025" lon="12.927040456748172"><ele>678.6666666666667</ele><time>2026-04-12T14:54:19.999Z</time></trkpt><trkpt lat="42.792303019319895" lon="12.927157046142847"><ele>685.0</ele><time>2026-04-12T14:54:20.999Z</time></trkpt><trkpt lat="42.792143185832174" lon="12.927276708311913"><ele>685.0</ele><time>2026-04-12T14:54:21.999Z</time></trkpt><trkpt lat="42.791977424478006" lon="12.92739681852111"><ele>685.0</ele><time>2026-04-12T14:54:22.999Z</time></trkpt><trkpt lat="42.79181687480054" lon="12.927509505920368"><ele>685.0</ele><time>2026-04-12T14:54:23.999Z</time></trkpt><trkpt lat="42.79166113341358" lon="12.92762613232549"><ele>692.0</ele><time>2026-04-12T14:54:24.999Z</time></trkpt><trkpt lat="42.791507191836196" lon="12.927730449624992"><ele>699.0</ele><time>2026-04-12T14:54:25.999Z</time></trkpt><trkpt lat="42.79135108660932" lon="12.927841771272172"><ele>706.0</ele><time>2026-04-12T14:54:26.999Z</time></trkpt><trkpt lat="42.79119445038595" lon="12.92795267702827"><ele>706.0</ele><time>2026-04-12T14:54:27.999Z</time></trkpt><trkpt lat="42.791043238986404" lon="12.928055471631037"><ele>706.0</ele><time>2026-04-12T14:54:28.999Z</time></trkpt><trkpt lat="42.79089053534331" lon="12.928159256156095"><ele>706.0</ele><time>2026-04-12T14:54:29.999Z</time></trkpt><trkpt lat="42.790742744306755" lon="12.928257920783775"><ele>699.0</ele><time>2026-04-12T14:54:31Z</time></trkpt><trkpt lat="42.79059727888645" lon="12.928359413225653"><ele>692.0</ele><time>2026-04-12T14:54:32Z</time></trkpt><trkpt lat="42.79045478637639" lon="12.928468015498373"><ele>685.0</ele><time>2026-04-12T14:54:33Z</time></trkpt><trkpt lat="42.790315170802074" lon="12.928589227078433"><ele>691.6666666666667</ele><time>2026-04-12T14:54:34Z</time></trkpt><trkpt lat="42.79017070654186" lon="12.928708550621119"><ele>698.3333333333334</ele><time>2026-04-12T14:54:35Z</time></trkpt><trkpt lat="42.79002237055785" lon="12.928817683560561"><ele>705.0</ele><time>2026-04-12T14:54:36Z</time></trkpt><trkpt lat="42.78986307361255" lon="12.92889610965186"><ele>705.0</ele><time>2026-04-12T14:54:37Z</time></trkpt><trkpt lat="42.789698402939614" lon="12.928974574374719"><ele>705.0</ele><time>2026-04-12T14:54:38Z</time></trkpt><trkpt lat="42.789528761546244" lon="12.929068199770528"><ele>705.0</ele><time>2026-04-12T14:54:39Z</time></trkpt><trkpt lat="42.78935917927296" lon="12.92916697461996"><ele>714.6666666666666</ele><time>2026-04-12T14:54:40Z</time></trkpt><trkpt lat="42.78918916246602" lon="12.92926280738977"><ele>724.3333333333333</ele><time>2026-04-12T14:54:41Z</time></trkpt><trkpt lat="42.78901283598098" lon="12.929363432774243"><ele>734.0</ele><time>2026-04-12T14:54:42Z</time></trkpt><trkpt lat="42.788834691447654" lon="12.92946726792101"><ele>734.0</ele><time>2026-04-12T14:54:43Z</time></trkpt><trkpt lat="42.788643872324535" lon="12.929553435674565"><ele>734.0</ele><time>2026-04-12T14:54:44Z</time></trkpt><trkpt lat="42.788466784147886" lon="12.929682983078639"><ele>734.0</ele><time>2026-04-12T14:54:45Z</time></trkpt><trkpt lat="42.78827862754053" lon="12.929761471641047"><ele>727.0</ele><time>2026-04-12T14:54:46Z</time></trkpt><trkpt lat="42.78809531972439" lon="12.92984667842822"><ele>720.0</ele><time>2026-04-12T14:54:47Z</time></trkpt><trkpt lat="42.78791234624332" lon="12.929926760397969"><ele>713.0</ele><time>2026-04-12T14:54:48Z</time></trkpt><trkpt lat="42.78773072794807" lon="12.929986162464264"><ele>710.6666666666666</ele><time>2026-04-12T14:54:49Z</time></trkpt><trkpt lat="42.787548646831226" lon="12.93003012693336"><ele>708.3333333333334</ele><time>2026-04-12T14:54:50Z</time></trkpt><trkpt lat="42.78736370124628" lon="12.930065323868499"><ele>706.0</ele><time>2026-04-12T14:54:51Z</time></trkpt><trkpt lat="42.78717783658944" lon="12.93011258450638"><ele>719.3333333333334</ele><time>2026-04-12T14:54:52Z</time></trkpt><trkpt lat="42.78699490461388" lon="12.930102475331365"><ele>732.6666666666666</ele><time>2026-04-12T14:54:53Z</time></trkpt><trkpt lat="42.78681536617109" lon="12.93010433405836"><ele>746.0</ele><time>2026-04-12T14:54:54Z</time></trkpt><trkpt lat="42.7866307428926" lon="12.930127194257835"><ele>746.0</ele><time>2026-04-12T14:54:55Z</time></trkpt><trkpt lat="42.786452869336486" lon="12.93012224263544"><ele>746.0</ele><time>2026-04-12T14:54:56Z</time></trkpt><trkpt lat="42.7862710123412" lon="12.930128511861314"><ele>746.0</ele><time>2026-04-12T14:54:57Z</time></trkpt><trkpt lat="42.786088446174816" lon="12.930143483561695"><ele>743.3333333333333</ele><time>2026-04-12T14:54:58Z</time></trkpt><trkpt lat="42.78591129552597" lon="12.9301898971679"><ele>740.6666666666666</ele><time>2026-04-12T14:54:59Z</time></trkpt><trkpt lat="42.78574002302672" lon="12.930283503484727"><ele>738.0</ele><time>2026-04-12T14:55:00Z</time></trkpt><trkpt lat="42.78556994154144" lon="12.930416613137618"><ele>738.0</ele><time>2026-04-12T14:55:01Z</time></trkpt><trkpt lat="42.78537190816149" lon="12.930527607100833"><ele>738.0</ele><time>2026-04-12T14:55:02Z</time></trkpt><trkpt lat="42.78515418904912" lon="12.930617347728125"><ele>738.0</ele><time>2026-04-12T14:55:03Z</time></trkpt><trkpt lat="42.78492594184078" lon="12.930703201216765"><ele>734.5</ele><time>2026-04-12T14:55:04Z</time></trkpt><trkpt lat="42.78471088991453" lon="12.930831283944617"><ele>731.0</ele><time>2026-04-12T14:55:05Z</time></trkpt><trkpt lat="42.78448423624967" lon="12.93094890510863"><ele>742.5</ele><time>2026-04-12T14:55:06Z</time></trkpt><trkpt lat="42.78426214334196" lon="12.931072728718833"><ele>754.0</ele><time>2026-04-12T14:55:07Z</time></trkpt><trkpt lat="42.78402573341929" lon="12.931178413729326"><ele>754.0</ele><time>2026-04-12T14:55:08Z</time></trkpt><trkpt lat="42.78379681882324" lon="12.931301822191628"><ele>754.0</ele><time>2026-04-12T14:55:09Z</time></trkpt><trkpt lat="42.783571761802605" lon="12.931428088761017"><ele>749.0</ele><time>2026-04-12T14:55:10Z</time></trkpt><trkpt lat="42.78335903033385" lon="12.931547440998099"><ele>744.0</ele><time>2026-04-12T14:55:11Z</time></trkpt><trkpt lat="42.78315634350771" lon="12.931680016640415"><ele>748.0</ele><time>2026-04-12T14:55:12Z</time></trkpt><trkpt lat="42.78296239051033" lon="12.931778893112272"><ele>752.0</ele><time>2026-04-12T14:55:13Z</time></trkpt><trkpt lat="42.782787154590864" lon="12.93186974306263"><ele>756.0</ele><time>2026-04-12T14:55:14Z</time></trkpt><trkpt lat="42.782618536699935" lon="12.93195995347888"><ele>756.0</ele><time>2026-04-12T14:55:15Z</time></trkpt><trkpt lat="42.78249383424731" lon="12.9320720158986"><ele>756.0</ele><time>2026-04-12T14:55:16Z</time></trkpt><trkpt lat="42.78239234593316" lon="12.932220522045704"><ele>756.0</ele><time>2026-04-12T14:55:17Z</time></trkpt><trkpt lat="42.78230510920767" lon="12.932406665739258"><ele>766.0</ele><time>2026-04-12T14:55:18Z</time></trkpt><trkpt lat="42.782212247739224" lon="12.932597274438335"><ele>776.0</ele><time>2026-04-12T14:55:19Z</time></trkpt><trkpt lat="42.78209368185702" lon="12.932749386576635"><ele>786.0</ele><time>2026-04-12T14:55:20Z</time></trkpt><trkpt lat="42.78198081019762" lon="12.932906612200526"><ele>786.0</ele><time>2026-04-12T14:55:21Z</time></trkpt><trkpt lat="42.78187604640015" lon="12.933056024108938"><ele>786.0</ele><time>2026-04-12T14:55:22Z</time></trkpt><trkpt lat="42.78178570888186" lon="12.933202960704072"><ele>786.0</ele><time>2026-04-12T14:55:23Z</time></trkpt><trkpt lat="42.781697513334436" lon="12.933339518080837"><ele>786.0</ele><time>2026-04-12T14:55:24Z</time></trkpt><trkpt lat="42.781615085259425" lon="12.933445635362627"><ele>788.0</ele><time>2026-04-12T14:55:25Z</time></trkpt><trkpt lat="42.78153637603168" lon="12.93349610705427"><ele>790.0</ele><time>2026-04-12T14:55:26Z</time></trkpt><trkpt lat="42.78145518353776" lon="12.933450515272614"><ele>792.0</ele><time>2026-04-12T14:55:27Z</time></trkpt><trkpt lat="42.78136986195407" lon="12.933343589769072"><ele>794.0</ele><time>2026-04-12T14:55:28Z</time></trkpt><trkpt lat="42.78125350108378" lon="12.933233366487306"><ele>796.0</ele><time>2026-04-12T14:55:29Z</time></trkpt><trkpt lat="42.7811504528848" lon="12.933074837742598"><ele>793.25</ele><time>2026-04-12T14:55:30Z</time></trkpt><trkpt lat="42.781044875946876" lon="12.932922817856058"><ele>790.5</ele><time>2026-04-12T14:55:31Z</time></trkpt><trkpt lat="42.78095639442921" lon="12.932794723435201"><ele>787.75</ele><time>2026-04-12T14:55:32Z</time></trkpt><trkpt lat="42.78084175413289" lon="12.93269467649361"><ele>785.0</ele><time>2026-04-12T14:55:33Z</time></trkpt><trkpt lat="42.78069078559309" lon="12.93264450149223"><ele>785.0</ele><time>2026-04-12T14:55:34Z</time></trkpt><trkpt lat="42.780532705134426" lon="12.932640578155926"><ele>785.0</ele><time>2026-04-12T14:55:35Z</time></trkpt><trkpt lat="42.78036680108054" lon="12.932665949503477"><ele>785.0</ele><time>2026-04-12T14:55:36Z</time></trkpt><trkpt lat="42.78020404615508" lon="12.932701822184312"><ele>786.3333333333334</ele><time>2026-04-12T14:55:37Z</time></trkpt><trkpt lat="42.78003400986308" lon="12.932760747832436"><ele>787.6666666666667</ele><time>2026-04-12T14:55:38Z</time></trkpt><trkpt lat="42.77984910846674" lon="12.932835597896885"><ele>789.0</ele><time>2026-04-12T14:55:39Z</time></trkpt><trkpt lat="42.77966128428728" lon="12.932934879988895"><ele>789.0</ele><time>2026-04-12T14:55:40Z</time></trkpt><trkpt lat="42.77946999214746" lon="12.93301643943503"><ele>789.0</ele><time>2026-04-12T14:55:41Z</time></trkpt><trkpt lat="42.77925890096775" lon="12.933078838523775"><ele>789.0</ele><time>2026-04-12T14:55:42Z</time></trkpt><trkpt lat="42.77904439044929" lon="12.933140539807649"><ele>785.0</ele><time>2026-04-12T14:55:43Z</time></trkpt><trkpt lat="42.778838820762104" lon="12.933219066111839"><ele>781.0</ele><time>2026-04-12T14:55:44Z</time></trkpt><trkpt lat="42.77865064740268" lon="12.933277202127956"><ele>777.0</ele><time>2026-04-12T14:55:45Z</time></trkpt><trkpt lat="42.77847404111635" lon="12.933341461504005"><ele>783.6666666666667</ele><time>2026-04-12T14:55:46Z</time></trkpt><trkpt lat="42.77831133515744" lon="12.933410839260219"><ele>790.3333333333334</ele><time>2026-04-12T14:55:47Z</time></trkpt><trkpt lat="42.778157507412004" lon="12.933489777009521"><ele>797.0</ele><time>2026-04-12T14:55:48.001Z</time></trkpt><trkpt lat="42.7780123107096" lon="12.933584998278397"><ele>797.0</ele><time>2026-04-12T14:55:49.001Z</time></trkpt><trkpt lat="42.77786036988105" lon="12.933695160214938"><ele>797.0</ele><time>2026-04-12T14:55:50.001Z</time></trkpt><trkpt lat="42.777719350246706" lon="12.933826718418317"><ele>797.0</ele><time>2026-04-12T14:55:51.001Z</time></trkpt><trkpt lat="42.77758339972316" lon="12.93396427883171"><ele>798.6666666666667</ele><time>2026-04-12T14:55:52.001Z</time></trkpt><trkpt lat="42.77744968212811" lon="12.934097433730294"><ele>800.3333333333333</ele><time>2026-04-12T14:55:53.001Z</time></trkpt><trkpt lat="42.77730504872697" lon="12.934227935541731"><ele>802.0</ele><time>2026-04-12T14:55:54.001Z</time></trkpt><trkpt lat="42.77716213192668" lon="12.934360630803582"><ele>802.0</ele><time>2026-04-12T14:55:55.001Z</time></trkpt><trkpt lat="42.77701898898931" lon="12.93450414430625"><ele>802.0</ele><time>2026-04-12T14:55:56.001Z</time></trkpt><trkpt lat="42.77687784804866" lon="12.934647173472458"><ele>802.0</ele><time>2026-04-12T14:55:57.001Z</time></trkpt><trkpt lat="42.77673284925941" lon="12.934780304876512"><ele>804.0</ele><time>2026-04-12T14:55:58.001Z</time></trkpt><trkpt lat="42.7765817753293" lon="12.934906843294335"><ele>806.0</ele><time>2026-04-12T14:55:59.001Z</time></trkpt><trkpt lat="42.776424222955505" lon="12.93502306609235"><ele>808.0</ele><time>2026-04-12T14:56:00.001Z</time></trkpt><trkpt lat="42.77626017304585" lon="12.935121980070333"><ele>808.0</ele><time>2026-04-12T14:56:01.001Z</time></trkpt><trkpt lat="42.77608329040255" lon="12.93519355906575"><ele>808.0</ele><time>2026-04-12T14:56:02.001Z</time></trkpt><trkpt lat="42.77590787280406" lon="12.935232610702602"><ele>808.0</ele><time>2026-04-12T14:56:03.001Z</time></trkpt><trkpt lat="42.775743347578235" lon="12.935231441133368"><ele>804.6666666666666</ele><time>2026-04-12T14:56:04.001Z</time></trkpt><trkpt lat="42.7755808501038" lon="12.93519875860016"><ele>801.3333333333333</ele><time>2026-04-12T14:56:05.001Z</time></trkpt><trkpt lat="42.7754264213495" lon="12.935152762955175"><ele>798.0</ele><time>2026-04-12T14:56:06.001Z</time></trkpt><trkpt lat="42.775270423132675" lon="12.935123434721847"><ele>797.6666666666667</ele><time>2026-04-12T14:56:07.001Z</time></trkpt><trkpt lat="42.77510071069457" lon="12.935128258610115"><ele>797.3333333333334</ele><time>2026-04-12T14:56:08.001Z</time></trkpt><trkpt lat="42.77493525033339" lon="12.935149059744697"><ele>797.0</ele><time>2026-04-12T14:56:08.999Z</time></trkpt><trkpt lat="42.774769493590235" lon="12.93516426874989"><ele>797.0</ele><time>2026-04-12T14:56:09.999Z</time></trkpt><trkpt lat="42.77461958712598" lon="12.935190062618675"><ele>797.0</ele><time>2026-04-12T14:56:10.999Z</time></trkpt><trkpt lat="42.77448425763764" lon="12.935249563371968"><ele>797.0</ele><time>2026-04-12T14:56:11.999Z</time></trkpt><trkpt lat="42.774363557643476" lon="12.935362632541983"><ele>797.0</ele><time>2026-04-12T14:56:12.999Z</time></trkpt><trkpt lat="42.7742539777014" lon="12.935522246403389"><ele>797.0</ele><time>2026-04-12T14:56:13.999Z</time></trkpt><trkpt lat="42.77414661112245" lon="12.935703853315305"><ele>797.0</ele><time>2026-04-12T14:56:14.999Z</time></trkpt><trkpt lat="42.77403101959994" lon="12.935873865122739"><ele>797.0</ele><time>2026-04-12T14:56:15.999Z</time></trkpt><trkpt lat="42.773908020963326" lon="12.936029857019705"><ele>797.0</ele><time>2026-04-12T14:56:16.999Z</time></trkpt><trkpt lat="42.77377383409271" lon="12.936193589388076"><ele>797.0</ele><time>2026-04-12T14:56:17.999Z</time></trkpt><trkpt lat="42.77363992567398" lon="12.936350412975349"><ele>797.0</ele><time>2026-04-12T14:56:18.999Z</time></trkpt><trkpt lat="42.7734991040192" lon="12.936502853896148"><ele>793.3333333333334</ele><time>2026-04-12T14:56:19.999Z</time></trkpt><trkpt lat="42.773350369337315" lon="12.936656804348686"><ele>789.6666666666667</ele><time>2026-04-12T14:56:20.999Z</time></trkpt><trkpt lat="42.77320502446687" lon="12.936797225415164"><ele>786.0</ele><time>2026-04-12T14:56:21.999Z</time></trkpt><trkpt lat="42.77306681404107" lon="12.936927123546782"><ele>786.0</ele><time>2026-04-12T14:56:22.999Z</time></trkpt><trkpt lat="42.772927517768096" lon="12.937033099321162"><ele>786.0</ele><time>2026-04-12T14:56:24Z</time></trkpt><trkpt lat="42.77278139825384" lon="12.937111637806844"><ele>786.0</ele><time>2026-04-12T14:56:25Z</time></trkpt><trkpt lat="42.77263945873597" lon="12.937160874880938"><ele>782.0</ele><time>2026-04-12T14:56:26Z</time></trkpt><trkpt lat="42.77250093117086" lon="12.937200341373488"><ele>778.0</ele><time>2026-04-12T14:56:27Z</time></trkpt><trkpt lat="42.77237191933436" lon="12.937233543368292"><ele>774.0</ele><time>2026-04-12T14:56:28Z</time></trkpt><trkpt lat="42.77225477912078" lon="12.937268164796794"><ele>770.0</ele><time>2026-04-12T14:56:29Z</time></trkpt><trkpt lat="42.77214316294203" lon="12.937311267921038"><ele>770.0</ele><time>2026-04-12T14:56:30Z</time></trkpt><trkpt lat="42.772044601689934" lon="12.937365774973202"><ele>770.0</ele><time>2026-04-12T14:56:31Z</time></trkpt><trkpt lat="42.77195362761878" lon="12.937446783029529"><ele>770.0</ele><time>2026-04-12T14:56:32Z</time></trkpt><trkpt lat="42.77187388242926" lon="12.937544604324659"><ele>770.0</ele><time>2026-04-12T14:56:33Z</time></trkpt><trkpt lat="42.7717995242779" lon="12.937666614697779"><ele>770.0</ele><time>2026-04-12T14:56:34Z</time></trkpt><trkpt lat="42.7717112990711" lon="12.937786535666222"><ele>769.25</ele><time>2026-04-12T14:56:35Z</time></trkpt><trkpt lat="42.77162937425112" lon="12.937928793938982"><ele>768.5</ele><time>2026-04-12T14:56:36Z</time></trkpt><trkpt lat="42.77154512152109" lon="12.938076731762836"><ele>767.75</ele><time>2026-04-12T14:56:37Z</time></trkpt><trkpt lat="42.771461886220614" lon="12.938222883103052"><ele>767.0</ele><time>2026-04-12T14:56:38Z</time></trkpt><trkpt lat="42.77138752799794" lon="12.938386858081666"><ele>769.0</ele><time>2026-04-12T14:56:39Z</time></trkpt><trkpt lat="42.77130100046766" lon="12.938525153133483"><ele>771.0</ele><time>2026-04-12T14:56:40Z</time></trkpt><trkpt lat="42.7712314066701" lon="12.93864517760182"><ele>773.0</ele><time>2026-04-12T14:56:41Z</time></trkpt><trkpt lat="42.771175551786136" lon="12.938727203637814"><ele>775.0</ele><time>2026-04-12T14:56:42Z</time></trkpt><trkpt lat="42.77112965369296" lon="12.938795018539366"><ele>777.0</ele><time>2026-04-12T14:56:43Z</time></trkpt><trkpt lat="42.77106541188242" lon="12.938897986200638"><ele>777.0</ele><time>2026-04-12T14:56:45Z</time></trkpt><trkpt lat="42.77102458422472" lon="12.93896985911878"><ele>777.0</ele><time>2026-04-12T14:56:47Z</time></trkpt><trkpt lat="42.77097722132436" lon="12.939036100617646"><ele>777.0</ele><time>2026-04-12T14:56:51Z</time></trkpt><trkpt lat="42.770923103198314" lon="12.939120900874835"><ele>777.0</ele><time>2026-04-12T14:56:59Z</time></trkpt><trkpt lat="42.77097391541153" lon="12.939243351962064"><ele>777.0</ele><time>2026-04-12T14:57:00Z</time></trkpt><trkpt lat="42.77096550129605" lon="12.939340570280441"><ele>777.0</ele><time>2026-04-12T14:57:03Z</time></trkpt><trkpt lat="42.770926751530425" lon="12.939430123400388"><ele>776.8333333333334</ele><time>2026-04-12T14:57:07Z</time></trkpt><trkpt lat="42.77088294626066" lon="12.939517252510555"><ele>776.6666666666667</ele><time>2026-04-12T14:57:11Z</time></trkpt><trkpt lat="42.77084291283669" lon="12.939607144607175"><ele>776.5</ele><time>2026-04-12T14:57:15Z</time></trkpt><trkpt lat="42.77079779487756" lon="12.939691642813319"><ele>776.3333333333334</ele><time>2026-04-12T14:57:18Z</time></trkpt><trkpt lat="42.770753721171594" lon="12.939784518833688"><ele>776.1666666666667</ele><time>2026-04-12T14:57:21Z</time></trkpt><trkpt lat="42.77072047990524" lon="12.939882413913724"><ele>776.0</ele><time>2026-04-12T14:57:24.001Z</time></trkpt><trkpt lat="42.770682815954565" lon="12.939959904227443"><ele>776.0000000000001</ele><time>2026-04-12T14:57:26.001Z</time></trkpt><trkpt lat="42.770647062213904" lon="12.94003183959853"><ele>776.0</ele><time>2026-04-12T14:57:28.001Z</time></trkpt><trkpt lat="42.770598914370346" lon="12.94010905424426"><ele>776.0</ele><time>2026-04-12T14:58:44Z</time></trkpt><trkpt lat="42.77053116790179" lon="12.940189490540424"><ele>776.0</ele><time>2026-04-12T14:58:46Z</time></trkpt><trkpt lat="42.7704810680007" lon="12.940260753365063"><ele>776.0000000000001</ele><time>2026-04-12T14:58:47Z</time></trkpt><trkpt lat="42.77043363996295" lon="12.940340276053172"><ele>776.0</ele><time>2026-04-12T14:58:48Z</time></trkpt><trkpt lat="42.770382039165206" lon="12.94044083496677"><ele>779.1999999999999</ele><time>2026-04-12T14:58:49Z</time></trkpt><trkpt lat="42.770340623151235" lon="12.940562413289404"><ele>782.4</ele><time>2026-04-12T14:58:50Z</time></trkpt><trkpt lat="42.77031316193443" lon="12.940701343560823"><ele>785.6</ele><time>2026-04-12T14:58:51Z</time></trkpt><trkpt lat="42.770271837607304" lon="12.940828884052571"><ele>788.8</ele><time>2026-04-12T14:58:52Z</time></trkpt><trkpt lat="42.77023511122041" lon="12.940952789601818"><ele>792.0</ele><time>2026-04-12T14:58:53Z</time></trkpt><trkpt lat="42.77017802914094" lon="12.941059102881928"><ele>792.0</ele><time>2026-04-12T14:58:54Z</time></trkpt><trkpt lat="42.770104579960645" lon="12.941126028745655"><ele>792.0</ele><time>2026-04-12T14:58:55Z</time></trkpt><trkpt lat="42.770027984421" lon="12.941174667919446"><ele>792.0</ele><time>2026-04-12T14:58:56.001Z</time></trkpt><trkpt lat="42.769933493734804" lon="12.941208007176881"><ele>792.0</ele><time>2026-04-12T14:58:57.001Z</time></trkpt><trkpt lat="42.76984121950284" lon="12.941269213574776"><ele>792.0</ele><time>2026-04-12T14:58:58.001Z</time></trkpt><trkpt lat="42.769749913721036" lon="12.941319128543771"><ele>792.0</ele><time>2026-04-12T14:58:59.001Z</time></trkpt><trkpt lat="42.76966477701472" lon="12.941377328672734"><ele>792.0</ele><time>2026-04-12T14:59:00.001Z</time></trkpt><trkpt lat="42.76957862645074" lon="12.941460924964247"><ele>792.0</ele><time>2026-04-12T14:59:01.001Z</time></trkpt><trkpt lat="42.76948938598094" lon="12.941537454518723"><ele>792.0</ele><time>2026-04-12T14:59:02.001Z</time></trkpt><trkpt lat="42.76939781495808" lon="12.941611257994555"><ele>792.0</ele><time>2026-04-12T14:59:03.001Z</time></trkpt><trkpt lat="42.7692945335691" lon="12.941681493117901"><ele>799.75</ele><time>2026-04-12T14:59:04.001Z</time></trkpt><trkpt lat="42.769191431384606" lon="12.941757751514613"><ele>807.5</ele><time>2026-04-12T14:59:05.001Z</time></trkpt><trkpt lat="42.76906889501025" lon="12.94183670832043"><ele>815.25</ele><time>2026-04-12T14:59:06.001Z</time></trkpt><trkpt lat="42.768933382170786" lon="12.941906183719897"><ele>823.0</ele><time>2026-04-12T14:59:07.001Z</time></trkpt><trkpt lat="42.76876979870789" lon="12.941936635586128"><ele>823.0</ele><time>2026-04-12T14:59:08.001Z</time></trkpt><trkpt lat="42.76858220536162" lon="12.941989005920279"><ele>823.0</ele><time>2026-04-12T14:59:09.001Z</time></trkpt><trkpt lat="42.768436285424166" lon="12.942000292629848"><ele>823.0</ele><time>2026-04-12T14:59:10.001Z</time></trkpt><trkpt lat="42.76830986133874" lon="12.94201300021825"><ele>823.75</ele><time>2026-04-12T14:59:11.001Z</time></trkpt><trkpt lat="42.76820997794538" lon="12.942080394947851"><ele>824.5</ele><time>2026-04-12T14:59:12.001Z</time></trkpt><trkpt lat="42.768110857999595" lon="12.942175090498923"><ele>825.25</ele><time>2026-04-12T14:59:13.001Z</time></trkpt><trkpt lat="42.76801234410637" lon="12.942290685350956"><ele>826.0</ele><time>2026-04-12T14:59:14.001Z</time></trkpt><trkpt lat="42.76789149232413" lon="12.942406329062969"><ele>826.0</ele><time>2026-04-12T14:59:15.001Z</time></trkpt><trkpt lat="42.76777681689701" lon="12.942525556074656"><ele>826.0</ele><time>2026-04-12T14:59:16.001Z</time></trkpt><trkpt lat="42.767670831413724" lon="12.942649269509559"><ele>826.0</ele><time>2026-04-12T14:59:17.001Z</time></trkpt><trkpt lat="42.76757368181341" lon="12.942766899204146"><ele>826.0</ele><time>2026-04-12T14:59:18.001Z</time></trkpt><trkpt lat="42.767480238055015" lon="12.942871386871584"><ele>830.5</ele><time>2026-04-12T14:59:19.001Z</time></trkpt><trkpt lat="42.767368268994794" lon="12.942973243614345"><ele>835.0</ele><time>2026-04-12T14:59:20.001Z</time></trkpt><trkpt lat="42.76725212283401" lon="12.943021932121995"><ele>839.5</ele><time>2026-04-12T14:59:21.001Z</time></trkpt><trkpt lat="42.76713730297847" lon="12.943071535414786"><ele>844.0</ele><time>2026-04-12T14:59:22.001Z</time></trkpt><trkpt lat="42.76702727603152" lon="12.943133741269847"><ele>844.0</ele><time>2026-04-12T14:59:23.001Z</time></trkpt><trkpt lat="42.76691070270441" lon="12.943165681720023"><ele>844.0</ele><time>2026-04-12T14:59:24.001Z</time></trkpt><trkpt lat="42.76680012425291" lon="12.943198641333769"><ele>844.0</ele><time>2026-04-12T14:59:25.001Z</time></trkpt><trkpt lat="42.766694107732214" lon="12.943256916040454"><ele>844.0</ele><time>2026-04-12T14:59:26.001Z</time></trkpt><trkpt lat="42.76659758151905" lon="12.94334222043228"><ele>847.0</ele><time>2026-04-12T14:59:27.001Z</time></trkpt><trkpt lat="42.76649538733974" lon="12.943449380225605"><ele>850.0</ele><time>2026-04-12T14:59:28.001Z</time></trkpt><trkpt lat="42.76640577920553" lon="12.9435494761438"><ele>853.0</ele><time>2026-04-12T14:59:29.001Z</time></trkpt><trkpt lat="42.76632311023821" lon="12.943679809976091"><ele>856.0</ele><time>2026-04-12T14:59:30.001Z</time></trkpt><trkpt lat="42.76628211844951" lon="12.943828777583553"><ele>856.0</ele><time>2026-04-12T14:59:31.001Z</time></trkpt><trkpt lat="42.766239723179865" lon="12.94399310892241"><ele>856.0</ele><time>2026-04-12T14:59:32.001Z</time></trkpt><trkpt lat="42.76620838329298" lon="12.944146594578218"><ele>856.0</ele><time>2026-04-12T14:59:33.001Z</time></trkpt><trkpt lat="42.76616983468776" lon="12.944324208643701"><ele>856.0</ele><time>2026-04-12T14:59:34.001Z</time></trkpt><trkpt lat="42.76612876847601" lon="12.944497122413633"><ele>857.5</ele><time>2026-04-12T14:59:35.001Z</time></trkpt><trkpt lat="42.76608323383779" lon="12.944689321052259"><ele>859.0</ele><time>2026-04-12T14:59:36.001Z</time></trkpt><trkpt lat="42.766028657184414" lon="12.944870392907715"><ele>860.5</ele><time>2026-04-12T14:59:37.001Z</time></trkpt><trkpt lat="42.76598375683124" lon="12.945063962642001"><ele>862.0</ele><time>2026-04-12T14:59:38.001Z</time></trkpt><trkpt lat="42.76595394741002" lon="12.945262102976095"><ele>862.0</ele><time>2026-04-12T14:59:39.001Z</time></trkpt><trkpt lat="42.76594804717943" lon="12.945459370533225"><ele>862.0</ele><time>2026-04-12T14:59:40.001Z</time></trkpt><trkpt lat="42.76595949395371" lon="12.945657613106361"><ele>862.0</ele><time>2026-04-12T14:59:41.001Z</time></trkpt><trkpt lat="42.765975108182765" lon="12.945848140150662"><ele>862.0</ele><time>2026-04-12T14:59:42.001Z</time></trkpt><trkpt lat="42.765975966976555" lon="12.946052192381215"><ele>865.0</ele><time>2026-04-12T14:59:43.001Z</time></trkpt><trkpt lat="42.76593178325491" lon="12.94624276173051"><ele>868.0</ele><time>2026-04-12T14:59:44.001Z</time></trkpt><trkpt lat="42.76589004887419" lon="12.94643453860782"><ele>871.0</ele><time>2026-04-12T14:59:45.001Z</time></trkpt><trkpt lat="42.765830979879524" lon="12.946623150893675"><ele>874.0</ele><time>2026-04-12T14:59:46.001Z</time></trkpt><trkpt lat="42.76575495840983" lon="12.946794811509847"><ele>878.3333333333333</ele><time>2026-04-12T14:59:47.001Z</time></trkpt><trkpt lat="42.76567456010816" lon="12.946975511220375"><ele>882.6666666666667</ele><time>2026-04-12T14:59:48.001Z</time></trkpt><trkpt lat="42.76559478445268" lon="12.94717141716969"><ele>887.0</ele><time>2026-04-12T14:59:49.001Z</time></trkpt><trkpt lat="42.765525757537574" lon="12.947368421377377"><ele>891.0</ele><time>2026-04-12T14:59:50.001Z</time></trkpt><trkpt lat="42.76546291319533" lon="12.947591136550434"><ele>895.0</ele><time>2026-04-12T14:59:51.001Z</time></trkpt><trkpt lat="42.76538495577342" lon="12.947811463322994"><ele>899.0</ele><time>2026-04-12T14:59:52.001Z</time></trkpt><trkpt lat="42.76527838276601" lon="12.948002391639529"><ele>894.6666666666667</ele><time>2026-04-12T14:59:53.001Z</time></trkpt><trkpt lat="42.76519176276667" lon="12.948188807181877"><ele>890.3333333333333</ele><time>2026-04-12T14:59:54.001Z</time></trkpt><trkpt lat="42.76513325085676" lon="12.948409010724134"><ele>886.0</ele><time>2026-04-12T14:59:55.001Z</time></trkpt><trkpt lat="42.765079680328824" lon="12.948643355956246"><ele>886.0</ele><time>2026-04-12T14:59:56.001Z</time></trkpt><trkpt lat="42.76500962148137" lon="12.948846614575091"><ele>886.0</ele><time>2026-04-12T14:59:57.001Z</time></trkpt><trkpt lat="42.76493040309549" lon="12.949052921438316"><ele>886.0</ele><time>2026-04-12T14:59:58.001Z</time></trkpt><trkpt lat="42.764853146095035" lon="12.949270482418461"><ele>890.3333333333333</ele><time>2026-04-12T14:59:59.001Z</time></trkpt><trkpt lat="42.764771664064654" lon="12.949457794719928"><ele>894.6666666666667</ele><time>2026-04-12T15:00:00.001Z</time></trkpt><trkpt lat="42.76468882204955" lon="12.949652597717584"><ele>899.0</ele><time>2026-04-12T15:00:01.001Z</time></trkpt><trkpt lat="42.76462546488324" lon="12.949851882952858"><ele>904.3333333333334</ele><time>2026-04-12T15:00:02.001Z</time></trkpt><trkpt lat="42.7645638918586" lon="12.95006128312524"><ele>909.6666666666667</ele><time>2026-04-12T15:00:03.001Z</time></trkpt><trkpt lat="42.76449780797975" lon="12.950261785224747"><ele>915.0</ele><time>2026-04-12T15:00:04.001Z</time></trkpt><trkpt lat="42.764421387619535" lon="12.95045967644501"><ele>911.5</ele><time>2026-04-12T15:00:05.001Z</time></trkpt><trkpt lat="42.76435700990384" lon="12.950655284105236"><ele>908.0</ele><time>2026-04-12T15:00:06.001Z</time></trkpt><trkpt lat="42.76426650916167" lon="12.95081287462894"><ele>904.5</ele><time>2026-04-12T15:00:07.001Z</time></trkpt><trkpt lat="42.76418757527648" lon="12.950959393445732"><ele>901.0</ele><time>2026-04-12T15:00:08.001Z</time></trkpt><trkpt lat="42.764091665745674" lon="12.951092355931829"><ele>901.0</ele><time>2026-04-12T15:00:09.001Z</time></trkpt><trkpt lat="42.76398874571821" lon="12.951220738918328"><ele>901.0</ele><time>2026-04-12T15:00:10.001Z</time></trkpt><trkpt lat="42.76389395753629" lon="12.95136529401072"><ele>901.0</ele><time>2026-04-12T15:00:11.001Z</time></trkpt><trkpt lat="42.763796870568804" lon="12.951502385610059"><ele>901.0</ele><time>2026-04-12T15:00:12.001Z</time></trkpt><trkpt lat="42.76371266613815" lon="12.95165315278622"><ele>901.25</ele><time>2026-04-12T15:00:13.001Z</time></trkpt><trkpt lat="42.76363663850401" lon="12.951810099282998"><ele>901.5</ele><time>2026-04-12T15:00:14.001Z</time></trkpt><trkpt lat="42.76356858801632" lon="12.95199198948223"><ele>901.75</ele><time>2026-04-12T15:00:15.001Z</time></trkpt><trkpt lat="42.76349269846889" lon="12.952163028673006"><ele>902.0</ele><time>2026-04-12T15:00:16.001Z</time></trkpt><trkpt lat="42.763414293764534" lon="12.952312799353848"><ele>902.0</ele><time>2026-04-12T15:00:17.001Z</time></trkpt><trkpt lat="42.76331960890924" lon="12.952447577838525"><ele>902.0</ele><time>2026-04-12T15:00:18.001Z</time></trkpt><trkpt lat="42.763247968344594" lon="12.952576314559213"><ele>902.0</ele><time>2026-04-12T15:00:19.001Z</time></trkpt><trkpt lat="42.7631889461862" lon="12.95268237624354"><ele>902.0</ele><time>2026-04-12T15:00:20.001Z</time></trkpt><trkpt lat="42.76323477114834" lon="12.952866874675706"><ele>903.8</ele><time>2026-04-12T15:00:21Z</time></trkpt><trkpt lat="42.763173297249686" lon="12.952980913637237"><ele>905.6</ele><time>2026-04-12T15:00:23Z</time></trkpt><trkpt lat="42.763062851551545" lon="12.952956396976981"><ele>907.3999999999999</ele><time>2026-04-12T15:00:25Z</time></trkpt><trkpt lat="42.76302999221402" lon="12.952867379099008"><ele>909.1999999999999</ele><time>2026-04-12T15:00:26Z</time></trkpt><trkpt lat="42.76301340966297" lon="12.952753471177992"><ele>911.0</ele><time>2026-04-12T15:00:27Z</time></trkpt><trkpt lat="42.763002772963425" lon="12.952628572153955"><ele>909.5000000000001</ele><time>2026-04-12T15:00:28Z</time></trkpt><trkpt lat="42.762987466769154" lon="12.952517411948998"><ele>908.0</ele><time>2026-04-12T15:00:29Z</time></trkpt><trkpt lat="42.762972992115856" lon="12.952410425563256"><ele>906.5</ele><time>2026-04-12T15:00:30Z</time></trkpt><trkpt lat="42.76295616331978" lon="12.952307758629379"><ele>905.0</ele><time>2026-04-12T15:00:31Z</time></trkpt><trkpt lat="42.762927298333786" lon="12.952231026936616"><ele>903.5000000000001</ele><time>2026-04-12T15:00:32Z</time></trkpt><trkpt lat="42.76281729463367" lon="12.952249838878112"><ele>902.0</ele><time>2026-04-12T15:00:34Z</time></trkpt><trkpt lat="42.762780727921196" lon="12.952327909154894"><ele>902.0000000000001</ele><time>2026-04-12T15:00:35Z</time></trkpt><trkpt lat="42.76276559008649" lon="12.952414467567221"><ele>902.0</ele><time>2026-04-12T15:00:36Z</time></trkpt><trkpt lat="42.76274985020945" lon="12.952510247772667"><ele>902.0</ele><time>2026-04-12T15:00:37Z</time></trkpt><trkpt lat="42.762732683696925" lon="12.9526163729347"><ele>902.0</ele><time>2026-04-12T15:00:38Z</time></trkpt><trkpt lat="42.762705309674125" lon="12.95274027027667"><ele>902.0000000000001</ele><time>2026-04-12T15:00:39Z</time></trkpt><trkpt lat="42.76267669281146" lon="12.952870949571325"><ele>902.0</ele><time>2026-04-12T15:00:40Z</time></trkpt><trkpt lat="42.76264295463974" lon="12.953003960693863"><ele>905.75</ele><time>2026-04-12T15:00:41Z</time></trkpt><trkpt lat="42.76260555067237" lon="12.953152155760037"><ele>909.5</ele><time>2026-04-12T15:00:42Z</time></trkpt><trkpt lat="42.76255641956258" lon="12.953291894557614"><ele>913.25</ele><time>2026-04-12T15:00:43Z</time></trkpt><trkpt lat="42.76250256417154" lon="12.953422024860831"><ele>917.0</ele><time>2026-04-12T15:00:44Z</time></trkpt><trkpt lat="42.762433917869785" lon="12.95356668171406"><ele>917.0</ele><time>2026-04-12T15:00:45Z</time></trkpt><trkpt lat="42.76235559106374" lon="12.953732510945358"><ele>917.0</ele><time>2026-04-12T15:00:46Z</time></trkpt><trkpt lat="42.76226000393067" lon="12.953938789828209"><ele>917.0</ele><time>2026-04-12T15:00:47Z</time></trkpt><trkpt lat="42.76218706384314" lon="12.954181632417516"><ele>918.6666666666667</ele><time>2026-04-12T15:00:48Z</time></trkpt><trkpt lat="42.76210065035382" lon="12.954414255162284"><ele>920.3333333333333</ele><time>2026-04-12T15:00:49Z</time></trkpt><trkpt lat="42.76200991622895" lon="12.954594018269619"><ele>922.0</ele><time>2026-04-12T15:00:50Z</time></trkpt><trkpt lat="42.761940197026576" lon="12.954757450269376"><ele>922.0</ele><time>2026-04-12T15:00:51Z</time></trkpt><trkpt lat="42.76188432402201" lon="12.954939436830868"><ele>922.0</ele><time>2026-04-12T15:00:52Z</time></trkpt><trkpt lat="42.76184204613278" lon="12.955129716624809"><ele>922.0</ele><time>2026-04-12T15:00:53Z</time></trkpt><trkpt lat="42.76179776157675" lon="12.955327314112617"><ele>922.0</ele><time>2026-04-12T15:00:54Z</time></trkpt><trkpt lat="42.76174724244604" lon="12.955516893042311"><ele>928.5</ele><time>2026-04-12T15:00:55Z</time></trkpt><trkpt lat="42.761698575291376" lon="12.955687262381488"><ele>935.0</ele><time>2026-04-12T15:00:56Z</time></trkpt><trkpt lat="42.76164407302757" lon="12.955860610985724"><ele>941.5</ele><time>2026-04-12T15:00:57Z</time></trkpt><trkpt lat="42.76158814937708" lon="12.956028016660959"><ele>948.0</ele><time>2026-04-12T15:00:58Z</time></trkpt><trkpt lat="42.761532451127465" lon="12.956189428119778"><ele>948.0</ele><time>2026-04-12T15:00:59Z</time></trkpt><trkpt lat="42.76148462754299" lon="12.95633813068736"><ele>948.0</ele><time>2026-04-12T15:01:00Z</time></trkpt><trkpt lat="42.761449151721834" lon="12.95647513255004"><ele>948.0</ele><time>2026-04-12T15:01:01Z</time></trkpt><trkpt lat="42.76141778844644" lon="12.956610348379849"><ele>948.0</ele><time>2026-04-12T15:01:02Z</time></trkpt><trkpt lat="42.76137932501441" lon="12.956761245888817"><ele>948.0</ele><time>2026-04-12T15:01:03Z</time></trkpt><trkpt lat="42.76135282415533" lon="12.956901791393555"><ele>951.5</ele><time>2026-04-12T15:01:04Z</time></trkpt><trkpt lat="42.76132776457205" lon="12.957044217678627"><ele>955.0</ele><time>2026-04-12T15:01:05.001Z</time></trkpt><trkpt lat="42.76129572121783" lon="12.957192567203036"><ele>958.5</ele><time>2026-04-12T15:01:06.001Z</time></trkpt><trkpt lat="42.7612667145687" lon="12.95733776879311"><ele>962.0</ele><time>2026-04-12T15:01:07.001Z</time></trkpt><trkpt lat="42.761225981054594" lon="12.957507737558172"><ele>965.0</ele><time>2026-04-12T15:01:08.001Z</time></trkpt><trkpt lat="42.76117259829776" lon="12.957661208818065"><ele>968.0</ele><time>2026-04-12T15:01:09.001Z</time></trkpt><trkpt lat="42.76109013570939" lon="12.957789065984883"><ele>971.0</ele><time>2026-04-12T15:01:10.001Z</time></trkpt><trkpt lat="42.76098201688776" lon="12.95787233381229"><ele>974.0</ele><time>2026-04-12T15:01:11.001Z</time></trkpt><trkpt lat="42.76086421496556" lon="12.95792475547433"><ele>974.0</ele><time>2026-04-12T15:01:12.001Z</time></trkpt><trkpt lat="42.76073862974859" lon="12.958028736778743"><ele>974.0</ele><time>2026-04-12T15:01:13.001Z</time></trkpt><trkpt lat="42.76061785942284" lon="12.958144730470739"><ele>974.0</ele><time>2026-04-12T15:01:14.001Z</time></trkpt><trkpt lat="42.760505283655675" lon="12.958280839118045"><ele>974.0</ele><time>2026-04-12T15:01:15.001Z</time></trkpt><trkpt lat="42.760386519449106" lon="12.958411552152285"><ele>978.3333333333334</ele><time>2026-04-12T15:01:16.001Z</time></trkpt><trkpt lat="42.76026125786947" lon="12.958543647176311"><ele>982.6666666666667</ele><time>2026-04-12T15:01:17.001Z</time></trkpt><trkpt lat="42.76013622060969" lon="12.958681582202283"><ele>987.0</ele><time>2026-04-12T15:01:18.001Z</time></trkpt><trkpt lat="42.76001207605161" lon="12.958838723426457"><ele>988.0</ele><time>2026-04-12T15:01:19.001Z</time></trkpt><trkpt lat="42.75990782039487" lon="12.9590006315659"><ele>989.0</ele><time>2026-04-12T15:01:20.001Z</time></trkpt><trkpt lat="42.75981063825459" lon="12.959181168603957"><ele>990.0</ele><time>2026-04-12T15:01:21.001Z</time></trkpt><trkpt lat="42.75972342606319" lon="12.959360429628699"><ele>992.0</ele><time>2026-04-12T15:01:22.001Z</time></trkpt><trkpt lat="42.75962661057563" lon="12.959533821969844"><ele>994.0</ele><time>2026-04-12T15:01:23.001Z</time></trkpt><trkpt lat="42.75951886787166" lon="12.959703010195755"><ele>996.0</ele><time>2026-04-12T15:01:24.001Z</time></trkpt><trkpt lat="42.75939752736147" lon="12.959849280343606"><ele>997.6666666666667</ele><time>2026-04-12T15:01:25.001Z</time></trkpt><trkpt lat="42.75927261404551" lon="12.959995653367752"><ele>999.3333333333334</ele><time>2026-04-12T15:01:26.001Z</time></trkpt><trkpt lat="42.7591414950838" lon="12.960158140632034"><ele>1001.0</ele><time>2026-04-12T15:01:27.001Z</time></trkpt><trkpt lat="42.75900335995792" lon="12.960343664174019"><ele>1001.0</ele><time>2026-04-12T15:01:28.001Z</time></trkpt><trkpt lat="42.75886450794456" lon="12.960540184340907"><ele>1001.0</ele><time>2026-04-12T15:01:29.001Z</time></trkpt><trkpt lat="42.7587322663837" lon="12.960764705287716"><ele>1001.0</ele><time>2026-04-12T15:01:30.001Z</time></trkpt><trkpt lat="42.758611115772254" lon="12.9609867621932"><ele>1003.6666666666667</ele><time>2026-04-12T15:01:31.001Z</time></trkpt><trkpt lat="42.75849464540577" lon="12.961225489761222"><ele>1006.3333333333333</ele><time>2026-04-12T15:01:32.001Z</time></trkpt><trkpt lat="42.75838704790277" lon="12.961456950596743"><ele>1009.0</ele><time>2026-04-12T15:01:33.001Z</time></trkpt><trkpt lat="42.75827777214785" lon="12.961695250228447"><ele>1008.0</ele><time>2026-04-12T15:01:34.001Z</time></trkpt><trkpt lat="42.75816458905814" lon="12.96192579685025"><ele>1007.0</ele><time>2026-04-12T15:01:35.001Z</time></trkpt><trkpt lat="42.75805732776434" lon="12.962151113825854"><ele>1006.0</ele><time>2026-04-12T15:01:36.001Z</time></trkpt><trkpt lat="42.75795312984962" lon="12.96237441844536"><ele>1007.6666666666666</ele><time>2026-04-12T15:01:37.001Z</time></trkpt><trkpt lat="42.75784249785828" lon="12.962600497809227"><ele>1009.3333333333333</ele><time>2026-04-12T15:01:38.001Z</time></trkpt><trkpt lat="42.757741347199776" lon="12.962795594759154"><ele>1011.0</ele><time>2026-04-12T15:01:39.001Z</time></trkpt><trkpt lat="42.75763762600951" lon="12.962982506677728"><ele>1011.0</ele><time>2026-04-12T15:01:40.001Z</time></trkpt><trkpt lat="42.75751828493498" lon="12.963190080943253"><ele>1011.0</ele><time>2026-04-12T15:01:41.001Z</time></trkpt><trkpt lat="42.757405068530026" lon="12.963392750930518"><ele>1011.0</ele><time>2026-04-12T15:01:42.001Z</time></trkpt><trkpt lat="42.75728869849791" lon="12.963576123597157"><ele>1009.6666666666667</ele><time>2026-04-12T15:01:43.001Z</time></trkpt><trkpt lat="42.75717657799453" lon="12.963760381425733"><ele>1008.3333333333334</ele><time>2026-04-12T15:01:44.001Z</time></trkpt><trkpt lat="42.75706461491744" lon="12.963949972216726"><ele>1007.0</ele><time>2026-04-12T15:01:45.001Z</time></trkpt><trkpt lat="42.75696710650447" lon="12.964121688572087"><ele>1007.0</ele><time>2026-04-12T15:01:46.001Z</time></trkpt><trkpt lat="42.756874460542036" lon="12.964291022480708"><ele>1007.0</ele><time>2026-04-12T15:01:47.001Z</time></trkpt><trkpt lat="42.75676910361251" lon="12.964478405984579"><ele>1007.0</ele><time>2026-04-12T15:01:48.001Z</time></trkpt><trkpt lat="42.75668601000141" lon="12.964636188699464"><ele>1007.0</ele><time>2026-04-12T15:01:49.001Z</time></trkpt><trkpt lat="42.756585453053404" lon="12.964799650401398"><ele>1007.0</ele><time>2026-04-12T15:01:50.001Z</time></trkpt><trkpt lat="42.756484947667" lon="12.964968674973361"><ele>1007.0</ele><time>2026-04-12T15:01:51.001Z</time></trkpt><trkpt lat="42.75636736943174" lon="12.965140481030645"><ele>1005.3333333333334</ele><time>2026-04-12T15:01:52.001Z</time></trkpt><trkpt lat="42.756275855537815" lon="12.965328574521244"><ele>1003.6666666666667</ele><time>2026-04-12T15:01:53.001Z</time></trkpt><trkpt lat="42.75618095753755" lon="12.965511435868835"><ele>1002.0</ele><time>2026-04-12T15:01:54.001Z</time></trkpt><trkpt lat="42.756052474733984" lon="12.965668080046795"><ele>1001.0</ele><time>2026-04-12T15:01:55.001Z</time></trkpt><trkpt lat="42.75595334824932" lon="12.965844071404636"><ele>1000.0</ele><time>2026-04-12T15:01:56.001Z</time></trkpt><trkpt lat="42.75586182403018" lon="12.96600937534083"><ele>999.0</ele><time>2026-04-12T15:01:57.001Z</time></trkpt><trkpt lat="42.75577379275477" lon="12.966170174404102"><ele>999.0</ele><time>2026-04-12T15:01:58.001Z</time></trkpt><trkpt lat="42.755689416634716" lon="12.966336545912123"><ele>999.0</ele><time>2026-04-12T15:01:59.001Z</time></trkpt><trkpt lat="42.7556227366368" lon="12.966506973900081"><ele>999.0</ele><time>2026-04-12T15:02:00.001Z</time></trkpt><trkpt lat="42.75554078410375" lon="12.966675675498948"><ele>999.0</ele><time>2026-04-12T15:02:01.001Z</time></trkpt><trkpt lat="42.75544307072955" lon="12.966832636931176"><ele>998.0</ele><time>2026-04-12T15:02:02.001Z</time></trkpt><trkpt lat="42.75535762240342" lon="12.967010454914398"><ele>997.0</ele><time>2026-04-12T15:02:03.001Z</time></trkpt><trkpt lat="42.75527576351515" lon="12.967191933765639"><ele>996.0</ele><time>2026-04-12T15:02:04.001Z</time></trkpt><trkpt lat="42.75519656675141" lon="12.967384760221378"><ele>994.5</ele><time>2026-04-12T15:02:05.001Z</time></trkpt><trkpt lat="42.755131801399386" lon="12.967557296306707"><ele>993.0</ele><time>2026-04-12T15:02:06.001Z</time></trkpt><trkpt lat="42.75506676820562" lon="12.967731601929028"><ele>991.5</ele><time>2026-04-12T15:02:07.001Z</time></trkpt><trkpt lat="42.75500333668522" lon="12.967906986087872"><ele>990.0</ele><time>2026-04-12T15:02:08.001Z</time></trkpt><trkpt lat="42.75494944979246" lon="12.968087023130527"><ele>990.0</ele><time>2026-04-12T15:02:09.001Z</time></trkpt><trkpt lat="42.75487807922987" lon="12.96822085773575"><ele>990.0</ele><time>2026-04-12T15:02:10.001Z</time></trkpt><trkpt lat="42.754799481475395" lon="12.968378870228678"><ele>990.0</ele><time>2026-04-12T15:02:11.001Z</time></trkpt><trkpt lat="42.75471100298346" lon="12.968549778632166"><ele>990.0</ele><time>2026-04-12T15:02:12.001Z</time></trkpt><trkpt lat="42.754628387478945" lon="12.96871393209382"><ele>989.8</ele><time>2026-04-12T15:02:13.001Z</time></trkpt><trkpt lat="42.75454954323603" lon="12.968840611609346"><ele>989.6</ele><time>2026-04-12T15:02:14.001Z</time></trkpt><trkpt lat="42.75451484947421" lon="12.968962792694233"><ele>989.4000000000001</ele><time>2026-04-12T15:02:15.001Z</time></trkpt><trkpt lat="42.75447991139176" lon="12.969062874355183"><ele>989.2</ele><time>2026-04-12T15:02:16.001Z</time></trkpt><trkpt lat="42.7544205307776" lon="12.96921799356201"><ele>989.0</ele><time>2026-04-12T15:02:18.001Z</time></trkpt><trkpt lat="42.75439563326166" lon="12.969299624646066"><ele>988.0</ele><time>2026-04-12T15:02:19.001Z</time></trkpt><trkpt lat="42.75436477416672" lon="12.969378452306803"><ele>986.9999999999999</ele><time>2026-04-12T15:02:20.001Z</time></trkpt><trkpt lat="42.75433954455062" lon="12.969463933602809"><ele>986.0</ele><time>2026-04-12T15:02:21.001Z</time></trkpt><trkpt lat="42.754311332356714" lon="12.969554061368552"><ele>985.0</ele><time>2026-04-12T15:02:22.001Z</time></trkpt><trkpt lat="42.75426320883424" lon="12.969691678537052"><ele>983.9999999999999</ele><time>2026-04-12T15:02:24.001Z</time></trkpt><trkpt lat="42.7542340931808" lon="12.969769742891142"><ele>983.0</ele><time>2026-04-12T15:02:25.001Z</time></trkpt><trkpt lat="42.75420091281865" lon="12.969848257084502"><ele>982.0</ele><time>2026-04-12T15:02:26.001Z</time></trkpt><trkpt lat="42.754160771380775" lon="12.969922703614445"><ele>981.9999999999999</ele><time>2026-04-12T15:02:27Z</time></trkpt><trkpt lat="42.754120684923315" lon="12.969999126637521"><ele>982.0</ele><time>2026-04-12T15:02:28Z</time></trkpt><trkpt lat="42.75408002661738" lon="12.970081515508305"><ele>982.0</ele><time>2026-04-12T15:02:29Z</time></trkpt><trkpt lat="42.754015300146555" lon="12.97020969144588"><ele>982.0</ele><time>2026-04-12T15:02:31Z</time></trkpt><trkpt lat="42.7539673937268" lon="12.97029707637594"><ele>981.9999999999999</ele><time>2026-04-12T15:02:33Z</time></trkpt><trkpt lat="42.75391576183005" lon="12.97038081978965"><ele>982.0</ele><time>2026-04-12T15:02:52Z</time></trkpt><trkpt lat="42.75386223152591" lon="12.97049619851723"><ele>981.0</ele><time>2026-04-12T15:02:55Z</time></trkpt><trkpt lat="42.7539294461738" lon="12.970487269378522"><ele>980.0</ele><time>2026-04-12T15:03:02Z</time></trkpt><trkpt lat="42.75393210116198" lon="12.97034844428637"><ele>979.0</ele><time>2026-04-12T15:03:04Z</time></trkpt><trkpt lat="42.75399715622032" lon="12.970336132239929"><ele>978.0</ele><time>2026-04-12T15:03:07Z</time></trkpt><trkpt lat="42.75403200152778" lon="12.970448532578557"><ele>977.0</ele><time>2026-04-12T15:03:10Z</time></trkpt><trkpt lat="42.75410150071583" lon="12.970601815850465"><ele>977.0000000000001</ele><time>2026-04-12T15:03:12Z</time></trkpt><trkpt lat="42.7541448678602" lon="12.970665984608688"><ele>977.0</ele><time>2026-04-12T15:03:13Z</time></trkpt><trkpt lat="42.75417983029295" lon="12.970773004063775"><ele>977.0</ele><time>2026-04-12T15:03:15Z</time></trkpt><trkpt lat="42.754218331650485" lon="12.97090588298756"><ele>977.0</ele><time>2026-04-12T15:03:33.001Z</time></trkpt><trkpt lat="42.75423287761999" lon="12.971042819980404"><ele>977.0000000000001</ele><time>2026-04-12T15:03:35.001Z</time></trkpt><trkpt lat="42.75419388755077" lon="12.971139889209752"><ele>977.0</ele><time>2026-04-12T15:03:37.001Z</time></trkpt><trkpt lat="42.75413462761745" lon="12.971223342139352"><ele>978.4000000000001</ele><time>2026-04-12T15:03:39.001Z</time></trkpt><trkpt lat="42.75407522534411" lon="12.97136274303678"><ele>979.8000000000001</ele><time>2026-04-12T15:03:41.001Z</time></trkpt><trkpt lat="42.75403952160086" lon="12.971451789512384"><ele>981.2</ele><time>2026-04-12T15:03:42.001Z</time></trkpt><trkpt lat="42.754009507031725" lon="12.971535579363314"><ele>982.6</ele><time>2026-04-12T15:03:43.001Z</time></trkpt><trkpt lat="42.75394648312959" lon="12.971665300768937"><ele>984.0</ele><time>2026-04-12T15:03:45.001Z</time></trkpt><trkpt lat="42.753904288432366" lon="12.97182460146483"><ele>986.3333333333334</ele><time>2026-04-12T15:03:47.001Z</time></trkpt><trkpt lat="42.753903832756514" lon="12.971947168330018"><ele>988.6666666666667</ele><time>2026-04-12T15:03:48.001Z</time></trkpt><trkpt lat="42.75389503778954" lon="12.972054614964906"><ele>991.0</ele><time>2026-04-12T15:03:49.001Z</time></trkpt><trkpt lat="42.753903596151936" lon="12.972148653160904"><ele>993.3333333333334</ele><time>2026-04-12T15:03:50.001Z</time></trkpt><trkpt lat="42.7539166171409" lon="12.972263762866664"><ele>995.6666666666667</ele><time>2026-04-12T15:03:51.001Z</time></trkpt><trkpt lat="42.75392053655572" lon="12.972360996180607"><ele>998.0</ele><time>2026-04-12T15:03:52.001Z</time></trkpt><trkpt lat="42.753889095412475" lon="12.972462444338666"><ele>998.8</ele><time>2026-04-12T15:03:53.001Z</time></trkpt><trkpt lat="42.75389182038176" lon="12.972590267681495"><ele>999.5999999999999</ele><time>2026-04-12T15:03:54.001Z</time></trkpt><trkpt lat="42.753914470076424" lon="12.972728961518438"><ele>1000.4000000000001</ele><time>2026-04-12T15:03:55.001Z</time></trkpt><trkpt lat="42.75393804627838" lon="12.97287991117589"><ele>1001.2</ele><time>2026-04-12T15:03:56.001Z</time></trkpt><trkpt lat="42.75395614878811" lon="12.97303187131231"><ele>1002.0</ele><time>2026-04-12T15:03:57.001Z</time></trkpt><trkpt lat="42.75397004124023" lon="12.97317610288397"><ele>1002.0</ele><time>2026-04-12T15:03:58.001Z</time></trkpt><trkpt lat="42.75396932280052" lon="12.973304342028863"><ele>1002.0</ele><time>2026-04-12T15:03:59.001Z</time></trkpt><trkpt lat="42.75394116660943" lon="12.973426350183356"><ele>1002.0</ele><time>2026-04-12T15:04:00.001Z</time></trkpt><trkpt lat="42.75389555457773" lon="12.97355920846297"><ele>1002.0</ele><time>2026-04-12T15:04:01.001Z</time></trkpt><trkpt lat="42.75385060464351" lon="12.97366146784371"><ele>1002.0</ele><time>2026-04-12T15:04:02.001Z</time></trkpt><trkpt lat="42.75379630156627" lon="12.973778518621103"><ele>1003.8</ele><time>2026-04-12T15:04:03.001Z</time></trkpt><trkpt lat="42.75375151756911" lon="12.97390025967372"><ele>1005.6</ele><time>2026-04-12T15:04:04.001Z</time></trkpt><trkpt lat="42.7537265737595" lon="12.9740058781572"><ele>1007.3999999999999</ele><time>2026-04-12T15:04:05.001Z</time></trkpt><trkpt lat="42.75378449016508" lon="12.974149053189187"><ele>1009.1999999999999</ele><time>2026-04-12T15:04:07.001Z</time></trkpt><trkpt lat="42.75384732485899" lon="12.974224950313108"><ele>1011.0</ele><time>2026-04-12T15:04:08.001Z</time></trkpt><trkpt lat="42.753897570690604" lon="12.974338129320245"><ele>1011.5714285714284</ele><time>2026-04-12T15:04:09.001Z</time></trkpt><trkpt lat="42.75391829719433" lon="12.974441419804847"><ele>1012.1428571428571</ele><time>2026-04-12T15:04:10.001Z</time></trkpt><trkpt lat="42.75392899003037" lon="12.974528971399208"><ele>1012.7142857142857</ele><time>2026-04-12T15:04:11.001Z</time></trkpt><trkpt lat="42.75395536243005" lon="12.974647795145385"><ele>1013.2857142857142</ele><time>2026-04-12T15:04:12.001Z</time></trkpt><trkpt lat="42.753977752793176" lon="12.974749614550774"><ele>1013.8571428571429</ele><time>2026-04-12T15:04:13.001Z</time></trkpt><trkpt lat="42.75399855883786" lon="12.974837965059637"><ele>1014.4285714285714</ele><time>2026-04-12T15:04:14.001Z</time></trkpt><trkpt lat="42.75402372305342" lon="12.974923321953051"><ele>1015.0</ele><time>2026-04-12T15:04:15.001Z</time></trkpt><trkpt lat="42.754060801408215" lon="12.975068529825203"><ele>1014.9999999999999</ele><time>2026-04-12T15:04:17.001Z</time></trkpt><trkpt lat="42.754081208045505" lon="12.975195560816667"><ele>1015.0</ele><time>2026-04-12T15:04:19.001Z</time></trkpt><trkpt lat="42.7540694176421" lon="12.97529538539492"><ele>1015.0</ele><time>2026-04-12T15:05:04Z</time></trkpt><trkpt lat="42.75398473677065" lon="12.975287098470007"><ele>1015.0</ele><time>2026-04-12T15:05:07Z</time></trkpt><trkpt lat="42.75398147172859" lon="12.975182506499996"><ele>1014.9999999999999</ele><time>2026-04-12T15:05:09Z</time></trkpt><trkpt lat="42.75404691379796" lon="12.975088572876338"><ele>1015.0</ele><time>2026-04-12T15:05:11Z</time></trkpt><trkpt lat="42.75408548452275" lon="12.974956141749566"><ele>1015.2</ele><time>2026-04-12T15:05:13Z</time></trkpt><trkpt lat="42.75403035024029" lon="12.974840343322192"><ele>1015.4</ele><time>2026-04-12T15:05:15Z</time></trkpt><trkpt lat="42.75398025731884" lon="12.974727321424869"><ele>1015.5999999999999</ele><time>2026-04-12T15:05:17Z</time></trkpt><trkpt lat="42.75395775359208" lon="12.974613385231093"><ele>1015.8</ele><time>2026-04-12T15:05:19Z</time></trkpt><trkpt lat="42.75393381793693" lon="12.974477499383394"><ele>1016.0</ele><time>2026-04-12T15:05:21Z</time></trkpt><trkpt lat="42.75391578201816" lon="12.97438704030967"><ele>1016.0000000000001</ele><time>2026-04-12T15:05:22Z</time></trkpt><trkpt lat="42.753893124348174" lon="12.974303806082835"><ele>1016.0</ele><time>2026-04-12T15:05:23Z</time></trkpt><trkpt lat="42.75386317464714" lon="12.97422567243512"><ele>1016.0</ele><time>2026-04-12T15:05:24Z</time></trkpt><trkpt lat="42.75383102201054" lon="12.974147964136709"><ele>1016.0</ele><time>2026-04-12T15:05:25Z</time></trkpt><trkpt lat="42.75374982409033" lon="12.974039442490223"><ele>1016.0000000000001</ele><time>2026-04-12T15:05:27Z</time></trkpt><trkpt lat="42.75374437983189" lon="12.973932108300282"><ele>1016.0</ele><time>2026-04-12T15:05:29.001Z</time></trkpt><trkpt lat="42.753803013701024" lon="12.973780447934246"><ele>1015.0</ele><time>2026-04-12T15:05:31.001Z</time></trkpt><trkpt lat="42.75385725935425" lon="12.973652366008775"><ele>1013.9999999999999</ele><time>2026-04-12T15:05:32.001Z</time></trkpt><trkpt lat="42.75390894386737" lon="12.973539482849883"><ele>1012.9999999999999</ele><time>2026-04-12T15:05:33.001Z</time></trkpt><trkpt lat="42.75394517959066" lon="12.97343520070012"><ele>1012.0</ele><time>2026-04-12T15:05:34.001Z</time></trkpt><trkpt lat="42.75396973427864" lon="12.973325487730788"><ele>1011.0</ele><time>2026-04-12T15:05:35.001Z</time></trkpt><trkpt lat="42.75398436301318" lon="12.973198550776896"><ele>1009.5</ele><time>2026-04-12T15:05:36.001Z</time></trkpt><trkpt lat="42.753987072966254" lon="12.973085969252374"><ele>1008.0</ele><time>2026-04-12T15:05:37.001Z</time></trkpt><trkpt lat="42.75396649778902" lon="12.972951096205136"><ele>1006.5</ele><time>2026-04-12T15:05:38.001Z</time></trkpt><trkpt lat="42.75395022358975" lon="12.972845699853732"><ele>1005.0</ele><time>2026-04-12T15:05:39.001Z</time></trkpt><trkpt lat="42.75393451644963" lon="12.972744418229034"><ele>1003.5</ele><time>2026-04-12T15:05:40.001Z</time></trkpt><trkpt lat="42.753920325547355" lon="12.972628966930104"><ele>1002.0</ele><time>2026-04-12T15:05:41.001Z</time></trkpt><trkpt lat="42.75391272286974" lon="12.972533782132032"><ele>1001.2</ele><time>2026-04-12T15:05:42.001Z</time></trkpt><trkpt lat="42.75390386790815" lon="12.972428262112945"><ele>1000.4000000000001</ele><time>2026-04-12T15:05:43.001Z</time></trkpt><trkpt lat="42.75391787999288" lon="12.972262971658695"><ele>999.5999999999999</ele><time>2026-04-12T15:05:45.001Z</time></trkpt><trkpt lat="42.753915317431144" lon="12.972104595956273"><ele>998.8</ele><time>2026-04-12T15:05:47.001Z</time></trkpt><trkpt lat="42.75390506314505" lon="12.971980769731918"><ele>998.0</ele><time>2026-04-12T15:05:49.001Z</time></trkpt><trkpt lat="42.75391011706511" lon="12.971889303569593"><ele>998.0000000000001</ele><time>2026-04-12T15:05:50.001Z</time></trkpt><trkpt lat="42.75391633263758" lon="12.97180071372542"><ele>998.0</ele><time>2026-04-12T15:05:51.001Z</time></trkpt><trkpt lat="42.75392569605749" lon="12.97171521410913"><ele>998.0</ele><time>2026-04-12T15:05:52.001Z</time></trkpt><trkpt lat="42.753990360607" lon="12.971557827791784"><ele>998.0</ele><time>2026-04-12T15:05:54.001Z</time></trkpt><trkpt lat="42.75403644402344" lon="12.971445982245484"><ele>998.0000000000001</ele><time>2026-04-12T15:05:55.001Z</time></trkpt><trkpt lat="42.75407531907154" lon="12.971354910353782"><ele>998.0</ele><time>2026-04-12T15:05:56.001Z</time></trkpt><trkpt lat="42.754109549604635" lon="12.97126713349066"><ele>995.6666666666667</ele><time>2026-04-12T15:05:57.001Z</time></trkpt><trkpt lat="42.75414238848035" lon="12.971187974524284"><ele>993.3333333333334</ele><time>2026-04-12T15:05:58.001Z</time></trkpt><trkpt lat="42.75420926651217" lon="12.971070090056823"><ele>991.0</ele><time>2026-04-12T15:06:00.001Z</time></trkpt><trkpt lat="42.75422443249963" lon="12.970961286962469"><ele>988.6666666666667</ele><time>2026-04-12T15:06:02.001Z</time></trkpt><trkpt lat="42.75418147394226" lon="12.970838515201416"><ele>986.3333333333334</ele><time>2026-04-12T15:06:04.001Z</time></trkpt><trkpt lat="42.75414627894555" lon="12.970735924042465"><ele>984.0</ele><time>2026-04-12T15:06:06.001Z</time></trkpt><trkpt lat="42.75408804295375" lon="12.97060034098961"><ele>982.8333333333334</ele><time>2026-04-12T15:06:08.001Z</time></trkpt><trkpt lat="42.75404286844785" lon="12.970521440924584"><ele>981.6666666666667</ele><time>2026-04-12T15:06:09.001Z</time></trkpt><trkpt lat="42.75399949251908" lon="12.970441839921678"><ele>980.5</ele><time>2026-04-12T15:06:10.001Z</time></trkpt><trkpt lat="42.75397245913647" lon="12.97032816301823"><ele>979.3333333333334</ele><time>2026-04-12T15:06:12.001Z</time></trkpt><trkpt lat="42.75403762157591" lon="12.970215397115988"><ele>978.1666666666667</ele><time>2026-04-12T15:06:15.001Z</time></trkpt><trkpt lat="42.754081849392875" lon="12.970152149683456"><ele>977.0</ele><time>2026-04-12T15:06:16.001Z</time></trkpt><trkpt lat="42.754125776698025" lon="12.97007802885117"><ele>977.0</ele><time>2026-04-12T15:06:17.001Z</time></trkpt><trkpt lat="42.7541727419531" lon="12.969988657448328"><ele>977.0</ele><time>2026-04-12T15:06:19.001Z</time></trkpt><trkpt lat="42.75411303525655" lon="12.970070159116919"><ele>977.0</ele><time>2026-04-12T15:06:23.001Z</time></trkpt><trkpt lat="42.754035211775495" lon="12.97018655403871"><ele>977.0</ele><time>2026-04-12T15:06:25.001Z</time></trkpt><trkpt lat="42.75398925898893" lon="12.970267862691742"><ele>977.0</ele><time>2026-04-12T15:06:26.001Z</time></trkpt><trkpt lat="42.75393210999844" lon="12.97036889548038"><ele>977.0</ele><time>2026-04-12T15:06:27.001Z</time></trkpt><trkpt lat="42.75386384850906" lon="12.97049148035341"><ele>977.0</ele><time>2026-04-12T15:06:28.001Z</time></trkpt><trkpt lat="42.753787519673594" lon="12.970610226202016"><ele>977.0</ele><time>2026-04-12T15:06:29.001Z</time></trkpt><trkpt lat="42.7536780586973" lon="12.970710795246887"><ele>977.0</ele><time>2026-04-12T15:06:30.001Z</time></trkpt><trkpt lat="42.7535701820331" lon="12.970829502802404"><ele>975.0</ele><time>2026-04-12T15:06:31.001Z</time></trkpt><trkpt lat="42.753461785706534" lon="12.970969794909236"><ele>973.0</ele><time>2026-04-12T15:06:32.001Z</time></trkpt><trkpt lat="42.753338960976905" lon="12.971101964095423"><ele>971.0</ele><time>2026-04-12T15:06:33.001Z</time></trkpt><trkpt lat="42.75321076809646" lon="12.971236574801308"><ele>971.0</ele><time>2026-04-12T15:06:34.001Z</time></trkpt><trkpt lat="42.753090508914866" lon="12.971351094080738"><ele>971.0</ele><time>2026-04-12T15:06:35.001Z</time></trkpt><trkpt lat="42.75300265025107" lon="12.971512664618102"><ele>971.0</ele><time>2026-04-12T15:06:36.001Z</time></trkpt><trkpt lat="42.75290366119966" lon="12.971657106549326"><ele>971.0</ele><time>2026-04-12T15:06:37.001Z</time></trkpt><trkpt lat="42.752819039791916" lon="12.97180592606134"><ele>972.75</ele><time>2026-04-12T15:06:38.001Z</time></trkpt><trkpt lat="42.75272818455317" lon="12.971943851585328"><ele>974.5</ele><time>2026-04-12T15:06:39Z</time></trkpt><trkpt lat="42.75262119928563" lon="12.972051572980343"><ele>976.25</ele><time>2026-04-12T15:06:40Z</time></trkpt><trkpt lat="42.75252416980182" lon="12.97219585471771"><ele>978.0</ele><time>2026-04-12T15:06:41Z</time></trkpt><trkpt lat="42.752429452459346" lon="12.972414292518078"><ele>975.6666666666667</ele><time>2026-04-12T15:06:42Z</time></trkpt><trkpt lat="42.75230421844474" lon="12.972583628538429"><ele>973.3333333333334</ele><time>2026-04-12T15:06:43Z</time></trkpt><trkpt lat="42.7521966164912" lon="12.972741147025843"><ele>971.0</ele><time>2026-04-12T15:06:44Z</time></trkpt><trkpt lat="42.752116641409806" lon="12.97288536555397"><ele>971.0</ele><time>2026-04-12T15:06:45Z</time></trkpt><trkpt lat="42.752031852508175" lon="12.973019620228893"><ele>971.0</ele><time>2026-04-12T15:06:46Z</time></trkpt><trkpt lat="42.75196089367073" lon="12.97318974175224"><ele>971.0</ele><time>2026-04-12T15:06:47Z</time></trkpt><trkpt lat="42.75192023113181" lon="12.97338870053202"><ele>971.0</ele><time>2026-04-12T15:06:48Z</time></trkpt><trkpt lat="42.751887388471324" lon="12.973606388737883"><ele>965.0</ele><time>2026-04-12T15:06:49Z</time></trkpt><trkpt lat="42.751847725775306" lon="12.973817853461549"><ele>959.0</ele><time>2026-04-12T15:06:50Z</time></trkpt><trkpt lat="42.751794400820756" lon="12.974016381407056"><ele>953.0</ele><time>2026-04-12T15:06:51Z</time></trkpt><trkpt lat="42.751715606812134" lon="12.974185011050347"><ele>957.0</ele><time>2026-04-12T15:06:52Z</time></trkpt><trkpt lat="42.751641537245945" lon="12.974385668590427"><ele>961.0</ele><time>2026-04-12T15:06:53Z</time></trkpt><trkpt lat="42.75154768210626" lon="12.974586087286074"><ele>965.0</ele><time>2026-04-12T15:06:54Z</time></trkpt><trkpt lat="42.75145258390511" lon="12.974787147973744"><ele>965.0</ele><time>2026-04-12T15:06:55Z</time></trkpt><trkpt lat="42.751352129425385" lon="12.974987668216455"><ele>965.0</ele><time>2026-04-12T15:06:56Z</time></trkpt><trkpt lat="42.75123234474204" lon="12.975216037064303"><ele>965.0</ele><time>2026-04-12T15:06:57Z</time></trkpt><trkpt lat="42.751128026024794" lon="12.975447113295083"><ele>963.0</ele><time>2026-04-12T15:06:58Z</time></trkpt><trkpt lat="42.75103042361039" lon="12.975659582122935"><ele>961.0</ele><time>2026-04-12T15:06:59Z</time></trkpt><trkpt lat="42.75093899443121" lon="12.97586157089966"><ele>959.0</ele><time>2026-04-12T15:07:00Z</time></trkpt><trkpt lat="42.75084040204788" lon="12.976068248537988"><ele>959.0</ele><time>2026-04-12T15:07:01Z</time></trkpt><trkpt lat="42.75073950961921" lon="12.976240066140985"><ele>959.0</ele><time>2026-04-12T15:07:02Z</time></trkpt><trkpt lat="42.75064191122564" lon="12.976439773227087"><ele>959.0</ele><time>2026-04-12T15:07:03Z</time></trkpt><trkpt lat="42.75054065667479" lon="12.976626145326074"><ele>962.3333333333334</ele><time>2026-04-12T15:07:04Z</time></trkpt><trkpt lat="42.7504298915961" lon="12.97683701701438"><ele>965.6666666666667</ele><time>2026-04-12T15:07:05Z</time></trkpt><trkpt lat="42.75033168937182" lon="12.976999796382481"><ele>969.0</ele><time>2026-04-12T15:07:06Z</time></trkpt><trkpt lat="42.75023284696589" lon="12.97716501035305"><ele>957.0</ele><time>2026-04-12T15:07:07Z</time></trkpt><trkpt lat="42.750145650934826" lon="12.977352008577704"><ele>945.0</ele><time>2026-04-12T15:07:08Z</time></trkpt><trkpt lat="42.75006827996959" lon="12.977525264971419"><ele>933.0</ele><time>2026-04-12T15:07:09Z</time></trkpt><trkpt lat="42.750021354082016" lon="12.977703679276777"><ele>932.3333333333333</ele><time>2026-04-12T15:07:10Z</time></trkpt><trkpt lat="42.750000158298796" lon="12.977897226888262"><ele>931.6666666666666</ele><time>2026-04-12T15:07:11Z</time></trkpt><trkpt lat="42.750013046150066" lon="12.978104380611917"><ele>931.0</ele><time>2026-04-12T15:07:12Z</time></trkpt><trkpt lat="42.75005293357444" lon="12.978329079229699"><ele>931.25</ele><time>2026-04-12T15:07:13Z</time></trkpt><trkpt lat="42.75005741522114" lon="12.978562968963697"><ele>931.5</ele><time>2026-04-12T15:07:14Z</time></trkpt><trkpt lat="42.750084057401075" lon="12.978758135008288"><ele>931.75</ele><time>2026-04-12T15:07:15Z</time></trkpt><trkpt lat="42.75009781488263" lon="12.978932362771909"><ele>932.0</ele><time>2026-04-12T15:07:16Z</time></trkpt><trkpt lat="42.75010843623705" lon="12.979083801847755"><ele>931.8</ele><time>2026-04-12T15:07:17Z</time></trkpt><trkpt lat="42.75008598651589" lon="12.979231139502861"><ele>931.6</ele><time>2026-04-12T15:07:18Z</time></trkpt><trkpt lat="42.75005505827116" lon="12.979359805351814"><ele>931.3999999999999</ele><time>2026-04-12T15:07:19Z</time></trkpt><trkpt lat="42.74999938996397" lon="12.979481884772534"><ele>931.1999999999999</ele><time>2026-04-12T15:07:20Z</time></trkpt><trkpt lat="42.74994760811643" lon="12.979609234335769"><ele>931.0</ele><time>2026-04-12T15:07:21Z</time></trkpt><trkpt lat="42.74989356366235" lon="12.979716678644097"><ele>931.0</ele><time>2026-04-12T15:07:22Z</time></trkpt><trkpt lat="42.749871042685434" lon="12.979823874212919"><ele>931.0</ele><time>2026-04-12T15:07:23Z</time></trkpt><trkpt lat="42.74993860412009" lon="12.979995247447606"><ele>931.0</ele><time>2026-04-12T15:07:24Z</time></trkpt><trkpt lat="42.74999553984501" lon="12.980138109510479"><ele>931.0</ele><time>2026-04-12T15:07:25Z</time></trkpt><trkpt lat="42.75004521906611" lon="12.9802952839467"><ele>930.0</ele><time>2026-04-12T15:07:26Z</time></trkpt><trkpt lat="42.750074311784886" lon="12.980472116503119"><ele>929.0</ele><time>2026-04-12T15:07:27Z</time></trkpt><trkpt lat="42.75006194875188" lon="12.9806498694093"><ele>928.0</ele><time>2026-04-12T15:07:28Z</time></trkpt><trkpt lat="42.750036430520325" lon="12.980824921037355"><ele>927.0</ele><time>2026-04-12T15:07:29Z</time></trkpt><trkpt lat="42.749999592076726" lon="12.981005376183235"><ele>924.5</ele><time>2026-04-12T15:07:30Z</time></trkpt><trkpt lat="42.7499561119098" lon="12.981172631266828"><ele>922.0</ele><time>2026-04-12T15:07:31Z</time></trkpt><trkpt lat="42.749917192998915" lon="12.981347592711371"><ele>919.5</ele><time>2026-04-12T15:07:32Z</time></trkpt><trkpt lat="42.74988808445151" lon="12.981515472238867"><ele>917.0</ele><time>2026-04-12T15:07:33Z</time></trkpt><trkpt lat="42.74986718500058" lon="12.981678344031081"><ele>916.0</ele><time>2026-04-12T15:07:34Z</time></trkpt><trkpt lat="42.74985636834482" lon="12.981843170734932"><ele>915.0</ele><time>2026-04-12T15:07:35Z</time></trkpt><trkpt lat="42.749831583643896" lon="12.981999444138665"><ele>914.0</ele><time>2026-04-12T15:07:36Z</time></trkpt><trkpt lat="42.74979462207431" lon="12.982152036936546"><ele>913.0</ele><time>2026-04-12T15:07:37Z</time></trkpt><trkpt lat="42.749734515739625" lon="12.982284447107462"><ele>913.0</ele><time>2026-04-12T15:07:38Z</time></trkpt><trkpt lat="42.749675294480774" lon="12.982411351088842"><ele>913.0</ele><time>2026-04-12T15:07:39Z</time></trkpt><trkpt lat="42.7496359472519" lon="12.982543251194036"><ele>913.0</ele><time>2026-04-12T15:07:40Z</time></trkpt><trkpt lat="42.74957921221838" lon="12.982657105988768"><ele>913.0</ele><time>2026-04-12T15:07:41Z</time></trkpt><trkpt lat="42.74953350652567" lon="12.982787061542465"><ele>913.0</ele><time>2026-04-12T15:07:42.001Z</time></trkpt><trkpt lat="42.74949680496668" lon="12.982934581521695"><ele>911.75</ele><time>2026-04-12T15:07:43.001Z</time></trkpt><trkpt lat="42.749459188541096" lon="12.983092268050532"><ele>910.5</ele><time>2026-04-12T15:07:44.001Z</time></trkpt><trkpt lat="42.74939835130821" lon="12.983247206875829"><ele>909.25</ele><time>2026-04-12T15:07:45.001Z</time></trkpt><trkpt lat="42.74929972597202" lon="12.983392832681611"><ele>908.0</ele><time>2026-04-12T15:07:46.001Z</time></trkpt><trkpt lat="42.74919534467014" lon="12.983535328435245"><ele>906.5</ele><time>2026-04-12T15:07:47.001Z</time></trkpt><trkpt lat="42.74910924272687" lon="12.983669864909091"><ele>905.0</ele><time>2026-04-12T15:07:48.001Z</time></trkpt><trkpt lat="42.74902716992907" lon="12.983809602393533"><ele>903.5</ele><time>2026-04-12T15:07:49.001Z</time></trkpt><trkpt lat="42.7489582163952" lon="12.98395522152565"><ele>902.0</ele><time>2026-04-12T15:07:50.001Z</time></trkpt><trkpt lat="42.74890660348267" lon="12.984107642718852"><ele>899.5</ele><time>2026-04-12T15:07:51.001Z</time></trkpt><trkpt lat="42.74886977796702" lon="12.984271802196899"><ele>897.0</ele><time>2026-04-12T15:07:52.001Z</time></trkpt><trkpt lat="42.74883889441684" lon="12.984437947051376"><ele>894.5</ele><time>2026-04-12T15:07:53.001Z</time></trkpt><trkpt lat="42.74880839092917" lon="12.984602827469795"><ele>892.0</ele><time>2026-04-12T15:07:54.001Z</time></trkpt><trkpt lat="42.74878205003468" lon="12.984762481305232"><ele>892.0</ele><time>2026-04-12T15:07:55.001Z</time></trkpt><trkpt lat="42.748740790422126" lon="12.984926327233937"><ele>892.0</ele><time>2026-04-12T15:07:56.001Z</time></trkpt><trkpt lat="42.748705243013724" lon="12.985079244157964"><ele>892.0</ele><time>2026-04-12T15:07:57.001Z</time></trkpt><trkpt lat="42.748673763458655" lon="12.98521163751433"><ele>892.0</ele><time>2026-04-12T15:07:58.001Z</time></trkpt><trkpt lat="42.74864702857682" lon="12.98532317570752"><ele>892.0</ele><time>2026-04-12T15:07:59.001Z</time></trkpt><trkpt lat="42.74862352672573" lon="12.985417370764367"><ele>890.0</ele><time>2026-04-12T15:08:00.001Z</time></trkpt><trkpt lat="42.748542744185976" lon="12.98552564774409"><ele>888.0</ele><time>2026-04-12T15:08:02.001Z</time></trkpt><trkpt lat="42.748437318351684" lon="12.985615057714153"><ele>886.0</ele><time>2026-04-12T15:08:04.001Z</time></trkpt><trkpt lat="42.74837486122689" lon="12.985457371797464"><ele>884.0</ele><time>2026-04-12T15:08:05.001Z</time></trkpt><trkpt lat="42.748314993438186" lon="12.985365163659402"><ele>884.0000000000001</ele><time>2026-04-12T15:08:07.001Z</time></trkpt><trkpt lat="42.748267193243954" lon="12.985260788957019"><ele>884.0</ele><time>2026-04-12T15:08:09.001Z</time></trkpt><trkpt lat="42.74824224753217" lon="12.985172593106135"><ele>884.0</ele><time>2026-04-12T15:08:10.001Z</time></trkpt><trkpt lat="42.74822882134715" lon="12.985054443228782"><ele>884.0</ele><time>2026-04-12T15:08:11.001Z</time></trkpt><trkpt lat="42.748217547871654" lon="12.984929199361865"><ele>884.0000000000001</ele><time>2026-04-12T15:08:12.001Z</time></trkpt><trkpt lat="42.74820154576804" lon="12.984801009598739"><ele>884.0</ele><time>2026-04-12T15:08:13.001Z</time></trkpt><trkpt lat="42.748178744010445" lon="12.984668100381313"><ele>883.75</ele><time>2026-04-12T15:08:14.001Z</time></trkpt><trkpt lat="42.748152845030816" lon="12.98451601543288"><ele>883.5</ele><time>2026-04-12T15:08:15.001Z</time></trkpt><trkpt lat="42.748109389942286" lon="12.98432700896018"><ele>883.25</ele><time>2026-04-12T15:08:16.001Z</time></trkpt><trkpt lat="42.748061808578335" lon="12.984138118603742"><ele>883.0</ele><time>2026-04-12T15:08:17.001Z</time></trkpt><trkpt lat="42.747987793739355" lon="12.983966989047776"><ele>884.75</ele><time>2026-04-12T15:08:18.001Z</time></trkpt><trkpt lat="42.747908306939806" lon="12.983814704980611"><ele>886.5</ele><time>2026-04-12T15:08:19.001Z</time></trkpt><trkpt lat="42.74786158955488" lon="12.983659519812866"><ele>888.25</ele><time>2026-04-12T15:08:20.001Z</time></trkpt><trkpt lat="42.74780697399306" lon="12.983526130293088"><ele>890.0</ele><time>2026-04-12T15:08:21.001Z</time></trkpt><trkpt lat="42.74777601773932" lon="12.983371187782005"><ele>893.0</ele><time>2026-04-12T15:08:22.001Z</time></trkpt><trkpt lat="42.74774965699042" lon="12.98321727877076"><ele>896.0</ele><time>2026-04-12T15:08:23.001Z</time></trkpt><trkpt lat="42.74772135209811" lon="12.983066182680481"><ele>899.0</ele><time>2026-04-12T15:08:24.001Z</time></trkpt><trkpt lat="42.74769228208637" lon="12.982919485322945"><ele>902.0</ele><time>2026-04-12T15:08:25.001Z</time></trkpt><trkpt lat="42.747672701076525" lon="12.982779839300159"><ele>905.0</ele><time>2026-04-12T15:08:26.001Z</time></trkpt><trkpt lat="42.747675926161" lon="12.982636514217548"><ele>906.25</ele><time>2026-04-12T15:08:27.001Z</time></trkpt><trkpt lat="42.74772804903055" lon="12.982512303302919"><ele>907.5</ele><time>2026-04-12T15:08:28.001Z</time></trkpt><trkpt lat="42.747745865984626" lon="12.982368880397177"><ele>908.75</ele><time>2026-04-12T15:08:29.001Z</time></trkpt><trkpt lat="42.747780565915" lon="12.982213542896991"><ele>910.0</ele><time>2026-04-12T15:08:30.001Z</time></trkpt><trkpt lat="42.747815767520976" lon="12.982027567972269"><ele>910.0</ele><time>2026-04-12T15:08:31.001Z</time></trkpt><trkpt lat="42.74786672270551" lon="12.981796465784523"><ele>910.0</ele><time>2026-04-12T15:08:32.001Z</time></trkpt><trkpt lat="42.747924112361616" lon="12.981571334899629"><ele>910.0</ele><time>2026-04-12T15:08:33.001Z</time></trkpt><trkpt lat="42.74798252908116" lon="12.981374328932274"><ele>905.5</ele><time>2026-04-12T15:08:34.001Z</time></trkpt><trkpt lat="42.748028276865135" lon="12.981197961119049"><ele>901.0</ele><time>2026-04-12T15:08:35.001Z</time></trkpt><trkpt lat="42.74805738455123" lon="12.981021311995862"><ele>896.5</ele><time>2026-04-12T15:08:36.001Z</time></trkpt><trkpt lat="42.74806728397784" lon="12.980862090035822"><ele>892.0</ele><time>2026-04-12T15:08:37.001Z</time></trkpt><trkpt lat="42.74806612975936" lon="12.980710120947814"><ele>891.4000000000001</ele><time>2026-04-12T15:08:38.001Z</time></trkpt><trkpt lat="42.74804162456973" lon="12.98058353419082"><ele>890.8000000000001</ele><time>2026-04-12T15:08:39.001Z</time></trkpt><trkpt lat="42.74798655611623" lon="12.980487970917327"><ele>890.2</ele><time>2026-04-12T15:08:40.001Z</time></trkpt><trkpt lat="42.747906031072546" lon="12.980404911525188"><ele>889.6</ele><time>2026-04-12T15:08:41.001Z</time></trkpt><trkpt lat="42.747796135981126" lon="12.980411095818091"><ele>889.0</ele><time>2026-04-12T15:08:42.001Z</time></trkpt><trkpt lat="42.747696071361645" lon="12.980500880871105"><ele>883.25</ele><time>2026-04-12T15:08:43.001Z</time></trkpt><trkpt lat="42.74760252336518" lon="12.98061284810494"><ele>877.5</ele><time>2026-04-12T15:08:44.001Z</time></trkpt><trkpt lat="42.747518258905494" lon="12.980769375419266"><ele>871.75</ele><time>2026-04-12T15:08:45Z</time></trkpt><trkpt lat="42.74743692754729" lon="12.980900684098835"><ele>866.0</ele><time>2026-04-12T15:08:46Z</time></trkpt><trkpt lat="42.74735844282939" lon="12.980995344888584"><ele>865.1999999999999</ele><time>2026-04-12T15:08:47Z</time></trkpt><trkpt lat="42.74728777997025" lon="12.981066054124954"><ele>864.3999999999999</ele><time>2026-04-12T15:08:48Z</time></trkpt><trkpt lat="42.74722614904354" lon="12.981129640161182"><ele>863.6</ele><time>2026-04-12T15:08:49Z</time></trkpt><trkpt lat="42.747175294733466" lon="12.981191692478683"><ele>862.8</ele><time>2026-04-12T15:08:50Z</time></trkpt><trkpt lat="42.74709451341719" lon="12.981291066119939"><ele>862.0</ele><time>2026-04-12T15:08:52Z</time></trkpt><trkpt lat="42.74699257264913" lon="12.981374894935216"><ele>862.0</ele><time>2026-04-12T15:08:54Z</time></trkpt><trkpt lat="42.74694736828919" lon="12.981461534957903"><ele>862.0</ele><time>2026-04-12T15:08:55Z</time></trkpt><trkpt lat="42.74687060049337" lon="12.981543966994549"><ele>862.0</ele><time>2026-04-12T15:08:56Z</time></trkpt><trkpt lat="42.746800990241034" lon="12.981657291852045"><ele>862.0</ele><time>2026-04-12T15:08:57Z</time></trkpt><trkpt lat="42.74672714386645" lon="12.98178265337032"><ele>862.0</ele><time>2026-04-12T15:08:58Z</time></trkpt><trkpt lat="42.74663646499617" lon="12.981877326092919"><ele>857.6</ele><time>2026-04-12T15:08:59Z</time></trkpt><trkpt lat="42.74653667842207" lon="12.981959283847134"><ele>853.2</ele><time>2026-04-12T15:09:00Z</time></trkpt><trkpt lat="42.746438550363465" lon="12.982026250351007"><ele>848.8</ele><time>2026-04-12T15:09:01Z</time></trkpt><trkpt lat="42.74635255092676" lon="12.982106645740204"><ele>844.4</ele><time>2026-04-12T15:09:02Z</time></trkpt><trkpt lat="42.746272390963" lon="12.982194638603936"><ele>840.0</ele><time>2026-04-12T15:09:03Z</time></trkpt><trkpt lat="42.746195334702506" lon="12.982297800803059"><ele>840.0</ele><time>2026-04-12T15:09:04Z</time></trkpt><trkpt lat="42.74611129654667" lon="12.982387927540774"><ele>840.0</ele><time>2026-04-12T15:09:05Z</time></trkpt><trkpt lat="42.74603674983944" lon="12.982493726000188"><ele>840.0</ele><time>2026-04-12T15:09:06Z</time></trkpt><trkpt lat="42.74597340105809" lon="12.982631098178501"><ele>840.0</ele><time>2026-04-12T15:09:07Z</time></trkpt><trkpt lat="42.74588589213994" lon="12.98276157526796"><ele>840.0</ele><time>2026-04-12T15:09:08Z</time></trkpt><trkpt lat="42.74581143367217" lon="12.982921101806975"><ele>840.0</ele><time>2026-04-12T15:09:09Z</time></trkpt><trkpt lat="42.74573202214489" lon="12.983064543574693"><ele>840.0</ele><time>2026-04-12T15:09:10Z</time></trkpt><trkpt lat="42.74559738759331" lon="12.983126822680337"><ele>840.0</ele><time>2026-04-12T15:09:11Z</time></trkpt><trkpt lat="42.74542572201871" lon="12.98316956874792"><ele>840.0</ele><time>2026-04-12T15:09:12Z</time></trkpt><trkpt lat="42.74523884016084" lon="12.983216771473746"><ele>840.0</ele><time>2026-04-12T15:09:13Z</time></trkpt><trkpt lat="42.745091148869136" lon="12.983243046989276"><ele>840.0</ele><time>2026-04-12T15:09:14Z</time></trkpt><trkpt lat="42.74496949357476" lon="12.983237695705377"><ele>839.0</ele><time>2026-04-12T15:09:15Z</time></trkpt><trkpt lat="42.74486606246467" lon="12.983150644261892"><ele>838.0</ele><time>2026-04-12T15:09:16Z</time></trkpt><trkpt lat="42.74472837676125" lon="12.983024164646883"><ele>837.0</ele><time>2026-04-12T15:09:17Z</time></trkpt><trkpt lat="42.74456903651063" lon="12.982904054849719"><ele>837.0</ele><time>2026-04-12T15:09:18Z</time></trkpt><trkpt lat="42.744425496849345" lon="12.982798097259236"><ele>837.0</ele><time>2026-04-12T15:09:19Z</time></trkpt><trkpt lat="42.7442883546765" lon="12.982714544865557"><ele>837.0</ele><time>2026-04-12T15:09:20Z</time></trkpt><trkpt lat="42.744167149515285" lon="12.982636224334176"><ele>837.0</ele><time>2026-04-12T15:09:21Z</time></trkpt><trkpt lat="42.74404610266233" lon="12.982561322266669"><ele>837.75</ele><time>2026-04-12T15:09:22Z</time></trkpt><trkpt lat="42.74392172928696" lon="12.982512138167706"><ele>838.5</ele><time>2026-04-12T15:09:23Z</time></trkpt><trkpt lat="42.74378603272301" lon="12.982487861840886"><ele>839.25</ele><time>2026-04-12T15:09:24Z</time></trkpt><trkpt lat="42.74363625597127" lon="12.98249020304742"><ele>840.0</ele><time>2026-04-12T15:09:25Z</time></trkpt><trkpt lat="42.74350064174813" lon="12.98247163200812"><ele>836.8</ele><time>2026-04-12T15:09:26Z</time></trkpt><trkpt lat="42.74338192216391" lon="12.982463272303033"><ele>833.6</ele><time>2026-04-12T15:09:27Z</time></trkpt><trkpt lat="42.74326266523737" lon="12.98241309158046"><ele>830.4000000000001</ele><time>2026-04-12T15:09:28Z</time></trkpt><trkpt lat="42.743184365862874" lon="12.982368545202664"><ele>827.2</ele><time>2026-04-12T15:09:29Z</time></trkpt><trkpt lat="42.743159110521745" lon="12.982236946789472"><ele>824.0</ele><time>2026-04-12T15:09:30Z</time></trkpt><trkpt lat="42.74312884151955" lon="12.982068770828606"><ele>824.0</ele><time>2026-04-12T15:09:31Z</time></trkpt><trkpt lat="42.743124240385214" lon="12.981872896105987"><ele>824.0</ele><time>2026-04-12T15:09:32Z</time></trkpt><trkpt lat="42.74309150191996" lon="12.981691409322886"><ele>824.0</ele><time>2026-04-12T15:09:33Z</time></trkpt><trkpt lat="42.74305255556976" lon="12.981517083241014"><ele>824.0</ele><time>2026-04-12T15:09:34Z</time></trkpt><trkpt lat="42.74299178179521" lon="12.981365779120123"><ele>819.5</ele><time>2026-04-12T15:09:35Z</time></trkpt><trkpt lat="42.74291001682868" lon="12.981227751769215"><ele>815.0</ele><time>2026-04-12T15:09:36Z</time></trkpt><trkpt lat="42.7428352966553" lon="12.981077700310278"><ele>810.5</ele><time>2026-04-12T15:09:37Z</time></trkpt><trkpt lat="42.74273019675863" lon="12.980959006097375"><ele>806.0</ele><time>2026-04-12T15:09:38Z</time></trkpt><trkpt lat="42.74262474692739" lon="12.980851989829619"><ele>811.5</ele><time>2026-04-12T15:09:39Z</time></trkpt><trkpt lat="42.74251542925588" lon="12.980754831075997"><ele>817.0</ele><time>2026-04-12T15:09:40Z</time></trkpt><trkpt lat="42.742411159726316" lon="12.98061816416"><ele>822.5</ele><time>2026-04-12T15:09:41Z</time></trkpt><trkpt lat="42.74231492119535" lon="12.980475570040257"><ele>828.0</ele><time>2026-04-12T15:09:42Z</time></trkpt><trkpt lat="42.742230654046345" lon="12.980345987124064"><ele>828.0</ele><time>2026-04-12T15:09:43Z</time></trkpt><trkpt lat="42.74214306396088" lon="12.980277314180054"><ele>828.0</ele><time>2026-04-12T15:09:44Z</time></trkpt><trkpt lat="42.74205511263052" lon="12.980263716432288"><ele>828.0</ele><time>2026-04-12T15:09:45.001Z</time></trkpt><trkpt lat="42.741948494458484" lon="12.98029161735867"><ele>828.0</ele><time>2026-04-12T15:09:46.001Z</time></trkpt><trkpt lat="42.74185940393069" lon="12.980384791134949"><ele>828.0</ele><time>2026-04-12T15:09:47.001Z</time></trkpt><trkpt lat="42.741816663447366" lon="12.980525480379137"><ele>828.0</ele><time>2026-04-12T15:09:48.001Z</time></trkpt><trkpt lat="42.741800664280966" lon="12.98068355421976"><ele>828.0</ele><time>2026-04-12T15:09:49.001Z</time></trkpt><trkpt lat="42.74179694348904" lon="12.980849801415115"><ele>828.0</ele><time>2026-04-12T15:09:50.001Z</time></trkpt><trkpt lat="42.74176972739893" lon="12.981016904740049"><ele>828.0</ele><time>2026-04-12T15:09:51.001Z</time></trkpt><trkpt lat="42.74178633938026" lon="12.981215961717785"><ele>828.0</ele><time>2026-04-12T15:09:52.001Z</time></trkpt><trkpt lat="42.741733516276454" lon="12.981428999361064"><ele>828.0</ele><time>2026-04-12T15:09:53.001Z</time></trkpt><trkpt lat="42.741661749168735" lon="12.981622085692752"><ele>828.0</ele><time>2026-04-12T15:09:54.001Z</time></trkpt><trkpt lat="42.74158973955327" lon="12.981774522692577"><ele>822.25</ele><time>2026-04-12T15:09:55.001Z</time></trkpt><trkpt lat="42.741492063190194" lon="12.9819101981982"><ele>816.5</ele><time>2026-04-12T15:09:56.001Z</time></trkpt><trkpt lat="42.74137983744921" lon="12.98201812800615"><ele>810.75</ele><time>2026-04-12T15:09:57.001Z</time></trkpt><trkpt lat="42.741245042193086" lon="12.982091621561375"><ele>805.0</ele><time>2026-04-12T15:09:58.001Z</time></trkpt><trkpt lat="42.74109261852326" lon="12.982156825338702"><ele>812.75</ele><time>2026-04-12T15:09:59.001Z</time></trkpt><trkpt lat="42.74095548346727" lon="12.982245600405212"><ele>820.5</ele><time>2026-04-12T15:10:00.001Z</time></trkpt><trkpt lat="42.740836058851535" lon="12.982348333913414"><ele>828.25</ele><time>2026-04-12T15:10:01.001Z</time></trkpt><trkpt lat="42.74070645396137" lon="12.982424729341263"><ele>836.0</ele><time>2026-04-12T15:10:02.001Z</time></trkpt><trkpt lat="42.740575126910436" lon="12.982479936172934"><ele>836.0</ele><time>2026-04-12T15:10:03.001Z</time></trkpt><trkpt lat="42.740406742510515" lon="12.98251248493089"><ele>836.0</ele><time>2026-04-12T15:10:04.001Z</time></trkpt><trkpt lat="42.740244640067964" lon="12.982582118246636"><ele>836.0</ele><time>2026-04-12T15:10:05.001Z</time></trkpt><trkpt lat="42.740112330462765" lon="12.982671036305163"><ele>831.0</ele><time>2026-04-12T15:10:06.001Z</time></trkpt><trkpt lat="42.73999154427924" lon="12.982788629784881"><ele>826.0</ele><time>2026-04-12T15:10:07.001Z</time></trkpt><trkpt lat="42.73986132504267" lon="12.982890260977143"><ele>821.0</ele><time>2026-04-12T15:10:08.001Z</time></trkpt><trkpt lat="42.7397179031289" lon="12.982985442563752"><ele>821.0</ele><time>2026-04-12T15:10:09.001Z</time></trkpt><trkpt lat="42.739579607982954" lon="12.983078447264301"><ele>821.0</ele><time>2026-04-12T15:10:10.001Z</time></trkpt><trkpt lat="42.73946004428845" lon="12.983171759103133"><ele>821.0</ele><time>2026-04-12T15:10:11.001Z</time></trkpt><trkpt lat="42.73935225231042" lon="12.983271707080046"><ele>821.0</ele><time>2026-04-12T15:10:12.001Z</time></trkpt><trkpt lat="42.73924309735322" lon="12.983388178234424"><ele>825.0</ele><time>2026-04-12T15:10:13.001Z</time></trkpt><trkpt lat="42.73912862051044" lon="12.983566423327467"><ele>829.0</ele><time>2026-04-12T15:10:14.001Z</time></trkpt><trkpt lat="42.73907400970004" lon="12.983784130596023"><ele>833.0</ele><time>2026-04-12T15:10:15.001Z</time></trkpt><trkpt lat="42.73901027494706" lon="12.983967618990937"><ele>833.0</ele><time>2026-04-12T15:10:16.001Z</time></trkpt><trkpt lat="42.73892958420411" lon="12.984141552522086"><ele>833.0</ele><time>2026-04-12T15:10:17.001Z</time></trkpt><trkpt lat="42.738829162655925" lon="12.984306423827071"><ele>833.0</ele><time>2026-04-12T15:10:18.001Z</time></trkpt><trkpt lat="42.73869496790925" lon="12.984459486078636"><ele>837.3333333333334</ele><time>2026-04-12T15:10:19.001Z</time></trkpt><trkpt lat="42.73857439942793" lon="12.984630000100509"><ele>841.6666666666667</ele><time>2026-04-12T15:10:20.001Z</time></trkpt><trkpt lat="42.73844366377219" lon="12.984778790015472"><ele>846.0</ele><time>2026-04-12T15:10:21.001Z</time></trkpt><trkpt lat="42.73831568087087" lon="12.984920231636242"><ele>837.3333333333333</ele><time>2026-04-12T15:10:22.001Z</time></trkpt><trkpt lat="42.73819550816792" lon="12.985053229939883"><ele>828.6666666666666</ele><time>2026-04-12T15:10:23.001Z</time></trkpt><trkpt lat="42.738047408308056" lon="12.985159449945114"><ele>820.0</ele><time>2026-04-12T15:10:24.001Z</time></trkpt><trkpt lat="42.737909108140634" lon="12.985277445232802"><ele>820.0</ele><time>2026-04-12T15:10:25.001Z</time></trkpt><trkpt lat="42.7377911915025" lon="12.98542329556169"><ele>820.0</ele><time>2026-04-12T15:10:26.001Z</time></trkpt><trkpt lat="42.73768991564766" lon="12.985581511272645"><ele>820.0</ele><time>2026-04-12T15:10:27.001Z</time></trkpt><trkpt lat="42.73761230688437" lon="12.985750692294255"><ele>821.0</ele><time>2026-04-12T15:10:28.001Z</time></trkpt><trkpt lat="42.73753740629312" lon="12.985920199161576"><ele>822.0</ele><time>2026-04-12T15:10:29.001Z</time></trkpt><trkpt lat="42.73747142958003" lon="12.986080391523355"><ele>823.0</ele><time>2026-04-12T15:10:30.001Z</time></trkpt><trkpt lat="42.7374010608806" lon="12.986237264196047"><ele>824.0</ele><time>2026-04-12T15:10:31.001Z</time></trkpt><trkpt lat="42.7373236401995" lon="12.98638042708145"><ele>824.0</ele><time>2026-04-12T15:10:32.001Z</time></trkpt><trkpt lat="42.737247302823455" lon="12.986518529878607"><ele>824.0</ele><time>2026-04-12T15:10:33.001Z</time></trkpt><trkpt lat="42.737166626169476" lon="12.98664121933825"><ele>824.0</ele><time>2026-04-12T15:10:34.001Z</time></trkpt><trkpt lat="42.73706203622647" lon="12.986738209956723"><ele>824.0</ele><time>2026-04-12T15:10:35.001Z</time></trkpt><trkpt lat="42.736938297189965" lon="12.98681874526748"><ele>824.25</ele><time>2026-04-12T15:10:36.001Z</time></trkpt><trkpt lat="42.736791942012154" lon="12.986899898617331"><ele>824.5</ele><time>2026-04-12T15:10:37.001Z</time></trkpt><trkpt lat="42.73666273075426" lon="12.986975279372142"><ele>824.75</ele><time>2026-04-12T15:10:38.001Z</time></trkpt><trkpt lat="42.73655256933043" lon="12.987064343093401"><ele>825.0</ele><time>2026-04-12T15:10:39.001Z</time></trkpt><trkpt lat="42.73642662105941" lon="12.987142857513994"><ele>825.0</ele><time>2026-04-12T15:10:40.001Z</time></trkpt><trkpt lat="42.73629179432075" lon="12.987208278820253"><ele>825.0</ele><time>2026-04-12T15:10:41.001Z</time></trkpt><trkpt lat="42.73615587258917" lon="12.987293732588775"><ele>825.0</ele><time>2026-04-12T15:10:42.001Z</time></trkpt><trkpt lat="42.73601255436375" lon="12.987382827457992"><ele>827.0</ele><time>2026-04-12T15:10:43.001Z</time></trkpt><trkpt lat="42.73587231593582" lon="12.987487717598729"><ele>829.0</ele><time>2026-04-12T15:10:44.001Z</time></trkpt><trkpt lat="42.735754900825754" lon="12.987626052024064"><ele>831.0</ele><time>2026-04-12T15:10:45.001Z</time></trkpt><trkpt lat="42.7356580807413" lon="12.987812169262353"><ele>831.0</ele><time>2026-04-12T15:10:46.001Z</time></trkpt><trkpt lat="42.73557052666674" lon="12.987981271086989"><ele>831.0</ele><time>2026-04-12T15:10:47.001Z</time></trkpt><trkpt lat="42.73548638224376" lon="12.98815210595499"><ele>831.0</ele><time>2026-04-12T15:10:48.001Z</time></trkpt><trkpt lat="42.73540620949573" lon="12.98830739999851"><ele>831.0</ele><time>2026-04-12T15:10:49.001Z</time></trkpt><trkpt lat="42.735352154491004" lon="12.988454339841992"><ele>831.0</ele><time>2026-04-12T15:10:50.001Z</time></trkpt><trkpt lat="42.73530711749912" lon="12.988619987127887"><ele>831.0</ele><time>2026-04-12T15:10:51Z</time></trkpt><trkpt lat="42.735294859662105" lon="12.988773072984285"><ele>831.0</ele><time>2026-04-12T15:10:52Z</time></trkpt><trkpt lat="42.73528206214905" lon="12.988915195087435"><ele>831.0</ele><time>2026-04-12T15:10:53Z</time></trkpt><trkpt lat="42.7352684236054" lon="12.989054975123896"><ele>831.0</ele><time>2026-04-12T15:10:54Z</time></trkpt><trkpt lat="42.73524094663956" lon="12.989149198493532"><ele>831.0</ele><time>2026-04-12T15:10:55Z</time></trkpt><trkpt lat="42.73516530755416" lon="12.9892824816422"><ele>831.0</ele><time>2026-04-12T15:10:56Z</time></trkpt><trkpt lat="42.73505311312702" lon="12.98934926411546"><ele>831.0</ele><time>2026-04-12T15:10:57Z</time></trkpt><trkpt lat="42.7349512651833" lon="12.989455548588532"><ele>831.0</ele><time>2026-04-12T15:10:58Z</time></trkpt><trkpt lat="42.734837573809756" lon="12.989545703658553"><ele>831.75</ele><time>2026-04-12T15:10:59Z</time></trkpt><trkpt lat="42.73472370796467" lon="12.989647800726296"><ele>832.5</ele><time>2026-04-12T15:11:00Z</time></trkpt><trkpt lat="42.73461841294254" lon="12.989745717991461"><ele>833.25</ele><time>2026-04-12T15:11:01Z</time></trkpt><trkpt lat="42.734510951597734" lon="12.989847933779469"><ele>834.0</ele><time>2026-04-12T15:11:02Z</time></trkpt><trkpt lat="42.73440008744165" lon="12.989953134934492"><ele>832.25</ele><time>2026-04-12T15:11:03Z</time></trkpt><trkpt lat="42.734287700416495" lon="12.990058822413506"><ele>830.5</ele><time>2026-04-12T15:11:04Z</time></trkpt><trkpt lat="42.73416960304807" lon="12.99016384762551"><ele>828.75</ele><time>2026-04-12T15:11:05Z</time></trkpt><trkpt lat="42.73405479025683" lon="12.990273206859882"><ele>827.0</ele><time>2026-04-12T15:11:06Z</time></trkpt><trkpt lat="42.733929589216615" lon="12.990391818642236"><ele>827.0</ele><time>2026-04-12T15:11:07Z</time></trkpt><trkpt lat="42.733800951454796" lon="12.990498771529522"><ele>827.0</ele><time>2026-04-12T15:11:08Z</time></trkpt><trkpt lat="42.73367005151952" lon="12.990520776779734"><ele>827.0</ele><time>2026-04-12T15:11:09Z</time></trkpt><trkpt lat="42.733533536604064" lon="12.990526632750933"><ele>827.0</ele><time>2026-04-12T15:11:10Z</time></trkpt><trkpt lat="42.73340434677003" lon="12.990541148081645"><ele>827.75</ele><time>2026-04-12T15:11:11Z</time></trkpt><trkpt lat="42.733274992994644" lon="12.990547369468498"><ele>828.5</ele><time>2026-04-12T15:11:12Z</time></trkpt><trkpt lat="42.73314436808011" lon="12.990599608830355"><ele>829.25</ele><time>2026-04-12T15:11:13Z</time></trkpt><trkpt lat="42.73301772189326" lon="12.990706038963218"><ele>830.0</ele><time>2026-04-12T15:11:14Z</time></trkpt><trkpt lat="42.732912036158154" lon="12.990860264282313"><ele>829.0</ele><time>2026-04-12T15:11:15Z</time></trkpt><trkpt lat="42.73281348986793" lon="12.991024070366683"><ele>828.0</ele><time>2026-04-12T15:11:16Z</time></trkpt><trkpt lat="42.732712221397975" lon="12.991189895638266"><ele>827.0</ele><time>2026-04-12T15:11:17Z</time></trkpt><trkpt lat="42.73261084595959" lon="12.991367832969363"><ele>827.0</ele><time>2026-04-12T15:11:18Z</time></trkpt><trkpt lat="42.73250994072342" lon="12.99153631746335"><ele>827.0</ele><time>2026-04-12T15:11:19Z</time></trkpt><trkpt lat="42.73241448394797" lon="12.991710407306783"><ele>827.0</ele><time>2026-04-12T15:11:20Z</time></trkpt><trkpt lat="42.73232341470328" lon="12.991890663448336"><ele>822.3333333333334</ele><time>2026-04-12T15:11:21Z</time></trkpt><trkpt lat="42.73220657981533" lon="12.992029465727073"><ele>817.6666666666667</ele><time>2026-04-12T15:11:22Z</time></trkpt><trkpt lat="42.732095625816406" lon="12.992170652098103"><ele>813.0</ele><time>2026-04-12T15:11:23Z</time></trkpt><trkpt lat="42.731993151498635" lon="12.992318526956385"><ele>813.0</ele><time>2026-04-12T15:11:24Z</time></trkpt><trkpt lat="42.731903718551685" lon="12.992462860201886"><ele>813.0</ele><time>2026-04-12T15:11:25Z</time></trkpt><trkpt lat="42.73184075728547" lon="12.992645568376702"><ele>813.0</ele><time>2026-04-12T15:11:26Z</time></trkpt><trkpt lat="42.73178309368888" lon="12.992838218175162"><ele>813.0</ele><time>2026-04-12T15:11:27Z</time></trkpt><trkpt lat="42.73175530229148" lon="12.99305281027337"><ele>813.0</ele><time>2026-04-12T15:11:28Z</time></trkpt><trkpt lat="42.73173051243518" lon="12.99326257518436"><ele>813.0</ele><time>2026-04-12T15:11:29Z</time></trkpt><trkpt lat="42.73165721428829" lon="12.993426447634793"><ele>813.0</ele><time>2026-04-12T15:11:30Z</time></trkpt><trkpt lat="42.731563726305865" lon="12.993552269550147"><ele>813.0</ele><time>2026-04-12T15:11:31Z</time></trkpt><trkpt lat="42.731433545648564" lon="12.993647362170492"><ele>813.0</ele><time>2026-04-12T15:11:32Z</time></trkpt><trkpt lat="42.731317962685374" lon="12.993762622297508"><ele>813.0</ele><time>2026-04-12T15:11:33Z</time></trkpt><trkpt lat="42.731230867373064" lon="12.993904844703534"><ele>813.0</ele><time>2026-04-12T15:11:34Z</time></trkpt><trkpt lat="42.731158729043415" lon="12.994075902391517"><ele>813.0</ele><time>2026-04-12T15:11:35Z</time></trkpt><trkpt lat="42.73110901882006" lon="12.994238738225656"><ele>813.5</ele><time>2026-04-12T15:11:36Z</time></trkpt><trkpt lat="42.731028678254845" lon="12.994360522343747"><ele>814.0</ele><time>2026-04-12T15:11:37Z</time></trkpt><trkpt lat="42.730941838436614" lon="12.994457684132456"><ele>814.5</ele><time>2026-04-12T15:11:38Z</time></trkpt><trkpt lat="42.73080593790224" lon="12.994514986294524"><ele>815.0</ele><time>2026-04-12T15:11:39Z</time></trkpt><trkpt lat="42.73066152062138" lon="12.994623627289293"><ele>815.0</ele><time>2026-04-12T15:11:40Z</time></trkpt><trkpt lat="42.73053091287882" lon="12.99474423154794"><ele>815.0</ele><time>2026-04-12T15:11:41Z</time></trkpt><trkpt lat="42.730421447486165" lon="12.994891953914674"><ele>815.0</ele><time>2026-04-12T15:11:42Z</time></trkpt><trkpt lat="42.730315196028926" lon="12.995038972421707"><ele>816.5</ele><time>2026-04-12T15:11:43Z</time></trkpt><trkpt lat="42.73022216867432" lon="12.995190123854261"><ele>818.0</ele><time>2026-04-12T15:11:44Z</time></trkpt><trkpt lat="42.73012663647283" lon="12.995322471551178"><ele>819.5</ele><time>2026-04-12T15:11:45Z</time></trkpt><trkpt lat="42.730036306738086" lon="12.995483484420514"><ele>821.0</ele><time>2026-04-12T15:11:46Z</time></trkpt><trkpt lat="42.7299485026865" lon="12.995640346409377"><ele>821.0</ele><time>2026-04-12T15:11:47Z</time></trkpt><trkpt lat="42.729862764498954" lon="12.995799132467551"><ele>821.0</ele><time>2026-04-12T15:11:48Z</time></trkpt><trkpt lat="42.729775697924794" lon="12.995960378653624"><ele>821.0</ele><time>2026-04-12T15:11:49Z</time></trkpt><trkpt lat="42.72970072714446" lon="12.996137912470195"><ele>821.0</ele><time>2026-04-12T15:11:50Z</time></trkpt><trkpt lat="42.72961248243754" lon="12.996332090205458"><ele>820.3333333333334</ele><time>2026-04-12T15:11:51Z</time></trkpt><trkpt lat="42.729523412834816" lon="12.996563035092302"><ele>819.6666666666667</ele><time>2026-04-12T15:11:52Z</time></trkpt><trkpt lat="42.72945518402378" lon="12.996821095959364"><ele>819.0</ele><time>2026-04-12T15:11:53Z</time></trkpt><trkpt lat="42.72939496553511" lon="12.99708538659437"><ele>822.6666666666667</ele><time>2026-04-12T15:11:54Z</time></trkpt><trkpt lat="42.72932726813207" lon="12.99735983346437"><ele>826.3333333333334</ele><time>2026-04-12T15:11:55Z</time></trkpt><trkpt lat="42.72925725004916" lon="12.997604039444157"><ele>830.0</ele><time>2026-04-12T15:11:56Z</time></trkpt><trkpt lat="42.729170967030434" lon="12.997845005252904"><ele>830.0</ele><time>2026-04-12T15:11:57Z</time></trkpt><trkpt lat="42.72906578369328" lon="12.998093659164246"><ele>830.0</ele><time>2026-04-12T15:11:58Z</time></trkpt><trkpt lat="42.72896662797801" lon="12.998323370001032"><ele>830.0</ele><time>2026-04-12T15:11:59Z</time></trkpt><trkpt lat="42.728848591303496" lon="12.998573332898015"><ele>829.0</ele><time>2026-04-12T15:12:00Z</time></trkpt><trkpt lat="42.72873436507318" lon="12.99880901794395"><ele>828.0</ele><time>2026-04-12T15:12:01Z</time></trkpt><trkpt lat="42.728638262361656" lon="12.999039136546145"><ele>827.0</ele><time>2026-04-12T15:12:02.001Z</time></trkpt><trkpt lat="42.728534264677066" lon="12.99926494667592"><ele>830.6666666666667</ele><time>2026-04-12T15:12:03.001Z</time></trkpt><trkpt lat="42.72843463178291" lon="12.999459769537655"><ele>834.3333333333333</ele><time>2026-04-12T15:12:04.001Z</time></trkpt><trkpt lat="42.72835182854935" lon="12.99964903405971"><ele>838.0</ele><time>2026-04-12T15:12:05.001Z</time></trkpt><trkpt lat="42.728268469168206" lon="12.99983722609817"><ele>838.0</ele><time>2026-04-12T15:12:06.001Z</time></trkpt><trkpt lat="42.728185813674536" lon="13.000014895485634"><ele>838.0</ele><time>2026-04-12T15:12:07.001Z</time></trkpt><trkpt lat="42.72810170893772" lon="13.000189874358853"><ele>838.0</ele><time>2026-04-12T15:12:08.001Z</time></trkpt><trkpt lat="42.72801525716877" lon="13.00036838338959"><ele>838.0</ele><time>2026-04-12T15:12:09.001Z</time></trkpt><trkpt lat="42.72791764267633" lon="13.000556218529313"><ele>838.0</ele><time>2026-04-12T15:12:10.001Z</time></trkpt><trkpt lat="42.72782212945514" lon="13.000731163590933"><ele>838.0</ele><time>2026-04-12T15:12:11.001Z</time></trkpt><trkpt lat="42.72773600386733" lon="13.000921375320672"><ele>841.0</ele><time>2026-04-12T15:12:12.001Z</time></trkpt><trkpt lat="42.72763728629045" lon="13.001090421171591"><ele>844.0</ele><time>2026-04-12T15:12:13.001Z</time></trkpt><trkpt lat="42.72754153782051" lon="13.00126375423933"><ele>847.0</ele><time>2026-04-12T15:12:14.001Z</time></trkpt><trkpt lat="42.7274431569669" lon="13.001437968990752"><ele>847.0</ele><time>2026-04-12T15:12:15.001Z</time></trkpt><trkpt lat="42.72734846382132" lon="13.00161162619229"><ele>847.0</ele><time>2026-04-12T15:12:16.001Z</time></trkpt><trkpt lat="42.72723974495003" lon="13.001766877948393"><ele>847.0</ele><time>2026-04-12T15:12:17.001Z</time></trkpt><trkpt lat="42.72714335222532" lon="13.001942460988483"><ele>848.75</ele><time>2026-04-12T15:12:18.001Z</time></trkpt><trkpt lat="42.72706298413336" lon="13.002132080461873"><ele>850.5</ele><time>2026-04-12T15:12:19.001Z</time></trkpt><trkpt lat="42.72698514286683" lon="13.002294790198548"><ele>852.25</ele><time>2026-04-12T15:12:20.001Z</time></trkpt><trkpt lat="42.72693075426841" lon="13.002459730224583"><ele>854.0</ele><time>2026-04-12T15:12:21.001Z</time></trkpt><trkpt lat="42.72689685302526" lon="13.002631957964514"><ele>855.5</ele><time>2026-04-12T15:12:22.001Z</time></trkpt><trkpt lat="42.7268919878264" lon="13.002821518353347"><ele>857.0</ele><time>2026-04-12T15:12:23.001Z</time></trkpt><trkpt lat="42.726912886936596" lon="13.003010631378727"><ele>858.5</ele><time>2026-04-12T15:12:24.001Z</time></trkpt><trkpt lat="42.72693143214769" lon="13.003210717759533"><ele>860.0</ele><time>2026-04-12T15:12:25.001Z</time></trkpt><trkpt lat="42.72694585235174" lon="13.003413895939214"><ele>862.6666666666667</ele><time>2026-04-12T15:12:26.001Z</time></trkpt><trkpt lat="42.72695283537721" lon="13.003620267432323"><ele>865.3333333333333</ele><time>2026-04-12T15:12:27.001Z</time></trkpt><trkpt lat="42.72696370710527" lon="13.003832265176289"><ele>868.0</ele><time>2026-04-12T15:12:28.001Z</time></trkpt><trkpt lat="42.726971792198924" lon="13.004035703679412"><ele>868.3333333333333</ele><time>2026-04-12T15:12:29.001Z</time></trkpt><trkpt lat="42.72697201952807" lon="13.004256249584797"><ele>868.6666666666667</ele><time>2026-04-12T15:12:30.001Z</time></trkpt><trkpt lat="42.72692442670293" lon="13.004498182540091"><ele>869.0</ele><time>2026-04-12T15:12:31.001Z</time></trkpt><trkpt lat="42.726892991710535" lon="13.004774128817147"><ele>865.0</ele><time>2026-04-12T15:12:32.001Z</time></trkpt><trkpt lat="42.72684153214631" lon="13.005042558195735"><ele>861.0</ele><time>2026-04-12T15:12:33.001Z</time></trkpt><trkpt lat="42.726785197937836" lon="13.005307550310413"><ele>857.0</ele><time>2026-04-12T15:12:34.001Z</time></trkpt><trkpt lat="42.726716250221386" lon="13.005584363225886"><ele>856.3333333333334</ele><time>2026-04-12T15:12:35.001Z</time></trkpt><trkpt lat="42.726631997555906" lon="13.005852649721286"><ele>855.6666666666667</ele><time>2026-04-12T15:12:36.001Z</time></trkpt><trkpt lat="42.726506399880435" lon="13.006107097985513"><ele>855.0</ele><time>2026-04-12T15:12:37.001Z</time></trkpt><trkpt lat="42.72638723415597" lon="13.0063656818907"><ele>855.0</ele><time>2026-04-12T15:12:38.001Z</time></trkpt><trkpt lat="42.726286847085646" lon="13.006622036339788"><ele>855.0</ele><time>2026-04-12T15:12:39.001Z</time></trkpt><trkpt lat="42.72617575547882" lon="13.006856716403185"><ele>855.0</ele><time>2026-04-12T15:12:40.001Z</time></trkpt><trkpt lat="42.726072679851306" lon="13.00708339732768"><ele>849.3333333333333</ele><time>2026-04-12T15:12:41.001Z</time></trkpt><trkpt lat="42.72597719568208" lon="13.00729879694267"><ele>843.6666666666666</ele><time>2026-04-12T15:12:42.001Z</time></trkpt><trkpt lat="42.72589086872466" lon="13.007515574121538"><ele>838.0</ele><time>2026-04-12T15:12:43.001Z</time></trkpt><trkpt lat="42.72580188492909" lon="13.007723526330345"><ele>838.0</ele><time>2026-04-12T15:12:44.001Z</time></trkpt><trkpt lat="42.72575726319552" lon="13.007946512871404"><ele>838.0</ele><time>2026-04-12T15:12:45.001Z</time></trkpt><trkpt lat="42.72568217813493" lon="13.008146414258979"><ele>838.0</ele><time>2026-04-12T15:12:46.001Z</time></trkpt><trkpt lat="42.72561822086556" lon="13.008352417472565"><ele>839.0</ele><time>2026-04-12T15:12:47.001Z</time></trkpt><trkpt lat="42.725564720321145" lon="13.00855684841606"><ele>840.0</ele><time>2026-04-12T15:12:48.001Z</time></trkpt><trkpt lat="42.72549450055951" lon="13.008751558783167"><ele>841.0</ele><time>2026-04-12T15:12:49.001Z</time></trkpt><trkpt lat="42.72542632182962" lon="13.008941745581428"><ele>841.0</ele><time>2026-04-12T15:12:50.001Z</time></trkpt><trkpt lat="42.72535820735403" lon="13.009127697190854"><ele>841.0</ele><time>2026-04-12T15:12:51.001Z</time></trkpt><trkpt lat="42.72528947665742" lon="13.009324448878388"><ele>841.0</ele><time>2026-04-12T15:12:52.001Z</time></trkpt><trkpt lat="42.72523616923353" lon="13.009541841679665"><ele>832.6666666666666</ele><time>2026-04-12T15:12:53.001Z</time></trkpt><trkpt lat="42.725219200149525" lon="13.009778809734366"><ele>824.3333333333333</ele><time>2026-04-12T15:12:54.001Z</time></trkpt><trkpt lat="42.72521251136577" lon="13.01002136108049"><ele>816.0</ele><time>2026-04-12T15:12:55.001Z</time></trkpt><trkpt lat="42.72520836352103" lon="13.010264003617944"><ele>816.0</ele><time>2026-04-12T15:12:56.001Z</time></trkpt><trkpt lat="42.72518993080395" lon="13.01050141504226"><ele>816.0</ele><time>2026-04-12T15:12:57Z</time></trkpt><trkpt lat="42.72517689534242" lon="13.010726544684985"><ele>816.0</ele><time>2026-04-12T15:12:58Z</time></trkpt><trkpt lat="42.72517120237972" lon="13.010943226160997"><ele>814.6666666666667</ele><time>2026-04-12T15:12:59Z</time></trkpt><trkpt lat="42.72517995034999" lon="13.011175162293375"><ele>813.3333333333334</ele><time>2026-04-12T15:13:00Z</time></trkpt><trkpt lat="42.72519182572069" lon="13.011416294412848"><ele>812.0</ele><time>2026-04-12T15:13:01Z</time></trkpt><trkpt lat="42.72521211322016" lon="13.011664181965813"><ele>810.3333333333334</ele><time>2026-04-12T15:13:02Z</time></trkpt><trkpt lat="42.725201735688536" lon="13.011925448661358"><ele>808.6666666666667</ele><time>2026-04-12T15:13:03Z</time></trkpt><trkpt lat="42.725199438258066" lon="13.01219887807258"><ele>807.0</ele><time>2026-04-12T15:13:04Z</time></trkpt><trkpt lat="42.72520922435527" lon="13.01247966195209"><ele>806.3333333333333</ele><time>2026-04-12T15:13:05Z</time></trkpt><trkpt lat="42.725251894325595" lon="13.012754928611933"><ele>805.6666666666666</ele><time>2026-04-12T15:13:06Z</time></trkpt><trkpt lat="42.72528119717549" lon="13.01304171888942"><ele>805.0</ele><time>2026-04-12T15:13:07Z</time></trkpt><trkpt lat="42.725281948549146" lon="13.013333074756558"><ele>805.0</ele><time>2026-04-12T15:13:08Z</time></trkpt><trkpt lat="42.72527227952999" lon="13.013616470362814"><ele>805.0</ele><time>2026-04-12T15:13:09Z</time></trkpt><trkpt lat="42.725250684581745" lon="13.013886474989704"><ele>805.0</ele><time>2026-04-12T15:13:10Z</time></trkpt><trkpt lat="42.7252319238781" lon="13.014144064158561"><ele>801.6666666666666</ele><time>2026-04-12T15:13:11Z</time></trkpt><trkpt lat="42.72523696091535" lon="13.014410482954748"><ele>798.3333333333333</ele><time>2026-04-12T15:13:12Z</time></trkpt><trkpt lat="42.7252229497079" lon="13.014687306081454"><ele>795.0</ele><time>2026-04-12T15:13:13Z</time></trkpt><trkpt lat="42.72520791031937" lon="13.01497003479479"><ele>793.0</ele><time>2026-04-12T15:13:14Z</time></trkpt><trkpt lat="42.725171062550146" lon="13.015250009996643"><ele>791.0</ele><time>2026-04-12T15:13:15Z</time></trkpt><trkpt lat="42.72513659680907" lon="13.01551833926513"><ele>789.0</ele><time>2026-04-12T15:13:16Z</time></trkpt><trkpt lat="42.7251015873697" lon="13.01577767837639"><ele>787.6666666666667</ele><time>2026-04-12T15:13:17Z</time></trkpt><trkpt lat="42.72508169251947" lon="13.016034942271135"><ele>786.3333333333334</ele><time>2026-04-12T15:13:18Z</time></trkpt><trkpt lat="42.725048515687334" lon="13.016272871165473"><ele>785.0</ele><time>2026-04-12T15:13:19Z</time></trkpt><trkpt lat="42.725013044875034" lon="13.01649984447562"><ele>784.0</ele><time>2026-04-12T15:13:20Z</time></trkpt><trkpt lat="42.72497597013082" lon="13.016719912658788"><ele>783.0</ele><time>2026-04-12T15:13:21Z</time></trkpt><trkpt lat="42.72493563019392" lon="13.016931024337337"><ele>782.0</ele><time>2026-04-12T15:13:22Z</time></trkpt><trkpt lat="42.72490740470162" lon="13.017132976417834"><ele>782.0</ele><time>2026-04-12T15:13:23Z</time></trkpt><trkpt lat="42.72491083596253" lon="13.017323770141925"><ele>782.0</ele><time>2026-04-12T15:13:24Z</time></trkpt><trkpt lat="42.72496630097863" lon="13.017504299077295"><ele>782.0</ele><time>2026-04-12T15:13:25Z</time></trkpt><trkpt lat="42.72506549147468" lon="13.01766715912018"><ele>782.0</ele><time>2026-04-12T15:13:26Z</time></trkpt><trkpt lat="42.72518909402197" lon="13.017793606059534"><ele>779.75</ele><time>2026-04-12T15:13:27Z</time></trkpt><trkpt lat="42.7253280088003" lon="13.017886650475218"><ele>777.5</ele><time>2026-04-12T15:13:28Z</time></trkpt><trkpt lat="42.72546429792011" lon="13.017930933981985"><ele>775.25</ele><time>2026-04-12T15:13:29Z</time></trkpt><trkpt lat="42.7256099631198" lon="13.01791537063185"><ele>773.0</ele><time>2026-04-12T15:13:30Z</time></trkpt><trkpt lat="42.72574588380974" lon="13.017819763730088"><ele>773.0</ele><time>2026-04-12T15:13:31Z</time></trkpt><trkpt lat="42.72589031079455" lon="13.017708014176542"><ele>773.0</ele><time>2026-04-12T15:13:32Z</time></trkpt><trkpt lat="42.726022525321866" lon="13.017579227153501"><ele>773.0</ele><time>2026-04-12T15:13:33Z</time></trkpt><trkpt lat="42.72613725083754" lon="13.017467155046589"><ele>771.5999999999999</ele><time>2026-04-12T15:13:34Z</time></trkpt><trkpt lat="42.726253573444396" lon="13.01737012932849"><ele>770.1999999999999</ele><time>2026-04-12T15:13:35Z</time></trkpt><trkpt lat="42.72636365477596" lon="13.017286213586395"><ele>768.8</ele><time>2026-04-12T15:13:36Z</time></trkpt><trkpt lat="42.726440622978465" lon="13.017224477325854"><ele>767.4</ele><time>2026-04-12T15:13:37Z</time></trkpt><trkpt lat="42.726510047688876" lon="13.017179840137143"><ele>766.0</ele><time>2026-04-12T15:13:38Z</time></trkpt><trkpt lat="42.726582074214335" lon="13.01716119566054"><ele>766.0</ele><time>2026-04-12T15:13:39Z</time></trkpt><trkpt lat="42.72666172458996" lon="13.017192288413547"><ele>766.0</ele><time>2026-04-12T15:13:40Z</time></trkpt><trkpt lat="42.726717031549235" lon="13.017288317953597"><ele>766.0</ele><time>2026-04-12T15:13:41Z</time></trkpt><trkpt lat="42.726737780832465" lon="13.017434682559221"><ele>766.0</ele><time>2026-04-12T15:13:42Z</time></trkpt><trkpt lat="42.72670765812582" lon="13.017596528680599"><ele>766.0</ele><time>2026-04-12T15:13:43Z</time></trkpt><trkpt lat="42.72663544082046" lon="13.017741105270964"><ele>764.75</ele><time>2026-04-12T15:13:44Z</time></trkpt><trkpt lat="42.72654066060906" lon="13.017860747595117"><ele>763.5</ele><time>2026-04-12T15:13:45Z</time></trkpt><trkpt lat="42.72642891915203" lon="13.017983902953628"><ele>762.25</ele><time>2026-04-12T15:13:46Z</time></trkpt><trkpt lat="42.72629420770688" lon="13.01812810160018"><ele>761.0</ele><time>2026-04-12T15:13:47Z</time></trkpt><trkpt lat="42.72617173812058" lon="13.018272077881724"><ele>760.75</ele><time>2026-04-12T15:13:48Z</time></trkpt><trkpt lat="42.72606600275742" lon="13.018395832674495"><ele>760.5</ele><time>2026-04-12T15:13:49Z</time></trkpt><trkpt lat="42.725973262316785" lon="13.018504174450964"><ele>760.25</ele><time>2026-04-12T15:13:50Z</time></trkpt><trkpt lat="42.725877642769056" lon="13.018606244295569"><ele>760.0</ele><time>2026-04-12T15:13:51Z</time></trkpt><trkpt lat="42.7257948191925" lon="13.018714015149838"><ele>760.0</ele><time>2026-04-12T15:13:52Z</time></trkpt><trkpt lat="42.72570995655894" lon="13.018820368555444"><ele>760.0</ele><time>2026-04-12T15:13:53Z</time></trkpt><trkpt lat="42.72562317051147" lon="13.01892161042615"><ele>760.0</ele><time>2026-04-12T15:13:54Z</time></trkpt><trkpt lat="42.72553449060129" lon="13.019000772517565"><ele>760.0</ele><time>2026-04-12T15:13:55Z</time></trkpt><trkpt lat="42.725439027904194" lon="13.019024344021517"><ele>760.0</ele><time>2026-04-12T15:13:56Z</time></trkpt><trkpt lat="42.72535043050403" lon="13.018939969526341"><ele>760.0</ele><time>2026-04-12T15:13:57Z</time></trkpt><trkpt lat="42.72526087917892" lon="13.018831728126864"><ele>760.0</ele><time>2026-04-12T15:13:58Z</time></trkpt><trkpt lat="42.72517418436855" lon="13.018742504830842"><ele>760.0</ele><time>2026-04-12T15:13:59Z</time></trkpt><trkpt lat="42.72510243917866" lon="13.01864081529908"><ele>760.0</ele><time>2026-04-12T15:14:00Z</time></trkpt><trkpt lat="42.725035937032764" lon="13.018532902066823"><ele>760.0</ele><time>2026-04-12T15:14:01Z</time></trkpt><trkpt lat="42.7249698202847" lon="13.018435522291691"><ele>758.25</ele><time>2026-04-12T15:14:02Z</time></trkpt><trkpt lat="42.724887861846604" lon="13.018346858387558"><ele>756.5</ele><time>2026-04-12T15:14:03Z</time></trkpt><trkpt lat="42.72478256055935" lon="13.018289055597773"><ele>754.75</ele><time>2026-04-12T15:14:04.001Z</time></trkpt><trkpt lat="42.72466591154208" lon="13.018296021981481"><ele>753.0</ele><time>2026-04-12T15:14:05.001Z</time></trkpt><trkpt lat="42.724540208903335" lon="13.018289729448313"><ele>750.25</ele><time>2026-04-12T15:14:06.001Z</time></trkpt><trkpt lat="42.72444983682046" lon="13.018193458494213"><ele>747.5</ele><time>2026-04-12T15:14:07.001Z</time></trkpt><trkpt lat="42.7243655212909" lon="13.018042628899208"><ele>744.75</ele><time>2026-04-12T15:14:08.001Z</time></trkpt><trkpt lat="42.72428524517492" lon="13.017887110254563"><ele>742.0</ele><time>2026-04-12T15:14:09.001Z</time></trkpt><trkpt lat="42.72420280092735" lon="13.017746433915736"><ele>742.0</ele><time>2026-04-12T15:14:10.001Z</time></trkpt><trkpt lat="42.72411380152054" lon="13.017614283445708"><ele>742.0</ele><time>2026-04-12T15:14:11.001Z</time></trkpt><trkpt lat="42.72402618153854" lon="13.017468506580302"><ele>742.0</ele><time>2026-04-12T15:14:12.001Z</time></trkpt><trkpt lat="42.723938461787874" lon="13.017313050904045"><ele>742.0</ele><time>2026-04-12T15:14:13.001Z</time></trkpt><trkpt lat="42.723848504620065" lon="13.017161249192853"><ele>747.0</ele><time>2026-04-12T15:14:14.001Z</time></trkpt><trkpt lat="42.72376035663738" lon="13.017016983413258"><ele>752.0</ele><time>2026-04-12T15:14:15.001Z</time></trkpt><trkpt lat="42.723656684084" lon="13.016911420060305"><ele>757.0</ele><time>2026-04-12T15:14:16.001Z</time></trkpt><trkpt lat="42.723550963641244" lon="13.016831588937077"><ele>762.0</ele><time>2026-04-12T15:14:17.001Z</time></trkpt><trkpt lat="42.72345253449997" lon="13.016781226833597"><ele>753.0</ele><time>2026-04-12T15:14:18.001Z</time></trkpt><trkpt lat="42.72336355489789" lon="13.016744749184342"><ele>744.0</ele><time>2026-04-12T15:14:19.001Z</time></trkpt><trkpt lat="42.72330150015843" lon="13.016669084946727"><ele>735.0</ele><time>2026-04-12T15:14:20.001Z</time></trkpt><trkpt lat="42.72330015373647" lon="13.016539560828917"><ele>726.0</ele><time>2026-04-12T15:14:21.001Z</time></trkpt><trkpt lat="42.72332700485546" lon="13.016345624687618"><ele>717.0</ele><time>2026-04-12T15:14:22.001Z</time></trkpt><trkpt lat="42.723360045591605" lon="13.01614436549315"><ele>716.5</ele><time>2026-04-12T15:14:23.001Z</time></trkpt><trkpt lat="42.723376975059864" lon="13.015962926980428"><ele>716.0</ele><time>2026-04-12T15:14:24.001Z</time></trkpt><trkpt lat="42.72338473105058" lon="13.015797676299158"><ele>715.5</ele><time>2026-04-12T15:14:25.001Z</time></trkpt><trkpt lat="42.723368793413734" lon="13.015629504919161"><ele>715.0</ele><time>2026-04-12T15:14:26.001Z</time></trkpt><trkpt lat="42.723313591603336" lon="13.015468073071897"><ele>713.3333333333334</ele><time>2026-04-12T15:14:27.001Z</time></trkpt><trkpt lat="42.72328776359419" lon="13.015284642054116"><ele>711.6666666666666</ele><time>2026-04-12T15:14:28.001Z</time></trkpt><trkpt lat="42.72330303030337" lon="13.015070123880225"><ele>710.0</ele><time>2026-04-12T15:14:29.001Z</time></trkpt><trkpt lat="42.723329413085075" lon="13.014862040170266"><ele>708.75</ele><time>2026-04-12T15:14:30.001Z</time></trkpt><trkpt lat="42.723358471506074" lon="13.014678520132856"><ele>707.5</ele><time>2026-04-12T15:14:31.001Z</time></trkpt><trkpt lat="42.72337269976383" lon="13.014514948452605"><ele>706.25</ele><time>2026-04-12T15:14:32.001Z</time></trkpt><trkpt lat="42.72339451580258" lon="13.01436569557031"><ele>705.0</ele><time>2026-04-12T15:14:33.001Z</time></trkpt><trkpt lat="42.72341454652437" lon="13.014231383455973"><ele>708.0</ele><time>2026-04-12T15:14:34.001Z</time></trkpt><trkpt lat="42.723418314555595" lon="13.014106975794821"><ele>711.0</ele><time>2026-04-12T15:14:35.001Z</time></trkpt><trkpt lat="42.7233638326517" lon="13.013973056077091"><ele>714.0</ele><time>2026-04-12T15:14:36.001Z</time></trkpt><trkpt lat="42.72325162641982" lon="13.013852939203698"><ele>717.0</ele><time>2026-04-12T15:14:37.001Z</time></trkpt><trkpt lat="42.72315706766396" lon="13.013734287965562"><ele>717.0</ele><time>2026-04-12T15:14:38.001Z</time></trkpt><trkpt lat="42.723103852917646" lon="13.013575449133521"><ele>717.0</ele><time>2026-04-12T15:14:39.001Z</time></trkpt><trkpt lat="42.723072014092565" lon="13.0133877688669"><ele>717.0</ele><time>2026-04-12T15:14:40.001Z</time></trkpt><trkpt lat="42.723033514906" lon="13.013191655288722"><ele>717.0</ele><time>2026-04-12T15:14:41.001Z</time></trkpt><trkpt lat="42.72298094297076" lon="13.013021513186267"><ele>719.0</ele><time>2026-04-12T15:14:42.001Z</time></trkpt><trkpt lat="42.72293437269831" lon="13.012857782396084"><ele>721.0</ele><time>2026-04-12T15:14:43.001Z</time></trkpt><trkpt lat="42.722884637004874" lon="13.012701679441285"><ele>723.0</ele><time>2026-04-12T15:14:44.001Z</time></trkpt><trkpt lat="42.722832636881776" lon="13.012548348383598"><ele>725.0</ele><time>2026-04-12T15:14:45.001Z</time></trkpt><trkpt lat="42.72278142023773" lon="13.012411334776894"><ele>726.25</ele><time>2026-04-12T15:14:46.001Z</time></trkpt><trkpt lat="42.722729487212355" lon="13.01225863612778"><ele>727.5</ele><time>2026-04-12T15:14:47.001Z</time></trkpt><trkpt lat="42.722736006222455" lon="13.012088468068608"><ele>728.75</ele><time>2026-04-12T15:14:48.001Z</time></trkpt><trkpt lat="42.72271878655285" lon="13.011929141955804"><ele>730.0</ele><time>2026-04-12T15:14:49.001Z</time></trkpt><trkpt lat="42.722683655849465" lon="13.011784242822566"><ele>721.5</ele><time>2026-04-12T15:14:50.001Z</time></trkpt><trkpt lat="42.72258984752327" lon="13.011666399679727"><ele>713.0</ele><time>2026-04-12T15:14:51.001Z</time></trkpt><trkpt lat="42.722489600528284" lon="13.011576874789426"><ele>704.5</ele><time>2026-04-12T15:14:52.001Z</time></trkpt><trkpt lat="42.722395579099114" lon="13.011491924347192"><ele>696.0</ele><time>2026-04-12T15:14:53.001Z</time></trkpt><trkpt lat="42.72229600518683" lon="13.011408310357663"><ele>696.0</ele><time>2026-04-12T15:14:54.001Z</time></trkpt><trkpt lat="42.722194084484194" lon="13.011332633485795"><ele>696.0</ele><time>2026-04-12T15:14:55.001Z</time></trkpt><trkpt lat="42.7221023676945" lon="13.011244231435565"><ele>696.0</ele><time>2026-04-12T15:14:56.001Z</time></trkpt><trkpt lat="42.72203494876565" lon="13.011128679684871"><ele>696.0</ele><time>2026-04-12T15:14:57.001Z</time></trkpt><trkpt lat="42.72201559057955" lon="13.010963339587512"><ele>697.0</ele><time>2026-04-12T15:14:58.001Z</time></trkpt><trkpt lat="42.7220323928804" lon="13.010786400213139"><ele>698.0</ele><time>2026-04-12T15:14:59.001Z</time></trkpt><trkpt lat="42.7220513745994" lon="13.010598116104235"><ele>699.0</ele><time>2026-04-12T15:15:00.001Z</time></trkpt><trkpt lat="42.72205532287262" lon="13.010404219484496"><ele>700.0</ele><time>2026-04-12T15:15:01.001Z</time></trkpt><trkpt lat="42.7220818007339" lon="13.010213769340028"><ele>700.0</ele><time>2026-04-12T15:15:02.001Z</time></trkpt><trkpt lat="42.722120565077546" lon="13.010044895571859"><ele>700.0</ele><time>2026-04-12T15:15:03Z</time></trkpt><trkpt lat="42.7221529963652" lon="13.00988340446402"><ele>700.0</ele><time>2026-04-12T15:15:04Z</time></trkpt><trkpt lat="42.722174309115566" lon="13.00972133938222"><ele>700.0</ele><time>2026-04-12T15:15:05Z</time></trkpt><trkpt lat="42.72217056871115" lon="13.009559351404517"><ele>702.75</ele><time>2026-04-12T15:15:06Z</time></trkpt><trkpt lat="42.72213623846603" lon="13.009403903018548"><ele>705.5</ele><time>2026-04-12T15:15:07Z</time></trkpt><trkpt lat="42.72203960161732" lon="13.009271172417499"><ele>708.25</ele><time>2026-04-12T15:15:08Z</time></trkpt><trkpt lat="42.721927858568584" lon="13.00914879172253"><ele>711.0</ele><time>2026-04-12T15:15:09Z</time></trkpt><trkpt lat="42.72186361688535" lon="13.008999227463422"><ele>703.25</ele><time>2026-04-12T15:15:10Z</time></trkpt><trkpt lat="42.721797804721454" lon="13.008834134346717"><ele>695.5</ele><time>2026-04-12T15:15:11Z</time></trkpt><trkpt lat="42.7217192589023" lon="13.008704666917327"><ele>687.75</ele><time>2026-04-12T15:15:12Z</time></trkpt><trkpt lat="42.72163485473292" lon="13.008574225074154"><ele>680.0</ele><time>2026-04-12T15:15:13Z</time></trkpt><trkpt lat="42.721536551586475" lon="13.00845087410016"><ele>680.0</ele><time>2026-04-12T15:15:14Z</time></trkpt><trkpt lat="42.721436519021886" lon="13.008362521589136"><ele>680.0</ele><time>2026-04-12T15:15:15Z</time></trkpt><trkpt lat="42.72133550456761" lon="13.008269764265673"><ele>680.0</ele><time>2026-04-12T15:15:16Z</time></trkpt><trkpt lat="42.721228142387574" lon="13.008204712170505"><ele>680.0</ele><time>2026-04-12T15:15:17Z</time></trkpt><trkpt lat="42.721120503286606" lon="13.008154921844405"><ele>674.2</ele><time>2026-04-12T15:15:18Z</time></trkpt><trkpt lat="42.72101403847678" lon="13.00809155667161"><ele>668.4</ele><time>2026-04-12T15:15:19Z</time></trkpt><trkpt lat="42.72090231847845" lon="13.00801815700592"><ele>662.5999999999999</ele><time>2026-04-12T15:15:20Z</time></trkpt><trkpt lat="42.72081813462575" lon="13.00796759421836"><ele>656.8</ele><time>2026-04-12T15:15:21Z</time></trkpt><trkpt lat="42.72072996575363" lon="13.007926171851608"><ele>651.0</ele><time>2026-04-12T15:15:22Z</time></trkpt><trkpt lat="42.720669166806246" lon="13.007862817776378"><ele>651.0</ele><time>2026-04-12T15:15:23Z</time></trkpt><trkpt lat="42.72065325783078" lon="13.007751608497506"><ele>651.0</ele><time>2026-04-12T15:15:24Z</time></trkpt><trkpt lat="42.72069440587951" lon="13.007611413169622"><ele>651.0</ele><time>2026-04-12T15:15:25Z</time></trkpt><trkpt lat="42.72077237749682" lon="13.00748773560118"><ele>651.0</ele><time>2026-04-12T15:15:26Z</time></trkpt><trkpt lat="42.72084566622085" lon="13.007356068793722"><ele>651.0</ele><time>2026-04-12T15:15:27Z</time></trkpt><trkpt lat="42.72091235047697" lon="13.007232969667632"><ele>649.0</ele><time>2026-04-12T15:15:28Z</time></trkpt><trkpt lat="42.720975255272045" lon="13.00711941172211"><ele>647.0</ele><time>2026-04-12T15:15:29Z</time></trkpt><trkpt lat="42.72106214580495" lon="13.007049391834991"><ele>645.0</ele><time>2026-04-12T15:15:30Z</time></trkpt><trkpt lat="42.72113596290389" lon="13.006975134312917"><ele>643.0</ele><time>2026-04-12T15:15:31Z</time></trkpt><trkpt lat="42.72120319456057" lon="13.00690752923516"><ele>641.0</ele><time>2026-04-12T15:15:32Z</time></trkpt><trkpt lat="42.721222426912234" lon="13.006783891301815"><ele>642.5</ele><time>2026-04-12T15:15:33Z</time></trkpt><trkpt lat="42.72117987742182" lon="13.00660821328369"><ele>644.0</ele><time>2026-04-12T15:15:34Z</time></trkpt><trkpt lat="42.72112218392247" lon="13.006470061440105"><ele>645.5</ele><time>2026-04-12T15:15:35Z</time></trkpt><trkpt lat="42.72106112713014" lon="13.006345678918393"><ele>647.0</ele><time>2026-04-12T15:15:36Z</time></trkpt><trkpt lat="42.720999430913295" lon="13.00621487895898"><ele>647.0</ele><time>2026-04-12T15:15:37Z</time></trkpt><trkpt lat="42.72094182390832" lon="13.006077418839856"><ele>647.0</ele><time>2026-04-12T15:15:38Z</time></trkpt><trkpt lat="42.720879234217485" lon="13.005937579741815"><ele>647.0</ele><time>2026-04-12T15:15:39Z</time></trkpt><trkpt lat="42.72080804983296" lon="13.005796451023349"><ele>647.0</ele><time>2026-04-12T15:15:40Z</time></trkpt><trkpt lat="42.72072854694063" lon="13.00566883716181"><ele>652.0</ele><time>2026-04-12T15:15:41Z</time></trkpt><trkpt lat="42.72062923834977" lon="13.005560871536057"><ele>657.0</ele><time>2026-04-12T15:15:42Z</time></trkpt><trkpt lat="42.720513281508936" lon="13.005485613844632"><ele>662.0</ele><time>2026-04-12T15:15:43Z</time></trkpt><trkpt lat="42.72039389258444" lon="13.005429908624354"><ele>667.0</ele><time>2026-04-12T15:15:44Z</time></trkpt><trkpt lat="42.72028350640718" lon="13.005400692792598"><ele>659.8000000000001</ele><time>2026-04-12T15:15:45Z</time></trkpt><trkpt lat="42.72018382270642" lon="13.005361240596645"><ele>652.6</ele><time>2026-04-12T15:15:46Z</time></trkpt><trkpt lat="42.72010617733306" lon="13.005291861151468"><ele>645.4000000000001</ele><time>2026-04-12T15:15:47Z</time></trkpt><trkpt lat="42.72006690176194" lon="13.00518373224412"><ele>638.2</ele><time>2026-04-12T15:15:48Z</time></trkpt><trkpt lat="42.72008749028012" lon="13.00506837208522"><ele>631.0</ele><time>2026-04-12T15:15:49Z</time></trkpt><trkpt lat="42.720164099798815" lon="13.004976251206736"><ele>640.8</ele><time>2026-04-12T15:15:50Z</time></trkpt><trkpt lat="42.72026856277998" lon="13.004917872468932"><ele>650.6</ele><time>2026-04-12T15:15:51Z</time></trkpt><trkpt lat="42.72033038279444" lon="13.004807102124936"><ele>660.4</ele><time>2026-04-12T15:15:52Z</time></trkpt><trkpt lat="42.720376405478085" lon="13.004696998501496"><ele>670.2</ele><time>2026-04-12T15:15:53Z</time></trkpt><trkpt lat="42.72040374234975" lon="13.004565338817253"><ele>680.0</ele><time>2026-04-12T15:15:54Z</time></trkpt><trkpt lat="42.720381352236764" lon="13.004402845511866"><ele>680.0</ele><time>2026-04-12T15:15:55Z</time></trkpt><trkpt lat="42.72034898345919" lon="13.004266108436232"><ele>680.0</ele><time>2026-04-12T15:15:56Z</time></trkpt><trkpt lat="42.720317122818116" lon="13.004142741947716"><ele>680.0</ele><time>2026-04-12T15:15:57Z</time></trkpt><trkpt lat="42.72026697953211" lon="13.004024316274064"><ele>680.0</ele><time>2026-04-12T15:15:58Z</time></trkpt><trkpt lat="42.72020438429949" lon="13.003927824199534"><ele>680.0</ele><time>2026-04-12T15:15:59Z</time></trkpt><trkpt lat="42.720139499338686" lon="13.003842808343773"><ele>673.8571428571429</ele><time>2026-04-12T15:16:00Z</time></trkpt><trkpt lat="42.72008667793915" lon="13.003778538521871"><ele>667.7142857142857</ele><time>2026-04-12T15:16:01Z</time></trkpt><trkpt lat="42.7200356345276" lon="13.003726118980673"><ele>661.5714285714286</ele><time>2026-04-12T15:16:02Z</time></trkpt><trkpt lat="42.71999360447959" lon="13.003657424818734"><ele>655.4285714285714</ele><time>2026-04-12T15:16:04Z</time></trkpt><trkpt lat="42.71994481062741" lon="13.003594896506495"><ele>649.2857142857142</ele><time>2026-04-12T15:16:08Z</time></trkpt><trkpt lat="42.719898640414115" lon="13.003523919188495"><ele>643.1428571428571</ele><time>2026-04-12T15:16:11Z</time></trkpt><trkpt lat="42.71982712025811" lon="13.003502180960718"><ele>637.0</ele><time>2026-04-12T15:16:13Z</time></trkpt><trkpt lat="42.719765766476606" lon="13.003700564616118"><ele>637.0</ele><time>2026-04-12T15:16:15Z</time></trkpt><trkpt lat="42.71973847342163" lon="13.003802417396146"><ele>637.0</ele><time>2026-04-12T15:16:16Z</time></trkpt><trkpt lat="42.71970027702402" lon="13.003929015168968"><ele>637.0</ele><time>2026-04-12T15:16:17Z</time></trkpt><trkpt lat="42.7196551817174" lon="13.004066966354896"><ele>637.0</ele><time>2026-04-12T15:16:18Z</time></trkpt><trkpt lat="42.71961324109753" lon="13.004193015410182"><ele>637.0</ele><time>2026-04-12T15:16:19Z</time></trkpt><trkpt lat="42.71957884396307" lon="13.004322463590679"><ele>635.8000000000001</ele><time>2026-04-12T15:16:20Z</time></trkpt><trkpt lat="42.71954772322781" lon="13.004451861755815"><ele>634.6</ele><time>2026-04-12T15:16:21Z</time></trkpt><trkpt lat="42.71952307643423" lon="13.00458171696962"><ele>633.4000000000001</ele><time>2026-04-12T15:16:22Z</time></trkpt><trkpt lat="42.719505205962506" lon="13.004713685320846"><ele>632.2</ele><time>2026-04-12T15:16:23Z</time></trkpt><trkpt lat="42.71947857865176" lon="13.004838882093843"><ele>631.0</ele><time>2026-04-12T15:16:24Z</time></trkpt><trkpt lat="42.719461147513236" lon="13.004981202903217"><ele>630.2</ele><time>2026-04-12T15:16:25.001Z</time></trkpt><trkpt lat="42.719450061691404" lon="13.005118809132984"><ele>629.4000000000001</ele><time>2026-04-12T15:16:26.001Z</time></trkpt><trkpt lat="42.71943840978491" lon="13.005264100672523"><ele>628.6</ele><time>2026-04-12T15:16:27.001Z</time></trkpt><trkpt lat="42.7194383269924" lon="13.005403126077907"><ele>627.8000000000001</ele><time>2026-04-12T15:16:28.001Z</time></trkpt><trkpt lat="42.71944051055381" lon="13.00554681750169"><ele>627.0</ele><time>2026-04-12T15:16:29.001Z</time></trkpt><trkpt lat="42.719448625033614" lon="13.005682159058864"><ele>627.0</ele><time>2026-04-12T15:16:30.001Z</time></trkpt><trkpt lat="42.71946216260855" lon="13.005817240464767"><ele>627.0</ele><time>2026-04-12T15:16:31.001Z</time></trkpt><trkpt lat="42.719483085443926" lon="13.005956147339273"><ele>627.0</ele><time>2026-04-12T15:16:32.001Z</time></trkpt><trkpt lat="42.719500794541965" lon="13.006097571110061"><ele>627.0</ele><time>2026-04-12T15:16:33.001Z</time></trkpt><trkpt lat="42.71952547013035" lon="13.006242218508287"><ele>627.0</ele><time>2026-04-12T15:16:34.001Z</time></trkpt><trkpt lat="42.719551604726355" lon="13.006384257014455"><ele>626.6</ele><time>2026-04-12T15:16:35.001Z</time></trkpt><trkpt lat="42.7195800493844" lon="13.006508508247567"><ele>626.2</ele><time>2026-04-12T15:16:36.001Z</time></trkpt><trkpt lat="42.71960650809968" lon="13.006624788963958"><ele>625.8</ele><time>2026-04-12T15:16:37.001Z</time></trkpt><trkpt lat="42.719638750268686" lon="13.006764329119852"><ele>625.4</ele><time>2026-04-12T15:16:38.001Z</time></trkpt><trkpt lat="42.719672001578694" lon="13.00690805148452"><ele>625.0</ele><time>2026-04-12T15:16:39.001Z</time></trkpt><trkpt lat="42.719708699122144" lon="13.007064752354236"><ele>624.6666666666667</ele><time>2026-04-12T15:16:40.001Z</time></trkpt><trkpt lat="42.719756708031724" lon="13.007262670780971"><ele>624.3333333333334</ele><time>2026-04-12T15:16:41.001Z</time></trkpt><trkpt lat="42.7197981355286" lon="13.007462754526198"><ele>624.0</ele><time>2026-04-12T15:16:42.001Z</time></trkpt><trkpt lat="42.71984091572926" lon="13.007676407137755"><ele>624.0</ele><time>2026-04-12T15:16:43.001Z</time></trkpt><trkpt lat="42.71989751075365" lon="13.007909912510714"><ele>624.0</ele><time>2026-04-12T15:16:44.001Z</time></trkpt><trkpt lat="42.71995979003861" lon="13.008154382910478"><ele>624.0</ele><time>2026-04-12T15:16:45.001Z</time></trkpt><trkpt lat="42.720038133107636" lon="13.008456583021795"><ele>623.0</ele><time>2026-04-12T15:16:46.001Z</time></trkpt><trkpt lat="42.72014594312027" lon="13.008781704255467"><ele>622.0</ele><time>2026-04-12T15:16:47.001Z</time></trkpt><trkpt lat="42.720281795321355" lon="13.00913598091623"><ele>620.5</ele><time>2026-04-12T15:16:48.001Z</time></trkpt><trkpt lat="42.720435950154794" lon="13.009490152055873"><ele>619.0</ele><time>2026-04-12T15:16:49.001Z</time></trkpt><trkpt lat="42.72059816236076" lon="13.009846455122789"><ele>616.5</ele><time>2026-04-12T15:16:50.001Z</time></trkpt><trkpt lat="42.72074879248935" lon="13.010182905008532"><ele>614.0</ele><time>2026-04-12T15:16:51.001Z</time></trkpt><trkpt lat="42.72088629160362" lon="13.010502369590348"><ele>614.0</ele><time>2026-04-12T15:16:52.001Z</time></trkpt><trkpt lat="42.72101573080544" lon="13.010809964870797"><ele>614.0</ele><time>2026-04-12T15:16:53.001Z</time></trkpt><trkpt lat="42.72112328925222" lon="13.011132597695454"><ele>627.0</ele><time>2026-04-12T15:16:54.001Z</time></trkpt><trkpt lat="42.72122592970469" lon="13.011454351067288"><ele>640.0</ele><time>2026-04-12T15:16:55.001Z</time></trkpt><trkpt lat="42.721315686423274" lon="13.01179515931364"><ele>640.0</ele><time>2026-04-12T15:16:56.001Z</time></trkpt><trkpt lat="42.72139219735191" lon="13.012144197931178"><ele>640.0</ele><time>2026-04-12T15:16:57.001Z</time></trkpt><trkpt lat="42.72145165472152" lon="13.012498639872637"><ele>636.0</ele><time>2026-04-12T15:16:58.001Z</time></trkpt><trkpt lat="42.72149408526874" lon="13.012846225205148"><ele>632.0</ele><time>2026-04-12T15:16:59.001Z</time></trkpt><trkpt lat="42.72153851369882" lon="13.013179106964687"><ele>626.5</ele><time>2026-04-12T15:17:00.001Z</time></trkpt><trkpt lat="42.72155203421351" lon="13.013552307070432"><ele>621.0</ele><time>2026-04-12T15:17:01.001Z</time></trkpt><trkpt lat="42.72153479103987" lon="13.013916214707873"><ele>617.5</ele><time>2026-04-12T15:17:02.001Z</time></trkpt><trkpt lat="42.721516481687765" lon="13.014273431856573"><ele>614.0</ele><time>2026-04-12T15:17:03.001Z</time></trkpt><trkpt lat="42.721484097608005" lon="13.01462549343241"><ele>614.0</ele><time>2026-04-12T15:17:04.001Z</time></trkpt><trkpt lat="42.721463319849164" lon="13.014974151505859"><ele>614.0</ele><time>2026-04-12T15:17:05.001Z</time></trkpt><trkpt lat="42.7214226666957" lon="13.015314604107488"><ele>613.5</ele><time>2026-04-12T15:17:06.001Z</time></trkpt><trkpt lat="42.721388662003356" lon="13.015646080074378"><ele>613.0</ele><time>2026-04-12T15:17:07.001Z</time></trkpt><trkpt lat="42.72135835903207" lon="13.015999926471086"><ele>613.0</ele><time>2026-04-12T15:17:08.001Z</time></trkpt><trkpt lat="42.72132632931188" lon="13.016353710365584"><ele>613.0</ele><time>2026-04-12T15:17:09Z</time></trkpt><trkpt lat="42.721295089643654" lon="13.016710561517568"><ele>617.5</ele><time>2026-04-12T15:17:10Z</time></trkpt><trkpt lat="42.72126658589724" lon="13.017057877368515"><ele>622.0</ele><time>2026-04-12T15:17:11Z</time></trkpt><trkpt lat="42.72123632407826" lon="13.017394987587322"><ele>623.6666666666667</ele><time>2026-04-12T15:17:12Z</time></trkpt><trkpt lat="42.72120998812108" lon="13.017704913575457"><ele>625.3333333333334</ele><time>2026-04-12T15:17:13Z</time></trkpt><trkpt lat="42.721197004463015" lon="13.017995404132199"><ele>627.0</ele><time>2026-04-12T15:17:14Z</time></trkpt><trkpt lat="42.721204866510526" lon="13.018270395786432"><ele>621.6666666666666</ele><time>2026-04-12T15:17:15Z</time></trkpt><trkpt lat="42.72121267349621" lon="13.018545501712364"><ele>616.3333333333333</ele><time>2026-04-12T15:17:16Z</time></trkpt><trkpt lat="42.72123786220578" lon="13.018797437807471"><ele>611.0</ele><time>2026-04-12T15:17:17Z</time></trkpt><trkpt lat="42.72126449009796" lon="13.019052240383624"><ele>608.6666666666666</ele><time>2026-04-12T15:17:18Z</time></trkpt><trkpt lat="42.721297711533744" lon="13.019292626888644"><ele>606.3333333333334</ele><time>2026-04-12T15:17:19Z</time></trkpt><trkpt lat="42.72133562557945" lon="13.019523625301995"><ele>604.0</ele><time>2026-04-12T15:17:20Z</time></trkpt><trkpt lat="42.72138240531505" lon="13.019739960767447"><ele>604.0</ele><time>2026-04-12T15:17:21Z</time></trkpt><trkpt lat="42.72142976843522" lon="13.019944796986215"><ele>604.0</ele><time>2026-04-12T15:17:22Z</time></trkpt><trkpt lat="42.72147997703511" lon="13.020130187314807"><ele>604.0</ele><time>2026-04-12T15:17:23Z</time></trkpt><trkpt lat="42.72152741138074" lon="13.020293129344934"><ele>604.0</ele><time>2026-04-12T15:17:24Z</time></trkpt><trkpt lat="42.72157401721728" lon="13.020443502807794"><ele>603.6666666666667</ele><time>2026-04-12T15:17:25Z</time></trkpt><trkpt lat="42.72161154010201" lon="13.020571849695134"><ele>603.3333333333334</ele><time>2026-04-12T15:17:26Z</time></trkpt><trkpt lat="42.7216402938722" lon="13.020681520845953"><ele>603.0</ele><time>2026-04-12T15:17:27Z</time></trkpt><trkpt lat="42.72166096786469" lon="13.020778074577942"><ele>602.6666666666666</ele><time>2026-04-12T15:17:28Z</time></trkpt><trkpt lat="42.72166765628993" lon="13.020865858932648"><ele>602.3333333333333</ele><time>2026-04-12T15:17:29Z</time></trkpt><trkpt lat="42.72164345275305" lon="13.020946295162867"><ele>602.0</ele><time>2026-04-12T15:17:30Z</time></trkpt><trkpt lat="42.721573755018746" lon="13.020996343660864"><ele>602.0</ele><time>2026-04-12T15:17:31Z</time></trkpt><trkpt lat="42.7214735127465" lon="13.020979419462238"><ele>602.0</ele><time>2026-04-12T15:17:32Z</time></trkpt><trkpt lat="42.72137396320939" lon="13.020909851218617"><ele>602.0</ele><time>2026-04-12T15:17:33Z</time></trkpt><trkpt lat="42.72127036672813" lon="13.020854329583253"><ele>602.0</ele><time>2026-04-12T15:17:34Z</time></trkpt><trkpt lat="42.72118442906159" lon="13.020844952941012"><ele>602.0</ele><time>2026-04-12T15:17:35Z</time></trkpt><trkpt lat="42.72110595332893" lon="13.020831379261685"><ele>602.0</ele><time>2026-04-12T15:17:36Z</time></trkpt><trkpt lat="42.721039327608345" lon="13.020821355198429"><ele>602.0</ele><time>2026-04-12T15:17:37Z</time></trkpt><trkpt lat="42.720918049826935" lon="13.020810952814045"><ele>602.0</ele><time>2026-04-12T15:17:39Z</time></trkpt><trkpt lat="42.72078721317601" lon="13.020809972660908"><ele>602.0</ele><time>2026-04-12T15:17:41Z</time></trkpt><trkpt lat="42.72071249767986" lon="13.020806664557698"><ele>602.0</ele><time>2026-04-12T15:17:42Z</time></trkpt><trkpt lat="42.72063392287492" lon="13.020803082744935"><ele>602.0</ele><time>2026-04-12T15:17:43Z</time></trkpt><trkpt lat="42.720549346634215" lon="13.020805111648615"><ele>602.0</ele><time>2026-04-12T15:17:44Z</time></trkpt><trkpt lat="42.720462900347876" lon="13.020801801684248"><ele>602.0</ele><time>2026-04-12T15:17:45Z</time></trkpt><trkpt lat="42.72036468657794" lon="13.020798449711767"><ele>602.0</ele><time>2026-04-12T15:17:46Z</time></trkpt><trkpt lat="42.72026781886319" lon="13.020795200232598"><ele>602.0</ele><time>2026-04-12T15:17:47Z</time></trkpt><trkpt lat="42.72016903635088" lon="13.02079331321731"><ele>602.6</ele><time>2026-04-12T15:17:48Z</time></trkpt><trkpt lat="42.720069796735466" lon="13.020794467495554"><ele>603.2</ele><time>2026-04-12T15:17:49Z</time></trkpt><trkpt lat="42.719969357432845" lon="13.020789183741705"><ele>603.8</ele><time>2026-04-12T15:17:50Z</time></trkpt><trkpt lat="42.71987409450918" lon="13.02076368963528"><ele>604.4</ele><time>2026-04-12T15:17:51Z</time></trkpt><trkpt lat="42.71976184489456" lon="13.020716361665448"><ele>605.0</ele><time>2026-04-12T15:17:52Z</time></trkpt><trkpt lat="42.719654295921536" lon="13.020652561043276"><ele>605.0</ele><time>2026-04-12T15:17:53Z</time></trkpt><trkpt lat="42.71955986019107" lon="13.020547534254314"><ele>605.0</ele><time>2026-04-12T15:17:54Z</time></trkpt><trkpt lat="42.719480916299126" lon="13.020403002427349"><ele>605.0</ele><time>2026-04-12T15:17:55Z</time></trkpt><trkpt lat="42.71942440152517" lon="13.020222771817762"><ele>605.0</ele><time>2026-04-12T15:17:56Z</time></trkpt><trkpt lat="42.719401450011766" lon="13.020021419736864"><ele>605.0</ele><time>2026-04-12T15:17:57Z</time></trkpt><trkpt lat="42.71940416745776" lon="13.019815110901513"><ele>605.0</ele><time>2026-04-12T15:17:58Z</time></trkpt><trkpt lat="42.719400612628576" lon="13.019610135381091"><ele>605.0</ele><time>2026-04-12T15:17:59Z</time></trkpt><trkpt lat="42.71939109867513" lon="13.019402001874177"><ele>607.3333333333333</ele><time>2026-04-12T15:18:00Z</time></trkpt><trkpt lat="42.71937090832967" lon="13.019179596686294"><ele>609.6666666666666</ele><time>2026-04-12T15:18:01Z</time></trkpt><trkpt lat="42.71933777485411" lon="13.01896187985732"><ele>612.0</ele><time>2026-04-12T15:18:02Z</time></trkpt><trkpt lat="42.7192743162008" lon="13.018786266122156"><ele>612.0</ele><time>2026-04-12T15:18:03Z</time></trkpt><trkpt lat="42.719207057274225" lon="13.018684780158916"><ele>612.0</ele><time>2026-04-12T15:18:04Z</time></trkpt><trkpt lat="42.719130264127976" lon="13.018591829079856"><ele>612.0</ele><time>2026-04-12T15:18:06Z</time></trkpt><trkpt lat="42.71899962691519" lon="13.018476856690276"><ele>612.0</ele><time>2026-04-12T15:18:08Z</time></trkpt><trkpt lat="42.71889156789162" lon="13.018371883792165"><ele>613.0</ele><time>2026-04-12T15:18:09Z</time></trkpt><trkpt lat="42.71875348774184" lon="13.01825407448999"><ele>614.0</ele><time>2026-04-12T15:18:10Z</time></trkpt><trkpt lat="42.71858127601637" lon="13.018088447588365"><ele>615.0</ele><time>2026-04-12T15:18:11Z</time></trkpt><trkpt lat="42.71839937333215" lon="13.017929884813725"><ele>615.0</ele><time>2026-04-12T15:18:12Z</time></trkpt><trkpt lat="42.71820263794723" lon="13.017790833640758"><ele>615.0</ele><time>2026-04-12T15:18:13Z</time></trkpt><trkpt lat="42.718037068920566" lon="13.017676958672993"><ele>615.0</ele><time>2026-04-12T15:18:14Z</time></trkpt><trkpt lat="42.71789319065283" lon="13.01760911529551"><ele>615.0</ele><time>2026-04-12T15:18:15Z</time></trkpt><trkpt lat="42.71775049311733" lon="13.01753707485035"><ele>615.0</ele><time>2026-04-12T15:18:16Z</time></trkpt><trkpt lat="42.717599119875146" lon="13.017453852542983"><ele>615.0</ele><time>2026-04-12T15:18:17Z</time></trkpt><trkpt lat="42.717454593663135" lon="13.017364654698971"><ele>615.75</ele><time>2026-04-12T15:18:18Z</time></trkpt><trkpt lat="42.717325912850534" lon="13.017286364985363"><ele>616.5</ele><time>2026-04-12T15:18:19Z</time></trkpt><trkpt lat="42.71721559650818" lon="13.017214708222536"><ele>617.25</ele><time>2026-04-12T15:18:20Z</time></trkpt><trkpt lat="42.71711105108363" lon="13.017147142678056"><ele>618.0</ele><time>2026-04-12T15:18:21Z</time></trkpt><trkpt lat="42.71701602899336" lon="13.017094338806896"><ele>618.0</ele><time>2026-04-12T15:18:22Z</time></trkpt><trkpt lat="42.716920158417686" lon="13.017023682910496"><ele>618.0</ele><time>2026-04-12T15:18:23Z</time></trkpt><trkpt lat="42.71683465470052" lon="13.016935488547423"><ele>618.0</ele><time>2026-04-12T15:18:24Z</time></trkpt><trkpt lat="42.71675987268093" lon="13.016830325183257"><ele>618.0</ele><time>2026-04-12T15:18:25Z</time></trkpt><trkpt lat="42.716695135856284" lon="13.016716109663674"><ele>618.0</ele><time>2026-04-12T15:18:26Z</time></trkpt><trkpt lat="42.716639210820425" lon="13.016595284046863"><ele>620.4</ele><time>2026-04-12T15:18:27Z</time></trkpt><trkpt lat="42.71657825735569" lon="13.016480654545468"><ele>622.8</ele><time>2026-04-12T15:18:28Z</time></trkpt><trkpt lat="42.71651758850221" lon="13.016367230812266"><ele>625.2</ele><time>2026-04-12T15:18:29Z</time></trkpt><trkpt lat="42.716459504840614" lon="13.016254988883093"><ele>627.6</ele><time>2026-04-12T15:18:30Z</time></trkpt><trkpt lat="42.71640294326277" lon="13.016136369732097"><ele>630.0</ele><time>2026-04-12T15:18:31Z</time></trkpt><trkpt lat="42.716351002757825" lon="13.01601863874362"><ele>630.0</ele><time>2026-04-12T15:18:32Z</time></trkpt><trkpt lat="42.716311664697606" lon="13.015883984859821"><ele>630.0</ele><time>2026-04-12T15:18:33Z</time></trkpt><trkpt lat="42.716282796582966" lon="13.01575691153124"><ele>630.0</ele><time>2026-04-12T15:18:34Z</time></trkpt><trkpt lat="42.71625261969288" lon="13.015629266362659"><ele>630.0</ele><time>2026-04-12T15:18:35Z</time></trkpt><trkpt lat="42.71621567422641" lon="13.015502220441867"><ele>630.0</ele><time>2026-04-12T15:18:36Z</time></trkpt><trkpt lat="42.716183602418134" lon="13.015373258646905"><ele>630.8</ele><time>2026-04-12T15:18:37Z</time></trkpt><trkpt lat="42.71614418714671" lon="13.015241904556742"><ele>631.6</ele><time>2026-04-12T15:18:38Z</time></trkpt><trkpt lat="42.71610776293622" lon="13.015108583429537"><ele>632.4</ele><time>2026-04-12T15:18:39Z</time></trkpt><trkpt lat="42.716097030626855" lon="13.01497475063385"><ele>633.2</ele><time>2026-04-12T15:18:40Z</time></trkpt><trkpt lat="42.71611636892993" lon="13.014826668985497"><ele>634.0</ele><time>2026-04-12T15:18:41Z</time></trkpt><trkpt lat="42.716155514599045" lon="13.014679977228738"><ele>635.5</ele><time>2026-04-12T15:18:42.001Z</time></trkpt><trkpt lat="42.71623255827692" lon="13.014564179872266"><ele>637.0</ele><time>2026-04-12T15:18:43.001Z</time></trkpt><trkpt lat="42.71631988360972" lon="13.014465409840039"><ele>638.5</ele><time>2026-04-12T15:18:44.001Z</time></trkpt><trkpt lat="42.71641174987484" lon="13.014367871269657"><ele>640.0</ele><time>2026-04-12T15:18:45.001Z</time></trkpt><trkpt lat="42.71649292638929" lon="13.014271928246204"><ele>640.0</ele><time>2026-04-12T15:18:46.001Z</time></trkpt><trkpt lat="42.71657227421822" lon="13.014172033246263"><ele>640.0</ele><time>2026-04-12T15:18:47.001Z</time></trkpt><trkpt lat="42.716647160804605" lon="13.014088329913395"><ele>640.0</ele><time>2026-04-12T15:18:48.001Z</time></trkpt><trkpt lat="42.71671235745367" lon="13.014016486277983"><ele>640.0</ele><time>2026-04-12T15:18:49.001Z</time></trkpt><trkpt lat="42.7167723221681" lon="13.01395963743912"><ele>640.0</ele><time>2026-04-12T15:18:50.001Z</time></trkpt><trkpt lat="42.716841858483285" lon="13.013902800204226"><ele>640.0</ele><time>2026-04-12T15:18:51.001Z</time></trkpt><trkpt lat="42.71691472750803" lon="13.013857241448394"><ele>641.0</ele><time>2026-04-12T15:18:52.001Z</time></trkpt><trkpt lat="42.71697065994999" lon="13.01379331303875"><ele>642.0</ele><time>2026-04-12T15:18:53.001Z</time></trkpt><trkpt lat="42.717028099637474" lon="13.013749468974797"><ele>643.0</ele><time>2026-04-12T15:18:54.001Z</time></trkpt><trkpt lat="42.71693420001794" lon="13.01356009661552"><ele>644.0</ele><time>2026-04-12T15:18:55.001Z</time></trkpt><trkpt lat="42.71686843655451" lon="13.013468536566197"><ele>645.0</ele><time>2026-04-12T15:18:56.001Z</time></trkpt><trkpt lat="42.71680945500591" lon="13.013383406125904"><ele>648.75</ele><time>2026-04-12T15:18:57.001Z</time></trkpt><trkpt lat="42.71684669290343" lon="13.013214472074424"><ele>652.5</ele><time>2026-04-12T15:18:58.001Z</time></trkpt><trkpt lat="42.71685297422841" lon="13.013055900303444"><ele>656.25</ele><time>2026-04-12T15:18:59.001Z</time></trkpt><trkpt lat="42.71683620789377" lon="13.01291893322149"><ele>660.0</ele><time>2026-04-12T15:19:00.001Z</time></trkpt><trkpt lat="42.71679649161426" lon="13.012791303692525"><ele>660.0</ele><time>2026-04-12T15:19:01.001Z</time></trkpt><trkpt lat="42.71673370368722" lon="13.012679407226631"><ele>660.0</ele><time>2026-04-12T15:19:02.001Z</time></trkpt><trkpt lat="42.71665630946456" lon="13.012581641659649"><ele>660.0</ele><time>2026-04-12T15:19:03.001Z</time></trkpt><trkpt lat="42.71655973956263" lon="13.012503940810385"><ele>660.0</ele><time>2026-04-12T15:19:04.001Z</time></trkpt><trkpt lat="42.71645531850557" lon="13.012450832492519"><ele>660.0</ele><time>2026-04-12T15:19:05.001Z</time></trkpt><trkpt lat="42.71633966040657" lon="13.012425451160645"><ele>659.75</ele><time>2026-04-12T15:19:06.001Z</time></trkpt><trkpt lat="42.716216918828685" lon="13.012426656504088"><ele>659.5</ele><time>2026-04-12T15:19:07.001Z</time></trkpt><trkpt lat="42.716092368576774" lon="13.01243935286401"><ele>659.25</ele><time>2026-04-12T15:19:08.001Z</time></trkpt><trkpt lat="42.715964741121084" lon="13.012453818331965"><ele>659.0</ele><time>2026-04-12T15:19:09.001Z</time></trkpt><trkpt lat="42.715821640748565" lon="13.012466928496737"><ele>659.0</ele><time>2026-04-12T15:19:10.001Z</time></trkpt><trkpt lat="42.715687733889844" lon="13.012467112462044"><ele>659.0</ele><time>2026-04-12T15:19:11.001Z</time></trkpt><trkpt lat="42.7155582628213" lon="13.012448234694041"><ele>659.0</ele><time>2026-04-12T15:19:12.001Z</time></trkpt><trkpt lat="42.71546423764646" lon="13.012325381054104"><ele>659.0</ele><time>2026-04-12T15:19:13.001Z</time></trkpt><trkpt lat="42.71537844934297" lon="13.01219676073196"><ele>659.0</ele><time>2026-04-12T15:19:14.001Z</time></trkpt><trkpt lat="42.71535480702697" lon="13.012023355609964"><ele>659.0</ele><time>2026-04-12T15:19:15Z</time></trkpt><trkpt lat="42.71538716012553" lon="13.011820040629425"><ele>659.0</ele><time>2026-04-12T15:19:16Z</time></trkpt><trkpt lat="42.71544475830936" lon="13.011611176482614"><ele>659.0</ele><time>2026-04-12T15:19:17Z</time></trkpt><trkpt lat="42.715507838240896" lon="13.01142266583806"><ele>662.25</ele><time>2026-04-12T15:19:18Z</time></trkpt><trkpt lat="42.71556589433791" lon="13.01125182390079"><ele>665.5</ele><time>2026-04-12T15:19:19Z</time></trkpt><trkpt lat="42.715612033231174" lon="13.01109592198097"><ele>668.75</ele><time>2026-04-12T15:19:20Z</time></trkpt><trkpt lat="42.71565391716563" lon="13.01094645629123"><ele>672.0</ele><time>2026-04-12T15:19:21Z</time></trkpt><trkpt lat="42.71569306824086" lon="13.010803467386218"><ele>674.6</ele><time>2026-04-12T15:19:22Z</time></trkpt><trkpt lat="42.71573338547154" lon="13.010659029614386"><ele>677.2</ele><time>2026-04-12T15:19:23Z</time></trkpt><trkpt lat="42.71576879049609" lon="13.010525583438541"><ele>679.8</ele><time>2026-04-12T15:19:24Z</time></trkpt><trkpt lat="42.71580569645579" lon="13.010396047263223"><ele>682.4</ele><time>2026-04-12T15:19:25Z</time></trkpt><trkpt lat="42.715841313053296" lon="13.010275951057308"><ele>685.0</ele><time>2026-04-12T15:19:26Z</time></trkpt><trkpt lat="42.71588017573378" lon="13.010172211641553"><ele>685.0</ele><time>2026-04-12T15:19:27Z</time></trkpt><trkpt lat="42.71592419146116" lon="13.010094294235397"><ele>685.0</ele><time>2026-04-12T15:19:28Z</time></trkpt><trkpt lat="42.715979187208404" lon="13.010045519781846"><ele>685.0</ele><time>2026-04-12T15:19:29Z</time></trkpt><trkpt lat="42.71604094865708" lon="13.010021619154168"><ele>685.0</ele><time>2026-04-12T15:19:30Z</time></trkpt><trkpt lat="42.716118507738855" lon="13.010021267192474"><ele>685.0</ele><time>2026-04-12T15:19:31Z</time></trkpt><trkpt lat="42.716199947172626" lon="13.010063266175433"><ele>685.0</ele><time>2026-04-12T15:19:32Z</time></trkpt><trkpt lat="42.7162726586956" lon="13.010115949079852"><ele>685.0</ele><time>2026-04-12T15:19:33Z</time></trkpt><trkpt lat="42.71633643088084" lon="13.010199956520843"><ele>688.25</ele><time>2026-04-12T15:19:34Z</time></trkpt><trkpt lat="42.71636621227224" lon="13.010330140931686"><ele>691.5</ele><time>2026-04-12T15:19:35Z</time></trkpt><trkpt lat="42.716384751018495" lon="13.010481845372633"><ele>694.75</ele><time>2026-04-12T15:19:36Z</time></trkpt><trkpt lat="42.716413271312646" lon="13.01064004323812"><ele>698.0</ele><time>2026-04-12T15:19:37Z</time></trkpt><trkpt lat="42.716461352372974" lon="13.010812437152298"><ele>696.25</ele><time>2026-04-12T15:19:38Z</time></trkpt><trkpt lat="42.71651713746719" lon="13.010942854156621"><ele>694.5</ele><time>2026-04-12T15:19:39Z</time></trkpt><trkpt lat="42.71655444286819" lon="13.011097493904261"><ele>692.75</ele><time>2026-04-12T15:19:40Z</time></trkpt><trkpt lat="42.716593441964775" lon="13.011242575901385"><ele>691.0</ele><time>2026-04-12T15:19:41Z</time></trkpt><trkpt lat="42.716628653933746" lon="13.011384731078508"><ele>691.0</ele><time>2026-04-12T15:19:42Z</time></trkpt><trkpt lat="42.71666771868103" lon="13.011502432352618"><ele>691.0</ele><time>2026-04-12T15:19:43Z</time></trkpt><trkpt lat="42.71670372492185" lon="13.01161040605194"><ele>691.0</ele><time>2026-04-12T15:19:44Z</time></trkpt><trkpt lat="42.71673452801125" lon="13.011705448755471"><ele>691.0</ele><time>2026-04-12T15:19:45Z</time></trkpt><trkpt lat="42.71677648528161" lon="13.011844754449099"><ele>691.0</ele><time>2026-04-12T15:19:47Z</time></trkpt><trkpt lat="42.71682621005394" lon="13.011951551434352"><ele>691.0</ele><time>2026-04-12T15:19:49Z</time></trkpt><trkpt lat="42.71694085854435" lon="13.01198878945669"><ele>691.0</ele><time>2026-04-12T15:19:51Z</time></trkpt><trkpt lat="42.71700253466659" lon="13.011916154198655"><ele>691.0</ele><time>2026-04-12T15:19:52Z</time></trkpt><trkpt lat="42.71698214423755" lon="13.01177719895909"><ele>691.0</ele><time>2026-04-12T15:19:53Z</time></trkpt><trkpt lat="42.716935079728295" lon="13.011652452468494"><ele>691.0</ele><time>2026-04-12T15:19:54Z</time></trkpt><trkpt lat="42.71686729991981" lon="13.011535509830809"><ele>691.0</ele><time>2026-04-12T15:19:55Z</time></trkpt><trkpt lat="42.71680482899345" lon="13.01140544378603"><ele>691.0</ele><time>2026-04-12T15:19:56Z</time></trkpt><trkpt lat="42.7167524549416" lon="13.01126522363184"><ele>691.0</ele><time>2026-04-12T15:19:57Z</time></trkpt><trkpt lat="42.71672081015917" lon="13.011113699193473"><ele>691.0</ele><time>2026-04-12T15:19:58Z</time></trkpt><trkpt lat="42.71669614902332" lon="13.010949389436552"><ele>692.75</ele><time>2026-04-12T15:19:59Z</time></trkpt><trkpt lat="42.716654983707656" lon="13.010777619951076"><ele>694.5</ele><time>2026-04-12T15:20:00Z</time></trkpt><trkpt lat="42.71662043237531" lon="13.010600081294356"><ele>696.25</ele><time>2026-04-12T15:20:01Z</time></trkpt><trkpt lat="42.71659692594636" lon="13.010411277326432"><ele>698.0</ele><time>2026-04-12T15:20:02Z</time></trkpt><trkpt lat="42.71663805804032" lon="13.010207694601405"><ele>698.6666666666666</ele><time>2026-04-12T15:20:03Z</time></trkpt><trkpt lat="42.71669084593026" lon="13.00995604199444"><ele>699.3333333333334</ele><time>2026-04-12T15:20:04Z</time></trkpt><trkpt lat="42.71671815995086" lon="13.00974125284626"><ele>700.0</ele><time>2026-04-12T15:20:05Z</time></trkpt><trkpt lat="42.7167159425874" lon="13.009464103552208"><ele>700.0</ele><time>2026-04-12T15:20:06Z</time></trkpt><trkpt lat="42.71671857397165" lon="13.009195150647583"><ele>700.0</ele><time>2026-04-12T15:20:07Z</time></trkpt><trkpt lat="42.71671271015486" lon="13.008968728076308"><ele>700.0</ele><time>2026-04-12T15:20:08Z</time></trkpt><trkpt lat="42.7167095787824" lon="13.008761261323404"><ele>704.0</ele><time>2026-04-12T15:20:09Z</time></trkpt><trkpt lat="42.71670719953867" lon="13.008531237638648"><ele>708.0</ele><time>2026-04-12T15:20:10Z</time></trkpt><trkpt lat="42.7166827309175" lon="13.008311855280137"><ele>712.0</ele><time>2026-04-12T15:20:11Z</time></trkpt><trkpt lat="42.71662342915673" lon="13.008096959194484"><ele>720.6666666666667</ele><time>2026-04-12T15:20:12Z</time></trkpt><trkpt lat="42.716518767396856" lon="13.007908524807567"><ele>729.3333333333334</ele><time>2026-04-12T15:20:13Z</time></trkpt><trkpt lat="42.71637472456782" lon="13.007787596797451"><ele>738.0</ele><time>2026-04-12T15:20:14Z</time></trkpt><trkpt lat="42.71621911607669" lon="13.00770840257363"><ele>738.0</ele><time>2026-04-12T15:20:15Z</time></trkpt><trkpt lat="42.71610409882387" lon="13.007562489234651"><ele>738.0</ele><time>2026-04-12T15:20:16Z</time></trkpt><trkpt lat="42.71600689751761" lon="13.007395773809039"><ele>738.0</ele><time>2026-04-12T15:20:17Z</time></trkpt><trkpt lat="42.71591105147442" lon="13.007237634995832"><ele>737.75</ele><time>2026-04-12T15:20:18Z</time></trkpt><trkpt lat="42.71584166932112" lon="13.00707363269894"><ele>737.5</ele><time>2026-04-12T15:20:19Z</time></trkpt><trkpt lat="42.71585238961485" lon="13.006880005828219"><ele>737.25</ele><time>2026-04-12T15:20:20Z</time></trkpt><trkpt lat="42.715850287947404" lon="13.006653694447705"><ele>737.0</ele><time>2026-04-12T15:20:21Z</time></trkpt><trkpt lat="42.71585426193493" lon="13.00642569747784"><ele>737.0</ele><time>2026-04-12T15:20:22Z</time></trkpt><trkpt lat="42.715802945568264" lon="13.00621481160445"><ele>737.0</ele><time>2026-04-12T15:20:23Z</time></trkpt><trkpt lat="42.71570130929249" lon="13.006036221506381"><ele>737.0</ele><time>2026-04-12T15:20:24Z</time></trkpt><trkpt lat="42.71557850190648" lon="13.005861574751934"><ele>747.6666666666666</ele><time>2026-04-12T15:20:25Z</time></trkpt><trkpt lat="42.71546834613195" lon="13.005700220110104"><ele>758.3333333333333</ele><time>2026-04-12T15:20:26Z</time></trkpt><trkpt lat="42.71537481887579" lon="13.005535310275265"><ele>769.0</ele><time>2026-04-12T15:20:27Z</time></trkpt><trkpt lat="42.71531262159039" lon="13.005341420394995"><ele>767.3333333333333</ele><time>2026-04-12T15:20:28Z</time></trkpt><trkpt lat="42.71522805495127" lon="13.005167910950739"><ele>765.6666666666666</ele><time>2026-04-12T15:20:29Z</time></trkpt><trkpt lat="42.71512372365877" lon="13.005014337535002"><ele>764.0</ele><time>2026-04-12T15:20:30Z</time></trkpt><trkpt lat="42.714996696096364" lon="13.004913884530087"><ele>764.0</ele><time>2026-04-12T15:20:31Z</time></trkpt><trkpt lat="42.71486700326491" lon="13.004815621908936"><ele>764.0</ele><time>2026-04-12T15:20:32Z</time></trkpt><trkpt lat="42.714725560297126" lon="13.004731092295936"><ele>764.0</ele><time>2026-04-12T15:20:33Z</time></trkpt><trkpt lat="42.714596813718465" lon="13.00464294104374"><ele>764.0</ele><time>2026-04-12T15:20:34Z</time></trkpt><trkpt lat="42.71448223615202" lon="13.004576456994089"><ele>755.75</ele><time>2026-04-12T15:20:35Z</time></trkpt><trkpt lat="42.714379835873935" lon="13.004554210338748"><ele>747.5</ele><time>2026-04-12T15:20:36Z</time></trkpt><trkpt lat="42.71427769440306" lon="13.004628859965107"><ele>739.25</ele><time>2026-04-12T15:20:37Z</time></trkpt><trkpt lat="42.714190047944975" lon="13.004726804879734"><ele>731.0</ele><time>2026-04-12T15:20:38Z</time></trkpt><trkpt lat="42.714146270639844" lon="13.004883413259586"><ele>730.25</ele><time>2026-04-12T15:20:39Z</time></trkpt><trkpt lat="42.71415874831425" lon="13.005058894088053"><ele>729.5</ele><time>2026-04-12T15:20:40Z</time></trkpt><trkpt lat="42.71425343536263" lon="13.005231128789026"><ele>728.75</ele><time>2026-04-12T15:20:41Z</time></trkpt><trkpt lat="42.71434571411622" lon="13.005367549490849"><ele>728.0</ele><time>2026-04-12T15:20:42Z</time></trkpt><trkpt lat="42.71445363183135" lon="13.005488270541038"><ele>728.0</ele><time>2026-04-12T15:20:43Z</time></trkpt><trkpt lat="42.71459024906434" lon="13.005593357737983"><ele>728.0</ele><time>2026-04-12T15:20:44Z</time></trkpt><trkpt lat="42.71467143610779" lon="13.005755227859549"><ele>728.0</ele><time>2026-04-12T15:20:45Z</time></trkpt><trkpt lat="42.71475781952083" lon="13.005945977904473"><ele>725.3333333333333</ele><time>2026-04-12T15:20:46Z</time></trkpt><trkpt lat="42.71484636515953" lon="13.006127003713436"><ele>722.6666666666666</ele><time>2026-04-12T15:20:47.001Z</time></trkpt><trkpt lat="42.71491340743993" lon="13.00632192440731"><ele>720.0</ele><time>2026-04-12T15:20:48.001Z</time></trkpt><trkpt lat="42.71494666690172" lon="13.006526487893925"><ele>722.6666666666666</ele><time>2026-04-12T15:20:49.001Z</time></trkpt><trkpt lat="42.71493945396287" lon="13.006731954912597"><ele>725.3333333333333</ele><time>2026-04-12T15:20:50.001Z</time></trkpt><trkpt lat="42.7149225817373" lon="13.006946741716185"><ele>728.0</ele><time>2026-04-12T15:20:51.001Z</time></trkpt><trkpt lat="42.714924422896814" lon="13.007148070255296"><ele>728.0</ele><time>2026-04-12T15:20:52.001Z</time></trkpt><trkpt lat="42.71491072465799" lon="13.007325990472319"><ele>728.0</ele><time>2026-04-12T15:20:53.001Z</time></trkpt><trkpt lat="42.71488851118316" lon="13.007491013672702"><ele>728.0</ele><time>2026-04-12T15:20:54.001Z</time></trkpt><trkpt lat="42.71484023118663" lon="13.007629791915654"><ele>728.0</ele><time>2026-04-12T15:20:55.001Z</time></trkpt><trkpt lat="42.71474957562724" lon="13.007734807973828"><ele>727.5</ele><time>2026-04-12T15:20:56.001Z</time></trkpt><trkpt lat="42.714607821100344" lon="13.007778384463165"><ele>727.0</ele><time>2026-04-12T15:20:57.001Z</time></trkpt><trkpt lat="42.714465462182176" lon="13.007840981894752"><ele>726.5</ele><time>2026-04-12T15:20:58.001Z</time></trkpt><trkpt lat="42.71433454524035" lon="13.007899341595172"><ele>726.0</ele><time>2026-04-12T15:20:59.001Z</time></trkpt><trkpt lat="42.71418986506601" lon="13.007971569751886"><ele>730.3333333333334</ele><time>2026-04-12T15:21:00.001Z</time></trkpt><trkpt lat="42.714051207451355" lon="13.008089932520814"><ele>734.6666666666667</ele><time>2026-04-12T15:21:01.001Z</time></trkpt><trkpt lat="42.71393050426494" lon="13.008284362560174"><ele>739.0</ele><time>2026-04-12T15:21:02.001Z</time></trkpt><trkpt lat="42.713855951246344" lon="13.008516244952325"><ele>739.0</ele><time>2026-04-12T15:21:03.001Z</time></trkpt><trkpt lat="42.7137982891793" lon="13.008777640464686"><ele>739.0</ele><time>2026-04-12T15:21:04.001Z</time></trkpt><trkpt lat="42.71375082027461" lon="13.009021225531395"><ele>739.0</ele><time>2026-04-12T15:21:05.001Z</time></trkpt><trkpt lat="42.71370889357197" lon="13.009198988467302"><ele>736.5</ele><time>2026-04-12T15:21:06.001Z</time></trkpt><trkpt lat="42.713664803972435" lon="13.009378600782608"><ele>734.0</ele><time>2026-04-12T15:21:07.001Z</time></trkpt><trkpt lat="42.71361435689426" lon="13.009513970498444"><ele>731.5</ele><time>2026-04-12T15:21:08.001Z</time></trkpt><trkpt lat="42.713556443209804" lon="13.009632932452465"><ele>729.0</ele><time>2026-04-12T15:21:09.001Z</time></trkpt><trkpt lat="42.71348801244468" lon="13.009761735559865"><ele>734.5</ele><time>2026-04-12T15:21:10.001Z</time></trkpt><trkpt lat="42.71341044254548" lon="13.009893267893272"><ele>740.0</ele><time>2026-04-12T15:21:11.001Z</time></trkpt><trkpt lat="42.713319364336314" lon="13.010014264131177"><ele>745.5</ele><time>2026-04-12T15:21:12.001Z</time></trkpt><trkpt lat="42.71323102032405" lon="13.010118180993395"><ele>751.0</ele><time>2026-04-12T15:21:13.001Z</time></trkpt><trkpt lat="42.71315480681355" lon="13.010217715827052"><ele>751.0</ele><time>2026-04-12T15:21:14.001Z</time></trkpt><trkpt lat="42.7130959127697" lon="13.010300083778443"><ele>751.0</ele><time>2026-04-12T15:21:15.001Z</time></trkpt><trkpt lat="42.713039168576195" lon="13.010394055795121"><ele>751.0</ele><time>2026-04-12T15:21:16.001Z</time></trkpt><trkpt lat="42.71299016172429" lon="13.010464359059476"><ele>751.0</ele><time>2026-04-12T15:21:17.001Z</time></trkpt><trkpt lat="42.71294015863236" lon="13.010542913075668"><ele>751.0</ele><time>2026-04-12T15:21:18.001Z</time></trkpt><trkpt lat="42.71289299924918" lon="13.010615865860622"><ele>751.0</ele><time>2026-04-12T15:21:19.001Z</time></trkpt><trkpt lat="42.71283877320553" lon="13.010686700167884"><ele>751.0</ele><time>2026-04-12T15:21:20.001Z</time></trkpt><trkpt lat="42.712768147012504" lon="13.010753794560516"><ele>751.0</ele><time>2026-04-12T15:21:20.999Z</time></trkpt><trkpt lat="42.712686780341535" lon="13.010766003051772"><ele>751.0</ele><time>2026-04-12T15:21:21.999Z</time></trkpt><trkpt lat="42.71261782379567" lon="13.010696583647045"><ele>751.0</ele><time>2026-04-12T15:21:22.999Z</time></trkpt><trkpt lat="42.71258824432462" lon="13.010570437281647"><ele>751.0</ele><time>2026-04-12T15:21:23.999Z</time></trkpt><trkpt lat="42.71261123412452" lon="13.010449081317283"><ele>751.0</ele><time>2026-04-12T15:21:24.999Z</time></trkpt><trkpt lat="42.71267797992211" lon="13.010348055042401"><ele>751.0</ele><time>2026-04-12T15:21:25.999Z</time></trkpt><trkpt lat="42.71277711803304" lon="13.01023524156133"><ele>751.0</ele><time>2026-04-12T15:21:27Z</time></trkpt><trkpt lat="42.71286813580874" lon="13.010115122927088"><ele>751.0</ele><time>2026-04-12T15:21:28Z</time></trkpt><trkpt lat="42.71295080439284" lon="13.009975996742964"><ele>751.0</ele><time>2026-04-12T15:21:29Z</time></trkpt><trkpt lat="42.713031051412855" lon="13.00981023789654"><ele>755.0</ele><time>2026-04-12T15:21:30Z</time></trkpt><trkpt lat="42.71311583997294" lon="13.009612863106502"><ele>759.0</ele><time>2026-04-12T15:21:31Z</time></trkpt><trkpt lat="42.7132140315299" lon="13.009373122582401"><ele>763.0</ele><time>2026-04-12T15:21:32Z</time></trkpt><trkpt lat="42.7133240609946" lon="13.009128424712474"><ele>766.6666666666667</ele><time>2026-04-12T15:21:33Z</time></trkpt><trkpt lat="42.71342834651557" lon="13.008896616079452"><ele>770.3333333333334</ele><time>2026-04-12T15:21:34Z</time></trkpt><trkpt lat="42.71351962525712" lon="13.008667277450819"><ele>774.0</ele><time>2026-04-12T15:21:35Z</time></trkpt><trkpt lat="42.71357738506213" lon="13.008438940562183"><ele>770.0</ele><time>2026-04-12T15:21:36Z</time></trkpt><trkpt lat="42.71362515136557" lon="13.00822035805134"><ele>766.0</ele><time>2026-04-12T15:21:37Z</time></trkpt><trkpt lat="42.71364973722928" lon="13.0079957081386"><ele>762.0</ele><time>2026-04-12T15:21:38Z</time></trkpt><trkpt lat="42.71368819116492" lon="13.007785271477356"><ele>762.0</ele><time>2026-04-12T15:21:39Z</time></trkpt><trkpt lat="42.71374205273784" lon="13.007582937931945"><ele>762.0</ele><time>2026-04-12T15:21:40Z</time></trkpt><trkpt lat="42.71384404747486" lon="13.007415942992475"><ele>762.0</ele><time>2026-04-12T15:21:41Z</time></trkpt><trkpt lat="42.71397926311734" lon="13.007296159144898"><ele>764.25</ele><time>2026-04-12T15:21:42Z</time></trkpt><trkpt lat="42.714125554330046" lon="13.0071807375126"><ele>766.5</ele><time>2026-04-12T15:21:43Z</time></trkpt><trkpt lat="42.714244061521164" lon="13.00707686326215"><ele>768.75</ele><time>2026-04-12T15:21:44Z</time></trkpt><trkpt lat="42.714345812598175" lon="13.006993151623654"><ele>771.0</ele><time>2026-04-12T15:21:45Z</time></trkpt><trkpt lat="42.71439706066369" lon="13.006853138495307"><ele>771.0</ele><time>2026-04-12T15:21:46Z</time></trkpt><trkpt lat="42.714395463454984" lon="13.00669509474697"><ele>771.0</ele><time>2026-04-12T15:21:47Z</time></trkpt><trkpt lat="42.714321864044926" lon="13.006524475300811"><ele>771.0</ele><time>2026-04-12T15:21:48Z</time></trkpt><trkpt lat="42.71422913997191" lon="13.006370324023608"><ele>771.0</ele><time>2026-04-12T15:21:49Z</time></trkpt><trkpt lat="42.7141221347937" lon="13.006232215979214"><ele>765.0</ele><time>2026-04-12T15:21:50Z</time></trkpt><trkpt lat="42.71398087983341" lon="13.006122492621774"><ele>759.0</ele><time>2026-04-12T15:21:51Z</time></trkpt><trkpt lat="42.71385481104716" lon="13.006008093320142"><ele>753.0</ele><time>2026-04-12T15:21:52Z</time></trkpt><trkpt lat="42.71371657605953" lon="13.00589718098638"><ele>752.6666666666666</ele><time>2026-04-12T15:21:53Z</time></trkpt><trkpt lat="42.71356682041256" lon="13.005785669625752"><ele>752.3333333333333</ele><time>2026-04-12T15:21:54Z</time></trkpt><trkpt lat="42.71340807816248" lon="13.005709556312967"><ele>752.0</ele><time>2026-04-12T15:21:55Z</time></trkpt><trkpt lat="42.71325950705426" lon="13.005648424405985"><ele>752.0</ele><time>2026-04-12T15:21:56Z</time></trkpt><trkpt lat="42.713117022830794" lon="13.00560952203549"><ele>752.0</ele><time>2026-04-12T15:21:57Z</time></trkpt><trkpt lat="42.71298342694477" lon="13.005559891306453"><ele>752.0</ele><time>2026-04-12T15:21:58Z</time></trkpt><trkpt lat="42.712848882839616" lon="13.005542013293859"><ele>752.0</ele><time>2026-04-12T15:21:59Z</time></trkpt><trkpt lat="42.71271305207618" lon="13.00555784861723"><ele>758.3333333333333</ele><time>2026-04-12T15:22:00Z</time></trkpt><trkpt lat="42.71255773637102" lon="13.005629917068681"><ele>764.6666666666666</ele><time>2026-04-12T15:22:01Z</time></trkpt><trkpt lat="42.71241065475642" lon="13.005729815900922"><ele>771.0</ele><time>2026-04-12T15:22:02Z</time></trkpt><trkpt lat="42.712248251949035" lon="13.005789579842634"><ele>771.0</ele><time>2026-04-12T15:22:03Z</time></trkpt><trkpt lat="42.71207111946919" lon="13.005744596587972"><ele>771.0</ele><time>2026-04-12T15:22:04Z</time></trkpt><trkpt lat="42.71191591635817" lon="13.005640135105477"><ele>771.0</ele><time>2026-04-12T15:22:05Z</time></trkpt><trkpt lat="42.71177010213681" lon="13.005525069207991"><ele>776.0</ele><time>2026-04-12T15:22:06Z</time></trkpt><trkpt lat="42.71163688688035" lon="13.005405841554493"><ele>781.0</ele><time>2026-04-12T15:22:07Z</time></trkpt><trkpt lat="42.71155045544907" lon="13.005258947048477"><ele>786.0</ele><time>2026-04-12T15:22:08Z</time></trkpt><trkpt lat="42.711507425868575" lon="13.005079493666996"><ele>791.0</ele><time>2026-04-12T15:22:09Z</time></trkpt><trkpt lat="42.711470336509954" lon="13.004877212356135"><ele>791.0</ele><time>2026-04-12T15:22:10Z</time></trkpt><trkpt lat="42.71142978149588" lon="13.00467834828813"><ele>791.0</ele><time>2026-04-12T15:22:11Z</time></trkpt><trkpt lat="42.71140665668526" lon="13.004473395765583"><ele>791.0</ele><time>2026-04-12T15:22:12Z</time></trkpt><trkpt lat="42.71139483601921" lon="13.004272540586362"><ele>792.3333333333334</ele><time>2026-04-12T15:22:13Z</time></trkpt><trkpt lat="42.71141200140813" lon="13.004064194187654"><ele>793.6666666666667</ele><time>2026-04-12T15:22:14Z</time></trkpt><trkpt lat="42.71146197845253" lon="13.003862545141557"><ele>795.0</ele><time>2026-04-12T15:22:15Z</time></trkpt><trkpt lat="42.71150887992205" lon="13.003664671192753"><ele>795.0</ele><time>2026-04-12T15:22:16Z</time></trkpt><trkpt lat="42.71152810285377" lon="13.003455474995526"><ele>795.0</ele><time>2026-04-12T15:22:17Z</time></trkpt><trkpt lat="42.711540225140745" lon="13.003252695184209"><ele>795.0</ele><time>2026-04-12T15:22:18Z</time></trkpt><trkpt lat="42.71154064358575" lon="13.003036735079535"><ele>796.0</ele><time>2026-04-12T15:22:19Z</time></trkpt><trkpt lat="42.71157904937862" lon="13.002831254819226"><ele>797.0</ele><time>2026-04-12T15:22:20Z</time></trkpt><trkpt lat="42.71163203329573" lon="13.00266293754586"><ele>798.0</ele><time>2026-04-12T15:22:21Z</time></trkpt><trkpt lat="42.711646748106055" lon="13.002509085375825"><ele>799.0</ele><time>2026-04-12T15:22:22Z</time></trkpt><trkpt lat="42.71160633622057" lon="13.002349411713599"><ele>795.3333333333333</ele><time>2026-04-12T15:22:23Z</time></trkpt><trkpt lat="42.711477311129215" lon="13.002254366904754"><ele>791.6666666666667</ele><time>2026-04-12T15:22:24Z</time></trkpt><trkpt lat="42.711328616919864" lon="13.002177294648405"><ele>788.0</ele><time>2026-04-12T15:22:25Z</time></trkpt><trkpt lat="42.711195024829976" lon="13.002097774609876"><ele>788.0</ele><time>2026-04-12T15:22:26Z</time></trkpt><trkpt lat="42.711078078102794" lon="13.001995598581804"><ele>788.0</ele><time>2026-04-12T15:22:27Z</time></trkpt><trkpt lat="42.71096368616219" lon="13.001890187939368"><ele>788.0</ele><time>2026-04-12T15:22:28Z</time></trkpt><trkpt lat="42.71090392644999" lon="13.001695532736171"><ele>788.0</ele><time>2026-04-12T15:22:29Z</time></trkpt><trkpt lat="42.710813928621825" lon="13.001510687015362"><ele>792.0</ele><time>2026-04-12T15:22:30Z</time></trkpt><trkpt lat="42.710719779142835" lon="13.001357181303321"><ele>796.0</ele><time>2026-04-12T15:22:31Z</time></trkpt><trkpt lat="42.71063637519911" lon="13.001192156221217"><ele>800.0</ele><time>2026-04-12T15:22:32Z</time></trkpt><trkpt lat="42.71055513795837" lon="13.001034383574888"><ele>804.0</ele><time>2026-04-12T15:22:33Z</time></trkpt><trkpt lat="42.71046607756114" lon="13.00086814795557"><ele>801.5</ele><time>2026-04-12T15:22:34Z</time></trkpt><trkpt lat="42.7103952298046" lon="13.000701100270895"><ele>799.0</ele><time>2026-04-12T15:22:35Z</time></trkpt><trkpt lat="42.71036313479556" lon="13.000514607441502"><ele>796.5</ele><time>2026-04-12T15:22:36Z</time></trkpt><trkpt lat="42.71034161760348" lon="13.000325963703093"><ele>794.0</ele><time>2026-04-12T15:22:37Z</time></trkpt><trkpt lat="42.71032638856746" lon="13.000116874249906"><ele>794.0</ele><time>2026-04-12T15:22:38Z</time></trkpt><trkpt lat="42.71035999094183" lon="12.99991928059321"><ele>794.0</ele><time>2026-04-12T15:22:39Z</time></trkpt><trkpt lat="42.71038531146266" lon="12.999728841516038"><ele>794.0</ele><time>2026-04-12T15:22:40Z</time></trkpt><trkpt lat="42.71035942574705" lon="12.999575732096062"><ele>794.0</ele><time>2026-04-12T15:22:41Z</time></trkpt><trkpt lat="42.71028062584289" lon="12.999435281524796"><ele>801.75</ele><time>2026-04-12T15:22:42Z</time></trkpt><trkpt lat="42.71015717995266" lon="12.999336361705613"><ele>809.5</ele><time>2026-04-12T15:22:43Z</time></trkpt><trkpt lat="42.71003278729783" lon="12.999262227022427"><ele>817.25</ele><time>2026-04-12T15:22:44Z</time></trkpt><trkpt lat="42.70992849520302" lon="12.999188845451252"><ele>825.0</ele><time>2026-04-12T15:22:45Z</time></trkpt><trkpt lat="42.70983845017404" lon="12.999066884844762"><ele>825.0</ele><time>2026-04-12T15:22:46Z</time></trkpt><trkpt lat="42.709772824825095" lon="12.998913435384377"><ele>825.0</ele><time>2026-04-12T15:22:47Z</time></trkpt><trkpt lat="42.70970266435844" lon="12.998735441082257"><ele>825.0</ele><time>2026-04-12T15:22:48Z</time></trkpt><trkpt lat="42.70963812208994" lon="12.998558515356303"><ele>825.0</ele><time>2026-04-12T15:22:49Z</time></trkpt><trkpt lat="42.709568201869025" lon="12.998389284293864"><ele>820.75</ele><time>2026-04-12T15:22:50Z</time></trkpt><trkpt lat="42.709511065733" lon="12.998223079320917"><ele>816.5</ele><time>2026-04-12T15:22:51Z</time></trkpt><trkpt lat="42.70945371310644" lon="12.998055863832134"><ele>812.25</ele><time>2026-04-12T15:22:52Z</time></trkpt><trkpt lat="42.70937016372041" lon="12.997894165538794"><ele>808.0</ele><time>2026-04-12T15:22:53Z</time></trkpt><trkpt lat="42.709270780536684" lon="12.997766640142814"><ele>815.5</ele><time>2026-04-12T15:22:54Z</time></trkpt><trkpt lat="42.709160379226226" lon="12.997645366289055"><ele>823.0</ele><time>2026-04-12T15:22:55Z</time></trkpt><trkpt lat="42.70905870829753" lon="12.997495967903372"><ele>830.5</ele><time>2026-04-12T15:22:56Z</time></trkpt><trkpt lat="42.70900513968707" lon="12.997317326247213"><ele>838.0</ele><time>2026-04-12T15:22:57.001Z</time></trkpt><trkpt lat="42.70897787181839" lon="12.997118592384783"><ele>838.0</ele><time>2026-04-12T15:22:58.001Z</time></trkpt><trkpt lat="42.708948209791735" lon="12.996904625840795"><ele>838.0</ele><time>2026-04-12T15:22:59.001Z</time></trkpt><trkpt lat="42.70890288637726" lon="12.99669044744867"><ele>838.0</ele><time>2026-04-12T15:23:00.001Z</time></trkpt><trkpt lat="42.7088563126843" lon="12.996471080933002"><ele>838.6666666666666</ele><time>2026-04-12T15:23:01.001Z</time></trkpt><trkpt lat="42.70879526579685" lon="12.99625035769677"><ele>839.3333333333333</ele><time>2026-04-12T15:23:02.001Z</time></trkpt><trkpt lat="42.70872341449714" lon="12.996034552858816"><ele>840.0</ele><time>2026-04-12T15:23:03.001Z</time></trkpt><trkpt lat="42.70865032366235" lon="12.995836273321805"><ele>840.0</ele><time>2026-04-12T15:23:04.001Z</time></trkpt><trkpt lat="42.708583772834" lon="12.995646704897139"><ele>840.0</ele><time>2026-04-12T15:23:05.001Z</time></trkpt><trkpt lat="42.70855263542434" lon="12.995458199812356"><ele>840.0</ele><time>2026-04-12T15:23:06.001Z</time></trkpt><trkpt lat="42.70850791307777" lon="12.995294905405066"><ele>840.0</ele><time>2026-04-12T15:23:07.001Z</time></trkpt><trkpt lat="42.70844957092164" lon="12.995151833101946"><ele>844.5</ele><time>2026-04-12T15:23:08.001Z</time></trkpt><trkpt lat="42.70838713824966" lon="12.995007902678603"><ele>849.0</ele><time>2026-04-12T15:23:09.001Z</time></trkpt><trkpt lat="42.70830243276174" lon="12.994849373665454"><ele>853.5</ele><time>2026-04-12T15:23:10.001Z</time></trkpt><trkpt lat="42.70826941485304" lon="12.994674729203355"><ele>858.0</ele><time>2026-04-12T15:23:11.001Z</time></trkpt><trkpt lat="42.70825988853559" lon="12.99449149934645"><ele>858.0</ele><time>2026-04-12T15:23:12.001Z</time></trkpt><trkpt lat="42.70825052639622" lon="12.994307626128492"><ele>858.0</ele><time>2026-04-12T15:23:13.001Z</time></trkpt><trkpt lat="42.708238554607256" lon="12.99411330660363"><ele>858.0</ele><time>2026-04-12T15:23:14.001Z</time></trkpt><trkpt lat="42.70821998981654" lon="12.993910755106773"><ele>858.0</ele><time>2026-04-12T15:23:15.001Z</time></trkpt><trkpt lat="42.708165599000196" lon="12.993723930986597"><ele>859.3333333333333</ele><time>2026-04-12T15:23:16.001Z</time></trkpt><trkpt lat="42.708091239791216" lon="12.993547252562845"><ele>860.6666666666666</ele><time>2026-04-12T15:23:17.001Z</time></trkpt><trkpt lat="42.707994963353386" lon="12.993389666988548"><ele>862.0</ele><time>2026-04-12T15:23:18.001Z</time></trkpt><trkpt lat="42.70786976085642" lon="12.993247943025812"><ele>864.0</ele><time>2026-04-12T15:23:19.001Z</time></trkpt><trkpt lat="42.70773993183634" lon="12.993084875202486"><ele>866.0</ele><time>2026-04-12T15:23:20.001Z</time></trkpt><trkpt lat="42.707614780668315" lon="12.992909919943616"><ele>868.0</ele><time>2026-04-12T15:23:21.001Z</time></trkpt><trkpt lat="42.707494810189495" lon="12.992732025228076"><ele>868.0</ele><time>2026-04-12T15:23:22.001Z</time></trkpt><trkpt lat="42.707387685859686" lon="12.992535133742814"><ele>868.0</ele><time>2026-04-12T15:23:23.001Z</time></trkpt><trkpt lat="42.707289991060186" lon="12.992329092875439"><ele>868.0</ele><time>2026-04-12T15:23:24.001Z</time></trkpt><trkpt lat="42.70719762493151" lon="12.992113875819795"><ele>870.0</ele><time>2026-04-12T15:23:25.001Z</time></trkpt><trkpt lat="42.70711704024647" lon="12.991880941938337"><ele>872.0</ele><time>2026-04-12T15:23:26.001Z</time></trkpt><trkpt lat="42.70702791407827" lon="12.991648542035248"><ele>874.0</ele><time>2026-04-12T15:23:27Z</time></trkpt><trkpt lat="42.706931232451396" lon="12.99139644496388"><ele>873.0</ele><time>2026-04-12T15:23:28Z</time></trkpt><trkpt lat="42.70682230941067" lon="12.991148228090632"><ele>872.0</ele><time>2026-04-12T15:23:29Z</time></trkpt><trkpt lat="42.70674455647799" lon="12.99089955564714"><ele>871.0</ele><time>2026-04-12T15:23:30Z</time></trkpt><trkpt lat="42.70666627911685" lon="12.990659611464777"><ele>873.0</ele><time>2026-04-12T15:23:31Z</time></trkpt><trkpt lat="42.70660181691896" lon="12.990420331084968"><ele>875.0</ele><time>2026-04-12T15:23:32Z</time></trkpt><trkpt lat="42.7065553717054" lon="12.990176437203198"><ele>877.0</ele><time>2026-04-12T15:23:33Z</time></trkpt><trkpt lat="42.706536338716084" lon="12.989926411166543"><ele>878.0</ele><time>2026-04-12T15:23:34Z</time></trkpt><trkpt lat="42.70655777289135" lon="12.98967295272306"><ele>879.0</ele><time>2026-04-12T15:23:35Z</time></trkpt><trkpt lat="42.706584057854414" lon="12.989395998751867"><ele>880.0</ele><time>2026-04-12T15:23:36Z</time></trkpt><trkpt lat="42.706597820073775" lon="12.989121465294573"><ele>880.6666666666666</ele><time>2026-04-12T15:23:37Z</time></trkpt><trkpt lat="42.70660025942196" lon="12.9888604109115"><ele>881.3333333333333</ele><time>2026-04-12T15:23:38Z</time></trkpt><trkpt lat="42.70658692240861" lon="12.988594359259972"><ele>882.0</ele><time>2026-04-12T15:23:39Z</time></trkpt><trkpt lat="42.70657068797925" lon="12.98832729490378"><ele>882.3333333333333</ele><time>2026-04-12T15:23:40Z</time></trkpt><trkpt lat="42.706549816428186" lon="12.988066869956455"><ele>882.6666666666666</ele><time>2026-04-12T15:23:41Z</time></trkpt><trkpt lat="42.70653005588178" lon="12.987812814071207"><ele>883.0</ele><time>2026-04-12T15:23:42Z</time></trkpt><trkpt lat="42.70650235190313" lon="12.98756200361697"><ele>884.3333333333333</ele><time>2026-04-12T15:23:43Z</time></trkpt><trkpt lat="42.70645210076527" lon="12.987326254107785"><ele>885.6666666666667</ele><time>2026-04-12T15:23:44Z</time></trkpt><trkpt lat="42.706355247338564" lon="12.987121650158105"><ele>887.0</ele><time>2026-04-12T15:23:45Z</time></trkpt><trkpt lat="42.7062091917652" lon="12.98694453925539"><ele>887.6666666666667</ele><time>2026-04-12T15:23:46Z</time></trkpt><trkpt lat="42.70605352717394" lon="12.986776192424879"><ele>888.3333333333333</ele><time>2026-04-12T15:23:47Z</time></trkpt><trkpt lat="42.705908218770254" lon="12.98658172482692"><ele>889.0</ele><time>2026-04-12T15:23:48Z</time></trkpt><trkpt lat="42.70577873824699" lon="12.98635446345046"><ele>889.0</ele><time>2026-04-12T15:23:49Z</time></trkpt><trkpt lat="42.70566958253708" lon="12.986109922493602"><ele>889.0</ele><time>2026-04-12T15:23:50Z</time></trkpt><trkpt lat="42.705556406749345" lon="12.985855814311456"><ele>889.0</ele><time>2026-04-12T15:23:51Z</time></trkpt><trkpt lat="42.70543237364672" lon="12.985609494444564"><ele>889.3333333333333</ele><time>2026-04-12T15:23:52Z</time></trkpt><trkpt lat="42.70529561877091" lon="12.985367243279306"><ele>889.6666666666667</ele><time>2026-04-12T15:23:53Z</time></trkpt><trkpt lat="42.70516160862836" lon="12.985134150382907"><ele>890.0</ele><time>2026-04-12T15:23:54Z</time></trkpt><trkpt lat="42.70504984918074" lon="12.984914582285766"><ele>892.0</ele><time>2026-04-12T15:23:55Z</time></trkpt><trkpt lat="42.70497964428451" lon="12.984668966110172"><ele>894.0</ele><time>2026-04-12T15:23:56Z</time></trkpt><trkpt lat="42.70492088663337" lon="12.984385476948392"><ele>896.0</ele><time>2026-04-12T15:23:57Z</time></trkpt><trkpt lat="42.704882088171885" lon="12.984070684331416"><ele>897.5</ele><time>2026-04-12T15:23:58Z</time></trkpt><trkpt lat="42.70483665173041" lon="12.9837290261081"><ele>899.0</ele><time>2026-04-12T15:23:59Z</time></trkpt><trkpt lat="42.704793734967524" lon="12.983383336249373"><ele>898.6666666666667</ele><time>2026-04-12T15:24:00Z</time></trkpt><trkpt lat="42.70475224127897" lon="12.983068434241076"><ele>898.3333333333333</ele><time>2026-04-12T15:24:01Z</time></trkpt><trkpt lat="42.704717882249064" lon="12.982795448671416"><ele>898.0</ele><time>2026-04-12T15:24:02Z</time></trkpt><trkpt lat="42.70466870974768" lon="12.982525609194182"><ele>896.6666666666666</ele><time>2026-04-12T15:24:03Z</time></trkpt><trkpt lat="42.7046104726105" lon="12.982256809831764"><ele>895.3333333333333</ele><time>2026-04-12T15:24:04Z</time></trkpt><trkpt lat="42.704533150607226" lon="12.982010509752786"><ele>894.0</ele><time>2026-04-12T15:24:05Z</time></trkpt><trkpt lat="42.70442830863128" lon="12.98177236724491"><ele>898.3333333333333</ele><time>2026-04-12T15:24:06Z</time></trkpt><trkpt lat="42.704303829701075" lon="12.981554120289317"><ele>902.6666666666666</ele><time>2026-04-12T15:24:07Z</time></trkpt><trkpt lat="42.70418353821288" lon="12.981346747455493"><ele>907.0</ele><time>2026-04-12T15:24:08Z</time></trkpt><trkpt lat="42.70408033142861" lon="12.981130019350651"><ele>907.0</ele><time>2026-04-12T15:24:09Z</time></trkpt><trkpt lat="42.70405673242947" lon="12.980888114467724"><ele>907.0</ele><time>2026-04-12T15:24:10Z</time></trkpt><trkpt lat="42.704083589570295" lon="12.980635127634212"><ele>907.0</ele><time>2026-04-12T15:24:11Z</time></trkpt><trkpt lat="42.704138774895306" lon="12.980347837688464"><ele>908.0</ele><time>2026-04-12T15:24:12Z</time></trkpt><trkpt lat="42.7041977743252" lon="12.980096994635625"><ele>909.0</ele><time>2026-04-12T15:24:13Z</time></trkpt><trkpt lat="42.7042532619291" lon="12.97986610952159"><ele>910.0</ele><time>2026-04-12T15:24:14Z</time></trkpt><trkpt lat="42.70427267871545" lon="12.979628417046735"><ele>910.0</ele><time>2026-04-12T15:24:15Z</time></trkpt><trkpt lat="42.70425885939755" lon="12.979388420925128"><ele>910.0</ele><time>2026-04-12T15:24:16Z</time></trkpt><trkpt lat="42.70422068506618" lon="12.979148542529877"><ele>910.0</ele><time>2026-04-12T15:24:17Z</time></trkpt><trkpt lat="42.70415722156049" lon="12.978910098284437"><ele>909.6666666666666</ele><time>2026-04-12T15:24:18Z</time></trkpt><trkpt lat="42.704066190002486" lon="12.97867648516333"><ele>909.3333333333333</ele><time>2026-04-12T15:24:19Z</time></trkpt><trkpt lat="42.7039550917178" lon="12.97845477199317"><ele>909.0</ele><time>2026-04-12T15:24:20Z</time></trkpt><trkpt lat="42.70382435223722" lon="12.978258759652418"><ele>909.0</ele><time>2026-04-12T15:24:21Z</time></trkpt><trkpt lat="42.70367369812593" lon="12.978094076389498"><ele>909.0</ele><time>2026-04-12T15:24:22Z</time></trkpt><trkpt lat="42.7034971840967" lon="12.977961038770337"><ele>909.0</ele><time>2026-04-12T15:24:23Z</time></trkpt><trkpt lat="42.70331406362564" lon="12.977835593951133"><ele>912.3333333333333</ele><time>2026-04-12T15:24:24Z</time></trkpt><trkpt lat="42.703132633151235" lon="12.977702572711067"><ele>915.6666666666666</ele><time>2026-04-12T15:24:25Z</time></trkpt><trkpt lat="42.70295581969629" lon="12.977563251263707"><ele>919.0</ele><time>2026-04-12T15:24:26Z</time></trkpt><trkpt lat="42.70278352513365" lon="12.977424072189482"><ele>921.6666666666666</ele><time>2026-04-12T15:24:27Z</time></trkpt><trkpt lat="42.7026108837554" lon="12.977286107986947"><ele>924.3333333333333</ele><time>2026-04-12T15:24:28Z</time></trkpt><trkpt lat="42.702443078480826" lon="12.977149097630843"><ele>927.0</ele><time>2026-04-12T15:24:29Z</time></trkpt><trkpt lat="42.70228661347302" lon="12.97702009277424"><ele>927.0</ele><time>2026-04-12T15:24:30Z</time></trkpt><trkpt lat="42.70213631206745" lon="12.976902622126833"><ele>927.0</ele><time>2026-04-12T15:24:31Z</time></trkpt><trkpt lat="42.70199658463704" lon="12.976794782361186"><ele>927.0</ele><time>2026-04-12T15:24:32Z</time></trkpt><trkpt lat="42.701863679806934" lon="12.976705062337338"><ele>929.3333333333333</ele><time>2026-04-12T15:24:33Z</time></trkpt><trkpt lat="42.7016347970227" lon="12.976884156813727"><ele>931.6666666666666</ele><time>2026-04-12T15:24:34Z</time></trkpt><trkpt lat="42.70146164722479" lon="12.976964891251074"><ele>934.0</ele><time>2026-04-12T15:24:35Z</time></trkpt><trkpt lat="42.70128001465497" lon="12.977041130886706"><ele>934.0</ele><time>2026-04-12T15:24:36Z</time></trkpt><trkpt lat="42.70110018998889" lon="12.977117152252957"><ele>934.0</ele><time>2026-04-12T15:24:37Z</time></trkpt><trkpt lat="42.700914687071325" lon="12.977195754983287"><ele>934.0</ele><time>2026-04-12T15:24:38Z</time></trkpt><trkpt lat="42.70072578917898" lon="12.977278319125423"><ele>934.3333333333333</ele><time>2026-04-12T15:24:39Z</time></trkpt><trkpt lat="42.70053144873952" lon="12.977364238394534"><ele>934.6666666666667</ele><time>2026-04-12T15:24:40Z</time></trkpt><trkpt lat="42.70033681049919" lon="12.977449117186605"><ele>935.0</ele><time>2026-04-12T15:24:41Z</time></trkpt><trkpt lat="42.700129634394365" lon="12.97752867263579"><ele>944.5</ele><time>2026-04-12T15:24:42Z</time></trkpt><trkpt lat="42.69991426297897" lon="12.977623959340173"><ele>954.0</ele><time>2026-04-12T15:24:43Z</time></trkpt><trkpt lat="42.69969917037804" lon="12.977710526412597"><ele>954.0</ele><time>2026-04-12T15:24:44Z</time></trkpt><trkpt lat="42.699485490845824" lon="12.977784769022604"><ele>954.0</ele><time>2026-04-12T15:24:45Z</time></trkpt><trkpt lat="42.69927675998194" lon="12.977851718444484"><ele>954.0</ele><time>2026-04-12T15:24:46Z</time></trkpt><trkpt lat="42.69907429625087" lon="12.977903076949206"><ele>953.6666666666667</ele><time>2026-04-12T15:24:47Z</time></trkpt><trkpt lat="42.69888531953651" lon="12.977944200449233"><ele>953.3333333333334</ele><time>2026-04-12T15:24:48Z</time></trkpt><trkpt lat="42.698714175188435" lon="12.97798361110846"><ele>953.0</ele><time>2026-04-12T15:24:49Z</time></trkpt><trkpt lat="42.69855563606163" lon="12.97803007561066"><ele>950.6666666666667</ele><time>2026-04-12T15:24:50Z</time></trkpt><trkpt lat="42.698398818955866" lon="12.978068907377493"><ele>948.3333333333333</ele><time>2026-04-12T15:24:51Z</time></trkpt><trkpt lat="42.698244543058955" lon="12.978113971382655"><ele>946.0</ele><time>2026-04-12T15:24:52Z</time></trkpt><trkpt lat="42.698091158812616" lon="12.97815582344327"><ele>946.0</ele><time>2026-04-12T15:24:53Z</time></trkpt><trkpt lat="42.697935510807234" lon="12.978192150800625"><ele>946.0</ele><time>2026-04-12T15:24:54Z</time></trkpt><trkpt lat="42.69779419773535" lon="12.97823097066818"><ele>946.0</ele><time>2026-04-12T15:24:55Z</time></trkpt><trkpt lat="42.69765353357059" lon="12.978276040872387"><ele>946.0</ele><time>2026-04-12T15:24:56Z</time></trkpt><trkpt lat="42.69750885786131" lon="12.978298777954805"><ele>945.0</ele><time>2026-04-12T15:24:57Z</time></trkpt><trkpt lat="42.69736651184165" lon="12.978325052719853"><ele>944.0</ele><time>2026-04-12T15:24:58Z</time></trkpt><trkpt lat="42.69721695471961" lon="12.978319275754286"><ele>943.0</ele><time>2026-04-12T15:24:59Z</time></trkpt><trkpt lat="42.69706513713849" lon="12.978257326655413"><ele>943.0</ele><time>2026-04-12T15:25:00Z</time></trkpt><trkpt lat="42.69692348476445" lon="12.978144974173926"><ele>943.0</ele><time>2026-04-12T15:25:01Z</time></trkpt><trkpt lat="42.69680305710534" lon="12.977998864074747"><ele>943.0</ele><time>2026-04-12T15:25:02Z</time></trkpt><trkpt lat="42.69669902130166" lon="12.977830772921253"><ele>945.6666666666666</ele><time>2026-04-12T15:25:03Z</time></trkpt><trkpt lat="42.69662179879597" lon="12.977647996671834"><ele>948.3333333333333</ele><time>2026-04-12T15:25:04Z</time></trkpt><trkpt lat="42.696581503501704" lon="12.977447684327375"><ele>951.0</ele><time>2026-04-12T15:25:05Z</time></trkpt><trkpt lat="42.69657393175163" lon="12.977236856046286"><ele>952.6666666666667</ele><time>2026-04-12T15:25:06.001Z</time></trkpt><trkpt lat="42.69660180211032" lon="12.977029805933842"><ele>954.3333333333334</ele><time>2026-04-12T15:25:07.001Z</time></trkpt><trkpt lat="42.69665570294048" lon="12.976825320392738"><ele>956.0</ele><time>2026-04-12T15:25:08.001Z</time></trkpt><trkpt lat="42.69669687123547" lon="12.976626441202214"><ele>957.0</ele><time>2026-04-12T15:25:09.001Z</time></trkpt><trkpt lat="42.69673842369391" lon="12.976417665716117"><ele>958.0</ele><time>2026-04-12T15:25:10.001Z</time></trkpt><trkpt lat="42.696774244499125" lon="12.976210682239385"><ele>959.0</ele><time>2026-04-12T15:25:11.001Z</time></trkpt><trkpt lat="42.696791485767605" lon="12.975998000726051"><ele>960.0</ele><time>2026-04-12T15:25:12.001Z</time></trkpt><trkpt lat="42.69677313778955" lon="12.975791794409636"><ele>961.0</ele><time>2026-04-12T15:25:13.001Z</time></trkpt><trkpt lat="42.69671480066592" lon="12.975599024034931"><ele>962.0</ele><time>2026-04-12T15:25:14.001Z</time></trkpt><trkpt lat="42.69662389721833" lon="12.975435953827837"><ele>962.0</ele><time>2026-04-12T15:25:15.001Z</time></trkpt><trkpt lat="42.696526198577956" lon="12.975303744556852"><ele>962.0</ele><time>2026-04-12T15:25:16.001Z</time></trkpt><trkpt lat="42.696437276629545" lon="12.97517189915997"><ele>962.0</ele><time>2026-04-12T15:25:17.001Z</time></trkpt><trkpt lat="42.69632639945028" lon="12.975022359274533"><ele>962.0</ele><time>2026-04-12T15:25:18.001Z</time></trkpt><trkpt lat="42.696204068095724" lon="12.9748484569667"><ele>963.6666666666667</ele><time>2026-04-12T15:25:19.001Z</time></trkpt><trkpt lat="42.69606216919584" lon="12.974651659739422"><ele>965.3333333333333</ele><time>2026-04-12T15:25:20.001Z</time></trkpt><trkpt lat="42.69590985569422" lon="12.974422655950749"><ele>967.0</ele><time>2026-04-12T15:25:21.001Z</time></trkpt><trkpt lat="42.69573613340114" lon="12.974164476472422"><ele>957.0</ele><time>2026-04-12T15:25:22.001Z</time></trkpt><trkpt lat="42.695563948312035" lon="12.97391427431249"><ele>947.0</ele><time>2026-04-12T15:25:23.001Z</time></trkpt><trkpt lat="42.695418358563145" lon="12.973701952924328"><ele>947.0</ele><time>2026-04-12T15:25:24.001Z</time></trkpt><trkpt lat="42.69528712513851" lon="12.973508753720752"><ele>947.0</ele><time>2026-04-12T15:25:25.001Z</time></trkpt><trkpt lat="42.695171514857904" lon="12.973309803174127"><ele>947.0</ele><time>2026-04-12T15:25:26.001Z</time></trkpt><trkpt lat="42.69509946089133" lon="12.973092797222183"><ele>949.6666666666667</ele><time>2026-04-12T15:25:27.001Z</time></trkpt><trkpt lat="42.695045072286256" lon="12.972867129343365"><ele>952.3333333333333</ele><time>2026-04-12T15:25:28.001Z</time></trkpt><trkpt lat="42.6949634400584" lon="12.972682450195324"><ele>955.0</ele><time>2026-04-12T15:25:29.001Z</time></trkpt><trkpt lat="42.69481502831965" lon="12.97256869456977"><ele>947.5</ele><time>2026-04-12T15:25:30.001Z</time></trkpt><trkpt lat="42.69461500458992" lon="12.972492454015944"><ele>940.0</ele><time>2026-04-12T15:25:31.001Z</time></trkpt><trkpt lat="42.6943718254157" lon="12.972447506301316"><ele>940.0</ele><time>2026-04-12T15:25:32.001Z</time></trkpt><trkpt lat="42.6941132191839" lon="12.97241004851515"><ele>940.0</ele><time>2026-04-12T15:25:33Z</time></trkpt><trkpt lat="42.693828857820336" lon="12.9723744458099"><ele>942.0</ele><time>2026-04-12T15:25:34Z</time></trkpt><trkpt lat="42.693524607066244" lon="12.972346934386993"><ele>944.0</ele><time>2026-04-12T15:25:35Z</time></trkpt><trkpt lat="42.69323477843409" lon="12.972321563812166"><ele>944.0</ele><time>2026-04-12T15:25:36Z</time></trkpt><trkpt lat="42.692973958856655" lon="12.972308102825757"><ele>944.0</ele><time>2026-04-12T15:25:37Z</time></trkpt><trkpt lat="42.69274153625293" lon="12.972316751211933"><ele>943.0</ele><time>2026-04-12T15:25:38Z</time></trkpt><trkpt lat="42.69252601721761" lon="12.972353425783155"><ele>942.0</ele><time>2026-04-12T15:25:39Z</time></trkpt><trkpt lat="42.69234047922415" lon="12.97234831850473"><ele>941.0</ele><time>2026-04-12T15:25:40Z</time></trkpt><trkpt lat="42.6921828779118" lon="12.972259360124289"><ele>941.0</ele><time>2026-04-12T15:25:41Z</time></trkpt><trkpt lat="42.69202564168719" lon="12.972103269671083"><ele>941.0</ele><time>2026-04-12T15:25:42Z</time></trkpt><trkpt lat="42.6919081081443" lon="12.971886452351722"><ele>941.0</ele><time>2026-04-12T15:25:43Z</time></trkpt><trkpt lat="42.691795032068526" lon="12.97171984022587"><ele>936.3333333333334</ele><time>2026-04-12T15:25:44Z</time></trkpt><trkpt lat="42.69168326456292" lon="12.971590503340611"><ele>931.6666666666667</ele><time>2026-04-12T15:25:45Z</time></trkpt><trkpt lat="42.69149911173543" lon="12.971518846602548"><ele>927.0</ele><time>2026-04-12T15:25:46Z</time></trkpt><trkpt lat="42.69126856440909" lon="12.971512949630748"><ele>924.5</ele><time>2026-04-12T15:25:47Z</time></trkpt><trkpt lat="42.691029484766524" lon="12.971544805781212"><ele>922.0</ele><time>2026-04-12T15:25:48Z</time></trkpt><trkpt lat="42.69079685347428" lon="12.971625704460203"><ele>931.6666666666666</ele><time>2026-04-12T15:25:49Z</time></trkpt><trkpt lat="42.69058626947875" lon="12.971743699216143"><ele>941.3333333333333</ele><time>2026-04-12T15:25:50Z</time></trkpt><trkpt lat="42.69041126738742" lon="12.971880587753802"><ele>951.0</ele><time>2026-04-12T15:25:51Z</time></trkpt><trkpt lat="42.690288315623114" lon="12.972023643882757"><ele>946.25</ele><time>2026-04-12T15:25:52Z</time></trkpt><trkpt lat="42.69018178187405" lon="12.972163390069007"><ele>941.5</ele><time>2026-04-12T15:25:53Z</time></trkpt><trkpt lat="42.6900637203083" lon="12.972268275103271"><ele>936.75</ele><time>2026-04-12T15:25:54Z</time></trkpt><trkpt lat="42.68993184992519" lon="12.972303716591279"><ele>932.0</ele><time>2026-04-12T15:25:55Z</time></trkpt><trkpt lat="42.68978174383097" lon="12.972226514264"><ele>932.0</ele><time>2026-04-12T15:25:56Z</time></trkpt><trkpt lat="42.68962501469365" lon="12.97220250331826"><ele>932.0</ele><time>2026-04-12T15:25:57Z</time></trkpt><trkpt lat="42.68946947335272" lon="12.97219306063022"><ele>932.0</ele><time>2026-04-12T15:25:58Z</time></trkpt><trkpt lat="42.68931256971733" lon="12.972231174447899"><ele>929.3333333333334</ele><time>2026-04-12T15:25:59Z</time></trkpt><trkpt lat="42.68915186545666" lon="12.972301892663307"><ele>926.6666666666667</ele><time>2026-04-12T15:26:00Z</time></trkpt><trkpt lat="42.6889815574166" lon="12.972390812316121"><ele>924.0</ele><time>2026-04-12T15:26:01Z</time></trkpt><trkpt lat="42.688815006889676" lon="12.972483783201703"><ele>929.0</ele><time>2026-04-12T15:26:02Z</time></trkpt><trkpt lat="42.68866302276254" lon="12.972570836858138"><ele>934.0</ele><time>2026-04-12T15:26:03Z</time></trkpt><trkpt lat="42.68852474122528" lon="12.972650532468972"><ele>939.0</ele><time>2026-04-12T15:26:04Z</time></trkpt><trkpt lat="42.68839905136855" lon="12.972726454217295"><ele>939.0</ele><time>2026-04-12T15:26:05Z</time></trkpt><trkpt lat="42.68827562646201" lon="12.972805456286672"><ele>939.0</ele><time>2026-04-12T15:26:06Z</time></trkpt><trkpt lat="42.68815310837278" lon="12.972884219695667"><ele>939.0</ele><time>2026-04-12T15:26:07Z</time></trkpt><trkpt lat="42.68802504449318" lon="12.972971572920489"><ele>939.0</ele><time>2026-04-12T15:26:08Z</time></trkpt><trkpt lat="42.68789057760944" lon="12.973073100958933"><ele>940.0</ele><time>2026-04-12T15:26:09Z</time></trkpt><trkpt lat="42.68774084238749" lon="12.973193549055605"><ele>941.0</ele><time>2026-04-12T15:26:10Z</time></trkpt><trkpt lat="42.68759847180134" lon="12.97331933970954"><ele>942.0</ele><time>2026-04-12T15:26:11Z</time></trkpt><trkpt lat="42.6874684136143" lon="12.973434453402229"><ele>942.0</ele><time>2026-04-12T15:26:12Z</time></trkpt><trkpt lat="42.687344952848626" lon="12.973545043239882"><ele>942.0</ele><time>2026-04-12T15:26:13Z</time></trkpt><trkpt lat="42.687228826514584" lon="12.97365805167388"><ele>942.0</ele><time>2026-04-12T15:26:14Z</time></trkpt><trkpt lat="42.68710658383039" lon="12.97372203733562"><ele>942.0</ele><time>2026-04-12T15:26:15Z</time></trkpt><trkpt lat="42.68696731088703" lon="12.973755062483638"><ele>940.3333333333333</ele><time>2026-04-12T15:26:16Z</time></trkpt><trkpt lat="42.686842441838586" lon="12.9735998399579"><ele>938.6666666666666</ele><time>2026-04-12T15:26:17Z</time></trkpt><trkpt lat="42.6866619614749" lon="12.97349387073251"><ele>937.0</ele><time>2026-04-12T15:26:18Z</time></trkpt><trkpt lat="42.686448515817105" lon="12.973334187711764"><ele>920.0</ele><time>2026-04-12T15:26:19Z</time></trkpt><trkpt lat="42.686199234652996" lon="12.973261380524956"><ele>903.0</ele><time>2026-04-12T15:26:20Z</time></trkpt><trkpt lat="42.68592410001234" lon="12.973249706945712"><ele>903.0</ele><time>2026-04-12T15:26:21Z</time></trkpt><trkpt lat="42.68565946457" lon="12.973286773230301"><ele>903.0</ele><time>2026-04-12T15:26:22Z</time></trkpt><trkpt lat="42.68541782563661" lon="12.973367652671257"><ele>912.5</ele><time>2026-04-12T15:26:23Z</time></trkpt><trkpt lat="42.68520192070464" lon="12.973512799627938"><ele>922.0</ele><time>2026-04-12T15:26:24Z</time></trkpt><trkpt lat="42.685009781179126" lon="12.973671029768953"><ele>922.0</ele><time>2026-04-12T15:26:25Z</time></trkpt><trkpt lat="42.684832826779854" lon="12.973769663975444"><ele>922.0</ele><time>2026-04-12T15:26:26Z</time></trkpt><trkpt lat="42.684689518866655" lon="12.973863924613928"><ele>922.0</ele><time>2026-04-12T15:26:27Z</time></trkpt><trkpt lat="42.684578919145366" lon="12.973920100927383"><ele>922.0</ele><time>2026-04-12T15:26:28Z</time></trkpt><trkpt lat="42.68448133046846" lon="12.973936025550007"><ele>922.0</ele><time>2026-04-12T15:26:29Z</time></trkpt><trkpt lat="42.68438869565581" lon="12.973901045734012"><ele>922.0</ele><time>2026-04-12T15:26:30Z</time></trkpt><trkpt lat="42.68432991683278" lon="12.97376763580899"><ele>922.0</ele><time>2026-04-12T15:26:31Z</time></trkpt><trkpt lat="42.684324688666415" lon="12.973616535766913"><ele>922.0</ele><time>2026-04-12T15:26:32Z</time></trkpt><trkpt lat="42.684295735541134" lon="12.973435578857924"><ele>916.6666666666666</ele><time>2026-04-12T15:26:33.001Z</time></trkpt><trkpt lat="42.68423651075496" lon="12.973224452918295"><ele>911.3333333333333</ele><time>2026-04-12T15:26:34.001Z</time></trkpt><trkpt lat="42.684081787545125" lon="12.973059248835613"><ele>906.0</ele><time>2026-04-12T15:26:35.001Z</time></trkpt><trkpt lat="42.68389308212355" lon="12.972923405777276"><ele>906.0</ele><time>2026-04-12T15:26:36.001Z</time></trkpt><trkpt lat="42.683704230207326" lon="12.972787279870241"><ele>906.0</ele><time>2026-04-12T15:26:37.001Z</time></trkpt><trkpt lat="42.683543283910375" lon="12.972645128130171"><ele>906.0</ele><time>2026-04-12T15:26:38.001Z</time></trkpt><trkpt lat="42.68340626628063" lon="12.97249675272375"><ele>905.0</ele><time>2026-04-12T15:26:39.001Z</time></trkpt><trkpt lat="42.68326253428976" lon="12.972360748579199"><ele>904.0</ele><time>2026-04-12T15:26:40.001Z</time></trkpt><trkpt lat="42.683102299142334" lon="12.972270770899499"><ele>903.0</ele><time>2026-04-12T15:26:41.001Z</time></trkpt><trkpt lat="42.68292675150199" lon="12.9722350594359"><ele>905.0</ele><time>2026-04-12T15:26:42.001Z</time></trkpt><trkpt lat="42.68274319919243" lon="12.972226478849116"><ele>907.0</ele><time>2026-04-12T15:26:43.001Z</time></trkpt><trkpt lat="42.682561388555506" lon="12.972237020183352"><ele>909.0</ele><time>2026-04-12T15:26:44.001Z</time></trkpt><trkpt lat="42.68238098799827" lon="12.972229784483764"><ele>909.0</ele><time>2026-04-12T15:26:45.001Z</time></trkpt><trkpt lat="42.682203999534806" lon="12.972230706979259"><ele>909.0</ele><time>2026-04-12T15:26:46.001Z</time></trkpt><trkpt lat="42.68203308329562" lon="12.972221653501864"><ele>909.0</ele><time>2026-04-12T15:26:47.001Z</time></trkpt><trkpt lat="42.68185536732989" lon="12.97221190502125"><ele>910.0</ele><time>2026-04-12T15:26:48.001Z</time></trkpt><trkpt lat="42.681679323640516" lon="12.972202806681985"><ele>911.0</ele><time>2026-04-12T15:26:49.001Z</time></trkpt><trkpt lat="42.68150444216958" lon="12.972193130001724"><ele>912.0</ele><time>2026-04-12T15:26:50.001Z</time></trkpt><trkpt lat="42.68134085091873" lon="12.972186658562974"><ele>912.0</ele><time>2026-04-12T15:26:51.001Z</time></trkpt><trkpt lat="42.68118974820557" lon="12.9721762492642"><ele>912.0</ele><time>2026-04-12T15:26:52.001Z</time></trkpt><trkpt lat="42.68103714336338" lon="12.972129110984692"><ele>912.0</ele><time>2026-04-12T15:26:53.001Z</time></trkpt><trkpt lat="42.68091578548721" lon="12.971997277720671"><ele>914.0</ele><time>2026-04-12T15:26:54.001Z</time></trkpt><trkpt lat="42.68077559874436" lon="12.97188392201514"><ele>916.0</ele><time>2026-04-12T15:26:55.001Z</time></trkpt><trkpt lat="42.68066290780738" lon="12.971773967986984"><ele>918.0</ele><time>2026-04-12T15:26:56.001Z</time></trkpt><trkpt lat="42.6805233592524" lon="12.971734123153704"><ele>920.0</ele><time>2026-04-12T15:26:57.001Z</time></trkpt><trkpt lat="42.68037592401587" lon="12.971753872778152"><ele>922.75</ele><time>2026-04-12T15:26:58.001Z</time></trkpt><trkpt lat="42.68024288811493" lon="12.97176530929429"><ele>925.5</ele><time>2026-04-12T15:26:59.001Z</time></trkpt><trkpt lat="42.68012563912555" lon="12.971692973439668"><ele>928.25</ele><time>2026-04-12T15:27:00.001Z</time></trkpt><trkpt lat="42.679978927439514" lon="12.971572506331295"><ele>931.0</ele><time>2026-04-12T15:27:01.001Z</time></trkpt><trkpt lat="42.67983390906074" lon="12.971477751720572"><ele>929.6666666666666</ele><time>2026-04-12T15:27:02.001Z</time></trkpt><trkpt lat="42.67969696511394" lon="12.9713611957359"><ele>928.3333333333333</ele><time>2026-04-12T15:27:03.001Z</time></trkpt><trkpt lat="42.67955815147148" lon="12.971257656954476"><ele>927.0</ele><time>2026-04-12T15:27:04.001Z</time></trkpt><trkpt lat="42.67942141763523" lon="12.971136059884037"><ele>927.0</ele><time>2026-04-12T15:27:05.001Z</time></trkpt><trkpt lat="42.6792614931102" lon="12.970984191123504"><ele>927.0</ele><time>2026-04-12T15:27:06.001Z</time></trkpt><trkpt lat="42.679105525640004" lon="12.970807801840287"><ele>927.0</ele><time>2026-04-12T15:27:07.001Z</time></trkpt><trkpt lat="42.67894663421958" lon="12.97062189046318"><ele>918.3333333333333</ele><time>2026-04-12T15:27:08.001Z</time></trkpt><trkpt lat="42.678777682077616" lon="12.970504557148281"><ele>909.6666666666666</ele><time>2026-04-12T15:27:09.001Z</time></trkpt><trkpt lat="42.67860487551074" lon="12.970477892622432"><ele>901.0</ele><time>2026-04-12T15:27:10.001Z</time></trkpt><trkpt lat="42.678435876896145" lon="12.970521741519883"><ele>901.0</ele><time>2026-04-12T15:27:11.001Z</time></trkpt><trkpt lat="42.678301489900804" lon="12.970625272324405"><ele>901.0</ele><time>2026-04-12T15:27:12.001Z</time></trkpt><trkpt lat="42.67818567828551" lon="12.970693781996623"><ele>901.0</ele><time>2026-04-12T15:27:13.001Z</time></trkpt><trkpt lat="42.678074654197516" lon="12.970666118075577"><ele>901.0</ele><time>2026-04-12T15:27:14.001Z</time></trkpt><trkpt lat="42.67798265728203" lon="12.970538879659554"><ele>901.0</ele><time>2026-04-12T15:27:15.001Z</time></trkpt><trkpt lat="42.677926605210324" lon="12.970338193158563"><ele>901.0</ele><time>2026-04-12T15:27:16.001Z</time></trkpt><trkpt lat="42.677848373779504" lon="12.970099319216144"><ele>901.0</ele><time>2026-04-12T15:27:17.001Z</time></trkpt><trkpt lat="42.67778692022311" lon="12.96987611028197"><ele>899.6666666666666</ele><time>2026-04-12T15:27:18.001Z</time></trkpt><trkpt lat="42.67770006600284" lon="12.969714450300895"><ele>898.3333333333333</ele><time>2026-04-12T15:27:19.001Z</time></trkpt><trkpt lat="42.677571266669325" lon="12.969622454011905"><ele>897.0</ele><time>2026-04-12T15:27:20.001Z</time></trkpt><trkpt lat="42.67740965724527" lon="12.96959437759551"><ele>897.0</ele><time>2026-04-12T15:27:21.001Z</time></trkpt><trkpt lat="42.67723158676406" lon="12.969565571541253"><ele>897.0</ele><time>2026-04-12T15:27:22.001Z</time></trkpt><trkpt lat="42.6770403658787" lon="12.9694757409856"><ele>897.0</ele><time>2026-04-12T15:27:23.001Z</time></trkpt><trkpt lat="42.6768679649269" lon="12.969386921652724"><ele>905.3333333333333</ele><time>2026-04-12T15:27:24.001Z</time></trkpt><trkpt lat="42.676707968277" lon="12.96937285374149"><ele>913.6666666666666</ele><time>2026-04-12T15:27:25.001Z</time></trkpt><trkpt lat="42.676544492214184" lon="12.969335195833974"><ele>922.0</ele><time>2026-04-12T15:27:26.001Z</time></trkpt><trkpt lat="42.676393269964855" lon="12.969305880902052"><ele>922.0</ele><time>2026-04-12T15:27:27.001Z</time></trkpt><trkpt lat="42.676257960366485" lon="12.969268660899449"><ele>922.0</ele><time>2026-04-12T15:27:28.001Z</time></trkpt><trkpt lat="42.67613916638611" lon="12.969226751654164"><ele>922.0</ele><time>2026-04-12T15:27:29.001Z</time></trkpt><trkpt lat="42.676053240652614" lon="12.969114592674272"><ele>922.0</ele><time>2026-04-12T15:27:30.001Z</time></trkpt><trkpt lat="42.67604475564272" lon="12.968942664611099"><ele>919.25</ele><time>2026-04-12T15:27:31.001Z</time></trkpt><trkpt lat="42.676013610677586" lon="12.968757915083117"><ele>916.5</ele><time>2026-04-12T15:27:32.001Z</time></trkpt><trkpt lat="42.67592931623185" lon="12.96859845614417"><ele>913.75</ele><time>2026-04-12T15:27:33.001Z</time></trkpt><trkpt lat="42.675803970034806" lon="12.968479324907717"><ele>911.0</ele><time>2026-04-12T15:27:34.001Z</time></trkpt><trkpt lat="42.67564362031677" lon="12.968386550370173"><ele>903.75</ele><time>2026-04-12T15:27:35.001Z</time></trkpt><trkpt lat="42.675494729422674" lon="12.968323005961953"><ele>896.5</ele><time>2026-04-12T15:27:36.001Z</time></trkpt><trkpt lat="42.67534979836104" lon="12.968283435084578"><ele>889.25</ele><time>2026-04-12T15:27:37.001Z</time></trkpt><trkpt lat="42.67520580402037" lon="12.968287754125932"><ele>882.0</ele><time>2026-04-12T15:27:38.001Z</time></trkpt><trkpt lat="42.67507513990018" lon="12.968352464029527"><ele>882.0</ele><time>2026-04-12T15:27:39Z</time></trkpt><trkpt lat="42.674965108088784" lon="12.968395848529122"><ele>882.0</ele><time>2026-04-12T15:27:40Z</time></trkpt><trkpt lat="42.6748517903343" lon="12.968341788907546"><ele>882.0</ele><time>2026-04-12T15:27:41Z</time></trkpt><trkpt lat="42.67476955368464" lon="12.968153869525173"><ele>882.0</ele><time>2026-04-12T15:27:42Z</time></trkpt><trkpt lat="42.674659912373514" lon="12.96802433686892"><ele>882.0</ele><time>2026-04-12T15:27:43Z</time></trkpt><trkpt lat="42.67451586859472" lon="12.967956709702088"><ele>882.0</ele><time>2026-04-12T15:27:44Z</time></trkpt><trkpt lat="42.67434143799786" lon="12.967941714804361"><ele>882.0</ele><time>2026-04-12T15:27:45Z</time></trkpt><trkpt lat="42.674172702993836" lon="12.967931328883182"><ele>884.5</ele><time>2026-04-12T15:27:46Z</time></trkpt><trkpt lat="42.67401144890327" lon="12.967905174396854"><ele>887.0</ele><time>2026-04-12T15:27:47Z</time></trkpt><trkpt lat="42.67386776039449" lon="12.967927116942048"><ele>889.5</ele><time>2026-04-12T15:27:48Z</time></trkpt><trkpt lat="42.67373521222833" lon="12.967983804206971"><ele>892.0</ele><time>2026-04-12T15:27:49Z</time></trkpt><trkpt lat="42.67360642797731" lon="12.968007786719669"><ele>894.75</ele><time>2026-04-12T15:27:50Z</time></trkpt><trkpt lat="42.673492048330544" lon="12.967955797513445"><ele>897.5</ele><time>2026-04-12T15:27:51Z</time></trkpt><trkpt lat="42.673430832895654" lon="12.967759653926427"><ele>900.25</ele><time>2026-04-12T15:27:52Z</time></trkpt><trkpt lat="42.67332249500168" lon="12.967616349333873"><ele>903.0</ele><time>2026-04-12T15:27:53Z</time></trkpt><trkpt lat="42.6731996238716" lon="12.967503755947522"><ele>890.0</ele><time>2026-04-12T15:27:54Z</time></trkpt><trkpt lat="42.67300580158498" lon="12.967466367508543"><ele>877.0</ele><time>2026-04-12T15:27:55Z</time></trkpt><trkpt lat="42.672793826450295" lon="12.967436649767993"><ele>864.0</ele><time>2026-04-12T15:27:56Z</time></trkpt><trkpt lat="42.672578053619034" lon="12.967412204422256"><ele>864.0</ele><time>2026-04-12T15:27:57Z</time></trkpt><trkpt lat="42.67236299243668" lon="12.967383175180291"><ele>864.0</ele><time>2026-04-12T15:27:58Z</time></trkpt><trkpt lat="42.672170573899606" lon="12.967348844677321"><ele>864.0</ele><time>2026-04-12T15:27:59Z</time></trkpt><trkpt lat="42.67200766983073" lon="12.967325158448618"><ele>863.25</ele><time>2026-04-12T15:28:00Z</time></trkpt><trkpt lat="42.67186148417436" lon="12.967313835615977"><ele>862.5</ele><time>2026-04-12T15:28:01Z</time></trkpt><trkpt lat="42.67172919234868" lon="12.967339285574898"><ele>861.75</ele><time>2026-04-12T15:28:02Z</time></trkpt><trkpt lat="42.67161035662685" lon="12.967402502604578"><ele>861.0</ele><time>2026-04-12T15:28:03Z</time></trkpt><trkpt lat="42.671509086067566" lon="12.967489392994441"><ele>861.0</ele><time>2026-04-12T15:28:04Z</time></trkpt><trkpt lat="42.671423077126114" lon="12.967590708441884"><ele>861.0</ele><time>2026-04-12T15:28:05Z</time></trkpt><trkpt lat="42.67133835163634" lon="12.967663790808858"><ele>861.0</ele><time>2026-04-12T15:28:06Z</time></trkpt><trkpt lat="42.67122681753604" lon="12.967629339736478"><ele>861.0</ele><time>2026-04-12T15:28:07Z</time></trkpt><trkpt lat="42.6711663905191" lon="12.967470830386086"><ele>861.0</ele><time>2026-04-12T15:28:08Z</time></trkpt><trkpt lat="42.67115149008837" lon="12.967281072149015"><ele>861.0</ele><time>2026-04-12T15:28:09Z</time></trkpt><trkpt lat="42.67114163168064" lon="12.967082393291202"><ele>861.0</ele><time>2026-04-12T15:28:10Z</time></trkpt><trkpt lat="42.6711261811212" lon="12.966926271224098"><ele>861.0</ele><time>2026-04-12T15:28:11Z</time></trkpt><trkpt lat="42.67108931208154" lon="12.966773151355172"><ele>856.6666666666667</ele><time>2026-04-12T15:28:12Z</time></trkpt><trkpt lat="42.67098447886782" lon="12.966635347907763"><ele>852.3333333333334</ele><time>2026-04-12T15:28:13Z</time></trkpt><trkpt lat="42.67081737318852" lon="12.966553605460007"><ele>848.0</ele><time>2026-04-12T15:28:14Z</time></trkpt><trkpt lat="42.67062887988723" lon="12.9665116387111"><ele>848.0</ele><time>2026-04-12T15:28:15Z</time></trkpt><trkpt lat="42.67044138746133" lon="12.966466712346765"><ele>848.0</ele><time>2026-04-12T15:28:16Z</time></trkpt><trkpt lat="42.67027749749036" lon="12.966420860234678"><ele>848.0</ele><time>2026-04-12T15:28:17Z</time></trkpt><trkpt lat="42.670123870413285" lon="12.966372159103202"><ele>850.0</ele><time>2026-04-12T15:28:18Z</time></trkpt><trkpt lat="42.6699691689931" lon="12.966333780265758"><ele>852.0</ele><time>2026-04-12T15:28:19Z</time></trkpt><trkpt lat="42.669805308165685" lon="12.966332465664362"><ele>854.0</ele><time>2026-04-12T15:28:20Z</time></trkpt><trkpt lat="42.669642645173056" lon="12.966379292258118"><ele>854.0</ele><time>2026-04-12T15:28:21Z</time></trkpt><trkpt lat="42.66948424781205" lon="12.966464307016764"><ele>854.0</ele><time>2026-04-12T15:28:22Z</time></trkpt><trkpt lat="42.669347660543764" lon="12.966557100603982"><ele>854.0</ele><time>2026-04-12T15:28:23Z</time></trkpt><trkpt lat="42.66919815520024" lon="12.966627556612853"><ele>857.0</ele><time>2026-04-12T15:28:24Z</time></trkpt><trkpt lat="42.669046914138434" lon="12.966712463942626"><ele>860.0</ele><time>2026-04-12T15:28:25Z</time></trkpt><trkpt lat="42.66889425066601" lon="12.96678830513241"><ele>863.0</ele><time>2026-04-12T15:28:26Z</time></trkpt><trkpt lat="42.66875057414222" lon="12.966861508570114"><ele>863.0</ele><time>2026-04-12T15:28:27Z</time></trkpt><trkpt lat="42.66861009813025" lon="12.966883836295533"><ele>863.0</ele><time>2026-04-12T15:28:28Z</time></trkpt><trkpt lat="42.66849605119453" lon="12.966863270868002"><ele>863.0</ele><time>2026-04-12T15:28:29Z</time></trkpt><trkpt lat="42.66840593411163" lon="12.966783361249014"><ele>863.0</ele><time>2026-04-12T15:28:30Z</time></trkpt><trkpt lat="42.66836410284247" lon="12.966626244181047"><ele>854.3333333333334</ele><time>2026-04-12T15:28:31Z</time></trkpt><trkpt lat="42.668284119999534" lon="12.966463516519411"><ele>845.6666666666667</ele><time>2026-04-12T15:28:32Z</time></trkpt><trkpt lat="42.668159563329475" lon="12.966330153999"><ele>837.0</ele><time>2026-04-12T15:28:33.001Z</time></trkpt><trkpt lat="42.667968192224635" lon="12.966253798630893"><ele>837.6666666666667</ele><time>2026-04-12T15:28:34.001Z</time></trkpt><trkpt lat="42.667765006574896" lon="12.966216941859246"><ele>838.3333333333334</ele><time>2026-04-12T15:28:35.001Z</time></trkpt><trkpt lat="42.66756188170415" lon="12.966182009140434"><ele>839.0</ele><time>2026-04-12T15:28:36.001Z</time></trkpt><trkpt lat="42.667368442237155" lon="12.96613777121189"><ele>839.0</ele><time>2026-04-12T15:28:37.001Z</time></trkpt><trkpt lat="42.66718070598257" lon="12.966103164193852"><ele>839.0</ele><time>2026-04-12T15:28:38.001Z</time></trkpt><trkpt lat="42.66698433204853" lon="12.966075508548009"><ele>839.0</ele><time>2026-04-12T15:28:39.001Z</time></trkpt><trkpt lat="42.66680223399002" lon="12.966039017638758"><ele>838.6666666666667</ele><time>2026-04-12T15:28:40.001Z</time></trkpt><trkpt lat="42.66661707821224" lon="12.965997653192947"><ele>838.3333333333333</ele><time>2026-04-12T15:28:41.001Z</time></trkpt><trkpt lat="42.66642655807315" lon="12.96596237908849"><ele>838.0</ele><time>2026-04-12T15:28:42.001Z</time></trkpt><trkpt lat="42.66624611429951" lon="12.965928444404836"><ele>837.3333333333333</ele><time>2026-04-12T15:28:43.001Z</time></trkpt><trkpt lat="42.66607616541761" lon="12.965903140000078"><ele>836.6666666666667</ele><time>2026-04-12T15:28:44.001Z</time></trkpt><trkpt lat="42.66591408916165" lon="12.965895214293955"><ele>836.0</ele><time>2026-04-12T15:28:45.001Z</time></trkpt><trkpt lat="42.665748996446894" lon="12.965901174115285"><ele>836.0</ele><time>2026-04-12T15:28:46.001Z</time></trkpt><trkpt lat="42.665585744385425" lon="12.965934724860706"><ele>836.0</ele><time>2026-04-12T15:28:47.001Z</time></trkpt><trkpt lat="42.665420482644684" lon="12.965957869736847"><ele>836.0</ele><time>2026-04-12T15:28:48.001Z</time></trkpt><trkpt lat="42.665262625460656" lon="12.96596666501827"><ele>837.0</ele><time>2026-04-12T15:28:49.001Z</time></trkpt><trkpt lat="42.66512807493063" lon="12.965904888528042"><ele>838.0</ele><time>2026-04-12T15:28:50.001Z</time></trkpt><trkpt lat="42.66501708516266" lon="12.965777244359128"><ele>839.0</ele><time>2026-04-12T15:28:51.001Z</time></trkpt><trkpt lat="42.66490629552893" lon="12.965591946758604"><ele>831.3333333333334</ele><time>2026-04-12T15:28:52.001Z</time></trkpt><trkpt lat="42.664792011911786" lon="12.965382579548125"><ele>823.6666666666667</ele><time>2026-04-12T15:28:53.001Z</time></trkpt><trkpt lat="42.664666479718434" lon="12.96522680509669"><ele>816.0</ele><time>2026-04-12T15:28:54.001Z</time></trkpt><trkpt lat="42.66452199175581" lon="12.96511268679837"><ele>822.0</ele><time>2026-04-12T15:28:55.001Z</time></trkpt><trkpt lat="42.66434568764364" lon="12.965080806213555"><ele>828.0</ele><time>2026-04-12T15:28:56.001Z</time></trkpt><trkpt lat="42.66417480977243" lon="12.965124940272633"><ele>834.0</ele><time>2026-04-12T15:28:57.001Z</time></trkpt><trkpt lat="42.66402731522128" lon="12.965207171021383"><ele>834.0</ele><time>2026-04-12T15:28:58.001Z</time></trkpt><trkpt lat="42.66389413144421" lon="12.96525688327571"><ele>834.0</ele><time>2026-04-12T15:28:59.001Z</time></trkpt><trkpt lat="42.663790670193734" lon="12.965238025201092"><ele>834.0</ele><time>2026-04-12T15:29:00.001Z</time></trkpt><trkpt lat="42.663680825513474" lon="12.965109647234629"><ele>834.0</ele><time>2026-04-12T15:29:01.001Z</time></trkpt><trkpt lat="42.6635549665198" lon="12.964921233564421"><ele>828.3333333333333</ele><time>2026-04-12T15:29:02.001Z</time></trkpt><trkpt lat="42.66342346139613" lon="12.964718093523521"><ele>822.6666666666666</ele><time>2026-04-12T15:29:03.001Z</time></trkpt><trkpt lat="42.663301045861516" lon="12.964531414830521"><ele>817.0</ele><time>2026-04-12T15:29:04.001Z</time></trkpt><trkpt lat="42.6631842884798" lon="12.964375778417802"><ele>817.0</ele><time>2026-04-12T15:29:05.001Z</time></trkpt><trkpt lat="42.663069886655194" lon="12.96424779979856"><ele>817.0</ele><time>2026-04-12T15:29:06.001Z</time></trkpt><trkpt lat="42.662930163092724" lon="12.964149097909207"><ele>817.0</ele><time>2026-04-12T15:29:07.001Z</time></trkpt><trkpt lat="42.66275544717303" lon="12.96408929208052"><ele>811.6666666666666</ele><time>2026-04-12T15:29:08.001Z</time></trkpt><trkpt lat="42.66257684861097" lon="12.964032870474492"><ele>806.3333333333333</ele><time>2026-04-12T15:29:09.001Z</time></trkpt><trkpt lat="42.66239839189657" lon="12.963972297464293"><ele>801.0</ele><time>2026-04-12T15:29:10.001Z</time></trkpt><trkpt lat="42.66220852825788" lon="12.96390455077634"><ele>801.0</ele><time>2026-04-12T15:29:11.001Z</time></trkpt><trkpt lat="42.662020852613956" lon="12.963811624167649"><ele>801.0</ele><time>2026-04-12T15:29:12.001Z</time></trkpt><trkpt lat="42.661837582790895" lon="12.963748528177303"><ele>801.0</ele><time>2026-04-12T15:29:13.001Z</time></trkpt><trkpt lat="42.66166715248397" lon="12.963687064035325"><ele>805.3333333333333</ele><time>2026-04-12T15:29:14.001Z</time></trkpt><trkpt lat="42.661496456429155" lon="12.963629588505624"><ele>809.6666666666666</ele><time>2026-04-12T15:29:15.001Z</time></trkpt><trkpt lat="42.66132922881106" lon="12.963569766202875"><ele>814.0</ele><time>2026-04-12T15:29:16.001Z</time></trkpt><trkpt lat="42.66116014949215" lon="12.96351394372229"><ele>823.3333333333333</ele><time>2026-04-12T15:29:17.001Z</time></trkpt><trkpt lat="42.66098662110008" lon="12.963452029413356"><ele>832.6666666666667</ele><time>2026-04-12T15:29:18.001Z</time></trkpt><trkpt lat="42.66080005353337" lon="12.963400326520485"><ele>842.0</ele><time>2026-04-12T15:29:19.001Z</time></trkpt><trkpt lat="42.66061105752093" lon="12.963365208419653"><ele>827.3333333333334</ele><time>2026-04-12T15:29:20.001Z</time></trkpt><trkpt lat="42.660432405755834" lon="12.963318064770428"><ele>812.6666666666667</ele><time>2026-04-12T15:29:21.001Z</time></trkpt><trkpt lat="42.660270390599756" lon="12.963272717969154"><ele>798.0</ele><time>2026-04-12T15:29:22.001Z</time></trkpt><trkpt lat="42.66010963208421" lon="12.963232675467625"><ele>798.0</ele><time>2026-04-12T15:29:23.001Z</time></trkpt><trkpt lat="42.65995402227808" lon="12.963190700825258"><ele>798.0</ele><time>2026-04-12T15:29:24.001Z</time></trkpt><trkpt lat="42.65981874951934" lon="12.963109477620629"><ele>798.0</ele><time>2026-04-12T15:29:25.001Z</time></trkpt><trkpt lat="42.65972554563512" lon="12.962970825947092"><ele>798.0</ele><time>2026-04-12T15:29:26.001Z</time></trkpt><trkpt lat="42.6596496041611" lon="12.962771426719089"><ele>798.0</ele><time>2026-04-12T15:29:27.001Z</time></trkpt><trkpt lat="42.65957026405841" lon="12.962559769414675"><ele>798.0</ele><time>2026-04-12T15:29:28.001Z</time></trkpt><trkpt lat="42.659493689317166" lon="12.96237982196221"><ele>798.0</ele><time>2026-04-12T15:29:29.001Z</time></trkpt><trkpt lat="42.659417803581576" lon="12.962213567239598"><ele>796.25</ele><time>2026-04-12T15:29:30.001Z</time></trkpt><trkpt lat="42.65931679767275" lon="12.962105410622259"><ele>794.5</ele><time>2026-04-12T15:29:31.001Z</time></trkpt><trkpt lat="42.659190842913205" lon="12.962047824831952"><ele>792.75</ele><time>2026-04-12T15:29:32.001Z</time></trkpt><trkpt lat="42.65905277335365" lon="12.962052553861081"><ele>791.0</ele><time>2026-04-12T15:29:33.001Z</time></trkpt><trkpt lat="42.658922057931555" lon="12.962116415391657"><ele>791.0</ele><time>2026-04-12T15:29:34.001Z</time></trkpt><trkpt lat="42.658807488653" lon="12.962171903581808"><ele>791.0</ele><time>2026-04-12T15:29:35.001Z</time></trkpt><trkpt lat="42.658689074048596" lon="12.962161046100318"><ele>791.0</ele><time>2026-04-12T15:29:36.001Z</time></trkpt><trkpt lat="42.65855723255348" lon="12.962110610287422"><ele>791.0</ele><time>2026-04-12T15:29:37.001Z</time></trkpt><trkpt lat="42.65842614996404" lon="12.96202775590099"><ele>792.5</ele><time>2026-04-12T15:29:38.001Z</time></trkpt><trkpt lat="42.65832579473132" lon="12.961910677827621"><ele>794.0</ele><time>2026-04-12T15:29:39.001Z</time></trkpt><trkpt lat="42.65835689915292" lon="12.961731851341668"><ele>795.5</ele><time>2026-04-12T15:29:40.001Z</time></trkpt><trkpt lat="42.65826155210664" lon="12.961634605032678"><ele>797.0</ele><time>2026-04-12T15:29:41.001Z</time></trkpt><trkpt lat="42.65810898230152" lon="12.961587161717835"><ele>791.0</ele><time>2026-04-12T15:29:42.001Z</time></trkpt><trkpt lat="42.657932804511205" lon="12.961570055215644"><ele>785.0</ele><time>2026-04-12T15:29:43.001Z</time></trkpt><trkpt lat="42.65775253718882" lon="12.96154730155962"><ele>779.0</ele><time>2026-04-12T15:29:44.001Z</time></trkpt><trkpt lat="42.65757542990536" lon="12.961517219627357"><ele>779.0</ele><time>2026-04-12T15:29:45Z</time></trkpt><trkpt lat="42.65740305816985" lon="12.961494323251744"><ele>779.0</ele><time>2026-04-12T15:29:46Z</time></trkpt><trkpt lat="42.65724538202934" lon="12.96143614740898"><ele>779.0</ele><time>2026-04-12T15:29:47Z</time></trkpt><trkpt lat="42.65711074372933" lon="12.961374412225213"><ele>779.0</ele><time>2026-04-12T15:29:48Z</time></trkpt><trkpt lat="42.65701012228108" lon="12.96127539743306"><ele>779.0</ele><time>2026-04-12T15:29:49Z</time></trkpt><trkpt lat="42.65692979406303" lon="12.961149868034507"><ele>779.0</ele><time>2026-04-12T15:29:50Z</time></trkpt><trkpt lat="42.656839160542106" lon="12.961001602932928"><ele>779.0</ele><time>2026-04-12T15:29:51Z</time></trkpt><trkpt lat="42.65674739369413" lon="12.960849207532142"><ele>779.3333333333334</ele><time>2026-04-12T15:29:52Z</time></trkpt><trkpt lat="42.656654081569656" lon="12.96069608110498"><ele>779.6666666666667</ele><time>2026-04-12T15:29:53Z</time></trkpt><trkpt lat="42.65655688657352" lon="12.960537785911256"><ele>780.0</ele><time>2026-04-12T15:29:54Z</time></trkpt><trkpt lat="42.656457866763446" lon="12.960376518806182"><ele>780.0</ele><time>2026-04-12T15:29:55Z</time></trkpt><trkpt lat="42.65636027610161" lon="12.960217578940956"><ele>780.0</ele><time>2026-04-12T15:29:56Z</time></trkpt><trkpt lat="42.65626600760928" lon="12.960061585622661"><ele>780.0</ele><time>2026-04-12T15:29:57Z</time></trkpt><trkpt lat="42.65617125426069" lon="12.959904706775195"><ele>776.5</ele><time>2026-04-12T15:29:58Z</time></trkpt><trkpt lat="42.656083383779276" lon="12.959748874643676"><ele>773.0</ele><time>2026-04-12T15:29:59Z</time></trkpt><trkpt lat="42.65600075799625" lon="12.959594109313752"><ele>769.5</ele><time>2026-04-12T15:30:00Z</time></trkpt><trkpt lat="42.65591535541775" lon="12.959440076891692"><ele>766.0</ele><time>2026-04-12T15:30:01Z</time></trkpt><trkpt lat="42.65582027871466" lon="12.959316146879658"><ele>766.0</ele><time>2026-04-12T15:30:02Z</time></trkpt><trkpt lat="42.65572220506528" lon="12.959229291635161"><ele>766.0</ele><time>2026-04-12T15:30:03Z</time></trkpt><trkpt lat="42.65560174017651" lon="12.959232411786436"><ele>766.0</ele><time>2026-04-12T15:30:04Z</time></trkpt><trkpt lat="42.65548464119871" lon="12.959357499293635"><ele>766.0</ele><time>2026-04-12T15:30:05Z</time></trkpt><trkpt lat="42.65538522594281" lon="12.959540942184102"><ele>766.6666666666667</ele><time>2026-04-12T15:30:06Z</time></trkpt><trkpt lat="42.65527899835515" lon="12.959741484571724"><ele>767.3333333333334</ele><time>2026-04-12T15:30:07Z</time></trkpt><trkpt lat="42.655163666460666" lon="12.959922533478837"><ele>768.0</ele><time>2026-04-12T15:30:08Z</time></trkpt><trkpt lat="42.65504310200088" lon="12.960087344468253"><ele>764.6666666666666</ele><time>2026-04-12T15:30:09Z</time></trkpt><trkpt lat="42.654920467128306" lon="12.960189437906156"><ele>761.3333333333333</ele><time>2026-04-12T15:30:10Z</time></trkpt><trkpt lat="42.6547809099576" lon="12.960257307101763"><ele>758.0</ele><time>2026-04-12T15:30:11Z</time></trkpt><trkpt lat="42.65461062813392" lon="12.960275765744363"><ele>758.0</ele><time>2026-04-12T15:30:12Z</time></trkpt><trkpt lat="42.65443211633117" lon="12.960250925080622"><ele>758.0</ele><time>2026-04-12T15:30:13Z</time></trkpt><trkpt lat="42.65426496395001" lon="12.960168575877322"><ele>758.0</ele><time>2026-04-12T15:30:14Z</time></trkpt><trkpt lat="42.654114472865466" lon="12.960047197676868"><ele>760.5</ele><time>2026-04-12T15:30:15Z</time></trkpt><trkpt lat="42.654000458493044" lon="12.959884046641642"><ele>763.0</ele><time>2026-04-12T15:30:16Z</time></trkpt><trkpt lat="42.653934448469705" lon="12.959709380659433"><ele>765.5</ele><time>2026-04-12T15:30:17Z</time></trkpt><trkpt lat="42.65390040942434" lon="12.95953421457665"><ele>768.0</ele><time>2026-04-12T15:30:18Z</time></trkpt><trkpt lat="42.653891045124254" lon="12.959358944811818"><ele>770.75</ele><time>2026-04-12T15:30:19Z</time></trkpt><trkpt lat="42.65390634184106" lon="12.959183296864556"><ele>773.5</ele><time>2026-04-12T15:30:20Z</time></trkpt><trkpt lat="42.6538998605744" lon="12.958997080542877"><ele>776.25</ele><time>2026-04-12T15:30:21Z</time></trkpt><trkpt lat="42.65387710441174" lon="12.958807606948612"><ele>779.0</ele><time>2026-04-12T15:30:22Z</time></trkpt><trkpt lat="42.65382933990505" lon="12.958615748343979"><ele>779.0</ele><time>2026-04-12T15:30:23Z</time></trkpt><trkpt lat="42.6537606550794" lon="12.958419629336015"><ele>779.0</ele><time>2026-04-12T15:30:24Z</time></trkpt><trkpt lat="42.653669572739695" lon="12.958233693392454"><ele>779.0</ele><time>2026-04-12T15:30:25Z</time></trkpt><trkpt lat="42.65355528991693" lon="12.958048782730696"><ele>774.6666666666667</ele><time>2026-04-12T15:30:26Z</time></trkpt><trkpt lat="42.65344335545229" lon="12.95787311051339"><ele>770.3333333333334</ele><time>2026-04-12T15:30:27Z</time></trkpt><trkpt lat="42.653329018700425" lon="12.957696499330579"><ele>766.0</ele><time>2026-04-12T15:30:28Z</time></trkpt><trkpt lat="42.653189659230954" lon="12.957556391836325"><ele>767.6666666666667</ele><time>2026-04-12T15:30:29Z</time></trkpt><trkpt lat="42.65303015485828" lon="12.957455526297252"><ele>769.3333333333334</ele><time>2026-04-12T15:30:30Z</time></trkpt><trkpt lat="42.652855714690254" lon="12.957412867347946"><ele>771.0</ele><time>2026-04-12T15:30:31Z</time></trkpt><trkpt lat="42.65266906214728" lon="12.957419796610829"><ele>771.0</ele><time>2026-04-12T15:30:32Z</time></trkpt><trkpt lat="42.65248029717797" lon="12.957429424823603"><ele>771.0</ele><time>2026-04-12T15:30:33Z</time></trkpt><trkpt lat="42.65228732906372" lon="12.957400021076484"><ele>771.0</ele><time>2026-04-12T15:30:34Z</time></trkpt><trkpt lat="42.65208662684627" lon="12.957405883512335"><ele>771.0</ele><time>2026-04-12T15:30:35Z</time></trkpt><trkpt lat="42.651881046019554" lon="12.957354026031785"><ele>771.0</ele><time>2026-04-12T15:30:36Z</time></trkpt><trkpt lat="42.65166746564888" lon="12.957307844693602"><ele>771.0</ele><time>2026-04-12T15:30:37Z</time></trkpt><trkpt lat="42.65145577906873" lon="12.957255305468031"><ele>771.0</ele><time>2026-04-12T15:30:38Z</time></trkpt><trkpt lat="42.65124033747785" lon="12.957194925914713"><ele>771.0</ele><time>2026-04-12T15:30:39Z</time></trkpt><trkpt lat="42.65102153753948" lon="12.957154213693148"><ele>771.0</ele><time>2026-04-12T15:30:40Z</time></trkpt><trkpt lat="42.650813064557724" lon="12.957092430953702"><ele>768.6666666666666</ele><time>2026-04-12T15:30:41Z</time></trkpt><trkpt lat="42.65060944981229" lon="12.95703403312141"><ele>766.3333333333333</ele><time>2026-04-12T15:30:42.001Z</time></trkpt><trkpt lat="42.65041275115437" lon="12.956981889228585"><ele>764.0</ele><time>2026-04-12T15:30:43.001Z</time></trkpt><trkpt lat="42.65022488537629" lon="12.956922670157377"><ele>763.6666666666666</ele><time>2026-04-12T15:30:44.001Z</time></trkpt><trkpt lat="42.65004928376327" lon="12.956868778363296"><ele>763.3333333333334</ele><time>2026-04-12T15:30:45.001Z</time></trkpt><trkpt lat="42.6498814915049" lon="12.95682089427773"><ele>763.0</ele><time>2026-04-12T15:30:46.001Z</time></trkpt><trkpt lat="42.649717207820245" lon="12.956773629485477"><ele>763.0</ele><time>2026-04-12T15:30:47.001Z</time></trkpt><trkpt lat="42.649549317788946" lon="12.956728425679493"><ele>763.0</ele><time>2026-04-12T15:30:48.001Z</time></trkpt><trkpt lat="42.64939008367494" lon="12.956677526467248"><ele>763.0</ele><time>2026-04-12T15:30:49.001Z</time></trkpt><trkpt lat="42.649228337077325" lon="12.956627176689745"><ele>764.6666666666667</ele><time>2026-04-12T15:30:50.001Z</time></trkpt><trkpt lat="42.64906060550358" lon="12.95658413598761"><ele>766.3333333333334</ele><time>2026-04-12T15:30:51.001Z</time></trkpt><trkpt lat="42.64889260299268" lon="12.956538106582448"><ele>768.0</ele><time>2026-04-12T15:30:52.001Z</time></trkpt><trkpt lat="42.648722116288525" lon="12.956493437599972"><ele>766.3333333333334</ele><time>2026-04-12T15:30:53.001Z</time></trkpt><trkpt lat="42.64855061430994" lon="12.956443836731381"><ele>764.6666666666667</ele><time>2026-04-12T15:30:54.001Z</time></trkpt><trkpt lat="42.648378366130764" lon="12.95639082206055"><ele>763.0</ele><time>2026-04-12T15:30:55.001Z</time></trkpt><trkpt lat="42.648201804518386" lon="12.956338307171288"><ele>763.0</ele><time>2026-04-12T15:30:56.001Z</time></trkpt><trkpt lat="42.648025964224175" lon="12.956284351465026"><ele>763.0</ele><time>2026-04-12T15:30:57.001Z</time></trkpt><trkpt lat="42.6478466687042" lon="12.956229425421288"><ele>763.0</ele><time>2026-04-12T15:30:58.001Z</time></trkpt><trkpt lat="42.64766526923693" lon="12.956176777140643"><ele>764.0</ele><time>2026-04-12T15:30:59.001Z</time></trkpt><trkpt lat="42.64748257792972" lon="12.956129494951153"><ele>765.0</ele><time>2026-04-12T15:31:00.001Z</time></trkpt><trkpt lat="42.647297353328824" lon="12.956077054071839"><ele>766.0</ele><time>2026-04-12T15:31:01.001Z</time></trkpt><trkpt lat="42.64710864680057" lon="12.95602061484109"><ele>766.6666666666667</ele><time>2026-04-12T15:31:02.001Z</time></trkpt><trkpt lat="42.6469218391644" lon="12.955967685725875"><ele>767.3333333333334</ele><time>2026-04-12T15:31:03.001Z</time></trkpt><trkpt lat="42.64673410082848" lon="12.95591568899349"><ele>768.0</ele><time>2026-04-12T15:31:04.001Z</time></trkpt><trkpt lat="42.646546436374095" lon="12.955862359401477"><ele>771.3333333333333</ele><time>2026-04-12T15:31:05.001Z</time></trkpt><trkpt lat="42.64636148588685" lon="12.955808614902194"><ele>774.6666666666666</ele><time>2026-04-12T15:31:06.001Z</time></trkpt><trkpt lat="42.64617654222785" lon="12.955751719930543"><ele>778.0</ele><time>2026-04-12T15:31:07.001Z</time></trkpt><trkpt lat="42.645987754139" lon="12.95569438462378"><ele>778.0</ele><time>2026-04-12T15:31:08.001Z</time></trkpt><trkpt lat="42.64579993484939" lon="12.955644703911"><ele>778.0</ele><time>2026-04-12T15:31:09.001Z</time></trkpt><trkpt lat="42.64561154671325" lon="12.955591952798137"><ele>778.0</ele><time>2026-04-12T15:31:10.001Z</time></trkpt><trkpt lat="42.64542106528466" lon="12.955545672262959"><ele>778.0</ele><time>2026-04-12T15:31:11.001Z</time></trkpt><trkpt lat="42.64523106457885" lon="12.955489804620303"><ele>778.0</ele><time>2026-04-12T15:31:12.001Z</time></trkpt><trkpt lat="42.645044673806495" lon="12.955433141085885"><ele>778.0</ele><time>2026-04-12T15:31:13.001Z</time></trkpt><trkpt lat="42.64486547526405" lon="12.955358381924116"><ele>778.0</ele><time>2026-04-12T15:31:14.001Z</time></trkpt><trkpt lat="42.64469015125295" lon="12.955246535084074"><ele>778.0</ele><time>2026-04-12T15:31:15.001Z</time></trkpt><trkpt lat="42.64452730875623" lon="12.955104138118474"><ele>778.0</ele><time>2026-04-12T15:31:16.001Z</time></trkpt><trkpt lat="42.64436736441941" lon="12.954970604368944"><ele>780.6666666666666</ele><time>2026-04-12T15:31:17.001Z</time></trkpt><trkpt lat="42.64420145556492" lon="12.954851640978275"><ele>783.3333333333333</ele><time>2026-04-12T15:31:18.001Z</time></trkpt><trkpt lat="42.644029117605676" lon="12.954747226712117"><ele>786.0</ele><time>2026-04-12T15:31:19.001Z</time></trkpt><trkpt lat="42.64385079055831" lon="12.954657337818102"><ele>786.0</ele><time>2026-04-12T15:31:20.001Z</time></trkpt><trkpt lat="42.64364902114434" lon="12.954585286744663"><ele>786.0</ele><time>2026-04-12T15:31:21.001Z</time></trkpt><trkpt lat="42.64347113064712" lon="12.95452035887765"><ele>786.0</ele><time>2026-04-12T15:31:22.001Z</time></trkpt><trkpt lat="42.64328674727932" lon="12.954465957622038"><ele>784.0</ele><time>2026-04-12T15:31:23.001Z</time></trkpt><trkpt lat="42.64310743331143" lon="12.954422587401208"><ele>782.0</ele><time>2026-04-12T15:31:24.001Z</time></trkpt><trkpt lat="42.64292281888088" lon="12.954373486465194"><ele>780.0</ele><time>2026-04-12T15:31:25.001Z</time></trkpt><trkpt lat="42.642745840018925" lon="12.954303204807253"><ele>779.6666666666667</ele><time>2026-04-12T15:31:26.001Z</time></trkpt><trkpt lat="42.64258392485057" lon="12.954265811968197"><ele>779.3333333333334</ele><time>2026-04-12T15:31:27.001Z</time></trkpt><trkpt lat="42.64242865033966" lon="12.95422283775661"><ele>779.0</ele><time>2026-04-12T15:31:28.001Z</time></trkpt><trkpt lat="42.642285696786566" lon="12.954182233833706"><ele>779.75</ele><time>2026-04-12T15:31:29.001Z</time></trkpt><trkpt lat="42.64215466584065" lon="12.954127374420136"><ele>780.5</ele><time>2026-04-12T15:31:30.001Z</time></trkpt><trkpt lat="42.64203864013226" lon="12.95404959320624"><ele>781.25</ele><time>2026-04-12T15:31:31.001Z</time></trkpt><trkpt lat="42.6419580827155" lon="12.953918254864414"><ele>782.0</ele><time>2026-04-12T15:31:32.001Z</time></trkpt><trkpt lat="42.641887175221925" lon="12.953796685887193"><ele>782.0</ele><time>2026-04-12T15:31:33.001Z</time></trkpt><trkpt lat="42.641809890523625" lon="12.95368199869047"><ele>782.0</ele><time>2026-04-12T15:31:34.001Z</time></trkpt><trkpt lat="42.64174970993441" lon="12.953555388855387"><ele>782.0</ele><time>2026-04-12T15:31:35.001Z</time></trkpt><trkpt lat="42.64169058022209" lon="12.953441894486316"><ele>782.0</ele><time>2026-04-12T15:31:36.001Z</time></trkpt><trkpt lat="42.64163723258394" lon="12.953348761539349"><ele>782.0</ele><time>2026-04-12T15:31:37.001Z</time></trkpt><trkpt lat="42.64158810819877" lon="12.953261362099711"><ele>783.2</ele><time>2026-04-12T15:31:38.001Z</time></trkpt><trkpt lat="42.641532440001946" lon="12.95316849651903"><ele>784.4000000000001</ele><time>2026-04-12T15:31:39.001Z</time></trkpt><trkpt lat="42.641472414951615" lon="12.953086576912897"><ele>785.5999999999999</ele><time>2026-04-12T15:31:40.001Z</time></trkpt><trkpt lat="42.64140710149128" lon="12.953003710476604"><ele>786.8</ele><time>2026-04-12T15:31:41.001Z</time></trkpt><trkpt lat="42.6413365549828" lon="12.952924555603134"><ele>788.0</ele><time>2026-04-12T15:31:42.001Z</time></trkpt><trkpt lat="42.64124788898074" lon="12.952860933341862"><ele>788.0</ele><time>2026-04-12T15:31:43.001Z</time></trkpt><trkpt lat="42.641156622624386" lon="12.952803170406515"><ele>788.0</ele><time>2026-04-12T15:31:44.001Z</time></trkpt><trkpt lat="42.64105462072982" lon="12.952769511083245"><ele>788.0</ele><time>2026-04-12T15:31:45.001Z</time></trkpt><trkpt lat="42.64095129779315" lon="12.952747371857134"><ele>788.0</ele><time>2026-04-12T15:31:46.001Z</time></trkpt><trkpt lat="42.64084964074794" lon="12.952741341469107"><ele>788.0</ele><time>2026-04-12T15:31:47.001Z</time></trkpt><trkpt lat="42.64075475099233" lon="12.95276447007379"><ele>786.5999999999999</ele><time>2026-04-12T15:31:48.001Z</time></trkpt><trkpt lat="42.640660881432936" lon="12.95280645829853"><ele>785.1999999999999</ele><time>2026-04-12T15:31:49.001Z</time></trkpt><trkpt lat="42.64057247757703" lon="12.952844526861162"><ele>783.8</ele><time>2026-04-12T15:31:50.001Z</time></trkpt><trkpt lat="42.640479486830344" lon="12.952876530956555"><ele>782.4</ele><time>2026-04-12T15:31:51Z</time></trkpt><trkpt lat="42.64038045131365" lon="12.952903703190588"><ele>781.0</ele><time>2026-04-12T15:31:52Z</time></trkpt><trkpt lat="42.64027880391052" lon="12.952924189567593"><ele>780.4</ele><time>2026-04-12T15:31:53Z</time></trkpt><trkpt lat="42.64016364985259" lon="12.952916530806311"><ele>779.8</ele><time>2026-04-12T15:31:54Z</time></trkpt><trkpt lat="42.6400563172363" lon="12.952872507021794"><ele>779.1999999999999</ele><time>2026-04-12T15:31:55Z</time></trkpt><trkpt lat="42.63995301107411" lon="12.95281684549127"><ele>778.5999999999999</ele><time>2026-04-12T15:31:56Z</time></trkpt><trkpt lat="42.639855246604824" lon="12.95275857123765"><ele>778.0</ele><time>2026-04-12T15:31:57Z</time></trkpt><trkpt lat="42.6397663923301" lon="12.952700272825679"><ele>777.9999999999999</ele><time>2026-04-12T15:31:58Z</time></trkpt><trkpt lat="42.63968088546994" lon="12.952656016423758"><ele>778.0</ele><time>2026-04-12T15:31:59Z</time></trkpt><trkpt lat="42.63960211059328" lon="12.95261093969797"><ele>778.0</ele><time>2026-04-12T15:32:00Z</time></trkpt><trkpt lat="42.63953296551306" lon="12.952565954258308"><ele>778.0</ele><time>2026-04-12T15:32:01Z</time></trkpt><trkpt lat="42.639450250994706" lon="12.952523168668002"><ele>777.9999999999999</ele><time>2026-04-12T15:32:02Z</time></trkpt><trkpt lat="42.639378464296435" lon="12.952476427477269"><ele>778.0</ele><time>2026-04-12T15:32:03Z</time></trkpt><trkpt lat="42.6393035403974" lon="12.95243162621127"><ele>779.3333333333333</ele><time>2026-04-12T15:32:04Z</time></trkpt><trkpt lat="42.639230825582615" lon="12.952401148523856"><ele>780.6666666666666</ele><time>2026-04-12T15:32:05Z</time></trkpt><trkpt lat="42.63915560195421" lon="12.952366655975265"><ele>782.0</ele><time>2026-04-12T15:32:06Z</time></trkpt><trkpt lat="42.63907629300577" lon="12.95231910017893"><ele>783.3333333333333</ele><time>2026-04-12T15:32:07Z</time></trkpt><trkpt lat="42.638988091474204" lon="12.952340646608043"><ele>784.6666666666666</ele><time>2026-04-12T15:32:08Z</time></trkpt><trkpt lat="42.63889840473127" lon="12.952347683224644"><ele>786.0</ele><time>2026-04-12T15:32:09Z</time></trkpt><trkpt lat="42.6388109423363" lon="12.952437862237307"><ele>786.0</ele><time>2026-04-12T15:32:10Z</time></trkpt><trkpt lat="42.63871621123736" lon="12.952538041814584"><ele>786.0</ele><time>2026-04-12T15:32:11Z</time></trkpt><trkpt lat="42.63862268893444" lon="12.952658530578269"><ele>786.0</ele><time>2026-04-12T15:32:12Z</time></trkpt><trkpt lat="42.63857174721596" lon="12.95281961417746"><ele>786.0</ele><time>2026-04-12T15:32:13Z</time></trkpt><trkpt lat="42.63849300130639" lon="12.9529666768199"><ele>785.5</ele><time>2026-04-12T15:32:14Z</time></trkpt><trkpt lat="42.63841675788364" lon="12.953106777136828"><ele>785.0</ele><time>2026-04-12T15:32:15Z</time></trkpt><trkpt lat="42.6383529042813" lon="12.953223814136035"><ele>784.5</ele><time>2026-04-12T15:32:16Z</time></trkpt><trkpt lat="42.63827290293661" lon="12.953373694361533"><ele>784.0</ele><time>2026-04-12T15:32:17Z</time></trkpt><trkpt lat="42.63820227790855" lon="12.953513145819203"><ele>784.0</ele><time>2026-04-12T15:32:18Z</time></trkpt><trkpt lat="42.6381238823569" lon="12.953640623852747"><ele>784.0</ele><time>2026-04-12T15:32:19Z</time></trkpt><trkpt lat="42.63804025459648" lon="12.953740487368583"><ele>784.0</ele><time>2026-04-12T15:32:20Z</time></trkpt><trkpt lat="42.63793514420216" lon="12.953819296757157"><ele>784.0</ele><time>2026-04-12T15:32:21Z</time></trkpt><trkpt lat="42.637818273509154" lon="12.953868207397548"><ele>787.0</ele><time>2026-04-12T15:32:22Z</time></trkpt><trkpt lat="42.637680383741426" lon="12.953882532356003"><ele>790.0</ele><time>2026-04-12T15:32:23Z</time></trkpt><trkpt lat="42.63753204685406" lon="12.953893349952825"><ele>793.0</ele><time>2026-04-12T15:32:24Z</time></trkpt><trkpt lat="42.637384759050654" lon="12.953904384720042"><ele>796.0</ele><time>2026-04-12T15:32:25Z</time></trkpt><trkpt lat="42.637226651464616" lon="12.953912680685699"><ele>796.0</ele><time>2026-04-12T15:32:26Z</time></trkpt><trkpt lat="42.63705728671141" lon="12.953918217830523"><ele>796.0</ele><time>2026-04-12T15:32:27Z</time></trkpt><trkpt lat="42.6368705012576" lon="12.953874155333427"><ele>796.0</ele><time>2026-04-12T15:32:28Z</time></trkpt><trkpt lat="42.63666362562993" lon="12.953833210002726"><ele>797.5</ele><time>2026-04-12T15:32:29Z</time></trkpt><trkpt lat="42.63641436253487" lon="12.953782140430235"><ele>799.0</ele><time>2026-04-12T15:32:30Z</time></trkpt><trkpt lat="42.63615023316635" lon="12.953745474806706"><ele>802.5</ele><time>2026-04-12T15:32:31Z</time></trkpt><trkpt lat="42.63586761436685" lon="12.95374332727168"><ele>806.0</ele><time>2026-04-12T15:32:32Z</time></trkpt><trkpt lat="42.6356133969181" lon="12.95373244002484"><ele>806.0</ele><time>2026-04-12T15:32:33Z</time></trkpt><trkpt lat="42.635389638608515" lon="12.953726588943194"><ele>806.0</ele><time>2026-04-12T15:32:34Z</time></trkpt><trkpt lat="42.6351778656588" lon="12.953693986414882"><ele>806.0</ele><time>2026-04-12T15:32:35Z</time></trkpt><trkpt lat="42.634984485507935" lon="12.953612248861601"><ele>807.3333333333334</ele><time>2026-04-12T15:32:36Z</time></trkpt><trkpt lat="42.63478838552885" lon="12.95351565834454"><ele>808.6666666666667</ele><time>2026-04-12T15:32:37Z</time></trkpt><trkpt lat="42.6345849491665" lon="12.953409653869153"><ele>810.0</ele><time>2026-04-12T15:32:38Z</time></trkpt><trkpt lat="42.634395585855714" lon="12.953322820836744"><ele>806.6666666666667</ele><time>2026-04-12T15:32:39Z</time></trkpt><trkpt lat="42.63421144920622" lon="12.95321748238809"><ele>803.3333333333334</ele><time>2026-04-12T15:32:40Z</time></trkpt><trkpt lat="42.634025494993146" lon="12.953115989329865"><ele>800.0</ele><time>2026-04-12T15:32:41Z</time></trkpt><trkpt lat="42.63383977985644" lon="12.953020508348011"><ele>800.0</ele><time>2026-04-12T15:32:42Z</time></trkpt><trkpt lat="42.63365545206298" lon="12.952929681628005"><ele>800.0</ele><time>2026-04-12T15:32:43Z</time></trkpt><trkpt lat="42.63347348046177" lon="12.952840359418534"><ele>800.0</ele><time>2026-04-12T15:32:44Z</time></trkpt><trkpt lat="42.633295901453366" lon="12.952745282419174"><ele>797.0</ele><time>2026-04-12T15:32:45Z</time></trkpt><trkpt lat="42.63312335722787" lon="12.952634466437395"><ele>794.0</ele><time>2026-04-12T15:32:46Z</time></trkpt><trkpt lat="42.63298416997566" lon="12.952460495243823"><ele>791.0</ele><time>2026-04-12T15:32:47Z</time></trkpt><trkpt lat="42.63285337279034" lon="12.952282026636698"><ele>798.3333333333334</ele><time>2026-04-12T15:32:48Z</time></trkpt><trkpt lat="42.632733163739125" lon="12.952108300872418"><ele>805.6666666666667</ele><time>2026-04-12T15:32:49Z</time></trkpt><trkpt lat="42.632615443204486" lon="12.95196720464905"><ele>813.0</ele><time>2026-04-12T15:32:50Z</time></trkpt><trkpt lat="42.632471185842434" lon="12.951908879271924"><ele>813.0</ele><time>2026-04-12T15:32:51Z</time></trkpt><trkpt lat="42.63231792395507" lon="12.95194015967208"><ele>813.0</ele><time>2026-04-12T15:32:52Z</time></trkpt><trkpt lat="42.632181123537755" lon="12.95204341141076"><ele>813.0</ele><time>2026-04-12T15:32:53Z</time></trkpt><trkpt lat="42.63206455486048" lon="12.95218218535378"><ele>812.5</ele><time>2026-04-12T15:32:54Z</time></trkpt><trkpt lat="42.63193363614871" lon="12.952247745399415"><ele>812.0</ele><time>2026-04-12T15:32:55Z</time></trkpt><trkpt lat="42.63179920046671" lon="12.952274243094443"><ele>811.5</ele><time>2026-04-12T15:32:56Z</time></trkpt><trkpt lat="42.63166622328785" lon="12.952199125575142"><ele>811.0</ele><time>2026-04-12T15:32:57Z</time></trkpt><trkpt lat="42.631524889408155" lon="12.952085247608922"><ele>811.0</ele><time>2026-04-12T15:32:58Z</time></trkpt><trkpt lat="42.63139673849234" lon="12.951955183200635"><ele>811.0</ele><time>2026-04-12T15:32:59Z</time></trkpt><trkpt lat="42.6312789991712" lon="12.951818862907626"><ele>811.0</ele><time>2026-04-12T15:33:00Z</time></trkpt><trkpt lat="42.63116289319536" lon="12.951670952064232"><ele>816.0</ele><time>2026-04-12T15:33:01Z</time></trkpt><trkpt lat="42.63111904992857" lon="12.95145337884779"><ele>821.0</ele><time>2026-04-12T15:33:02Z</time></trkpt><trkpt lat="42.631062571429446" lon="12.951229959958566"><ele>826.0</ele><time>2026-04-12T15:33:03.001Z</time></trkpt><trkpt lat="42.631032264452735" lon="12.951005588099003"><ele>823.3333333333333</ele><time>2026-04-12T15:33:04.001Z</time></trkpt><trkpt lat="42.63099870147044" lon="12.950783497597804"><ele>820.6666666666667</ele><time>2026-04-12T15:33:05.001Z</time></trkpt><trkpt lat="42.63094732502926" lon="12.950573392083752"><ele>818.0</ele><time>2026-04-12T15:33:06.001Z</time></trkpt><trkpt lat="42.63088383967978" lon="12.950371187202187"><ele>818.0</ele><time>2026-04-12T15:33:07.001Z</time></trkpt><trkpt lat="42.630785043486924" lon="12.950198035105126"><ele>818.0</ele><time>2026-04-12T15:33:08.001Z</time></trkpt><trkpt lat="42.630645948004656" lon="12.950057903080124"><ele>818.0</ele><time>2026-04-12T15:33:09.001Z</time></trkpt><trkpt lat="42.630505069615474" lon="12.949925577642837"><ele>821.6666666666667</ele><time>2026-04-12T15:33:10.001Z</time></trkpt><trkpt lat="42.630422574229605" lon="12.949727173892047"><ele>825.3333333333333</ele><time>2026-04-12T15:33:11.001Z</time></trkpt><trkpt lat="42.63034704673412" lon="12.949505870753729"><ele>829.0</ele><time>2026-04-12T15:33:12.001Z</time></trkpt><trkpt lat="42.63027433764456" lon="12.94927536417023"><ele>825.3333333333333</ele><time>2026-04-12T15:33:13.001Z</time></trkpt><trkpt lat="42.630195613170244" lon="12.949058721345796"><ele>821.6666666666667</ele><time>2026-04-12T15:33:14.001Z</time></trkpt><trkpt lat="42.63011837305692" lon="12.94884565102819"><ele>818.0</ele><time>2026-04-12T15:33:15.001Z</time></trkpt><trkpt lat="42.63001366298494" lon="12.948648306209972"><ele>818.0</ele><time>2026-04-12T15:33:16.001Z</time></trkpt><trkpt lat="42.62988717533306" lon="12.948470576263245"><ele>818.0</ele><time>2026-04-12T15:33:17.001Z</time></trkpt><trkpt lat="42.6297381503395" lon="12.948327078568335"><ele>818.0</ele><time>2026-04-12T15:33:18.001Z</time></trkpt><trkpt lat="42.629574070497725" lon="12.948214381192779"><ele>817.6666666666667</ele><time>2026-04-12T15:33:19.001Z</time></trkpt><trkpt lat="42.62939613256755" lon="12.948125464775387"><ele>817.3333333333333</ele><time>2026-04-12T15:33:20.001Z</time></trkpt><trkpt lat="42.629212740596174" lon="12.948069452130133"><ele>817.0</ele><time>2026-04-12T15:33:21.001Z</time></trkpt><trkpt lat="42.62902300008926" lon="12.948054886473862"><ele>817.0</ele><time>2026-04-12T15:33:22.001Z</time></trkpt><trkpt lat="42.628830416293695" lon="12.948087394707219"><ele>817.0</ele><time>2026-04-12T15:33:23.001Z</time></trkpt><trkpt lat="42.628638442242796" lon="12.948170961605918"><ele>817.0</ele><time>2026-04-12T15:33:24.001Z</time></trkpt><trkpt lat="42.62845731607561" lon="12.94828108287224"><ele>817.0</ele><time>2026-04-12T15:33:25.001Z</time></trkpt><trkpt lat="42.62827513297582" lon="12.948370410574036"><ele>817.0</ele><time>2026-04-12T15:33:26.001Z</time></trkpt><trkpt lat="42.628092867837466" lon="12.948458744183688"><ele>817.0</ele><time>2026-04-12T15:33:27.001Z</time></trkpt><trkpt lat="42.627909697047535" lon="12.948496547459511"><ele>819.3333333333333</ele><time>2026-04-12T15:33:28.001Z</time></trkpt><trkpt lat="42.627716923633166" lon="12.948490111650312"><ele>821.6666666666667</ele><time>2026-04-12T15:33:29.001Z</time></trkpt><trkpt lat="42.62751998795403" lon="12.948435892066435"><ele>824.0</ele><time>2026-04-12T15:33:30.001Z</time></trkpt><trkpt lat="42.62732760385116" lon="12.94833671426081"><ele>824.0</ele><time>2026-04-12T15:33:31.001Z</time></trkpt><trkpt lat="42.627132148864625" lon="12.948247135184735"><ele>824.0</ele><time>2026-04-12T15:33:32.001Z</time></trkpt><trkpt lat="42.62694721517774" lon="12.948140814230195"><ele>824.0</ele><time>2026-04-12T15:33:33.001Z</time></trkpt><trkpt lat="42.62675846519301" lon="12.948072605284487"><ele>826.6666666666667</ele><time>2026-04-12T15:33:34.001Z</time></trkpt><trkpt lat="42.62655878551432" lon="12.948061616379286"><ele>829.3333333333333</ele><time>2026-04-12T15:33:35.001Z</time></trkpt><trkpt lat="42.62635462699374" lon="12.948078806845029"><ele>832.0</ele><time>2026-04-12T15:33:36.001Z</time></trkpt><trkpt lat="42.626154125928984" lon="12.948115945281124"><ele>834.3333333333333</ele><time>2026-04-12T15:33:37.001Z</time></trkpt><trkpt lat="42.62595277893387" lon="12.94815962895327"><ele>836.6666666666667</ele><time>2026-04-12T15:33:38.001Z</time></trkpt><trkpt lat="42.6257568227842" lon="12.948190641404153"><ele>839.0</ele><time>2026-04-12T15:33:39.001Z</time></trkpt><trkpt lat="42.62556390682673" lon="12.948212468763485"><ele>839.0</ele><time>2026-04-12T15:33:40.001Z</time></trkpt><trkpt lat="42.62536828867503" lon="12.948218983904864"><ele>839.0</ele><time>2026-04-12T15:33:41.001Z</time></trkpt><trkpt lat="42.62516842239069" lon="12.948209100364016"><ele>839.0</ele><time>2026-04-12T15:33:42.001Z</time></trkpt><trkpt lat="42.624966853354486" lon="12.948177266014811"><ele>839.0</ele><time>2026-04-12T15:33:43.001Z</time></trkpt><trkpt lat="42.62477043848411" lon="12.948134724898408"><ele>839.0</ele><time>2026-04-12T15:33:44.001Z</time></trkpt><trkpt lat="42.62457846863875" lon="12.948087705350314"><ele>839.0</ele><time>2026-04-12T15:33:45.001Z</time></trkpt><trkpt lat="42.624386094235014" lon="12.948041063096664"><ele>840.6666666666667</ele><time>2026-04-12T15:33:46.001Z</time></trkpt><trkpt lat="42.62419342505868" lon="12.947994884249617"><ele>842.3333333333333</ele><time>2026-04-12T15:33:47.001Z</time></trkpt><trkpt lat="42.624005928583586" lon="12.94795157824333"><ele>844.0</ele><time>2026-04-12T15:33:48.001Z</time></trkpt><trkpt lat="42.62381672127756" lon="12.947909823240177"><ele>846.0</ele><time>2026-04-12T15:33:49.001Z</time></trkpt><trkpt lat="42.62363200696123" lon="12.947865285587147"><ele>848.0</ele><time>2026-04-12T15:33:50.001Z</time></trkpt><trkpt lat="42.62344084230964" lon="12.94783793661232"><ele>850.0</ele><time>2026-04-12T15:33:51.001Z</time></trkpt><trkpt lat="42.62324435312986" lon="12.94782923993685"><ele>850.0</ele><time>2026-04-12T15:33:52.001Z</time></trkpt><trkpt lat="42.623045037228835" lon="12.947837157933225"><ele>850.0</ele><time>2026-04-12T15:33:53.001Z</time></trkpt><trkpt lat="42.62284185477447" lon="12.94784809403991"><ele>850.0</ele><time>2026-04-12T15:33:54.001Z</time></trkpt><trkpt lat="42.622645151024784" lon="12.947857413014606"><ele>850.0</ele><time>2026-04-12T15:33:55.001Z</time></trkpt><trkpt lat="42.622449025582576" lon="12.947857366651537"><ele>850.0</ele><time>2026-04-12T15:33:56.001Z</time></trkpt><trkpt lat="42.62225330242335" lon="12.947859343080486"><ele>850.0</ele><time>2026-04-12T15:33:57Z</time></trkpt><trkpt lat="42.62205236955898" lon="12.94787531592685"><ele>849.6666666666666</ele><time>2026-04-12T15:33:58Z</time></trkpt><trkpt lat="42.62184738074508" lon="12.947925557572992"><ele>849.3333333333333</ele><time>2026-04-12T15:33:59Z</time></trkpt><trkpt lat="42.62164413229694" lon="12.94801702791704"><ele>849.0</ele><time>2026-04-12T15:34:00Z</time></trkpt><trkpt lat="42.62144201152552" lon="12.948125119597375"><ele>849.0</ele><time>2026-04-12T15:34:01Z</time></trkpt><trkpt lat="42.62123281701968" lon="12.948223860498802"><ele>849.0</ele><time>2026-04-12T15:34:02Z</time></trkpt><trkpt lat="42.62102343084745" lon="12.948317158210461"><ele>849.0</ele><time>2026-04-12T15:34:03Z</time></trkpt><trkpt lat="42.62081769699864" lon="12.948410404394426"><ele>854.0</ele><time>2026-04-12T15:34:04Z</time></trkpt><trkpt lat="42.620613424739446" lon="12.948494238163786"><ele>859.0</ele><time>2026-04-12T15:34:05Z</time></trkpt><trkpt lat="42.620399583435784" lon="12.948564610767033"><ele>864.0</ele><time>2026-04-12T15:34:06Z</time></trkpt><trkpt lat="42.62018371916245" lon="12.948573426899111"><ele>864.0</ele><time>2026-04-12T15:34:07Z</time></trkpt><trkpt lat="42.61996883151717" lon="12.948613795968196"><ele>864.0</ele><time>2026-04-12T15:34:08Z</time></trkpt><trkpt lat="42.619762141730504" lon="12.948626325704875"><ele>864.0</ele><time>2026-04-12T15:34:09Z</time></trkpt><trkpt lat="42.619551914377865" lon="12.948649565951825"><ele>861.6666666666667</ele><time>2026-04-12T15:34:10Z</time></trkpt><trkpt lat="42.61935096168393" lon="12.948702271780666"><ele>859.3333333333334</ele><time>2026-04-12T15:34:11Z</time></trkpt><trkpt lat="42.619154523123846" lon="12.948792638426163"><ele>857.0</ele><time>2026-04-12T15:34:12Z</time></trkpt><trkpt lat="42.61896817091905" lon="12.94892169788548"><ele>857.0</ele><time>2026-04-12T15:34:13Z</time></trkpt><trkpt lat="42.618791076303395" lon="12.949076860326278"><ele>857.0</ele><time>2026-04-12T15:34:14Z</time></trkpt><trkpt lat="42.618617157558845" lon="12.94923447468119"><ele>857.0</ele><time>2026-04-12T15:34:15Z</time></trkpt><trkpt lat="42.61843771041116" lon="12.949390805577135"><ele>858.3333333333334</ele><time>2026-04-12T15:34:16Z</time></trkpt><trkpt lat="42.61825755158623" lon="12.949534814506949"><ele>859.6666666666667</ele><time>2026-04-12T15:34:17Z</time></trkpt><trkpt lat="42.618084912243724" lon="12.949669289630563"><ele>861.0</ele><time>2026-04-12T15:34:18Z</time></trkpt><trkpt lat="42.617890975647725" lon="12.949774112298636"><ele>859.0</ele><time>2026-04-12T15:34:19Z</time></trkpt><trkpt lat="42.61772874773551" lon="12.949885233086878"><ele>857.0</ele><time>2026-04-12T15:34:20Z</time></trkpt><trkpt lat="42.61748134825554" lon="12.949771255555362"><ele>855.0</ele><time>2026-04-12T15:34:21Z</time></trkpt><trkpt lat="42.61728514034345" lon="12.949751334704814"><ele>855.0</ele><time>2026-04-12T15:34:22Z</time></trkpt><trkpt lat="42.61708716968853" lon="12.949751142929077"><ele>855.0</ele><time>2026-04-12T15:34:23Z</time></trkpt><trkpt lat="42.616883122995745" lon="12.949761816252433"><ele>855.0</ele><time>2026-04-12T15:34:24Z</time></trkpt><trkpt lat="42.616687293892284" lon="12.949789903046085"><ele>855.3333333333333</ele><time>2026-04-12T15:34:25Z</time></trkpt><trkpt lat="42.616498952607934" lon="12.949832221358067"><ele>855.6666666666666</ele><time>2026-04-12T15:34:26Z</time></trkpt><trkpt lat="42.61631361888272" lon="12.949905835326351"><ele>856.0</ele><time>2026-04-12T15:34:27Z</time></trkpt><trkpt lat="42.616133180675746" lon="12.950005757787505"><ele>864.0</ele><time>2026-04-12T15:34:28Z</time></trkpt><trkpt lat="42.615952973643594" lon="12.950103781652727"><ele>872.0</ele><time>2026-04-12T15:34:29Z</time></trkpt><trkpt lat="42.615759817835965" lon="12.95015156287319"><ele>880.0</ele><time>2026-04-12T15:34:30Z</time></trkpt><trkpt lat="42.61556283931194" lon="12.95015210624974"><ele>880.0</ele><time>2026-04-12T15:34:31Z</time></trkpt><trkpt lat="42.61536838061845" lon="12.950155129248875"><ele>880.0</ele><time>2026-04-12T15:34:32Z</time></trkpt><trkpt lat="42.61517405297629" lon="12.950176711757114"><ele>880.0</ele><time>2026-04-12T15:34:33Z</time></trkpt><trkpt lat="42.61498207009063" lon="12.950213085853843"><ele>881.0</ele><time>2026-04-12T15:34:34Z</time></trkpt><trkpt lat="42.61478659196022" lon="12.950254296414105"><ele>882.0</ele><time>2026-04-12T15:34:35Z</time></trkpt><trkpt lat="42.614593250461226" lon="12.950292197763911"><ele>883.0</ele><time>2026-04-12T15:34:36Z</time></trkpt><trkpt lat="42.614390932911235" lon="12.950319486361149"><ele>883.0</ele><time>2026-04-12T15:34:37Z</time></trkpt><trkpt lat="42.61419112654991" lon="12.950349149016658"><ele>883.0</ele><time>2026-04-12T15:34:38Z</time></trkpt><trkpt lat="42.61399466645937" lon="12.950380994964924"><ele>883.0</ele><time>2026-04-12T15:34:39Z</time></trkpt><trkpt lat="42.613798588177715" lon="12.950410920418467"><ele>882.3333333333333</ele><time>2026-04-12T15:34:40Z</time></trkpt><trkpt lat="42.61360120870757" lon="12.950440824257091"><ele>881.6666666666667</ele><time>2026-04-12T15:34:41Z</time></trkpt><trkpt lat="42.613408632252" lon="12.950466972587376"><ele>881.0</ele><time>2026-04-12T15:34:42Z</time></trkpt><trkpt lat="42.61321548888112" lon="12.950487204401599"><ele>881.0</ele><time>2026-04-12T15:34:43Z</time></trkpt><trkpt lat="42.61301582539745" lon="12.950502763630183"><ele>881.0</ele><time>2026-04-12T15:34:44Z</time></trkpt><trkpt lat="42.61281121448227" lon="12.95050600591399"><ele>881.0</ele><time>2026-04-12T15:34:45Z</time></trkpt><trkpt lat="42.612614062266985" lon="12.95048397337057"><ele>881.0</ele><time>2026-04-12T15:34:46Z</time></trkpt><trkpt lat="42.61241849854605" lon="12.950433684667876"><ele>881.0</ele><time>2026-04-12T15:34:47Z</time></trkpt><trkpt lat="42.61222688463516" lon="12.950343189144514"><ele>881.0</ele><time>2026-04-12T15:34:48Z</time></trkpt><trkpt lat="42.61204986186923" lon="12.950213479958432"><ele>880.0</ele><time>2026-04-12T15:34:49Z</time></trkpt><trkpt lat="42.611888946146784" lon="12.95004722224513"><ele>879.0</ele><time>2026-04-12T15:34:50Z</time></trkpt><trkpt lat="42.611736159405076" lon="12.949867539183558"><ele>878.0</ele><time>2026-04-12T15:34:51Z</time></trkpt><trkpt lat="42.6115715789903" lon="12.949715601230247"><ele>878.0</ele><time>2026-04-12T15:34:52Z</time></trkpt><trkpt lat="42.61138343609738" lon="12.949620751092644"><ele>878.0</ele><time>2026-04-12T15:34:53Z</time></trkpt><trkpt lat="42.61117650073654" lon="12.949596087364348"><ele>878.0</ele><time>2026-04-12T15:34:54Z</time></trkpt><trkpt lat="42.61097193569953" lon="12.949590039179075"><ele>879.3333333333334</ele><time>2026-04-12T15:34:55Z</time></trkpt><trkpt lat="42.610774124545046" lon="12.94952892024372"><ele>880.6666666666667</ele><time>2026-04-12T15:34:56Z</time></trkpt><trkpt lat="42.61059509811424" lon="12.949407103718103"><ele>882.0</ele><time>2026-04-12T15:34:57Z</time></trkpt><trkpt lat="42.610425727459145" lon="12.949223260589509"><ele>881.6666666666667</ele><time>2026-04-12T15:34:58Z</time></trkpt><trkpt lat="42.61026947610957" lon="12.949059038450425"><ele>881.3333333333334</ele><time>2026-04-12T15:34:59Z</time></trkpt><trkpt lat="42.61012297498483" lon="12.948916906521474"><ele>881.0</ele><time>2026-04-12T15:35:00Z</time></trkpt><trkpt lat="42.60998423004345" lon="12.948799418544823"><ele>881.0</ele><time>2026-04-12T15:35:01Z</time></trkpt><trkpt lat="42.6098342737168" lon="12.948741893923374"><ele>881.0</ele><time>2026-04-12T15:35:02Z</time></trkpt><trkpt lat="42.60967133424189" lon="12.948764897352945"><ele>881.0</ele><time>2026-04-12T15:35:03Z</time></trkpt><trkpt lat="42.609497572607104" lon="12.94886371483468"><ele>881.0</ele><time>2026-04-12T15:35:04Z</time></trkpt><trkpt lat="42.60933256597196" lon="12.9489860136414"><ele>881.0</ele><time>2026-04-12T15:35:05Z</time></trkpt><trkpt lat="42.60916286274582" lon="12.949081984346533"><ele>881.0</ele><time>2026-04-12T15:35:06Z</time></trkpt><trkpt lat="42.60897757867452" lon="12.949163252517714"><ele>887.0</ele><time>2026-04-12T15:35:07Z</time></trkpt><trkpt lat="42.6087956577716" lon="12.949233631568783"><ele>893.0</ele><time>2026-04-12T15:35:08Z</time></trkpt><trkpt lat="42.608612899218684" lon="12.94930065760293"><ele>899.0</ele><time>2026-04-12T15:35:09Z</time></trkpt><trkpt lat="42.6084319720789" lon="12.949355386956334"><ele>899.0</ele><time>2026-04-12T15:35:10Z</time></trkpt><trkpt lat="42.60825597259175" lon="12.949387548525463"><ele>899.0</ele><time>2026-04-12T15:35:11Z</time></trkpt><trkpt lat="42.608090394693534" lon="12.949367614107755"><ele>899.0</ele><time>2026-04-12T15:35:12Z</time></trkpt><trkpt lat="42.60794254961608" lon="12.949280553136287"><ele>895.25</ele><time>2026-04-12T15:35:13Z</time></trkpt><trkpt lat="42.60782779011931" lon="12.949140988426512"><ele>891.5</ele><time>2026-04-12T15:35:14.001Z</time></trkpt><trkpt lat="42.60771258279076" lon="12.949045736562972"><ele>887.75</ele><time>2026-04-12T15:35:15.001Z</time></trkpt><trkpt lat="42.607558775478" lon="12.949049162277241"><ele>884.0</ele><time>2026-04-12T15:35:16.001Z</time></trkpt><trkpt lat="42.60739652055253" lon="12.94910778857627"><ele>884.0</ele><time>2026-04-12T15:35:17.001Z</time></trkpt><trkpt lat="42.607232637125875" lon="12.949164019197429"><ele>884.0</ele><time>2026-04-12T15:35:18.001Z</time></trkpt><trkpt lat="42.607074537479264" lon="12.949212381130602"><ele>884.0</ele><time>2026-04-12T15:35:19.001Z</time></trkpt><trkpt lat="42.60691552210909" lon="12.949255570859854"><ele>890.3333333333334</ele><time>2026-04-12T15:35:20.001Z</time></trkpt><trkpt lat="42.6067558798383" lon="12.94929954626216"><ele>896.6666666666667</ele><time>2026-04-12T15:35:21.001Z</time></trkpt><trkpt lat="42.60659381195507" lon="12.949328968576307"><ele>903.0</ele><time>2026-04-12T15:35:22.001Z</time></trkpt><trkpt lat="42.606427684929706" lon="12.949323106750471"><ele>903.0</ele><time>2026-04-12T15:35:23.001Z</time></trkpt><trkpt lat="42.60625333827565" lon="12.949276717018462"><ele>903.0</ele><time>2026-04-12T15:35:24.001Z</time></trkpt><trkpt lat="42.60608212350626" lon="12.94923895061299"><ele>903.0</ele><time>2026-04-12T15:35:25.001Z</time></trkpt><trkpt lat="42.60590740613625" lon="12.949256726188601"><ele>903.3333333333333</ele><time>2026-04-12T15:35:26.001Z</time></trkpt><trkpt lat="42.60573190247181" lon="12.949308427766006"><ele>903.6666666666666</ele><time>2026-04-12T15:35:27.001Z</time></trkpt><trkpt lat="42.6055515161987" lon="12.949365572757971"><ele>904.0</ele><time>2026-04-12T15:35:28.001Z</time></trkpt><trkpt lat="42.60536790817108" lon="12.94938135799744"><ele>903.3333333333333</ele><time>2026-04-12T15:35:29.001Z</time></trkpt><trkpt lat="42.60517734794435" lon="12.94936990712387"><ele>902.6666666666667</ele><time>2026-04-12T15:35:30.001Z</time></trkpt><trkpt lat="42.604984832827256" lon="12.949372338984473"><ele>902.0</ele><time>2026-04-12T15:35:31.001Z</time></trkpt><trkpt lat="42.604790669402625" lon="12.949358889514194"><ele>902.0</ele><time>2026-04-12T15:35:32.001Z</time></trkpt><trkpt lat="42.604586775564954" lon="12.949384603868058"><ele>902.0</ele><time>2026-04-12T15:35:33.001Z</time></trkpt><trkpt lat="42.60438134880558" lon="12.949438986478494"><ele>902.0</ele><time>2026-04-12T15:35:34.001Z</time></trkpt><trkpt lat="42.60417039426921" lon="12.949525902921293"><ele>900.6666666666667</ele><time>2026-04-12T15:35:35.001Z</time></trkpt><trkpt lat="42.60396842608297" lon="12.949632250454624"><ele>899.3333333333333</ele><time>2026-04-12T15:35:36.001Z</time></trkpt><trkpt lat="42.60377378997465" lon="12.949754403604915"><ele>898.0</ele><time>2026-04-12T15:35:37.001Z</time></trkpt><trkpt lat="42.60359135753296" lon="12.94988347774378"><ele>896.3333333333333</ele><time>2026-04-12T15:35:38.001Z</time></trkpt><trkpt lat="42.60341132772997" lon="12.950021285135199"><ele>894.6666666666667</ele><time>2026-04-12T15:35:39.001Z</time></trkpt><trkpt lat="42.60323571095812" lon="12.950166415436952"><ele>893.0</ele><time>2026-04-12T15:35:40.001Z</time></trkpt><trkpt lat="42.603062378276775" lon="12.950311787680155"><ele>894.0</ele><time>2026-04-12T15:35:41.001Z</time></trkpt><trkpt lat="42.60288464188829" lon="12.95045802124128"><ele>895.0</ele><time>2026-04-12T15:35:42.001Z</time></trkpt><trkpt lat="42.60271859571337" lon="12.950601923143223"><ele>896.0</ele><time>2026-04-12T15:35:43.001Z</time></trkpt><trkpt lat="42.60254935842527" lon="12.950769347447904"><ele>902.0</ele><time>2026-04-12T15:35:44.001Z</time></trkpt><trkpt lat="42.60239893262357" lon="12.950955194219311"><ele>908.0</ele><time>2026-04-12T15:35:45.001Z</time></trkpt><trkpt lat="42.602258846658955" lon="12.95115148742058"><ele>914.0</ele><time>2026-04-12T15:35:46.001Z</time></trkpt><trkpt lat="42.602119992784054" lon="12.951359850683923"><ele>913.6666666666667</ele><time>2026-04-12T15:35:47.001Z</time></trkpt><trkpt lat="42.60198063699882" lon="12.951570573089851"><ele>913.3333333333333</ele><time>2026-04-12T15:35:48.001Z</time></trkpt><trkpt lat="42.60182813972874" lon="12.951740229514913"><ele>913.0</ele><time>2026-04-12T15:35:49.001Z</time></trkpt><trkpt lat="42.601677058553484" lon="12.951928851260877"><ele>913.0</ele><time>2026-04-12T15:35:50.001Z</time></trkpt><trkpt lat="42.60150530764261" lon="12.952090172047807"><ele>913.0</ele><time>2026-04-12T15:35:51.001Z</time></trkpt><trkpt lat="42.601331338376" lon="12.952247801173705"><ele>913.0</ele><time>2026-04-12T15:35:52.001Z</time></trkpt><trkpt lat="42.60116221463499" lon="12.95238495446751"><ele>915.0</ele><time>2026-04-12T15:35:53.001Z</time></trkpt><trkpt lat="42.600983056676434" lon="12.952514872019098"><ele>917.0</ele><time>2026-04-12T15:35:54.001Z</time></trkpt><trkpt lat="42.60080604737896" lon="12.952650481867336"><ele>919.0</ele><time>2026-04-12T15:35:55.001Z</time></trkpt><trkpt lat="42.60063088764365" lon="12.952791342973002"><ele>919.0</ele><time>2026-04-12T15:35:56.001Z</time></trkpt><trkpt lat="42.60047011486477" lon="12.952952180884099"><ele>919.0</ele><time>2026-04-12T15:35:57.001Z</time></trkpt><trkpt lat="42.60031211879474" lon="12.953114013577535"><ele>919.0</ele><time>2026-04-12T15:35:58.001Z</time></trkpt><trkpt lat="42.600163554069134" lon="12.95328500454643"><ele>918.0</ele><time>2026-04-12T15:35:59.001Z</time></trkpt><trkpt lat="42.60001848305515" lon="12.953460382089347"><ele>917.0</ele><time>2026-04-12T15:36:00.001Z</time></trkpt><trkpt lat="42.599873043560585" lon="12.953636857819028"><ele>916.0</ele><time>2026-04-12T15:36:01.001Z</time></trkpt><trkpt lat="42.59973068964569" lon="12.95382447273926"><ele>916.0</ele><time>2026-04-12T15:36:02.001Z</time></trkpt><trkpt lat="42.5995907187926" lon="12.954002615718235"><ele>916.0</ele><time>2026-04-12T15:36:03Z</time></trkpt><trkpt lat="42.59944687982499" lon="12.95418080430789"><ele>916.0</ele><time>2026-04-12T15:36:04Z</time></trkpt><trkpt lat="42.59930832001415" lon="12.954354966759826"><ele>911.6666666666666</ele><time>2026-04-12T15:36:05Z</time></trkpt><trkpt lat="42.59916298519152" lon="12.954516940873319"><ele>907.3333333333333</ele><time>2026-04-12T15:36:06Z</time></trkpt><trkpt lat="42.59899543365592" lon="12.954609147454885"><ele>903.0</ele><time>2026-04-12T15:36:07Z</time></trkpt><trkpt lat="42.59881884346505" lon="12.954661921169501"><ele>902.0</ele><time>2026-04-12T15:36:08Z</time></trkpt><trkpt lat="42.59862196329974" lon="12.954723655857375"><ele>901.0</ele><time>2026-04-12T15:36:09Z</time></trkpt><trkpt lat="42.59842287250406" lon="12.954739792873484"><ele>900.0</ele><time>2026-04-12T15:36:10Z</time></trkpt><trkpt lat="42.59822162056242" lon="12.954749160613027"><ele>900.0</ele><time>2026-04-12T15:36:11Z</time></trkpt><trkpt lat="42.598027438099535" lon="12.95473543062781"><ele>900.0</ele><time>2026-04-12T15:36:12Z</time></trkpt><trkpt lat="42.597829593906276" lon="12.95471190366279"><ele>900.0</ele><time>2026-04-12T15:36:13Z</time></trkpt><trkpt lat="42.59763303074277" lon="12.954688212055004"><ele>900.3333333333333</ele><time>2026-04-12T15:36:14Z</time></trkpt><trkpt lat="42.59744625426084" lon="12.95465598728781"><ele>900.6666666666666</ele><time>2026-04-12T15:36:15Z</time></trkpt><trkpt lat="42.59725722282528" lon="12.954638227195783"><ele>901.0</ele><time>2026-04-12T15:36:16Z</time></trkpt><trkpt lat="42.597073345052344" lon="12.954623345529448"><ele>901.3333333333333</ele><time>2026-04-12T15:36:17Z</time></trkpt><trkpt lat="42.59688979949603" lon="12.954631825580913"><ele>901.6666666666667</ele><time>2026-04-12T15:36:18Z</time></trkpt><trkpt lat="42.59671573594383" lon="12.954663938232738"><ele>902.0</ele><time>2026-04-12T15:36:19Z</time></trkpt><trkpt lat="42.59654243868923" lon="12.954712921886388"><ele>902.0</ele><time>2026-04-12T15:36:20Z</time></trkpt><trkpt lat="42.596364541303416" lon="12.954765810613843"><ele>902.0</ele><time>2026-04-12T15:36:21Z</time></trkpt><trkpt lat="42.59618419820661" lon="12.95481091534257"><ele>902.0</ele><time>2026-04-12T15:36:22Z</time></trkpt><trkpt lat="42.595984835582314" lon="12.954865439684863"><ele>902.6666666666667</ele><time>2026-04-12T15:36:23Z</time></trkpt><trkpt lat="42.59578576295697" lon="12.954917700061978"><ele>903.3333333333333</ele><time>2026-04-12T15:36:24Z</time></trkpt><trkpt lat="42.59559358248757" lon="12.954970497837174"><ele>904.0</ele><time>2026-04-12T15:36:25Z</time></trkpt><trkpt lat="42.595401040932146" lon="12.955026990035675"><ele>904.3333333333333</ele><time>2026-04-12T15:36:26Z</time></trkpt><trkpt lat="42.59520541311085" lon="12.955087722240226"><ele>904.6666666666667</ele><time>2026-04-12T15:36:27Z</time></trkpt><trkpt lat="42.595005870959675" lon="12.955141356762846"><ele>905.0</ele><time>2026-04-12T15:36:28Z</time></trkpt><trkpt lat="42.59480179861487" lon="12.955200337633325"><ele>905.0</ele><time>2026-04-12T15:36:29Z</time></trkpt><trkpt lat="42.594596988708915" lon="12.955259877223542"><ele>905.0</ele><time>2026-04-12T15:36:30Z</time></trkpt><trkpt lat="42.594393714371805" lon="12.955315969253384"><ele>905.0</ele><time>2026-04-12T15:36:31Z</time></trkpt><trkpt lat="42.594187086127434" lon="12.955376646981982"><ele>905.5</ele><time>2026-04-12T15:36:32Z</time></trkpt><trkpt lat="42.593958687710455" lon="12.955446346019421"><ele>906.0</ele><time>2026-04-12T15:36:33Z</time></trkpt><trkpt lat="42.5937258203737" lon="12.955515894427323"><ele>906.0</ele><time>2026-04-12T15:36:34Z</time></trkpt><trkpt lat="42.59350412601119" lon="12.9555773529257"><ele>906.0</ele><time>2026-04-12T15:36:35Z</time></trkpt><trkpt lat="42.59329914915887" lon="12.955631577599053"><ele>906.0</ele><time>2026-04-12T15:36:36Z</time></trkpt><trkpt lat="42.59311310858558" lon="12.955679818709578"><ele>906.0</ele><time>2026-04-12T15:36:37Z</time></trkpt><trkpt lat="42.5929492759206" lon="12.95572908060116"><ele>906.0</ele><time>2026-04-12T15:36:38Z</time></trkpt><trkpt lat="42.59281780587818" lon="12.955771438996514"><ele>906.0</ele><time>2026-04-12T15:36:39Z</time></trkpt><trkpt lat="42.59269935192559" lon="12.955803480285349"><ele>906.0</ele><time>2026-04-12T15:36:40Z</time></trkpt><trkpt lat="42.592578685720525" lon="12.955832960137275"><ele>906.0</ele><time>2026-04-12T15:36:41Z</time></trkpt><trkpt lat="42.59245844892616" lon="12.955867154248375"><ele>906.0</ele><time>2026-04-12T15:36:42Z</time></trkpt><trkpt lat="42.59232654091902" lon="12.955906952847988"><ele>906.0</ele><time>2026-04-12T15:36:43Z</time></trkpt><trkpt lat="42.59219688285424" lon="12.955949309119303"><ele>906.0</ele><time>2026-04-12T15:36:44Z</time></trkpt><trkpt lat="42.59208227778374" lon="12.955982254898878"><ele>907.0</ele><time>2026-04-12T15:36:45Z</time></trkpt><trkpt lat="42.59194669189042" lon="12.956018487520204"><ele>908.0</ele><time>2026-04-12T15:36:46Z</time></trkpt><trkpt lat="42.591785827305294" lon="12.956066671960544"><ele>909.0</ele><time>2026-04-12T15:36:47Z</time></trkpt><trkpt lat="42.59160127312996" lon="12.956114531275285"><ele>909.0</ele><time>2026-04-12T15:36:48Z</time></trkpt><trkpt lat="42.591367771314616" lon="12.956185897545684"><ele>909.0</ele><time>2026-04-12T15:36:49Z</time></trkpt><trkpt lat="42.59110588849493" lon="12.956260154890924"><ele>910.0</ele><time>2026-04-12T15:36:50Z</time></trkpt><trkpt lat="42.590834954199586" lon="12.956334492302373"><ele>911.0</ele><time>2026-04-12T15:36:51Z</time></trkpt><trkpt lat="42.5905800951529" lon="12.956396242834488"><ele>912.0</ele><time>2026-04-12T15:36:52Z</time></trkpt><trkpt lat="42.590322966737666" lon="12.956467991767036"><ele>913.0</ele><time>2026-04-12T15:36:53Z</time></trkpt><trkpt lat="42.59005254285776" lon="12.956546104340685"><ele>913.0</ele><time>2026-04-12T15:36:54Z</time></trkpt><trkpt lat="42.58977382612749" lon="12.956624967889807"><ele>913.0</ele><time>2026-04-12T15:36:55Z</time></trkpt><trkpt lat="42.58949967099133" lon="12.956701256617714"><ele>913.5</ele><time>2026-04-12T15:36:56Z</time></trkpt><trkpt lat="42.589232691683954" lon="12.95677760600599"><ele>914.0</ele><time>2026-04-12T15:36:57Z</time></trkpt><trkpt lat="42.58897188811994" lon="12.95684783928637"><ele>914.0</ele><time>2026-04-12T15:36:58Z</time></trkpt><trkpt lat="42.588715740005306" lon="12.956919645955146"><ele>914.0</ele><time>2026-04-12T15:36:59Z</time></trkpt><trkpt lat="42.58847551259296" lon="12.956986509510358"><ele>915.0</ele><time>2026-04-12T15:37:00Z</time></trkpt><trkpt lat="42.588241684037165" lon="12.957058710965057"><ele>916.0</ele><time>2026-04-12T15:37:01Z</time></trkpt><trkpt lat="42.588005577703214" lon="12.957124978137063"><ele>917.0</ele><time>2026-04-12T15:37:02Z</time></trkpt><trkpt lat="42.58777018327835" lon="12.957191470107729"><ele>918.0</ele><time>2026-04-12T15:37:03Z</time></trkpt><trkpt lat="42.58753349447539" lon="12.957256272134964"><ele>918.0</ele><time>2026-04-12T15:37:04Z</time></trkpt><trkpt lat="42.58728962900966" lon="12.957321261477036"><ele>918.0</ele><time>2026-04-12T15:37:05Z</time></trkpt><trkpt lat="42.58704067649093" lon="12.957393216245888"><ele>918.6666666666667</ele><time>2026-04-12T15:37:06Z</time></trkpt><trkpt lat="42.58681255489712" lon="12.957454581454217"><ele>919.3333333333334</ele><time>2026-04-12T15:37:07Z</time></trkpt><trkpt lat="42.58662021105063" lon="12.957509454428568"><ele>920.0</ele><time>2026-04-12T15:37:08Z</time></trkpt><trkpt lat="42.58646449073082" lon="12.957553106960376"><ele>920.25</ele><time>2026-04-12T15:37:09Z</time></trkpt><trkpt lat="42.58631240880745" lon="12.957594870874084"><ele>920.5</ele><time>2026-04-12T15:37:10Z</time></trkpt><trkpt lat="42.58616670291836" lon="12.957635556188254"><ele>920.75</ele><time>2026-04-12T15:37:11Z</time></trkpt><trkpt lat="42.586024446841556" lon="12.957676466989382"><ele>921.0</ele><time>2026-04-12T15:37:12Z</time></trkpt><trkpt lat="42.58587660409703" lon="12.957718970808877"><ele>922.0</ele><time>2026-04-12T15:37:13Z</time></trkpt><trkpt lat="42.58571352111649" lon="12.957764320593226"><ele>923.0</ele><time>2026-04-12T15:37:14Z</time></trkpt><trkpt lat="42.5855248784271" lon="12.957820127000586"><ele>924.0</ele><time>2026-04-12T15:37:15Z</time></trkpt><trkpt lat="42.585312460643806" lon="12.957881484935562"><ele>924.5</ele><time>2026-04-12T15:37:16Z</time></trkpt><trkpt lat="42.58507777521994" lon="12.957947534229055"><ele>925.0</ele><time>2026-04-12T15:37:17Z</time></trkpt><trkpt lat="42.58483609872352" lon="12.958019752812048"><ele>925.0</ele><time>2026-04-12T15:37:18Z</time></trkpt><trkpt lat="42.5846337726627" lon="12.958077199780362"><ele>925.0</ele><time>2026-04-12T15:37:19Z</time></trkpt><trkpt lat="42.5844652881699" lon="12.95814641848149"><ele>925.0</ele><time>2026-04-12T15:37:20Z</time></trkpt><trkpt lat="42.58424002641961" lon="12.958187319988992"><ele>925.6666666666666</ele><time>2026-04-12T15:37:21Z</time></trkpt><trkpt lat="42.58405556432834" lon="12.958238960738262"><ele>926.3333333333333</ele><time>2026-04-12T15:37:22Z</time></trkpt><trkpt lat="42.583873985556366" lon="12.958287410465708"><ele>927.0</ele><time>2026-04-12T15:37:23Z</time></trkpt><trkpt lat="42.58370046318723" lon="12.95833308166202"><ele>927.0</ele><time>2026-04-12T15:37:24Z</time></trkpt><trkpt lat="42.583533710696074" lon="12.958380271854514"><ele>927.0</ele><time>2026-04-12T15:37:25Z</time></trkpt><trkpt lat="42.58338799615737" lon="12.958421843208605"><ele>927.0</ele><time>2026-04-12T15:37:26Z</time></trkpt><trkpt lat="42.58324915166817" lon="12.958461579241554"><ele>927.0</ele><time>2026-04-12T15:37:27Z</time></trkpt><trkpt lat="42.583106682407355" lon="12.95850152219725"><ele>927.0</ele><time>2026-04-12T15:37:28Z</time></trkpt><trkpt lat="42.58296690093691" lon="12.958536101647477"><ele>927.0</ele><time>2026-04-12T15:37:29.001Z</time></trkpt><trkpt lat="42.582818171731134" lon="12.958577812123378"><ele>927.0</ele><time>2026-04-12T15:37:30.001Z</time></trkpt><trkpt lat="42.582668203699306" lon="12.958624052565686"><ele>927.6666666666667</ele><time>2026-04-12T15:37:31.001Z</time></trkpt><trkpt lat="42.58250217496525" lon="12.958669000408223"><ele>928.3333333333334</ele><time>2026-04-12T15:37:32.001Z</time></trkpt><trkpt lat="42.5823270564683" lon="12.958717165172622"><ele>929.0</ele><time>2026-04-12T15:37:33.001Z</time></trkpt><trkpt lat="42.58213329920544" lon="12.95877862391376"><ele>929.6666666666667</ele><time>2026-04-12T15:37:34.001Z</time></trkpt><trkpt lat="42.581923498502235" lon="12.95883280370567"><ele>930.3333333333333</ele><time>2026-04-12T15:37:35.001Z</time></trkpt><trkpt lat="42.581721493803286" lon="12.958886777806255"><ele>931.0</ele><time>2026-04-12T15:37:36.001Z</time></trkpt><trkpt lat="42.58152546534415" lon="12.958937880353563"><ele>931.0</ele><time>2026-04-12T15:37:37.001Z</time></trkpt><trkpt lat="42.58133373380078" lon="12.958994437636772"><ele>931.0</ele><time>2026-04-12T15:37:38.001Z</time></trkpt><trkpt lat="42.581130877464425" lon="12.959050671511326"><ele>931.0</ele><time>2026-04-12T15:37:39.001Z</time></trkpt><trkpt lat="42.58092362603568" lon="12.959110186010317"><ele>931.6666666666666</ele><time>2026-04-12T15:37:40.001Z</time></trkpt><trkpt lat="42.58071956774291" lon="12.959165201838797"><ele>932.3333333333333</ele><time>2026-04-12T15:37:41.001Z</time></trkpt><trkpt lat="42.580515463413015" lon="12.959221554697836"><ele>933.0</ele><time>2026-04-12T15:37:42.001Z</time></trkpt><trkpt lat="42.580311615353594" lon="12.959275589678887"><ele>933.3333333333333</ele><time>2026-04-12T15:37:43.001Z</time></trkpt><trkpt lat="42.58010817007054" lon="12.959334955176613"><ele>933.6666666666666</ele><time>2026-04-12T15:37:44.001Z</time></trkpt><trkpt lat="42.57990714647031" lon="12.959389400770561"><ele>934.0</ele><time>2026-04-12T15:37:45.001Z</time></trkpt><trkpt lat="42.57970788512051" lon="12.959442055083066"><ele>934.3333333333333</ele><time>2026-04-12T15:37:46.001Z</time></trkpt><trkpt lat="42.57950394648913" lon="12.95949695098104"><ele>934.6666666666667</ele><time>2026-04-12T15:37:47.001Z</time></trkpt><trkpt lat="42.579295057917534" lon="12.959557118350817"><ele>935.0</ele><time>2026-04-12T15:37:48.001Z</time></trkpt><trkpt lat="42.57908452679869" lon="12.959615110010045"><ele>935.0</ele><time>2026-04-12T15:37:49.001Z</time></trkpt><trkpt lat="42.578873869939805" lon="12.95967215771648"><ele>935.0</ele><time>2026-04-12T15:37:50.001Z</time></trkpt><trkpt lat="42.578663752411366" lon="12.95973302396875"><ele>935.0</ele><time>2026-04-12T15:37:51.001Z</time></trkpt><trkpt lat="42.578463889919306" lon="12.959792716579631"><ele>935.3333333333334</ele><time>2026-04-12T15:37:52.001Z</time></trkpt><trkpt lat="42.578273142032145" lon="12.959852337309956"><ele>935.6666666666667</ele><time>2026-04-12T15:37:53.001Z</time></trkpt><trkpt lat="42.578080199202134" lon="12.959903608382149"><ele>936.0</ele><time>2026-04-12T15:37:54.001Z</time></trkpt><trkpt lat="42.5778885690369" lon="12.959956484207295"><ele>936.3333333333333</ele><time>2026-04-12T15:37:55.001Z</time></trkpt><trkpt lat="42.57770188947278" lon="12.960011087677437"><ele>936.6666666666666</ele><time>2026-04-12T15:37:56.001Z</time></trkpt><trkpt lat="42.577527730466365" lon="12.960060275824066"><ele>937.0</ele><time>2026-04-12T15:37:57.001Z</time></trkpt><trkpt lat="42.57736414380219" lon="12.960106264753389"><ele>937.0</ele><time>2026-04-12T15:37:58.001Z</time></trkpt><trkpt lat="42.577214016310236" lon="12.960148541344596"><ele>937.0</ele><time>2026-04-12T15:37:59.001Z</time></trkpt><trkpt lat="42.57705845901442" lon="12.960190108604463"><ele>937.0</ele><time>2026-04-12T15:38:00.001Z</time></trkpt><trkpt lat="42.576903709167425" lon="12.960231546123984"><ele>938.3333333333333</ele><time>2026-04-12T15:38:01.001Z</time></trkpt><trkpt lat="42.576752990709956" lon="12.960273827441672"><ele>939.6666666666667</ele><time>2026-04-12T15:38:02.001Z</time></trkpt><trkpt lat="42.57660485739106" lon="12.960315415783922"><ele>941.0</ele><time>2026-04-12T15:38:03.001Z</time></trkpt><trkpt lat="42.576449240066644" lon="12.960361397602053"><ele>941.0</ele><time>2026-04-12T15:38:04.001Z</time></trkpt><trkpt lat="42.57629303441143" lon="12.960405957477716"><ele>941.0</ele><time>2026-04-12T15:38:05.001Z</time></trkpt><trkpt lat="42.57613049608943" lon="12.960451447306053"><ele>941.0</ele><time>2026-04-12T15:38:06.001Z</time></trkpt><trkpt lat="42.57595563802496" lon="12.960500729925332"><ele>941.3333333333334</ele><time>2026-04-12T15:38:07.001Z</time></trkpt><trkpt lat="42.575762845556376" lon="12.960556734490607"><ele>941.6666666666667</ele><time>2026-04-12T15:38:08.001Z</time></trkpt><trkpt lat="42.57554342346661" lon="12.9606161792305"><ele>942.0</ele><time>2026-04-12T15:38:09Z</time></trkpt><trkpt lat="42.575317724999316" lon="12.960675543945081"><ele>942.6666666666667</ele><time>2026-04-12T15:38:10Z</time></trkpt><trkpt lat="42.575121258790915" lon="12.960729408389989"><ele>943.3333333333334</ele><time>2026-04-12T15:38:11Z</time></trkpt><trkpt lat="42.57493932448727" lon="12.960779925737105"><ele>944.0</ele><time>2026-04-12T15:38:12Z</time></trkpt><trkpt lat="42.57475581890825" lon="12.9608346054529"><ele>944.3333333333334</ele><time>2026-04-12T15:38:13Z</time></trkpt><trkpt lat="42.57456822836668" lon="12.96089088212154"><ele>944.6666666666667</ele><time>2026-04-12T15:38:14Z</time></trkpt><trkpt lat="42.574367766199344" lon="12.960948302828694"><ele>945.0</ele><time>2026-04-12T15:38:15Z</time></trkpt><trkpt lat="42.57414965064297" lon="12.961007762131818"><ele>945.0</ele><time>2026-04-12T15:38:16Z</time></trkpt><trkpt lat="42.57392666427868" lon="12.961068887220835"><ele>945.0</ele><time>2026-04-12T15:38:17Z</time></trkpt><trkpt lat="42.57369359399576" lon="12.961132613429887"><ele>945.3333333333333</ele><time>2026-04-12T15:38:18Z</time></trkpt><trkpt lat="42.573473572863094" lon="12.961197608648465"><ele>945.6666666666666</ele><time>2026-04-12T15:38:19Z</time></trkpt><trkpt lat="42.57327310504741" lon="12.961255459509925"><ele>946.0</ele><time>2026-04-12T15:38:20Z</time></trkpt><trkpt lat="42.57309420123826" lon="12.961313523458015"><ele>946.0</ele><time>2026-04-12T15:38:21Z</time></trkpt><trkpt lat="42.57290385380331" lon="12.961364852775256"><ele>946.0</ele><time>2026-04-12T15:38:22Z</time></trkpt><trkpt lat="42.5727217504062" lon="12.961411014780028"><ele>946.0</ele><time>2026-04-12T15:38:23Z</time></trkpt><trkpt lat="42.57255263234312" lon="12.961456002096474"><ele>947.0</ele><time>2026-04-12T15:38:24Z</time></trkpt><trkpt lat="42.572393800692105" lon="12.961499582892005"><ele>948.0</ele><time>2026-04-12T15:38:25Z</time></trkpt><trkpt lat="42.572260031694555" lon="12.961535918563694"><ele>949.0</ele><time>2026-04-12T15:38:26Z</time></trkpt><trkpt lat="42.572135151619726" lon="12.961564008366796"><ele>950.0</ele><time>2026-04-12T15:38:27Z</time></trkpt><trkpt lat="42.57202000074724" lon="12.961584849428325"><ele>950.2</ele><time>2026-04-12T15:38:28Z</time></trkpt><trkpt lat="42.571918472056424" lon="12.961584257872303"><ele>950.4</ele><time>2026-04-12T15:38:29Z</time></trkpt><trkpt lat="42.57182395254635" lon="12.961528140988227"><ele>950.5999999999999</ele><time>2026-04-12T15:38:30Z</time></trkpt><trkpt lat="42.57175390979617" lon="12.961429818698624"><ele>950.8</ele><time>2026-04-12T15:38:31Z</time></trkpt><trkpt lat="42.571671988434474" lon="12.961380170773166"><ele>951.0</ele><time>2026-04-12T15:38:32Z</time></trkpt><trkpt lat="42.57156360526688" lon="12.961414111766853"><ele>951.0</ele><time>2026-04-12T15:38:33Z</time></trkpt><trkpt lat="42.57145384548519" lon="12.961512518204891"><ele>951.0</ele><time>2026-04-12T15:38:34Z</time></trkpt><trkpt lat="42.57134388964623" lon="12.96166071509203"><ele>951.0</ele><time>2026-04-12T15:38:35Z</time></trkpt><trkpt lat="42.571219263790766" lon="12.961776612100982"><ele>951.0</ele><time>2026-04-12T15:38:36Z</time></trkpt><trkpt lat="42.57105730871309" lon="12.961819634177312"><ele>950.6666666666667</ele><time>2026-04-12T15:38:37Z</time></trkpt><trkpt lat="42.570911155935065" lon="12.96186743574497"><ele>950.3333333333334</ele><time>2026-04-12T15:38:38Z</time></trkpt><trkpt lat="42.5707565791745" lon="12.961877978375133"><ele>950.0</ele><time>2026-04-12T15:38:39Z</time></trkpt><trkpt lat="42.57060110516384" lon="12.961890432341068"><ele>950.0</ele><time>2026-04-12T15:38:40Z</time></trkpt><trkpt lat="42.57044469315127" lon="12.961911552015955"><ele>950.0</ele><time>2026-04-12T15:38:41Z</time></trkpt><trkpt lat="42.5702965616209" lon="12.961932393898854"><ele>950.0</ele><time>2026-04-12T15:38:42Z</time></trkpt><trkpt lat="42.57015171513057" lon="12.961955598772088"><ele>951.0</ele><time>2026-04-12T15:38:43Z</time></trkpt><trkpt lat="42.570012781302744" lon="12.961974295416518"><ele>952.0</ele><time>2026-04-12T15:38:44Z</time></trkpt><trkpt lat="42.569880709131" lon="12.9619937527494"><ele>953.0</ele><time>2026-04-12T15:38:45Z</time></trkpt><trkpt lat="42.569741001362765" lon="12.962019330289102"><ele>954.0</ele><time>2026-04-12T15:38:46Z</time></trkpt><trkpt lat="42.56959593837916" lon="12.96204909154731"><ele>954.5</ele><time>2026-04-12T15:38:47Z</time></trkpt><trkpt lat="42.56944970379028" lon="12.962049656481497"><ele>955.0</ele><time>2026-04-12T15:38:48Z</time></trkpt><trkpt lat="42.56930776259302" lon="12.962069415445757"><ele>955.5</ele><time>2026-04-12T15:38:49Z</time></trkpt><trkpt lat="42.56915854692501" lon="12.962108580040816"><ele>956.0</ele><time>2026-04-12T15:38:50Z</time></trkpt><trkpt lat="42.569000057181746" lon="12.962113022082512"><ele>956.0</ele><time>2026-04-12T15:38:51Z</time></trkpt><trkpt lat="42.56884154566356" lon="12.962125187007567"><ele>956.0</ele><time>2026-04-12T15:38:52Z</time></trkpt><trkpt lat="42.56867931404377" lon="12.96214967851572"><ele>956.0</ele><time>2026-04-12T15:38:53Z</time></trkpt><trkpt lat="42.56851622045847" lon="12.962172840182964"><ele>956.6666666666667</ele><time>2026-04-12T15:38:54Z</time></trkpt><trkpt lat="42.568350980116534" lon="12.962203286655047"><ele>957.3333333333333</ele><time>2026-04-12T15:38:55Z</time></trkpt><trkpt lat="42.56818912091731" lon="12.962231664104127"><ele>958.0</ele><time>2026-04-12T15:38:56Z</time></trkpt><trkpt lat="42.56803104118589" lon="12.96226286324177"><ele>958.0</ele><time>2026-04-12T15:38:57Z</time></trkpt><trkpt lat="42.56788092218178" lon="12.962280700580179"><ele>958.0</ele><time>2026-04-12T15:38:58Z</time></trkpt><trkpt lat="42.56772382532312" lon="12.962302073972609"><ele>958.0</ele><time>2026-04-12T15:38:59Z</time></trkpt><trkpt lat="42.56756629819386" lon="12.962324175933556"><ele>958.5</ele><time>2026-04-12T15:39:00Z</time></trkpt><trkpt lat="42.56741306217153" lon="12.962346304713696"><ele>959.0</ele><time>2026-04-12T15:39:01Z</time></trkpt><trkpt lat="42.567266104548985" lon="12.96236425782928"><ele>959.5</ele><time>2026-04-12T15:39:02Z</time></trkpt><trkpt lat="42.56712072761172" lon="12.962381332620613"><ele>960.0</ele><time>2026-04-12T15:39:03Z</time></trkpt><trkpt lat="42.56697282037572" lon="12.962405839390945"><ele>960.5</ele><time>2026-04-12T15:39:04Z</time></trkpt><trkpt lat="42.56683188431531" lon="12.96242476277265"><ele>961.0</ele><time>2026-04-12T15:39:05Z</time></trkpt><trkpt lat="42.56670709748629" lon="12.962440767055764"><ele>961.5</ele><time>2026-04-12T15:39:06Z</time></trkpt><trkpt lat="42.56659679235507" lon="12.962455472182851"><ele>962.0</ele><time>2026-04-12T15:39:07Z</time></trkpt><trkpt lat="42.56650276894846" lon="12.962473749953444"><ele>962.0000000000001</ele><time>2026-04-12T15:39:08Z</time></trkpt><trkpt lat="42.56641904416707" lon="12.962484129834953"><ele>962.0</ele><time>2026-04-12T15:39:09Z</time></trkpt><trkpt lat="42.56634334716065" lon="12.962493001256455"><ele>962.0</ele><time>2026-04-12T15:39:10Z</time></trkpt><trkpt lat="42.566268241978165" lon="12.962505323911651"><ele>962.0</ele><time>2026-04-12T15:39:11Z</time></trkpt><trkpt lat="42.56619833793463" lon="12.962515755779755"><ele>962.0000000000001</ele><time>2026-04-12T15:39:12Z</time></trkpt><trkpt lat="42.566134668089674" lon="12.962523032879703"><ele>962.0</ele><time>2026-04-12T15:39:13Z</time></trkpt><trkpt lat="42.5660103880679" lon="12.962543261159583"><ele>962.3333333333334</ele><time>2026-04-12T15:39:15Z</time></trkpt><trkpt lat="42.56593796206671" lon="12.96255110584797"><ele>962.6666666666667</ele><time>2026-04-12T15:39:16Z</time></trkpt><trkpt lat="42.5658639396236" lon="12.962567161494182"><ele>963.0</ele><time>2026-04-12T15:39:17Z</time></trkpt><trkpt lat="42.565789165961355" lon="12.962572913515004"><ele>963.3333333333333</ele><time>2026-04-12T15:39:18Z</time></trkpt><trkpt lat="42.5657229031477" lon="12.96257404401788"><ele>963.6666666666666</ele><time>2026-04-12T15:39:19Z</time></trkpt><trkpt lat="42.56562408694461" lon="12.962572145888911"><ele>964.0</ele><time>2026-04-12T15:39:21Z</time></trkpt><trkpt lat="42.56554397051428" lon="12.962578059408632"><ele>964.0</ele><time>2026-04-12T15:39:23Z</time></trkpt><trkpt lat="42.56548072079802" lon="12.962596104457116"><ele>964.0000000000001</ele><time>2026-04-12T15:39:25Z</time></trkpt><trkpt lat="42.56538713929262" lon="12.962647404801011"><ele>964.0000000000001</ele><time>2026-04-12T15:39:28Z</time></trkpt><trkpt lat="42.56531934807309" lon="12.962686674081235"><ele>964.0</ele><time>2026-04-12T15:39:30Z</time></trkpt><trkpt lat="42.56521252024832" lon="12.962711658573118"><ele>964.0</ele><time>2026-04-12T15:39:32Z</time></trkpt><trkpt lat="42.56510107046975" lon="12.962746714891695"><ele>965.1666666666666</ele><time>2026-04-12T15:39:34Z</time></trkpt><trkpt lat="42.56501632360094" lon="12.962746533459223"><ele>966.3333333333333</ele><time>2026-04-12T15:39:35Z</time></trkpt><trkpt lat="42.56494427915133" lon="12.96274165183545"><ele>967.5</ele><time>2026-04-12T15:39:36Z</time></trkpt><trkpt lat="42.564863810027454" lon="12.962744107257857"><ele>968.6666666666667</ele><time>2026-04-12T15:39:37Z</time></trkpt><trkpt lat="42.564786852358104" lon="12.962779355423825"><ele>969.8333333333334</ele><time>2026-04-12T15:39:38Z</time></trkpt><trkpt lat="42.564720575585454" lon="12.962794516181187"><ele>971.0</ele><time>2026-04-12T15:39:39Z</time></trkpt><trkpt lat="42.564657984925674" lon="12.962844500597734"><ele>971.0000000000001</ele><time>2026-04-12T15:39:40Z</time></trkpt><trkpt lat="42.56453754534613" lon="12.962875469208052"><ele>971.0</ele><time>2026-04-12T15:39:42Z</time></trkpt><trkpt lat="42.56446216005745" lon="12.962885658437935"><ele>971.0</ele><time>2026-04-12T15:39:43.001Z</time></trkpt><trkpt lat="42.56438306605901" lon="12.962901276880272"><ele>971.0</ele><time>2026-04-12T15:39:44.001Z</time></trkpt><trkpt lat="42.564303848277106" lon="12.962923186880545"><ele>971.0000000000001</ele><time>2026-04-12T15:39:45.001Z</time></trkpt><trkpt lat="42.56422643991402" lon="12.962946431528271"><ele>971.0</ele><time>2026-04-12T15:39:46.001Z</time></trkpt><trkpt lat="42.564153587196685" lon="12.96296744621352"><ele>971.2857142857143</ele><time>2026-04-12T15:39:47.001Z</time></trkpt><trkpt lat="42.56408975741121" lon="12.962999143874434"><ele>971.5714285714287</ele><time>2026-04-12T15:39:48.001Z</time></trkpt><trkpt lat="42.564020961271574" lon="12.963029901790243"><ele>971.8571428571429</ele><time>2026-04-12T15:39:49.001Z</time></trkpt><trkpt lat="42.563953442055954" lon="12.963040553006872"><ele>972.1428571428571</ele><time>2026-04-12T15:39:50.001Z</time></trkpt><trkpt lat="42.563885585372915" lon="12.96306117638915"><ele>972.4285714285714</ele><time>2026-04-12T15:39:51.001Z</time></trkpt><trkpt lat="42.563817148777716" lon="12.963087935745053"><ele>972.7142857142858</ele><time>2026-04-12T15:39:52.001Z</time></trkpt><trkpt lat="42.56374080358806" lon="12.963130954799466"><ele>973.0</ele><time>2026-04-12T15:39:53.001Z</time></trkpt><trkpt lat="42.56366924412399" lon="12.963159606390455"><ele>973.9999999999999</ele><time>2026-04-12T15:39:54.001Z</time></trkpt><trkpt lat="42.563599866101" lon="12.963187620932269"><ele>975.0</ele><time>2026-04-12T15:39:55.001Z</time></trkpt><trkpt lat="42.56352572668484" lon="12.963217558126718"><ele>976.0</ele><time>2026-04-12T15:39:56.001Z</time></trkpt><trkpt lat="42.56345379018289" lon="12.96324660578327"><ele>977.0</ele><time>2026-04-12T15:39:57.001Z</time></trkpt><trkpt lat="42.5633700779631" lon="12.963280408419235"><ele>977.9999999999999</ele><time>2026-04-12T15:39:58.001Z</time></trkpt><trkpt lat="42.563295572738326" lon="12.9633104933222"><ele>979.0</ele><time>2026-04-12T15:39:59.001Z</time></trkpt><trkpt lat="42.56323069886514" lon="12.963336689240718"><ele>978.8333333333333</ele><time>2026-04-12T15:40:00.001Z</time></trkpt><trkpt lat="42.563143599466116" lon="12.963375014837407"><ele>978.6666666666666</ele><time>2026-04-12T15:40:01.001Z</time></trkpt><trkpt lat="42.56302586993783" lon="12.963425524162965"><ele>978.5</ele><time>2026-04-12T15:40:03.001Z</time></trkpt><trkpt lat="42.56296479747132" lon="12.963451725993263"><ele>978.3333333333333</ele><time>2026-04-12T15:40:04.001Z</time></trkpt><trkpt lat="42.56290290863286" lon="12.963478299941977"><ele>978.1666666666666</ele><time>2026-04-12T15:40:05.001Z</time></trkpt><trkpt lat="42.562839503724824" lon="12.963525014756463"><ele>978.0</ele><time>2026-04-12T15:40:06.001Z</time></trkpt><trkpt lat="42.56276708946859" lon="12.963510826118107"><ele>978.2857142857143</ele><time>2026-04-12T15:40:07.001Z</time></trkpt><trkpt lat="42.56269939580723" lon="12.96352957998383"><ele>978.5714285714287</ele><time>2026-04-12T15:40:08.001Z</time></trkpt><trkpt lat="42.56262550089896" lon="12.963558813338148"><ele>978.8571428571429</ele><time>2026-04-12T15:40:09.001Z</time></trkpt><trkpt lat="42.56255653754303" lon="12.963590155957391"><ele>979.1428571428571</ele><time>2026-04-12T15:40:10.001Z</time></trkpt><trkpt lat="42.56248943750364" lon="12.963620159689343"><ele>979.4285714285714</ele><time>2026-04-12T15:40:11.001Z</time></trkpt><trkpt lat="42.56242584988732" lon="12.963659474061478"><ele>979.7142857142858</ele><time>2026-04-12T15:40:12.001Z</time></trkpt><trkpt lat="42.5623530817447" lon="12.963674746377496"><ele>980.0</ele><time>2026-04-12T15:40:13.001Z</time></trkpt><trkpt lat="42.56228238113952" lon="12.963686300808787"><ele>980.0000000000001</ele><time>2026-04-12T15:40:14.001Z</time></trkpt><trkpt lat="42.562219453144074" lon="12.963731741145525"><ele>980.0</ele><time>2026-04-12T15:40:15Z</time></trkpt><trkpt lat="42.56215139827344" lon="12.963732906422218"><ele>980.0</ele><time>2026-04-12T15:40:16Z</time></trkpt><trkpt lat="42.56209599860306" lon="12.963789545878202"><ele>980.0</ele><time>2026-04-12T15:40:17Z</time></trkpt><trkpt lat="42.561990127426604" lon="12.963852928866455"><ele>980.0000000000001</ele><time>2026-04-12T15:40:19Z</time></trkpt><trkpt lat="42.561896484899684" lon="12.963871857583827"><ele>980.0</ele><time>2026-04-12T15:40:21Z</time></trkpt><trkpt lat="42.56186814792917" lon="12.964046018291514"><ele>979.0</ele><time>2026-04-12T15:40:24Z</time></trkpt><trkpt lat="42.5618862923054" lon="12.964157291634"><ele>978.0</ele><time>2026-04-12T15:40:26Z</time></trkpt><trkpt lat="42.56187469078751" lon="12.964279133609843"><ele>977.0</ele><time>2026-04-12T15:40:28Z</time></trkpt><trkpt lat="42.56201526524632" lon="12.964375717899358"><ele>976.0</ele><time>2026-04-12T15:40:31Z</time></trkpt><trkpt lat="42.56211296228228" lon="12.964422239356423"><ele>975.0</ele><time>2026-04-12T15:40:33Z</time></trkpt><trkpt lat="42.56223172377043" lon="12.964442196982514"><ele>970.75</ele><time>2026-04-12T15:40:35Z</time></trkpt><trkpt lat="42.562327465316784" lon="12.964459908716332"><ele>966.5</ele><time>2026-04-12T15:40:36Z</time></trkpt><trkpt lat="42.56251797568042" lon="12.964486459840742"><ele>962.25</ele><time>2026-04-12T15:40:37Z</time></trkpt><trkpt lat="42.5626189355488" lon="12.964495548004244"><ele>958.0</ele><time>2026-04-12T15:40:38Z</time></trkpt><trkpt lat="42.562703484745384" lon="12.964489003634164"><ele>957.9999999999999</ele><time>2026-04-12T15:40:39Z</time></trkpt><trkpt lat="42.56280397383895" lon="12.964471497918325"><ele>958.0</ele><time>2026-04-12T15:40:40Z</time></trkpt><trkpt lat="42.562892999123164" lon="12.964465102270971"><ele>958.0</ele><time>2026-04-12T15:40:41Z</time></trkpt><trkpt lat="42.562959857319825" lon="12.964449999237997"><ele>958.0</ele><time>2026-04-12T15:40:42Z</time></trkpt><trkpt lat="42.56301918502754" lon="12.964419963350165"><ele>957.9999999999999</ele><time>2026-04-12T15:40:43Z</time></trkpt><trkpt lat="42.56309008840994" lon="12.964417305992129"><ele>958.0</ele><time>2026-04-12T15:40:44Z</time></trkpt><trkpt lat="42.563158576383906" lon="12.964400180093511"><ele>958.3333333333333</ele><time>2026-04-12T15:40:45Z</time></trkpt><trkpt lat="42.563224426581854" lon="12.964398786407259"><ele>958.6666666666666</ele><time>2026-04-12T15:40:46Z</time></trkpt><trkpt lat="42.56330301164295" lon="12.964373793072355"><ele>959.0</ele><time>2026-04-12T15:40:47Z</time></trkpt><trkpt lat="42.56338811151426" lon="12.964352861283682"><ele>959.3333333333333</ele><time>2026-04-12T15:40:48Z</time></trkpt><trkpt lat="42.56347460094291" lon="12.964323532487995"><ele>959.6666666666666</ele><time>2026-04-12T15:40:49Z</time></trkpt><trkpt lat="42.563549307826115" lon="12.964316050090332"><ele>960.0</ele><time>2026-04-12T15:40:50Z</time></trkpt><trkpt lat="42.56363398389259" lon="12.96431393340238"><ele>959.1666666666666</ele><time>2026-04-12T15:40:51Z</time></trkpt><trkpt lat="42.56372093382434" lon="12.964278388627482"><ele>958.3333333333333</ele><time>2026-04-12T15:40:52Z</time></trkpt><trkpt lat="42.56379433412848" lon="12.964266814749598"><ele>957.5</ele><time>2026-04-12T15:40:53Z</time></trkpt><trkpt lat="42.56387233856726" lon="12.964258090914688"><ele>956.6666666666666</ele><time>2026-04-12T15:40:54Z</time></trkpt><trkpt lat="42.56395968889774" lon="12.964239704084676"><ele>955.8333333333333</ele><time>2026-04-12T15:40:55Z</time></trkpt><trkpt lat="42.56406151487241" lon="12.964209982047288"><ele>955.0</ele><time>2026-04-12T15:40:56Z</time></trkpt><trkpt lat="42.56414255706196" lon="12.964175493992396"><ele>957.1666666666666</ele><time>2026-04-12T15:40:57Z</time></trkpt><trkpt lat="42.564222791870435" lon="12.96414789963967"><ele>959.3333333333333</ele><time>2026-04-12T15:40:58Z</time></trkpt><trkpt lat="42.564303379710154" lon="12.964120980159572"><ele>961.5</ele><time>2026-04-12T15:40:59Z</time></trkpt><trkpt lat="42.56437913909828" lon="12.964100852303472"><ele>963.6666666666667</ele><time>2026-04-12T15:41:00Z</time></trkpt><trkpt lat="42.564444981664195" lon="12.964076764461007"><ele>965.8333333333334</ele><time>2026-04-12T15:41:01Z</time></trkpt><trkpt lat="42.5645567086811" lon="12.964068305154628"><ele>968.0</ele><time>2026-04-12T15:41:03Z</time></trkpt><trkpt lat="42.564644163999006" lon="12.96407341354394"><ele>968.0000000000001</ele><time>2026-04-12T15:41:05Z</time></trkpt><trkpt lat="42.56469623516395" lon="12.964172527057247"><ele>968.0</ele><time>2026-04-12T15:41:07Z</time></trkpt><trkpt lat="42.56470872751138" lon="12.964270964689529"><ele>968.0</ele><time>2026-04-12T15:41:11Z</time></trkpt><trkpt lat="42.56468229829713" lon="12.964348583399856"><ele>968.0</ele><time>2026-04-12T15:42:48Z</time></trkpt><trkpt lat="42.564615025570966" lon="12.96439695441009"><ele>968.0000000000001</ele><time>2026-04-12T15:42:58Z</time></trkpt><trkpt lat="42.56449412489965" lon="12.964434668277466"><ele>968.0</ele><time>2026-04-12T15:43:00Z</time></trkpt><trkpt lat="42.56443126701702" lon="12.964473635704296"><ele>965.4</ele><time>2026-04-12T15:43:01Z</time></trkpt><trkpt lat="42.564373304673644" lon="12.964514028936234"><ele>962.8</ele><time>2026-04-12T15:43:02Z</time></trkpt><trkpt lat="42.56427218772463" lon="12.96458707016594"><ele>960.2</ele><time>2026-04-12T15:43:04Z</time></trkpt><trkpt lat="42.564173396353105" lon="12.964653413064704"><ele>957.6</ele><time>2026-04-12T15:43:06Z</time></trkpt><trkpt lat="42.56407129686595" lon="12.964722371591971"><ele>955.0</ele><time>2026-04-12T15:43:08Z</time></trkpt><trkpt lat="42.56396415018732" lon="12.964781132894727"><ele>955.0</ele><time>2026-04-12T15:43:10Z</time></trkpt><trkpt lat="42.56386691368273" lon="12.964851509462385"><ele>955.0</ele><time>2026-04-12T15:43:12Z</time></trkpt><trkpt lat="42.5637612169451" lon="12.96492219999961"><ele>955.0</ele><time>2026-04-12T15:43:14Z</time></trkpt><trkpt lat="42.563694452534186" lon="12.96495819617234"><ele>955.0</ele><time>2026-04-12T15:43:15.001Z</time></trkpt><trkpt lat="42.56361385358631" lon="12.964949233285646"><ele>955.0</ele><time>2026-04-12T15:43:16.001Z</time></trkpt><trkpt lat="42.56352803621001" lon="12.96496150713188"><ele>955.8333333333333</ele><time>2026-04-12T15:43:17.001Z</time></trkpt><trkpt lat="42.56344920583692" lon="12.964968296630856"><ele>956.6666666666666</ele><time>2026-04-12T15:43:18.001Z</time></trkpt><trkpt lat="42.563363780967066" lon="12.964974075150343"><ele>957.5</ele><time>2026-04-12T15:43:19.001Z</time></trkpt><trkpt lat="42.56327689363174" lon="12.9649777018839"><ele>958.3333333333333</ele><time>2026-04-12T15:43:20.001Z</time></trkpt><trkpt lat="42.56319421219019" lon="12.964981153061146"><ele>959.1666666666666</ele><time>2026-04-12T15:43:21.001Z</time></trkpt><trkpt lat="42.563111242131384" lon="12.964983061406194"><ele>960.0</ele><time>2026-04-12T15:43:22.001Z</time></trkpt><trkpt lat="42.56302224193961" lon="12.964984500330681"><ele>960.0</ele><time>2026-04-12T15:43:23.001Z</time></trkpt><trkpt lat="42.562938725025205" lon="12.964983580857012"><ele>960.0</ele><time>2026-04-12T15:43:24.001Z</time></trkpt><trkpt lat="42.562852319435706" lon="12.964982036876876"><ele>960.0</ele><time>2026-04-12T15:43:25.001Z</time></trkpt><trkpt lat="42.562758207102135" lon="12.964975458564519"><ele>960.0</ele><time>2026-04-12T15:43:26.001Z</time></trkpt><trkpt lat="42.5626710328658" lon="12.964968697988033"><ele>960.0</ele><time>2026-04-12T15:43:27.001Z</time></trkpt><trkpt lat="42.56258007411412" lon="12.964959928905072"><ele>960.0</ele><time>2026-04-12T15:43:28.001Z</time></trkpt><trkpt lat="42.5624776491414" lon="12.964948543534481"><ele>959.5</ele><time>2026-04-12T15:43:29.001Z</time></trkpt><trkpt lat="42.562366417404334" lon="12.964934758973277"><ele>959.0</ele><time>2026-04-12T15:43:30.001Z</time></trkpt><trkpt lat="42.56225531723632" lon="12.964916555260908"><ele>958.5</ele><time>2026-04-12T15:43:31.001Z</time></trkpt><trkpt lat="42.562130010885866" lon="12.964889595522221"><ele>958.0</ele><time>2026-04-12T15:43:32.001Z</time></trkpt><trkpt lat="42.56196796171681" lon="12.96484800344937"><ele>955.0</ele><time>2026-04-12T15:43:33.001Z</time></trkpt><trkpt lat="42.5618212711972" lon="12.964811210897643"><ele>952.0</ele><time>2026-04-12T15:43:34.001Z</time></trkpt><trkpt lat="42.561685991521905" lon="12.964783037019883"><ele>949.0</ele><time>2026-04-12T15:43:35.001Z</time></trkpt><trkpt lat="42.561554365443605" lon="12.964755895459096"><ele>946.0</ele><time>2026-04-12T15:43:36.001Z</time></trkpt><trkpt lat="42.56142753893625" lon="12.964729924244281"><ele>946.0</ele><time>2026-04-12T15:43:37.001Z</time></trkpt><trkpt lat="42.561302709960025" lon="12.96470870449886"><ele>946.0</ele><time>2026-04-12T15:43:38.001Z</time></trkpt><trkpt lat="42.56117580805478" lon="12.964726453558837"><ele>946.0</ele><time>2026-04-12T15:43:39.001Z</time></trkpt><trkpt lat="42.561036257133054" lon="12.964731664267251"><ele>946.0</ele><time>2026-04-12T15:43:40.001Z</time></trkpt><trkpt lat="42.56091210389067" lon="12.964748568181454"><ele>944.8</ele><time>2026-04-12T15:43:41.001Z</time></trkpt><trkpt lat="42.560794307139716" lon="12.964742083675992"><ele>943.5999999999999</ele><time>2026-04-12T15:43:42.001Z</time></trkpt><trkpt lat="42.560698203233144" lon="12.964761185212463"><ele>942.4</ele><time>2026-04-12T15:43:43.001Z</time></trkpt><trkpt lat="42.56061260255499" lon="12.964782548195526"><ele>941.2</ele><time>2026-04-12T15:43:44.001Z</time></trkpt><trkpt lat="42.560542583990646" lon="12.964809115311677"><ele>940.0</ele><time>2026-04-12T15:43:45.001Z</time></trkpt><trkpt lat="42.56047119233242" lon="12.964858823583812"><ele>939.9999999999999</ele><time>2026-04-12T15:43:46.001Z</time></trkpt><trkpt lat="42.5603967417441" lon="12.964932807023905"><ele>940.0</ele><time>2026-04-12T15:43:47.001Z</time></trkpt><trkpt lat="42.56033610345292" lon="12.965030458727355"><ele>940.0</ele><time>2026-04-12T15:43:48.001Z</time></trkpt><trkpt lat="42.56027970554645" lon="12.965107258977541"><ele>940.0</ele><time>2026-04-12T15:43:49.001Z</time></trkpt><trkpt lat="42.56023293189123" lon="12.96519298350082"><ele>939.9999999999999</ele><time>2026-04-12T15:43:50.001Z</time></trkpt><trkpt lat="42.560173186976314" lon="12.965246909750526"><ele>940.0</ele><time>2026-04-12T15:43:51.001Z</time></trkpt><trkpt lat="42.56012176997126" lon="12.965322096208101"><ele>938.6666666666666</ele><time>2026-04-12T15:43:53.001Z</time></trkpt><trkpt lat="42.56007889572843" lon="12.965385106162186"><ele>937.3333333333333</ele><time>2026-04-12T15:43:55.001Z</time></trkpt><trkpt lat="42.560036063496504" lon="12.965448054374054"><ele>936.0</ele><time>2026-04-12T15:43:57.001Z</time></trkpt><trkpt lat="42.55997090069676" lon="12.965545636692084"><ele>934.6666666666667</ele><time>2026-04-12T15:44:00.001Z</time></trkpt><trkpt lat="42.5599202153667" lon="12.965621601495847"><ele>933.3333333333334</ele><time>2026-04-12T15:44:02.001Z</time></trkpt><trkpt lat="42.5598574433253" lon="12.965715681285532"><ele>932.0</ele><time>2026-04-12T15:44:04.001Z</time></trkpt><trkpt lat="42.559815316408695" lon="12.965779418347488"><ele>932.0</ele><time>2026-04-12T15:44:05.001Z</time></trkpt><trkpt lat="42.559781110967414" lon="12.965859758096368"><ele>932.0</ele><time>2026-04-12T15:44:06.001Z</time></trkpt><trkpt lat="42.55972378010475" lon="12.965936650388144"><ele>932.0</ele><time>2026-04-12T15:44:07.001Z</time></trkpt><trkpt lat="42.55967141233161" lon="12.966023527504206"><ele>932.0</ele><time>2026-04-12T15:44:08.001Z</time></trkpt><trkpt lat="42.55959357348895" lon="12.96614740445156"><ele>932.0</ele><time>2026-04-12T15:44:10.001Z</time></trkpt><trkpt lat="42.559509377917585" lon="12.96624319101882"><ele>934.6</ele><time>2026-04-12T15:44:12.001Z</time></trkpt><trkpt lat="42.55944151674889" lon="12.966347458789617"><ele>937.2</ele><time>2026-04-12T15:44:14.001Z</time></trkpt><trkpt lat="42.55938039473289" lon="12.966468444240181"><ele>939.8</ele><time>2026-04-12T15:44:16.001Z</time></trkpt><trkpt lat="42.5593583439884" lon="12.966548642829135"><ele>942.4</ele><time>2026-04-12T15:44:17.001Z</time></trkpt><trkpt lat="42.559362839345866" lon="12.966723106402736"><ele>945.0</ele><time>2026-04-12T15:44:19.001Z</time></trkpt><trkpt lat="42.55936396634981" lon="12.966821907791559"><ele>944.6</ele><time>2026-04-12T15:44:20.001Z</time></trkpt><trkpt lat="42.55937370693933" lon="12.966939365290827"><ele>944.2</ele><time>2026-04-12T15:44:21.001Z</time></trkpt><trkpt lat="42.559402627450844" lon="12.967070574060632"><ele>943.8</ele><time>2026-04-12T15:44:22.001Z</time></trkpt><trkpt lat="42.55944899728055" lon="12.967200911269849"><ele>943.4</ele><time>2026-04-12T15:44:23.001Z</time></trkpt><trkpt lat="42.55950983996743" lon="12.967328276035825"><ele>943.0</ele><time>2026-04-12T15:44:24.001Z</time></trkpt><trkpt lat="42.55958053358528" lon="12.967451635654411"><ele>948.75</ele><time>2026-04-12T15:44:25.001Z</time></trkpt><trkpt lat="42.55965829590899" lon="12.967568877239277"><ele>954.5</ele><time>2026-04-12T15:44:26.001Z</time></trkpt><trkpt lat="42.559742052286786" lon="12.967685276019822"><ele>960.25</ele><time>2026-04-12T15:44:27.001Z</time></trkpt><trkpt lat="42.559832197070435" lon="12.967807425915932"><ele>966.0</ele><time>2026-04-12T15:44:28.001Z</time></trkpt><trkpt lat="42.55993549755829" lon="12.967922707320698"><ele>966.0</ele><time>2026-04-12T15:44:29.001Z</time></trkpt><trkpt lat="42.560037159678025" lon="12.96803351849563"><ele>966.0</ele><time>2026-04-12T15:44:30.001Z</time></trkpt><trkpt lat="42.56012788148511" lon="12.968120598408778"><ele>966.0</ele><time>2026-04-12T15:44:31.001Z</time></trkpt><trkpt lat="42.56021760246938" lon="12.968207614790392"><ele>966.0</ele><time>2026-04-12T15:44:32.001Z</time></trkpt><trkpt lat="42.56029825691671" lon="12.968293780530605"><ele>966.8</ele><time>2026-04-12T15:44:33.001Z</time></trkpt><trkpt lat="42.56037817582771" lon="12.968379779110174"><ele>967.5999999999999</ele><time>2026-04-12T15:44:34.001Z</time></trkpt><trkpt lat="42.56045978848977" lon="12.968451728867917"><ele>968.4</ele><time>2026-04-12T15:44:35.001Z</time></trkpt><trkpt lat="42.56054567165006" lon="12.968523995110719"><ele>969.2</ele><time>2026-04-12T15:44:36.001Z</time></trkpt><trkpt lat="42.56064173743679" lon="12.96857371354348"><ele>970.0</ele><time>2026-04-12T15:44:37.001Z</time></trkpt><trkpt lat="42.560751372133716" lon="12.968622938136503"><ele>970.0</ele><time>2026-04-12T15:44:38Z</time></trkpt><trkpt lat="42.56085991108606" lon="12.968658338847378"><ele>970.0</ele><time>2026-04-12T15:44:39Z</time></trkpt><trkpt lat="42.56099267857707" lon="12.968648443246538"><ele>970.0</ele><time>2026-04-12T15:44:40Z</time></trkpt><trkpt lat="42.56112274032819" lon="12.968625253862072"><ele>970.0</ele><time>2026-04-12T15:44:41Z</time></trkpt><trkpt lat="42.561253458628464" lon="12.968610752967052"><ele>969.75</ele><time>2026-04-12T15:44:42Z</time></trkpt><trkpt lat="42.56138544540845" lon="12.968610333114595"><ele>969.5</ele><time>2026-04-12T15:44:43Z</time></trkpt><trkpt lat="42.56152843526007" lon="12.968625935400272"><ele>969.25</ele><time>2026-04-12T15:44:44Z</time></trkpt><trkpt lat="42.56165581183338" lon="12.968613049329187"><ele>969.0</ele><time>2026-04-12T15:44:45Z</time></trkpt><trkpt lat="42.561808660668675" lon="12.968617263138908"><ele>969.0</ele><time>2026-04-12T15:44:46Z</time></trkpt><trkpt lat="42.561966508586714" lon="12.968623087728183"><ele>969.0</ele><time>2026-04-12T15:44:47Z</time></trkpt><trkpt lat="42.562113898307736" lon="12.968621018418046"><ele>969.0</ele><time>2026-04-12T15:44:48Z</time></trkpt><trkpt lat="42.562276774412794" lon="12.968635650031413"><ele>969.0</ele><time>2026-04-12T15:44:49Z</time></trkpt><trkpt lat="42.56243120133333" lon="12.968668021700944"><ele>969.0</ele><time>2026-04-12T15:44:50Z</time></trkpt><trkpt lat="42.56257434801166" lon="12.9686985481348"><ele>969.0</ele><time>2026-04-12T15:44:51Z</time></trkpt><trkpt lat="42.5627027955081" lon="12.96872627523582"><ele>969.0</ele><time>2026-04-12T15:44:52Z</time></trkpt><trkpt lat="42.562819764727514" lon="12.968759213691902"><ele>967.0</ele><time>2026-04-12T15:44:53Z</time></trkpt><trkpt lat="42.56293367693589" lon="12.968791787156752"><ele>965.0</ele><time>2026-04-12T15:44:54Z</time></trkpt><trkpt lat="42.563044008978636" lon="12.968824904250662"><ele>963.0</ele><time>2026-04-12T15:44:55Z</time></trkpt><trkpt lat="42.56315698930431" lon="12.96886450903478"><ele>961.0</ele><time>2026-04-12T15:44:56Z</time></trkpt><trkpt lat="42.56327625919715" lon="12.968921401828936"><ele>961.0</ele><time>2026-04-12T15:44:57Z</time></trkpt><trkpt lat="42.56340444099497" lon="12.968977161772582"><ele>961.0</ele><time>2026-04-12T15:44:58Z</time></trkpt><trkpt lat="42.56353298353674" lon="12.969037324031419"><ele>961.0</ele><time>2026-04-12T15:44:59Z</time></trkpt><trkpt lat="42.563647757634854" lon="12.969101283939453"><ele>961.0</ele><time>2026-04-12T15:45:00Z</time></trkpt><trkpt lat="42.56378412500345" lon="12.969181275055186"><ele>962.75</ele><time>2026-04-12T15:45:01Z</time></trkpt><trkpt lat="42.563920674341084" lon="12.969239422212949"><ele>964.5</ele><time>2026-04-12T15:45:02Z</time></trkpt><trkpt lat="42.56408043456099" lon="12.969312777101766"><ele>966.25</ele><time>2026-04-12T15:45:03Z</time></trkpt><trkpt lat="42.56418975554276" lon="12.96938118270165"><ele>968.0</ele><time>2026-04-12T15:45:04Z</time></trkpt><trkpt lat="42.56431490071527" lon="12.969467169948004"><ele>968.0</ele><time>2026-04-12T15:45:05Z</time></trkpt><trkpt lat="42.5644342772406" lon="12.96956529403665"><ele>968.0</ele><time>2026-04-12T15:45:06Z</time></trkpt><trkpt lat="42.564547543633914" lon="12.969657336575537"><ele>968.0</ele><time>2026-04-12T15:45:07Z</time></trkpt><trkpt lat="42.56465191695069" lon="12.969746769152836"><ele>968.0</ele><time>2026-04-12T15:45:08Z</time></trkpt><trkpt lat="42.56477119994238" lon="12.969830069662667"><ele>967.0</ele><time>2026-04-12T15:45:09Z</time></trkpt><trkpt lat="42.56488165219553" lon="12.96990531331383"><ele>966.0</ele><time>2026-04-12T15:45:10Z</time></trkpt><trkpt lat="42.564968307493686" lon="12.96999021621056"><ele>965.0</ele><time>2026-04-12T15:45:11Z</time></trkpt><trkpt lat="42.565044364754286" lon="12.970058279808073"><ele>964.0</ele><time>2026-04-12T15:45:12Z</time></trkpt><trkpt lat="42.5651006296968" lon="12.970120327846901"><ele>963.0</ele><time>2026-04-12T15:45:13Z</time></trkpt><trkpt lat="42.56518997144595" lon="12.970225092656936"><ele>963.0</ele><time>2026-04-12T15:45:15Z</time></trkpt><trkpt lat="42.56529119697276" lon="12.970348133059531"><ele>963.0</ele><time>2026-04-12T15:45:17Z</time></trkpt><trkpt lat="42.56535973636175" lon="12.9704474095038"><ele>963.0</ele><time>2026-04-12T15:45:19Z</time></trkpt><trkpt lat="42.56538039023661" lon="12.970561603695229"><ele>963.0</ele><time>2026-04-12T15:45:22Z</time></trkpt><trkpt lat="42.56543497681799" lon="12.97064762629877"><ele>963.0</ele><time>2026-04-12T15:45:25Z</time></trkpt><trkpt lat="42.565405539772286" lon="12.970548579031114"><ele>963.0</ele><time>2026-04-12T15:45:29Z</time></trkpt><trkpt lat="42.565408160222326" lon="12.970462257695125"><ele>963.0</ele><time>2026-04-12T15:45:31Z</time></trkpt><trkpt lat="42.565333890297396" lon="12.970344796494285"><ele>963.0</ele><time>2026-04-12T15:45:33Z</time></trkpt><trkpt lat="42.56527540497584" lon="12.970265058547042"><ele>963.0</ele><time>2026-04-12T15:45:34Z</time></trkpt><trkpt lat="42.56520730262967" lon="12.970183192088768"><ele>963.0</ele><time>2026-04-12T15:45:35Z</time></trkpt><trkpt lat="42.56513243804113" lon="12.970097786083574"><ele>963.0</ele><time>2026-04-12T15:45:36Z</time></trkpt><trkpt lat="42.56504272101292" lon="12.970006079183392"><ele>961.25</ele><time>2026-04-12T15:45:37Z</time></trkpt><trkpt lat="42.56494661684316" lon="12.969915474614638"><ele>959.5</ele><time>2026-04-12T15:45:38Z</time></trkpt><trkpt lat="42.564845605432744" lon="12.96983192603278"><ele>957.75</ele><time>2026-04-12T15:45:39Z</time></trkpt><trkpt lat="42.56474539047488" lon="12.969754923540421"><ele>956.0</ele><time>2026-04-12T15:45:40Z</time></trkpt><trkpt lat="42.5646403420385" lon="12.969676980294455"><ele>956.0</ele><time>2026-04-12T15:45:41Z</time></trkpt><trkpt lat="42.56453766227405" lon="12.969590790448404"><ele>956.0</ele><time>2026-04-12T15:45:42Z</time></trkpt><trkpt lat="42.564434249425275" lon="12.969499954738428"><ele>956.0</ele><time>2026-04-12T15:45:43.001Z</time></trkpt><trkpt lat="42.564323341969356" lon="12.969419190706686"><ele>956.0</ele><time>2026-04-12T15:45:44.001Z</time></trkpt><trkpt lat="42.56421493176686" lon="12.969335549605656"><ele>954.75</ele><time>2026-04-12T15:45:45.001Z</time></trkpt><trkpt lat="42.564090722386126" lon="12.9692653955148"><ele>953.5</ele><time>2026-04-12T15:45:46.001Z</time></trkpt><trkpt lat="42.5639649460299" lon="12.969195263072589"><ele>952.25</ele><time>2026-04-12T15:45:47.001Z</time></trkpt><trkpt lat="42.56382860714697" lon="12.969125508368629"><ele>951.0</ele><time>2026-04-12T15:45:48.001Z</time></trkpt><trkpt lat="42.56369640142615" lon="12.969038160010115"><ele>954.3333333333333</ele><time>2026-04-12T15:45:49.001Z</time></trkpt><trkpt lat="42.563556701302865" lon="12.96896581393712"><ele>957.6666666666666</ele><time>2026-04-12T15:45:50.001Z</time></trkpt><trkpt lat="42.563409607900645" lon="12.968895618529531"><ele>961.0</ele><time>2026-04-12T15:45:51.001Z</time></trkpt><trkpt lat="42.56325891209334" lon="12.968848842433156"><ele>961.0</ele><time>2026-04-12T15:45:52.001Z</time></trkpt><trkpt lat="42.56311354783513" lon="12.968789061173394"><ele>961.0</ele><time>2026-04-12T15:45:53.001Z</time></trkpt><trkpt lat="42.56296779185844" lon="12.968740620834451"><ele>961.0</ele><time>2026-04-12T15:45:54.001Z</time></trkpt><trkpt lat="42.562826519388466" lon="12.968706033120275"><ele>961.0</ele><time>2026-04-12T15:45:55.001Z</time></trkpt><trkpt lat="42.56268516043751" lon="12.968681426456003"><ele>963.0</ele><time>2026-04-12T15:45:56.001Z</time></trkpt><trkpt lat="42.56254158051582" lon="12.968648072664804"><ele>965.0</ele><time>2026-04-12T15:45:57.001Z</time></trkpt><trkpt lat="42.562402971226994" lon="12.968619407652094"><ele>967.0</ele><time>2026-04-12T15:45:58.001Z</time></trkpt><trkpt lat="42.56226135639038" lon="12.968602210383644"><ele>969.0</ele><time>2026-04-12T15:45:59.001Z</time></trkpt><trkpt lat="42.56211922446309" lon="12.968598223930096"><ele>969.0</ele><time>2026-04-12T15:46:00.001Z</time></trkpt><trkpt lat="42.56197806205384" lon="12.968571941575329"><ele>969.0</ele><time>2026-04-12T15:46:01.001Z</time></trkpt><trkpt lat="42.56183289610221" lon="12.968593561973647"><ele>969.0</ele><time>2026-04-12T15:46:02.001Z</time></trkpt><trkpt lat="42.56168778316735" lon="12.968594956642947"><ele>969.0</ele><time>2026-04-12T15:46:03.001Z</time></trkpt><trkpt lat="42.56154248122273" lon="12.968591703444005"><ele>969.0</ele><time>2026-04-12T15:46:04.001Z</time></trkpt><trkpt lat="42.56139923321269" lon="12.968588882071417"><ele>969.0</ele><time>2026-04-12T15:46:05.001Z</time></trkpt><trkpt lat="42.56125504409023" lon="12.968582811170045"><ele>969.0</ele><time>2026-04-12T15:46:06.001Z</time></trkpt><trkpt lat="42.56111657429682" lon="12.968583054798938"><ele>969.0</ele><time>2026-04-12T15:46:07.001Z</time></trkpt><trkpt lat="42.5609739284277" lon="12.968580712504316"><ele>969.25</ele><time>2026-04-12T15:46:08.001Z</time></trkpt><trkpt lat="42.56083849947239" lon="12.968587365904096"><ele>969.5</ele><time>2026-04-12T15:46:09.001Z</time></trkpt><trkpt lat="42.56070551037726" lon="12.968534301057788"><ele>969.75</ele><time>2026-04-12T15:46:10.001Z</time></trkpt><trkpt lat="42.560580254808116" lon="12.968470223369561"><ele>970.0</ele><time>2026-04-12T15:46:11.001Z</time></trkpt><trkpt lat="42.560461956611" lon="12.968379745258972"><ele>969.0</ele><time>2026-04-12T15:46:12.001Z</time></trkpt><trkpt lat="42.560348541589825" lon="12.968275387107068"><ele>968.0</ele><time>2026-04-12T15:46:13.001Z</time></trkpt><trkpt lat="42.5602446116728" lon="12.96817456496048"><ele>967.0</ele><time>2026-04-12T15:46:14.001Z</time></trkpt><trkpt lat="42.56012867304805" lon="12.968080807625459"><ele>966.0</ele><time>2026-04-12T15:46:15.001Z</time></trkpt><trkpt lat="42.56003884295405" lon="12.967962265185037"><ele>966.0</ele><time>2026-04-12T15:46:16.001Z</time></trkpt><trkpt lat="42.5599248708263" lon="12.96784290788967"><ele>966.0</ele><time>2026-04-12T15:46:17.001Z</time></trkpt><trkpt lat="42.559826163752675" lon="12.967737780983272"><ele>966.0</ele><time>2026-04-12T15:46:18.001Z</time></trkpt><trkpt lat="42.559732249018055" lon="12.967629503980884"><ele>966.0</ele><time>2026-04-12T15:46:19.001Z</time></trkpt><trkpt lat="42.55966118347137" lon="12.967518065098165"><ele>966.8</ele><time>2026-04-12T15:46:20.001Z</time></trkpt><trkpt lat="42.55959624348386" lon="12.967402375240699"><ele>967.5999999999999</ele><time>2026-04-12T15:46:21.001Z</time></trkpt><trkpt lat="42.55953298619666" lon="12.967289473911201"><ele>968.4</ele><time>2026-04-12T15:46:22.001Z</time></trkpt><trkpt lat="42.559485646031185" lon="12.967175038253666"><ele>969.2</ele><time>2026-04-12T15:46:23.001Z</time></trkpt><trkpt lat="42.559434456283796" lon="12.96706119859252"><ele>970.0</ele><time>2026-04-12T15:46:24.001Z</time></trkpt><trkpt lat="42.55939585639516" lon="12.966949768402765"><ele>970.0</ele><time>2026-04-12T15:46:25.001Z</time></trkpt><trkpt lat="42.55938759560239" lon="12.966837096504753"><ele>970.0</ele><time>2026-04-12T15:46:26.001Z</time></trkpt><trkpt lat="42.559368582521934" lon="12.966732172664553"><ele>970.0</ele><time>2026-04-12T15:46:27.001Z</time></trkpt><trkpt lat="42.55938332130738" lon="12.966630465422716"><ele>970.0</ele><time>2026-04-12T15:46:28.001Z</time></trkpt><trkpt lat="42.559384836306585" lon="12.966532898851675"><ele>970.0</ele><time>2026-04-12T15:46:29.001Z</time></trkpt><trkpt lat="42.559242077677595" lon="12.966461476862607"><ele>970.0</ele><time>2026-04-12T15:46:31.001Z</time></trkpt><trkpt lat="42.55917087917794" lon="12.966596511578054"><ele>970.0</ele><time>2026-04-12T15:46:33Z</time></trkpt><trkpt lat="42.55925518703145" lon="12.966707991884439"><ele>970.0</ele><time>2026-04-12T15:46:35Z</time></trkpt><trkpt lat="42.55931549975826" lon="12.966775551102764"><ele>970.0</ele><time>2026-04-12T15:46:36Z</time></trkpt><trkpt lat="42.5593691245039" lon="12.966899286880986"><ele>970.0</ele><time>2026-04-12T15:46:37Z</time></trkpt><trkpt lat="42.55941007000401" lon="12.967045913915882"><ele>970.0</ele><time>2026-04-12T15:46:38Z</time></trkpt><trkpt lat="42.55945203972623" lon="12.967190312555543"><ele>970.0</ele><time>2026-04-12T15:46:39Z</time></trkpt><trkpt lat="42.559507930145756" lon="12.9673306111233"><ele>970.0</ele><time>2026-04-12T15:46:40Z</time></trkpt><trkpt lat="42.55958489953674" lon="12.967460707116091"><ele>970.0</ele><time>2026-04-12T15:46:41Z</time></trkpt><trkpt lat="42.5596695246163" lon="12.967590278354091"><ele>969.0</ele><time>2026-04-12T15:46:42Z</time></trkpt><trkpt lat="42.55976120026027" lon="12.967716320339013"><ele>968.0</ele><time>2026-04-12T15:46:43Z</time></trkpt><trkpt lat="42.55986250746953" lon="12.967828806780306"><ele>967.0</ele><time>2026-04-12T15:46:44Z</time></trkpt><trkpt lat="42.55995906447437" lon="12.967934830822436"><ele>966.0</ele><time>2026-04-12T15:46:45Z</time></trkpt><trkpt lat="42.56005037605825" lon="12.968025179603542"><ele>966.0</ele><time>2026-04-12T15:46:46Z</time></trkpt><trkpt lat="42.56013087177613" lon="12.968127759942066"><ele>965.9999999999999</ele><time>2026-04-12T15:46:47Z</time></trkpt><trkpt lat="42.56021847875383" lon="12.96821247575084"><ele>965.9999999999999</ele><time>2026-04-12T15:46:48Z</time></trkpt><trkpt lat="42.560309731694744" lon="12.968305877153739"><ele>966.0</ele><time>2026-04-12T15:46:49Z</time></trkpt><trkpt lat="42.56040576167752" lon="12.968388233865143"><ele>966.0</ele><time>2026-04-12T15:46:50Z</time></trkpt><trkpt lat="42.56049521513861" lon="12.968463948695533"><ele>966.8</ele><time>2026-04-12T15:46:51Z</time></trkpt><trkpt lat="42.560588939960766" lon="12.968544435003471"><ele>967.5999999999999</ele><time>2026-04-12T15:46:52Z</time></trkpt><trkpt lat="42.56066953007408" lon="12.968612581710643"><ele>968.4</ele><time>2026-04-12T15:46:53Z</time></trkpt><trkpt lat="42.56073647268991" lon="12.968661392345949"><ele>969.2</ele><time>2026-04-12T15:46:54Z</time></trkpt><trkpt lat="42.560816781030994" lon="12.968702557367799"><ele>970.0</ele><time>2026-04-12T15:46:55Z</time></trkpt><trkpt lat="42.560913078909465" lon="12.968735052051116"><ele>970.0</ele><time>2026-04-12T15:46:56Z</time></trkpt><trkpt lat="42.56103399202233" lon="12.968773865405382"><ele>970.0</ele><time>2026-04-12T15:46:57Z</time></trkpt><trkpt lat="42.56111369893488" lon="12.968776132178329"><ele>970.0</ele><time>2026-04-12T15:46:58Z</time></trkpt><trkpt lat="42.561201608660134" lon="12.968770143697487"><ele>970.0</ele><time>2026-04-12T15:46:59Z</time></trkpt><trkpt lat="42.56129279252637" lon="12.968763819612471"><ele>970.0</ele><time>2026-04-12T15:47:00Z</time></trkpt><trkpt lat="42.56137126566485" lon="12.968760808985726"><ele>969.8333333333333</ele><time>2026-04-12T15:47:01Z</time></trkpt><trkpt lat="42.561442463429245" lon="12.968793100289046"><ele>969.6666666666666</ele><time>2026-04-12T15:47:02Z</time></trkpt><trkpt lat="42.56151681711364" lon="12.968825998016422"><ele>969.5</ele><time>2026-04-12T15:47:03Z</time></trkpt><trkpt lat="42.561594043319715" lon="12.968902984419906"><ele>969.3333333333333</ele><time>2026-04-12T15:47:04Z</time></trkpt><trkpt lat="42.561680990062165" lon="12.96894067037006"><ele>969.1666666666666</ele><time>2026-04-12T15:47:05Z</time></trkpt><trkpt lat="42.5617612447002" lon="12.968986043730187"><ele>969.0</ele><time>2026-04-12T15:47:06Z</time></trkpt><trkpt lat="42.561838016264616" lon="12.969035778972255"><ele>969.0</ele><time>2026-04-12T15:47:07Z</time></trkpt><trkpt lat="42.56189982540379" lon="12.969099576575191"><ele>969.0</ele><time>2026-04-12T15:47:08Z</time></trkpt><trkpt lat="42.5619433099412" lon="12.969165766728011"><ele>969.0</ele><time>2026-04-12T15:47:09Z</time></trkpt><trkpt lat="42.56196623741082" lon="12.9692622511531"><ele>969.0</ele><time>2026-04-12T15:47:10Z</time></trkpt><trkpt lat="42.56198627138687" lon="12.969363511481095"><ele>969.0</ele><time>2026-04-12T15:47:11Z</time></trkpt><trkpt lat="42.56200267364083" lon="12.96945180827587"><ele>969.0</ele><time>2026-04-12T15:47:12Z</time></trkpt><trkpt lat="42.562026848855396" lon="12.969577205539288"><ele>969.5</ele><time>2026-04-12T15:47:14Z</time></trkpt><trkpt lat="42.56204240831187" lon="12.969696047444764"><ele>970.0</ele><time>2026-04-12T15:47:16Z</time></trkpt><trkpt lat="42.56198959149054" lon="12.96977042575125"><ele>970.5</ele><time>2026-04-12T15:47:17Z</time></trkpt><trkpt lat="42.561929717775264" lon="12.969840889745246"><ele>971.0</ele><time>2026-04-12T15:47:18Z</time></trkpt><trkpt lat="42.561850701359226" lon="12.96990274268309"><ele>971.5</ele><time>2026-04-12T15:47:19Z</time></trkpt><trkpt lat="42.56179888905828" lon="12.969982944413891"><ele>972.0</ele><time>2026-04-12T15:47:20Z</time></trkpt><trkpt lat="42.561749685911394" lon="12.970073043191045"><ele>972.6</ele><time>2026-04-12T15:47:21Z</time></trkpt><trkpt lat="42.56172512737749" lon="12.97019549883159"><ele>973.2</ele><time>2026-04-12T15:47:22Z</time></trkpt><trkpt lat="42.561699703511124" lon="12.970336541971541"><ele>973.8</ele><time>2026-04-12T15:47:23Z</time></trkpt><trkpt lat="42.56164706168823" lon="12.970446256836755"><ele>974.4</ele><time>2026-04-12T15:47:24Z</time></trkpt><trkpt lat="42.56159377068004" lon="12.970530658090315"><ele>975.0</ele><time>2026-04-12T15:47:25Z</time></trkpt><trkpt lat="42.56152785135009" lon="12.970619817226543"><ele>975.0</ele><time>2026-04-12T15:47:26Z</time></trkpt><trkpt lat="42.56147373069527" lon="12.970689629886293"><ele>975.0</ele><time>2026-04-12T15:47:27Z</time></trkpt><trkpt lat="42.56142957883818" lon="12.9707691768909"><ele>975.0</ele><time>2026-04-12T15:47:28Z</time></trkpt><trkpt lat="42.561361461109506" lon="12.970839120721823"><ele>975.0</ele><time>2026-04-12T15:47:29Z</time></trkpt><trkpt lat="42.5612986545574" lon="12.97090651767897"><ele>975.0</ele><time>2026-04-12T15:47:30Z</time></trkpt><trkpt lat="42.56123012946285" lon="12.970983226065789"><ele>975.0</ele><time>2026-04-12T15:47:31Z</time></trkpt><trkpt lat="42.56113460806141" lon="12.971106498389545"><ele>974.8333333333334</ele><time>2026-04-12T15:47:33Z</time></trkpt><trkpt lat="42.56107754699387" lon="12.971175037960137"><ele>974.6666666666667</ele><time>2026-04-12T15:47:34Z</time></trkpt><trkpt lat="42.561005460360676" lon="12.971235929115483"><ele>974.5</ele><time>2026-04-12T15:47:35Z</time></trkpt><trkpt lat="42.560946681721695" lon="12.9713245100043"><ele>974.3333333333334</ele><time>2026-04-12T15:47:36Z</time></trkpt><trkpt lat="42.56088006167032" lon="12.971396538670206"><ele>974.1666666666667</ele><time>2026-04-12T15:47:37Z</time></trkpt><trkpt lat="42.56081698627235" lon="12.971450907283405"><ele>974.0</ele><time>2026-04-12T15:47:38Z</time></trkpt><trkpt lat="42.56070643238543" lon="12.9715500834484"><ele>974.0</ele><time>2026-04-12T15:47:40Z</time></trkpt><trkpt lat="42.56064563988719" lon="12.971603304725853"><ele>974.0</ele><time>2026-04-12T15:47:41Z</time></trkpt><trkpt lat="42.56058878284554" lon="12.97165142520307"><ele>974.0</ele><time>2026-04-12T15:47:42Z</time></trkpt><trkpt lat="42.560521455609354" lon="12.971688634306169"><ele>974.0</ele><time>2026-04-12T15:47:43Z</time></trkpt><trkpt lat="42.56045730610587" lon="12.971742395980405"><ele>974.0</ele><time>2026-04-12T15:47:44Z</time></trkpt><trkpt lat="42.56040750915364" lon="12.97180939812318"><ele>974.0</ele><time>2026-04-12T15:47:45Z</time></trkpt><trkpt lat="42.56034037847805" lon="12.971842213211247"><ele>974.0</ele><time>2026-04-12T15:47:46Z</time></trkpt><trkpt lat="42.560251958536455" lon="12.971935689342244"><ele>973.1666666666667</ele><time>2026-04-12T15:47:48Z</time></trkpt><trkpt lat="42.56015728774151" lon="12.972021314928758"><ele>972.3333333333334</ele><time>2026-04-12T15:47:50Z</time></trkpt><trkpt lat="42.56009755231629" lon="12.972063531975074"><ele>971.5</ele><time>2026-04-12T15:47:51Z</time></trkpt><trkpt lat="42.560026246402785" lon="12.972099078129267"><ele>970.6666666666667</ele><time>2026-04-12T15:47:52Z</time></trkpt><trkpt lat="42.55997251799383" lon="12.97216887252018"><ele>969.8333333333334</ele><time>2026-04-12T15:47:53Z</time></trkpt><trkpt lat="42.55991602453311" lon="12.97222631126014"><ele>969.0</ele><time>2026-04-12T15:47:54Z</time></trkpt><trkpt lat="42.55988708253689" lon="12.972316168078535"><ele>969.0</ele><time>2026-04-12T15:47:55Z</time></trkpt><trkpt lat="42.559888121681894" lon="12.972417237956503"><ele>969.0</ele><time>2026-04-12T15:47:56Z</time></trkpt><trkpt lat="42.55988087427332" lon="12.972522409799744"><ele>969.0</ele><time>2026-04-12T15:47:57Z</time></trkpt><trkpt lat="42.55984361458287" lon="12.972641538638673"><ele>969.0</ele><time>2026-04-12T15:47:58Z</time></trkpt><trkpt lat="42.55977255274421" lon="12.972714444413416"><ele>969.0</ele><time>2026-04-12T15:47:59Z</time></trkpt><trkpt lat="42.55968562647794" lon="12.972719907775899"><ele>969.0</ele><time>2026-04-12T15:48:00Z</time></trkpt><trkpt lat="42.55961024379167" lon="12.972804263320837"><ele>968.2</ele><time>2026-04-12T15:48:01Z</time></trkpt><trkpt lat="42.559627821758504" lon="12.973025715297965"><ele>967.4000000000001</ele><time>2026-04-12T15:48:02Z</time></trkpt><trkpt lat="42.5595555838969" lon="12.973093203651995"><ele>966.6</ele><time>2026-04-12T15:48:03Z</time></trkpt><trkpt lat="42.55948048191047" lon="12.973176471671698"><ele>965.8</ele><time>2026-04-12T15:48:04Z</time></trkpt><trkpt lat="42.55940436405668" lon="12.973248302969706"><ele>965.0</ele><time>2026-04-12T15:48:05Z</time></trkpt><trkpt lat="42.55933448896061" lon="12.97331556706462"><ele>965.0000000000001</ele><time>2026-04-12T15:48:06Z</time></trkpt><trkpt lat="42.5592764344069" lon="12.973393105794191"><ele>965.0</ele><time>2026-04-12T15:48:07Z</time></trkpt><trkpt lat="42.55923016364256" lon="12.973499684215824"><ele>965.0</ele><time>2026-04-12T15:48:08Z</time></trkpt><trkpt lat="42.559197923638806" lon="12.973630027431385"><ele>965.0</ele><time>2026-04-12T15:48:09Z</time></trkpt><trkpt lat="42.559187362222836" lon="12.973751044022224"><ele>965.0000000000001</ele><time>2026-04-12T15:48:10Z</time></trkpt><trkpt lat="42.55920778862553" lon="12.973858422752333"><ele>965.0</ele><time>2026-04-12T15:48:11Z</time></trkpt><trkpt lat="42.55922640681588" lon="12.973973594277318"><ele>965.0000000000001</ele><time>2026-04-12T15:48:12Z</time></trkpt><trkpt lat="42.55925271253396" lon="12.974066566667322"><ele>965.0</ele><time>2026-04-12T15:48:13Z</time></trkpt><trkpt lat="42.55928904765199" lon="12.974162997018523"><ele>965.0</ele><time>2026-04-12T15:48:14Z</time></trkpt><trkpt lat="42.55928960937189" lon="12.974265528331017"><ele>965.0</ele><time>2026-04-12T15:48:15Z</time></trkpt><trkpt lat="42.5592783161599" lon="12.974388625008448"><ele>965.0000000000001</ele><time>2026-04-12T15:48:16Z</time></trkpt><trkpt lat="42.55925913126548" lon="12.974497103622975"><ele>965.0</ele><time>2026-04-12T15:48:17Z</time></trkpt><trkpt lat="42.5592370365424" lon="12.974629392406019"><ele>964.6</ele><time>2026-04-12T15:48:18Z</time></trkpt><trkpt lat="42.55922566698643" lon="12.974723082814926"><ele>964.2</ele><time>2026-04-12T15:48:19Z</time></trkpt><trkpt lat="42.55922262101664" lon="12.974837480883776"><ele>963.8</ele><time>2026-04-12T15:48:20Z</time></trkpt><trkpt lat="42.559223569102414" lon="12.974956633532923"><ele>963.4</ele><time>2026-04-12T15:48:21Z</time></trkpt><trkpt lat="42.559216372885224" lon="12.97514573122633"><ele>963.0</ele><time>2026-04-12T15:48:23Z</time></trkpt><trkpt lat="42.55920410156075" lon="12.975243904052368"><ele>962.5714285714287</ele><time>2026-04-12T15:48:24Z</time></trkpt><trkpt lat="42.55918603517734" lon="12.975329972590908"><ele>962.1428571428571</ele><time>2026-04-12T15:48:25Z</time></trkpt><trkpt lat="42.55915478728637" lon="12.975415558197573"><ele>961.7142857142858</ele><time>2026-04-12T15:48:26Z</time></trkpt><trkpt lat="42.559136837194096" lon="12.97551083314942"><ele>961.2857142857143</ele><time>2026-04-12T15:48:27Z</time></trkpt><trkpt lat="42.559108730891786" lon="12.975621043086642"><ele>960.8571428571429</ele><time>2026-04-12T15:48:28Z</time></trkpt><trkpt lat="42.55910126429373" lon="12.975728214642345"><ele>960.4285714285714</ele><time>2026-04-12T15:48:29Z</time></trkpt><trkpt lat="42.55910729307243" lon="12.97582683063423"><ele>960.0</ele><time>2026-04-12T15:48:30Z</time></trkpt><trkpt lat="42.559104359501596" lon="12.975935538020078"><ele>959.7142857142858</ele><time>2026-04-12T15:48:31Z</time></trkpt><trkpt lat="42.55910474183064" lon="12.976046470245548"><ele>959.4285714285713</ele><time>2026-04-12T15:48:32Z</time></trkpt><trkpt lat="42.55910599363775" lon="12.976159145760427"><ele>959.1428571428571</ele><time>2026-04-12T15:48:33Z</time></trkpt><trkpt lat="42.55910086926744" lon="12.97624555141576"><ele>958.8571428571429</ele><time>2026-04-12T15:48:34Z</time></trkpt><trkpt lat="42.55909279252372" lon="12.976341534857795"><ele>958.5714285714287</ele><time>2026-04-12T15:48:35Z</time></trkpt><trkpt lat="42.55907990214107" lon="12.976432352931328"><ele>958.2857142857142</ele><time>2026-04-12T15:48:36Z</time></trkpt><trkpt lat="42.55906355268666" lon="12.976533853858696"><ele>958.0</ele><time>2026-04-12T15:48:37Z</time></trkpt><trkpt lat="42.55904748332196" lon="12.976625541784506"><ele>957.75</ele><time>2026-04-12T15:48:38Z</time></trkpt><trkpt lat="42.5590161870404" lon="12.976773208306312"><ele>957.5</ele><time>2026-04-12T15:48:40Z</time></trkpt><trkpt lat="42.558959788103884" lon="12.976896328699455"><ele>957.25</ele><time>2026-04-12T15:48:42Z</time></trkpt><trkpt lat="42.558864810097496" lon="12.977015298915521"><ele>957.0</ele><time>2026-04-12T15:48:44Z</time></trkpt><trkpt lat="42.55880871118875" lon="12.977160800822274"><ele>957.0</ele><time>2026-04-12T15:48:46Z</time></trkpt><trkpt lat="42.558790405552976" lon="12.977317599647845"><ele>957.0</ele><time>2026-04-12T15:48:48Z</time></trkpt><trkpt lat="42.55875324797221" lon="12.977410396103311"><ele>957.0</ele><time>2026-04-12T15:48:49Z</time></trkpt><trkpt lat="42.55871525608626" lon="12.977486056326283"><ele>957.0</ele><time>2026-04-12T15:48:50Z</time></trkpt><trkpt lat="42.5586764121378" lon="12.977562263407764"><ele>957.0</ele><time>2026-04-12T15:48:51Z</time></trkpt><trkpt lat="42.55862937213926" lon="12.977627057253526"><ele>957.0</ele><time>2026-04-12T15:48:52Z</time></trkpt><trkpt lat="42.55858479330657" lon="12.977689933972933"><ele>955.8333333333334</ele><time>2026-04-12T15:48:53Z</time></trkpt><trkpt lat="42.558527524280315" lon="12.977819233163018"><ele>954.6666666666667</ele><time>2026-04-12T15:48:55Z</time></trkpt><trkpt lat="42.55848936185262" lon="12.977898127982366"><ele>953.5</ele><time>2026-04-12T15:48:56Z</time></trkpt><trkpt lat="42.55843667724508" lon="12.97795508442195"><ele>952.3333333333334</ele><time>2026-04-12T15:48:57Z</time></trkpt><trkpt lat="42.55838398686082" lon="12.978035942725842"><ele>951.1666666666667</ele><time>2026-04-12T15:48:58Z</time></trkpt><trkpt lat="42.55834019113059" lon="12.978123658511617"><ele>950.0</ele><time>2026-04-12T15:48:59Z</time></trkpt><trkpt lat="42.558298898861466" lon="12.978207934381492"><ele>950.0000000000001</ele><time>2026-04-12T15:49:00Z</time></trkpt><trkpt lat="42.55824316460787" lon="12.978296997665632"><ele>950.0</ele><time>2026-04-12T15:49:01Z</time></trkpt><trkpt lat="42.558187208290164" lon="12.978376407150925"><ele>950.0</ele><time>2026-04-12T15:49:02Z</time></trkpt><trkpt lat="42.558135955384316" lon="12.978458667460366"><ele>950.0</ele><time>2026-04-12T15:49:03Z</time></trkpt><trkpt lat="42.558082170164376" lon="12.978536077820703"><ele>950.0000000000001</ele><time>2026-04-12T15:49:04Z</time></trkpt><trkpt lat="42.55803395823521" lon="12.978619819849895"><ele>950.0</ele><time>2026-04-12T15:49:05Z</time></trkpt><trkpt lat="42.55797140586545" lon="12.97876364545753"><ele>950.1666666666667</ele><time>2026-04-12T15:49:07Z</time></trkpt><trkpt lat="42.55793911162298" lon="12.978853888636824"><ele>950.3333333333334</ele><time>2026-04-12T15:49:08Z</time></trkpt><trkpt lat="42.557899987822076" lon="12.978932620391939"><ele>950.5</ele><time>2026-04-12T15:49:09Z</time></trkpt><trkpt lat="42.55786050613579" lon="12.979023242239585"><ele>950.6666666666667</ele><time>2026-04-12T15:49:10Z</time></trkpt><trkpt lat="42.55778444037492" lon="12.979140573991131"><ele>950.8333333333334</ele><time>2026-04-12T15:49:12Z</time></trkpt><trkpt lat="42.5577276362659" lon="12.979209431898777"><ele>951.0</ele><time>2026-04-12T15:49:13Z</time></trkpt><trkpt lat="42.557641851837275" lon="12.979306159987143"><ele>949.8333333333334</ele><time>2026-04-12T15:49:15Z</time></trkpt><trkpt lat="42.55756598693612" lon="12.979416241542413"><ele>948.6666666666667</ele><time>2026-04-12T15:49:17Z</time></trkpt><trkpt lat="42.55749144187453" lon="12.97949513866708"><ele>947.5</ele><time>2026-04-12T15:49:19Z</time></trkpt><trkpt lat="42.55742758800722" lon="12.979570726157993"><ele>946.3333333333334</ele><time>2026-04-12T15:49:22Z</time></trkpt><trkpt lat="42.55736862080479" lon="12.979634007132681"><ele>945.1666666666667</ele><time>2026-04-12T15:49:25Z</time></trkpt><trkpt lat="42.55732314173133" lon="12.979698244348716"><ele>944.0</ele><time>2026-04-12T15:49:34Z</time></trkpt><trkpt lat="42.55726889905394" lon="12.979773667761963"><ele>944.0</ele><time>2026-04-12T15:49:36Z</time></trkpt><trkpt lat="42.5572052904368" lon="12.979789939910805"><ele>944.0000000000001</ele><time>2026-04-12T15:50:18Z</time></trkpt><trkpt lat="42.55713210127117" lon="12.97984330395284"><ele>944.0000000000001</ele><time>2026-04-12T15:50:22Z</time></trkpt><trkpt lat="42.557063309204125" lon="12.979917464257"><ele>944.0</ele><time>2026-04-12T15:50:24Z</time></trkpt><trkpt lat="42.5569549351446" lon="12.980018480102656"><ele>944.0</ele><time>2026-04-12T15:50:26Z</time></trkpt><trkpt lat="42.556848336622366" lon="12.98010457605906"><ele>943.4000000000001</ele><time>2026-04-12T15:50:28Z</time></trkpt><trkpt lat="42.55671558730715" lon="12.980190616769503"><ele>942.8000000000001</ele><time>2026-04-12T15:50:30Z</time></trkpt><trkpt lat="42.55664880858644" lon="12.980248338945321"><ele>942.1999999999999</ele><time>2026-04-12T15:50:31Z</time></trkpt><trkpt lat="42.556574541418875" lon="12.980331781999078"><ele>941.5999999999999</ele><time>2026-04-12T15:50:32Z</time></trkpt><trkpt lat="42.556508015598176" lon="12.980388191471715"><ele>941.0</ele><time>2026-04-12T15:50:33Z</time></trkpt><trkpt lat="42.55643523056258" lon="12.98046234571364"><ele>941.0</ele><time>2026-04-12T15:50:34Z</time></trkpt><trkpt lat="42.55637142283288" lon="12.980544973608387"><ele>940.9999999999999</ele><time>2026-04-12T15:50:35Z</time></trkpt><trkpt lat="42.55632172898" lon="12.980615169221753"><ele>940.9999999999999</ele><time>2026-04-12T15:50:36Z</time></trkpt><trkpt lat="42.55624070249831" lon="12.980751922029835"><ele>941.0</ele><time>2026-04-12T15:50:38Z</time></trkpt><trkpt lat="42.55619053894445" lon="12.980842034927766"><ele>941.0</ele><time>2026-04-12T15:50:39Z</time></trkpt><trkpt lat="42.55613333892321" lon="12.980932360248966"><ele>941.5999999999999</ele><time>2026-04-12T15:50:40.001Z</time></trkpt><trkpt lat="42.55608034306118" lon="12.981026173161382"><ele>942.1999999999999</ele><time>2026-04-12T15:50:41.001Z</time></trkpt><trkpt lat="42.55602224537133" lon="12.981133278871079"><ele>942.8000000000001</ele><time>2026-04-12T15:50:42.001Z</time></trkpt><trkpt lat="42.555966175886525" lon="12.981228775585459"><ele>943.4000000000001</ele><time>2026-04-12T15:50:43.001Z</time></trkpt><trkpt lat="42.555920414960624" lon="12.981335470083758"><ele>944.0</ele><time>2026-04-12T15:50:44.001Z</time></trkpt><trkpt lat="42.55587472140449" lon="12.981433712282154"><ele>944.0000000000001</ele><time>2026-04-12T15:50:45Z</time></trkpt><trkpt lat="42.5558309496083" lon="12.981537637928918"><ele>944.0</ele><time>2026-04-12T15:50:46Z</time></trkpt><trkpt lat="42.55579773636337" lon="12.981630816458116"><ele>944.0</ele><time>2026-04-12T15:50:47Z</time></trkpt><trkpt lat="42.55577348922948" lon="12.981729966307297"><ele>944.0</ele><time>2026-04-12T15:50:48Z</time></trkpt><trkpt lat="42.555746039529836" lon="12.981834420206157"><ele>944.0000000000001</ele><time>2026-04-12T15:50:49Z</time></trkpt><trkpt lat="42.55573966199181" lon="12.981924146917631"><ele>944.0</ele><time>2026-04-12T15:50:50Z</time></trkpt><trkpt lat="42.555708059043575" lon="12.982017259993356"><ele>943.6666666666667</ele><time>2026-04-12T15:50:51Z</time></trkpt><trkpt lat="42.55567790482418" lon="12.982092807027923"><ele>943.3333333333334</ele><time>2026-04-12T15:50:52Z</time></trkpt><trkpt lat="42.555589625444306" lon="12.982142353188664"><ele>943.0</ele><time>2026-04-12T15:50:53Z</time></trkpt><trkpt lat="42.55553026599215" lon="12.982204544960032"><ele>942.6666666666667</ele><time>2026-04-12T15:50:54Z</time></trkpt><trkpt lat="42.55546695598903" lon="12.982252894567806"><ele>942.3333333333334</ele><time>2026-04-12T15:50:55Z</time></trkpt><trkpt lat="42.5554003920827" lon="12.982315464542896"><ele>942.0</ele><time>2026-04-12T15:50:56Z</time></trkpt><trkpt lat="42.55532744993592" lon="12.98234837443902"><ele>942.1428571428573</ele><time>2026-04-12T15:50:57Z</time></trkpt><trkpt lat="42.555262301569876" lon="12.982382888842846"><ele>942.2857142857143</ele><time>2026-04-12T15:50:58Z</time></trkpt><trkpt lat="42.55520517361555" lon="12.982438402057628"><ele>942.4285714285716</ele><time>2026-04-12T15:50:59Z</time></trkpt><trkpt lat="42.555138726736196" lon="12.98249178358907"><ele>942.5714285714287</ele><time>2026-04-12T15:51:00Z</time></trkpt><trkpt lat="42.55508035693944" lon="12.98253020972538"><ele>942.7142857142858</ele><time>2026-04-12T15:51:01Z</time></trkpt><trkpt lat="42.55501770894066" lon="12.98260252982707"><ele>942.8571428571429</ele><time>2026-04-12T15:51:02Z</time></trkpt><trkpt lat="42.55497664038937" lon="12.982678739139798"><ele>943.0</ele><time>2026-04-12T15:51:03Z</time></trkpt><trkpt lat="42.55494233982697" lon="12.9827692046685"><ele>942.9999999999999</ele><time>2026-04-12T15:51:04Z</time></trkpt><trkpt lat="42.55490202516837" lon="12.982851233684826"><ele>943.0</ele><time>2026-04-12T15:51:05Z</time></trkpt><trkpt lat="42.55485843450211" lon="12.982940640619995"><ele>943.0</ele><time>2026-04-12T15:51:06Z</time></trkpt><trkpt lat="42.55480909921892" lon="12.983024854885537"><ele>943.0</ele><time>2026-04-12T15:51:07Z</time></trkpt><trkpt lat="42.55476914659836" lon="12.983113356944452"><ele>942.9999999999999</ele><time>2026-04-12T15:51:08Z</time></trkpt><trkpt lat="42.55473198182063" lon="12.983206102451474"><ele>943.0</ele><time>2026-04-12T15:51:09Z</time></trkpt><trkpt lat="42.55469770333504" lon="12.983293751050144"><ele>941.8333333333333</ele><time>2026-04-12T15:51:10Z</time></trkpt><trkpt lat="42.55466680417949" lon="12.98338606097352"><ele>940.6666666666666</ele><time>2026-04-12T15:51:11Z</time></trkpt><trkpt lat="42.55463432246223" lon="12.983499935252189"><ele>939.5</ele><time>2026-04-12T15:51:12Z</time></trkpt><trkpt lat="42.55459378765196" lon="12.98360695704934"><ele>938.3333333333333</ele><time>2026-04-12T15:51:13Z</time></trkpt><trkpt lat="42.55456034801799" lon="12.983694934814654"><ele>937.1666666666666</ele><time>2026-04-12T15:51:14Z</time></trkpt><trkpt lat="42.55456407610648" lon="12.983806770085089"><ele>936.0</ele><time>2026-04-12T15:51:15Z</time></trkpt><trkpt lat="42.55451806984788" lon="12.983910371994686"><ele>938.5999999999999</ele><time>2026-04-12T15:51:16Z</time></trkpt><trkpt lat="42.554471123941696" lon="12.98399666385182"><ele>941.1999999999999</ele><time>2026-04-12T15:51:17Z</time></trkpt><trkpt lat="42.55443191757552" lon="12.984070816176343"><ele>943.8000000000001</ele><time>2026-04-12T15:51:18Z</time></trkpt><trkpt lat="42.55436810961555" lon="12.984237474068058"><ele>946.4000000000001</ele><time>2026-04-12T15:51:20Z</time></trkpt><trkpt lat="42.55429809928371" lon="12.984335329996213"><ele>949.0</ele><time>2026-04-12T15:51:21Z</time></trkpt><trkpt lat="42.554236249009236" lon="12.98439944883461"><ele>949.0</ele><time>2026-04-12T15:51:22Z</time></trkpt><trkpt lat="42.5541809971932" lon="12.984521268101348"><ele>949.0000000000001</ele><time>2026-04-12T15:51:24Z</time></trkpt><trkpt lat="42.55415126893634" lon="12.984631812413483"><ele>949.0000000000001</ele><time>2026-04-12T15:51:25Z</time></trkpt><trkpt lat="42.55409967581425" lon="12.984806192686362"><ele>949.0</ele><time>2026-04-12T15:51:27Z</time></trkpt><trkpt lat="42.55407297797976" lon="12.98492538380154"><ele>949.0</ele><time>2026-04-12T15:51:28Z</time></trkpt><trkpt lat="42.55406698003345" lon="12.98503047858672"><ele>948.9999999999999</ele><time>2026-04-12T15:51:29Z</time></trkpt><trkpt lat="42.55406429054365" lon="12.985126352277984"><ele>949.0</ele><time>2026-04-12T15:51:30Z</time></trkpt><trkpt lat="42.554072723399784" lon="12.985220551781397"><ele>949.0</ele><time>2026-04-12T15:51:31Z</time></trkpt><trkpt lat="42.554066591953685" lon="12.9853857323932"><ele>949.0</ele><time>2026-04-12T15:51:33Z</time></trkpt><trkpt lat="42.55403082588423" lon="12.98547412336747"><ele>948.9999999999999</ele><time>2026-04-12T15:51:34Z</time></trkpt><trkpt lat="42.553993800361475" lon="12.985550365203633"><ele>949.0</ele><time>2026-04-12T15:51:35Z</time></trkpt><trkpt lat="42.55395075559099" lon="12.985623320866937"><ele>948.9999999999999</ele><time>2026-04-12T15:51:36Z</time></trkpt><trkpt lat="42.55391845042376" lon="12.985734143341967"><ele>949.0</ele><time>2026-04-12T15:51:37Z</time></trkpt><trkpt lat="42.5538897487489" lon="12.985827565953914"><ele>949.0</ele><time>2026-04-12T15:51:38Z</time></trkpt><trkpt lat="42.55385202873995" lon="12.985920595105519"><ele>949.0</ele><time>2026-04-12T15:51:39Z</time></trkpt><trkpt lat="42.55382285477204" lon="12.986019420912196"><ele>948.9999999999999</ele><time>2026-04-12T15:51:40Z</time></trkpt><trkpt lat="42.553782002218234" lon="12.986105180699562"><ele>949.0</ele><time>2026-04-12T15:51:41Z</time></trkpt><trkpt lat="42.553731507363416" lon="12.986183570236753"><ele>952.0</ele><time>2026-04-12T15:51:42Z</time></trkpt><trkpt lat="42.55368229573539" lon="12.986271154457642"><ele>955.0000000000001</ele><time>2026-04-12T15:51:43Z</time></trkpt><trkpt lat="42.55360444189041" lon="12.98641182504184"><ele>958.0000000000001</ele><time>2026-04-12T15:51:45Z</time></trkpt><trkpt lat="42.55355157033592" lon="12.986490613099047"><ele>961.0</ele><time>2026-04-12T15:51:46Z</time></trkpt><trkpt lat="42.553508082582304" lon="12.98665398022849"><ele>964.0</ele><time>2026-04-12T15:51:48Z</time></trkpt><trkpt lat="42.553485859813996" lon="12.986775512313454"><ele>964.0</ele><time>2026-04-12T15:51:49Z</time></trkpt><trkpt lat="42.55346737116866" lon="12.986866075912218"><ele>964.0000000000001</ele><time>2026-04-12T15:51:50Z</time></trkpt><trkpt lat="42.55343140320338" lon="12.986939726166106"><ele>964.0</ele><time>2026-04-12T15:51:51Z</time></trkpt><trkpt lat="42.55340888016666" lon="12.98704390406074"><ele>964.0</ele><time>2026-04-12T15:51:52Z</time></trkpt><trkpt lat="42.55337925072887" lon="12.987130462127304"><ele>964.0000000000001</ele><time>2026-04-12T15:51:53Z</time></trkpt><trkpt lat="42.55335126630738" lon="12.987213637115426"><ele>964.0</ele><time>2026-04-12T15:51:54Z</time></trkpt><trkpt lat="42.55332569099464" lon="12.987305144448769"><ele>964.0</ele><time>2026-04-12T15:51:55Z</time></trkpt><trkpt lat="42.55330402378365" lon="12.987412187433808"><ele>963.4999999999999</ele><time>2026-04-12T15:51:56Z</time></trkpt><trkpt lat="42.55330257911321" lon="12.987536231117508"><ele>963.0</ele><time>2026-04-12T15:51:57Z</time></trkpt><trkpt lat="42.553270079025246" lon="12.987649602586124"><ele>962.5</ele><time>2026-04-12T15:51:58Z</time></trkpt><trkpt lat="42.553240279430014" lon="12.9877457173441"><ele>962.0</ele><time>2026-04-12T15:51:59Z</time></trkpt><trkpt lat="42.553212615620296" lon="12.987826083794257"><ele>961.4999999999999</ele><time>2026-04-12T15:52:00Z</time></trkpt><trkpt lat="42.553194479654444" lon="12.987918499576537"><ele>961.0</ele><time>2026-04-12T15:52:01Z</time></trkpt><trkpt lat="42.55319097777029" lon="12.98800936413843"><ele>960.9999999999999</ele><time>2026-04-12T15:52:02Z</time></trkpt><trkpt lat="42.55312893329677" lon="12.988148119195872"><ele>961.0</ele><time>2026-04-12T15:52:04Z</time></trkpt><trkpt lat="42.5530944224398" lon="12.98822833900667"><ele>961.0</ele><time>2026-04-12T15:52:05Z</time></trkpt><trkpt lat="42.55307350442252" lon="12.988319247062137"><ele>961.0</ele><time>2026-04-12T15:52:06Z</time></trkpt><trkpt lat="42.55302116403039" lon="12.988400292755985"><ele>960.9999999999999</ele><time>2026-04-12T15:52:07Z</time></trkpt><trkpt lat="42.55296662188744" lon="12.988495003364983"><ele>961.0</ele><time>2026-04-12T15:52:08Z</time></trkpt><trkpt lat="42.5529051560899" lon="12.988589691740229"><ele>961.9999999999999</ele><time>2026-04-12T15:52:09Z</time></trkpt><trkpt lat="42.55283037472138" lon="12.988719594380346"><ele>963.0</ele><time>2026-04-12T15:52:11Z</time></trkpt><trkpt lat="42.55278136488933" lon="12.98878613444545"><ele>964.0</ele><time>2026-04-12T15:52:15Z</time></trkpt><trkpt lat="42.552739251769815" lon="12.98886430713379"><ele>965.0</ele><time>2026-04-12T15:52:29Z</time></trkpt><trkpt lat="42.55273578583709" lon="12.988974167656274"><ele>965.9999999999999</ele><time>2026-04-12T15:52:31Z</time></trkpt><trkpt lat="42.55268855520412" lon="12.989040640572279"><ele>967.0</ele><time>2026-04-12T15:52:36Z</time></trkpt><trkpt lat="42.55263342046649" lon="12.989122959858237"><ele>966.0</ele><time>2026-04-12T15:52:59Z</time></trkpt><trkpt lat="42.55257864839507" lon="12.989248136163877"><ele>965.0</ele><time>2026-04-12T15:53:01Z</time></trkpt><trkpt lat="42.552497314545064" lon="12.98938729454365"><ele>964.0</ele><time>2026-04-12T15:53:03Z</time></trkpt><trkpt lat="42.552454681197744" lon="12.989453798245643"><ele>963.0</ele><time>2026-04-12T15:53:04Z</time></trkpt><trkpt lat="42.55237191289949" lon="12.989593875027884"><ele>962.0</ele><time>2026-04-12T15:53:06Z</time></trkpt><trkpt lat="42.55230917633529" lon="12.98971069350226"><ele>962.0000000000001</ele><time>2026-04-12T15:53:08Z</time></trkpt><trkpt lat="42.552225016474665" lon="12.989818037336535"><ele>962.0</ele><time>2026-04-12T15:53:10Z</time></trkpt><trkpt lat="42.55216552982672" lon="12.989892143302262"><ele>962.0</ele><time>2026-04-12T15:53:11Z</time></trkpt><trkpt lat="42.55209936760045" lon="12.989961049957119"><ele>962.0</ele><time>2026-04-12T15:53:12Z</time></trkpt><trkpt lat="42.55204043020279" lon="12.990024640233376"><ele>962.0000000000001</ele><time>2026-04-12T15:53:13Z</time></trkpt><trkpt lat="42.551981401859514" lon="12.990110154233248"><ele>962.0</ele><time>2026-04-12T15:53:14Z</time></trkpt><trkpt lat="42.551908709929506" lon="12.990180878478299"><ele>962.6</ele><time>2026-04-12T15:53:15Z</time></trkpt><trkpt lat="42.55184037925673" lon="12.990264223093703"><ele>963.2</ele><time>2026-04-12T15:53:16Z</time></trkpt><trkpt lat="42.551771653273086" lon="12.990340387650102"><ele>963.8</ele><time>2026-04-12T15:53:17Z</time></trkpt><trkpt lat="42.55171112757338" lon="12.990403949073384"><ele>964.4</ele><time>2026-04-12T15:53:18Z</time></trkpt><trkpt lat="42.55161077338346" lon="12.990503029804268"><ele>965.0</ele><time>2026-04-12T15:53:20Z</time></trkpt><trkpt lat="42.55155330500904" lon="12.9905809857023"><ele>965.0000000000001</ele><time>2026-04-12T15:53:21Z</time></trkpt><trkpt lat="42.551484043153806" lon="12.990657081019751"><ele>965.0</ele><time>2026-04-12T15:53:22Z</time></trkpt><trkpt lat="42.55141211746334" lon="12.990726171076505"><ele>965.0</ele><time>2026-04-12T15:53:23Z</time></trkpt><trkpt lat="42.551353090836955" lon="12.9907787279514"><ele>965.0</ele><time>2026-04-12T15:53:24Z</time></trkpt><trkpt lat="42.5512995253358" lon="12.990823951439987"><ele>965.0000000000001</ele><time>2026-04-12T15:53:25Z</time></trkpt><trkpt lat="42.55124758365805" lon="12.9908814546668"><ele>965.0</ele><time>2026-04-12T15:53:26Z</time></trkpt><trkpt lat="42.55115972339182" lon="12.991009497886033"><ele>965.0000000000001</ele><time>2026-04-12T15:53:28Z</time></trkpt><trkpt lat="42.55111763718537" lon="12.991095719889623"><ele>965.0</ele><time>2026-04-12T15:53:29Z</time></trkpt><trkpt lat="42.551074071827365" lon="12.991186863397687"><ele>965.0</ele><time>2026-04-12T15:53:30Z</time></trkpt><trkpt lat="42.55102674925814" lon="12.991286549754737"><ele>965.0</ele><time>2026-04-12T15:53:31Z</time></trkpt><trkpt lat="42.550967809772715" lon="12.991384234159751"><ele>965.0000000000001</ele><time>2026-04-12T15:53:32Z</time></trkpt><trkpt lat="42.550907964179935" lon="12.991460435854872"><ele>965.0</ele><time>2026-04-12T15:53:33Z</time></trkpt><trkpt lat="42.55085067279792" lon="12.991512765219086"><ele>965.0</ele><time>2026-04-12T15:53:34Z</time></trkpt><trkpt lat="42.550770299859465" lon="12.991597284369313"><ele>965.0</ele><time>2026-04-12T15:53:36Z</time></trkpt><trkpt lat="42.55069806620737" lon="12.99164832695481"><ele>965.0</ele><time>2026-04-12T15:53:39Z</time></trkpt><trkpt lat="42.55062897719324" lon="12.991716162234926"><ele>965.0</ele><time>2026-04-12T15:53:42Z</time></trkpt><trkpt lat="42.5505527750751" lon="12.991766579873842"><ele>965.0</ele><time>2026-04-12T15:53:44Z</time></trkpt><trkpt lat="42.55047284070439" lon="12.99184394067847"><ele>964.6</ele><time>2026-04-12T15:53:46Z</time></trkpt><trkpt lat="42.55042611113629" lon="12.991901811732768"><ele>964.2</ele><time>2026-04-12T15:53:47Z</time></trkpt><trkpt lat="42.55031992106962" lon="12.992019657424148"><ele>963.8</ele><time>2026-04-12T15:53:49Z</time></trkpt><trkpt lat="42.55025944878082" lon="12.9920856112111"><ele>963.4</ele><time>2026-04-12T15:53:50Z</time></trkpt><trkpt lat="42.55019108384242" lon="12.992151633359992"><ele>963.0</ele><time>2026-04-12T15:53:51Z</time></trkpt><trkpt lat="42.55010591398659" lon="12.992224117483879"><ele>963.0</ele><time>2026-04-12T15:53:52Z</time></trkpt><trkpt lat="42.55002621218672" lon="12.99233385307149"><ele>963.0</ele><time>2026-04-12T15:53:53Z</time></trkpt><trkpt lat="42.549941438313965" lon="12.992422939250714"><ele>963.0</ele><time>2026-04-12T15:53:54Z</time></trkpt><trkpt lat="42.549887713265385" lon="12.992484780484293"><ele>963.0</ele><time>2026-04-12T15:53:55Z</time></trkpt><trkpt lat="42.549830681269" lon="12.992557244464948"><ele>963.0</ele><time>2026-04-12T15:53:56Z</time></trkpt><trkpt lat="42.549762426461974" lon="12.992655316514455"><ele>963.0</ele><time>2026-04-12T15:53:57Z</time></trkpt><trkpt lat="42.549710511053426" lon="12.992758958408569"><ele>963.0</ele><time>2026-04-12T15:53:58Z</time></trkpt><trkpt lat="42.549672503859945" lon="12.99286813068634"><ele>963.0</ele><time>2026-04-12T15:53:59Z</time></trkpt><trkpt lat="42.54964445931495" lon="12.992981424662206"><ele>963.0</ele><time>2026-04-12T15:54:00Z</time></trkpt><trkpt lat="42.54962077693598" lon="12.99307880090335"><ele>963.0</ele><time>2026-04-12T15:54:01Z</time></trkpt><trkpt lat="42.549599956434115" lon="12.993170030472045"><ele>963.0</ele><time>2026-04-12T15:54:02Z</time></trkpt><trkpt lat="42.549595928935325" lon="12.993279739268285"><ele>964.0</ele><time>2026-04-12T15:54:03Z</time></trkpt><trkpt lat="42.549611914980034" lon="12.993394973187124"><ele>965.0</ele><time>2026-04-12T15:54:04Z</time></trkpt><trkpt lat="42.54964538471467" lon="12.993516410116957"><ele>966.0</ele><time>2026-04-12T15:54:05Z</time></trkpt><trkpt lat="42.54971523601778" lon="12.993663893600955"><ele>967.0</ele><time>2026-04-12T15:54:06Z</time></trkpt><trkpt lat="42.5497646714417" lon="12.993782172499659"><ele>968.0</ele><time>2026-04-12T15:54:07Z</time></trkpt><trkpt lat="42.54979016774241" lon="12.99388391758579"><ele>968.0</ele><time>2026-04-12T15:54:08Z</time></trkpt><trkpt lat="42.54980256808038" lon="12.993992238541898"><ele>968.0</ele><time>2026-04-12T15:54:09Z</time></trkpt><trkpt lat="42.5498041157004" lon="12.994112600606131"><ele>968.0</ele><time>2026-04-12T15:54:10Z</time></trkpt><trkpt lat="42.549800291918096" lon="12.994235186330913"><ele>968.0</ele><time>2026-04-12T15:54:11Z</time></trkpt><trkpt lat="42.549788707485845" lon="12.994379297555689"><ele>968.0</ele><time>2026-04-12T15:54:12Z</time></trkpt><trkpt lat="42.54979712620227" lon="12.994516535918365"><ele>968.8</ele><time>2026-04-12T15:54:13Z</time></trkpt><trkpt lat="42.54980942907978" lon="12.994643174491276"><ele>969.5999999999999</ele><time>2026-04-12T15:54:14Z</time></trkpt><trkpt lat="42.549819925180685" lon="12.994734878319088"><ele>970.4000000000001</ele><time>2026-04-12T15:54:15Z</time></trkpt><trkpt lat="42.5498358022937" lon="12.994842044765333"><ele>971.2</ele><time>2026-04-12T15:54:16Z</time></trkpt><trkpt lat="42.54984967663438" lon="12.99492771197996"><ele>972.0</ele><time>2026-04-12T15:54:17Z</time></trkpt><trkpt lat="42.549817951391816" lon="12.995115669950987"><ele>972.3333333333334</ele><time>2026-04-12T15:54:19Z</time></trkpt><trkpt lat="42.54980372538129" lon="12.995258604773037"><ele>972.6666666666667</ele><time>2026-04-12T15:54:20Z</time></trkpt><trkpt lat="42.54980551679903" lon="12.99537139168096"><ele>973.0</ele><time>2026-04-12T15:54:21Z</time></trkpt><trkpt lat="42.549789276303315" lon="12.995493887361182"><ele>973.3333333333334</ele><time>2026-04-12T15:54:22Z</time></trkpt><trkpt lat="42.54980315352179" lon="12.995600063499223"><ele>973.6666666666667</ele><time>2026-04-12T15:54:23Z</time></trkpt><trkpt lat="42.549792415668556" lon="12.99571285692092"><ele>974.0</ele><time>2026-04-12T15:54:24Z</time></trkpt><trkpt lat="42.54976358975624" lon="12.99583291745747"><ele>974.4000000000001</ele><time>2026-04-12T15:54:25Z</time></trkpt><trkpt lat="42.54975952895177" lon="12.99595984160047"><ele>974.8000000000001</ele><time>2026-04-12T15:54:26Z</time></trkpt><trkpt lat="42.549742902058725" lon="12.996124608457258"><ele>975.1999999999999</ele><time>2026-04-12T15:54:27Z</time></trkpt><trkpt lat="42.54974140240624" lon="12.996237245401577"><ele>975.5999999999999</ele><time>2026-04-12T15:54:28Z</time></trkpt><trkpt lat="42.54971481786324" lon="12.9963468129014"><ele>976.0</ele><time>2026-04-12T15:54:29Z</time></trkpt><trkpt lat="42.54970979422396" lon="12.996488051295348"><ele>975.9999999999999</ele><time>2026-04-12T15:54:30Z</time></trkpt><trkpt lat="42.549711143279715" lon="12.996611967111328"><ele>976.0</ele><time>2026-04-12T15:54:31Z</time></trkpt><trkpt lat="42.54970502947411" lon="12.996738433203454"><ele>976.0</ele><time>2026-04-12T15:54:32Z</time></trkpt><trkpt lat="42.5497022657363" lon="12.99685376293102"><ele>976.0</ele><time>2026-04-12T15:54:33Z</time></trkpt><trkpt lat="42.54969218993986" lon="12.996966433744435"><ele>975.9999999999999</ele><time>2026-04-12T15:54:34Z</time></trkpt><trkpt lat="42.549687724163945" lon="12.997085671441534"><ele>976.0</ele><time>2026-04-12T15:54:35Z</time></trkpt><trkpt lat="42.54968641314617" lon="12.997208819923033"><ele>975.8333333333333</ele><time>2026-04-12T15:54:36Z</time></trkpt><trkpt lat="42.549674243430445" lon="12.997319693371589"><ele>975.6666666666666</ele><time>2026-04-12T15:54:37Z</time></trkpt><trkpt lat="42.549670564930956" lon="12.997436664378837"><ele>975.5</ele><time>2026-04-12T15:54:38.001Z</time></trkpt><trkpt lat="42.54967668206464" lon="12.99755137296185"><ele>975.3333333333333</ele><time>2026-04-12T15:54:39.001Z</time></trkpt><trkpt lat="42.549685797259386" lon="12.997661822754006"><ele>975.1666666666666</ele><time>2026-04-12T15:54:40.001Z</time></trkpt><trkpt lat="42.549686819193596" lon="12.997789281513004"><ele>975.0</ele><time>2026-04-12T15:54:41.001Z</time></trkpt><trkpt lat="42.54966720003449" lon="12.99790651158575"><ele>975.0</ele><time>2026-04-12T15:54:42.001Z</time></trkpt><trkpt lat="42.54964601226539" lon="12.998021380277041"><ele>975.0</ele><time>2026-04-12T15:54:43.001Z</time></trkpt><trkpt lat="42.549611924104255" lon="12.998119202227047"><ele>975.0</ele><time>2026-04-12T15:54:44.001Z</time></trkpt><trkpt lat="42.549574479537284" lon="12.998199496724201"><ele>975.0</ele><time>2026-04-12T15:54:45.001Z</time></trkpt><trkpt lat="42.549552459848734" lon="12.998293642175323"><ele>975.0</ele><time>2026-04-12T15:54:46.001Z</time></trkpt><trkpt lat="42.54949074662821" lon="12.998439831816643"><ele>975.0</ele><time>2026-04-12T15:54:48.001Z</time></trkpt><trkpt lat="42.54941424498057" lon="12.998574719046703"><ele>975.1666666666666</ele><time>2026-04-12T15:54:50.001Z</time></trkpt><trkpt lat="42.54941841980171" lon="12.99874658278403"><ele>975.3333333333333</ele><time>2026-04-12T15:54:52.001Z</time></trkpt><trkpt lat="42.549467611753755" lon="12.998825644382956"><ele>975.5</ele><time>2026-04-12T15:54:53.001Z</time></trkpt><trkpt lat="42.549518045527975" lon="12.99890203048757"><ele>975.6666666666666</ele><time>2026-04-12T15:54:54.001Z</time></trkpt><trkpt lat="42.54955936129067" lon="12.998974647979907"><ele>975.8333333333333</ele><time>2026-04-12T15:54:55.001Z</time></trkpt><trkpt lat="42.54960525768829" lon="12.99908355529706"><ele>976.0</ele><time>2026-04-12T15:54:56.001Z</time></trkpt><trkpt lat="42.5496323351122" lon="12.99921157124419"><ele>975.9999999999999</ele><time>2026-04-12T15:54:57Z</time></trkpt><trkpt lat="42.549635395367595" lon="12.999344836198533"><ele>976.0</ele><time>2026-04-12T15:54:58Z</time></trkpt><trkpt lat="42.5496316152673" lon="12.999447240596215"><ele>976.0</ele><time>2026-04-12T15:54:59Z</time></trkpt><trkpt lat="42.549631917479395" lon="12.999558020158874"><ele>976.0</ele><time>2026-04-12T15:55:00Z</time></trkpt><trkpt lat="42.54963572933479" lon="12.999660776405111"><ele>975.9999999999999</ele><time>2026-04-12T15:55:01Z</time></trkpt><trkpt lat="42.54961925739322" lon="12.999757068108575"><ele>976.0</ele><time>2026-04-12T15:55:02Z</time></trkpt><trkpt lat="42.549601712253654" lon="12.999839333307296"><ele>975.9999999999999</ele><time>2026-04-12T15:55:03Z</time></trkpt><trkpt lat="42.549550660553244" lon="12.99992568834355"><ele>976.0</ele><time>2026-04-12T15:55:04Z</time></trkpt><trkpt lat="42.54951023396617" lon="13.00003409036762"><ele>976.0</ele><time>2026-04-12T15:55:05Z</time></trkpt><trkpt lat="42.54946904182784" lon="13.000148684611455"><ele>976.0</ele><time>2026-04-12T15:55:06Z</time></trkpt><trkpt lat="42.54946005633667" lon="13.000245961666337"><ele>975.9999999999999</ele><time>2026-04-12T15:55:07Z</time></trkpt><trkpt lat="42.54946812127539" lon="13.000361924763435"><ele>976.0</ele><time>2026-04-12T15:55:08Z</time></trkpt><trkpt lat="42.54948242759129" lon="13.000468466518075"><ele>976.9999999999999</ele><time>2026-04-12T15:55:09Z</time></trkpt><trkpt lat="42.54947681184731" lon="13.000565293862648"><ele>978.0</ele><time>2026-04-12T15:55:10Z</time></trkpt><trkpt lat="42.54944358609231" lon="13.000642700828996"><ele>979.0</ele><time>2026-04-12T15:55:11Z</time></trkpt><trkpt lat="42.54940731672371" lon="13.000730863014732"><ele>980.0</ele><time>2026-04-12T15:55:12Z</time></trkpt><trkpt lat="42.54936473826769" lon="13.000816982755289"><ele>980.9999999999999</ele><time>2026-04-12T15:55:13Z</time></trkpt><trkpt lat="42.5493105153186" lon="13.000894957408155"><ele>982.0</ele><time>2026-04-12T15:55:14Z</time></trkpt><trkpt lat="42.54923949081012" lon="13.000995594809405"><ele>982.0</ele><time>2026-04-12T15:55:15Z</time></trkpt><trkpt lat="42.54916319563949" lon="13.00106719255928"><ele>982.0</ele><time>2026-04-12T15:55:16Z</time></trkpt><trkpt lat="42.549077760505064" lon="13.001142750623998"><ele>982.0</ele><time>2026-04-12T15:55:17Z</time></trkpt><trkpt lat="42.54900120996296" lon="13.001215190884357"><ele>982.0</ele><time>2026-04-12T15:55:18Z</time></trkpt><trkpt lat="42.548928377506314" lon="13.001269525171553"><ele>982.0</ele><time>2026-04-12T15:55:19Z</time></trkpt><trkpt lat="42.54886034616163" lon="13.001357790310847"><ele>981.9999999999999</ele><time>2026-04-12T15:55:20Z</time></trkpt><trkpt lat="42.548789825338" lon="13.001444157598028"><ele>982.0</ele><time>2026-04-12T15:55:21Z</time></trkpt><trkpt lat="42.54873561859888" lon="13.001517131828745"><ele>982.0</ele><time>2026-04-12T15:55:22Z</time></trkpt><trkpt lat="42.54867005699729" lon="13.00159499020765"><ele>982.0</ele><time>2026-04-12T15:55:23Z</time></trkpt><trkpt lat="42.54861203919231" lon="13.001666496348216"><ele>981.9999999999999</ele><time>2026-04-12T15:55:24Z</time></trkpt><trkpt lat="42.548556331367934" lon="13.00174757902231"><ele>982.0</ele><time>2026-04-12T15:55:25Z</time></trkpt><trkpt lat="42.548485326262956" lon="13.001830169468304"><ele>983.4000000000001</ele><time>2026-04-12T15:55:26Z</time></trkpt><trkpt lat="42.54842236888421" lon="13.00192061784248"><ele>984.8000000000001</ele><time>2026-04-12T15:55:27Z</time></trkpt><trkpt lat="42.5483546742896" lon="13.002011174831841"><ele>986.2</ele><time>2026-04-12T15:55:28Z</time></trkpt><trkpt lat="42.54828245177545" lon="13.002106004586196"><ele>987.6</ele><time>2026-04-12T15:55:29Z</time></trkpt><trkpt lat="42.54820567732499" lon="13.00219781818801"><ele>989.0</ele><time>2026-04-12T15:55:30Z</time></trkpt><trkpt lat="42.54811315273392" lon="13.002312178347339"><ele>989.0</ele><time>2026-04-12T15:55:31Z</time></trkpt><trkpt lat="42.54803193123398" lon="13.002420555814814"><ele>989.0</ele><time>2026-04-12T15:55:32Z</time></trkpt><trkpt lat="42.5479397746587" lon="13.00255618438985"><ele>989.0</ele><time>2026-04-12T15:55:33Z</time></trkpt><trkpt lat="42.54786378649099" lon="13.002676204372893"><ele>989.0</ele><time>2026-04-12T15:55:34Z</time></trkpt><trkpt lat="42.54777524929675" lon="13.002789573263016"><ele>989.6</ele><time>2026-04-12T15:55:35Z</time></trkpt><trkpt lat="42.54769640116264" lon="13.002907125224487"><ele>990.2</ele><time>2026-04-12T15:55:36Z</time></trkpt><trkpt lat="42.54763045826071" lon="13.003012355241275"><ele>990.8000000000001</ele><time>2026-04-12T15:55:37Z</time></trkpt><trkpt lat="42.547565083713394" lon="13.003113825258033"><ele>991.4000000000001</ele><time>2026-04-12T15:55:38Z</time></trkpt><trkpt lat="42.54749492236196" lon="13.003238258786709"><ele>992.0</ele><time>2026-04-12T15:55:39Z</time></trkpt><trkpt lat="42.54743687950973" lon="13.003336597937581"><ele>990.4000000000001</ele><time>2026-04-12T15:55:40Z</time></trkpt><trkpt lat="42.54736506946806" lon="13.003427228154703"><ele>988.8000000000001</ele><time>2026-04-12T15:55:41Z</time></trkpt><trkpt lat="42.54730850806663" lon="13.00351994854277"><ele>987.2</ele><time>2026-04-12T15:55:42Z</time></trkpt><trkpt lat="42.547242999030445" lon="13.003614518409655"><ele>985.6</ele><time>2026-04-12T15:55:43Z</time></trkpt><trkpt lat="42.54716784036712" lon="13.003711050315522"><ele>984.0</ele><time>2026-04-12T15:55:44Z</time></trkpt><trkpt lat="42.54709769380933" lon="13.003819191804649"><ele>984.0</ele><time>2026-04-12T15:55:45Z</time></trkpt><trkpt lat="42.547050919466294" lon="13.003964329963065"><ele>984.0000000000001</ele><time>2026-04-12T15:55:46Z</time></trkpt><trkpt lat="42.54701513138044" lon="13.004099860595675"><ele>984.0000000000001</ele><time>2026-04-12T15:55:47Z</time></trkpt><trkpt lat="42.54697620485011" lon="13.00421888627351"><ele>984.0</ele><time>2026-04-12T15:55:48Z</time></trkpt><trkpt lat="42.546944726060204" lon="13.004334722688592"><ele>984.0</ele><time>2026-04-12T15:55:49Z</time></trkpt><trkpt lat="42.54693332308409" lon="13.004449662215196"><ele>984.0</ele><time>2026-04-12T15:55:50Z</time></trkpt><trkpt lat="42.546916957364814" lon="13.004556800388773"><ele>984.0</ele><time>2026-04-12T15:55:51Z</time></trkpt><trkpt lat="42.546897520242325" lon="13.004678170052912"><ele>984.0</ele><time>2026-04-12T15:55:52Z</time></trkpt><trkpt lat="42.546873140661376" lon="13.00479723307885"><ele>984.0</ele><time>2026-04-12T15:55:53Z</time></trkpt><trkpt lat="42.54683818483406" lon="13.004893303014862"><ele>984.0</ele><time>2026-04-12T15:55:54Z</time></trkpt><trkpt lat="42.54678884444098" lon="13.004977938567965"><ele>984.0</ele><time>2026-04-12T15:55:55Z</time></trkpt><trkpt lat="42.54672147287192" lon="13.005087071684844"><ele>984.0</ele><time>2026-04-12T15:55:56Z</time></trkpt><trkpt lat="42.54664951463605" lon="13.00519433785424"><ele>984.0</ele><time>2026-04-12T15:55:57Z</time></trkpt><trkpt lat="42.54660226310132" lon="13.005278169855895"><ele>984.0</ele><time>2026-04-12T15:55:58Z</time></trkpt><trkpt lat="42.54655057604974" lon="13.005366462316113"><ele>984.0</ele><time>2026-04-12T15:55:59Z</time></trkpt><trkpt lat="42.54650528232204" lon="13.005461836752012"><ele>984.0</ele><time>2026-04-12T15:56:00Z</time></trkpt><trkpt lat="42.546471967330795" lon="13.005583665861087"><ele>984.0</ele><time>2026-04-12T15:56:01Z</time></trkpt><trkpt lat="42.546462584345484" lon="13.005715112414592"><ele>984.0</ele><time>2026-04-12T15:56:02Z</time></trkpt><trkpt lat="42.546474845459365" lon="13.005873508017796"><ele>984.0000000000001</ele><time>2026-04-12T15:56:03Z</time></trkpt><trkpt lat="42.54649287231672" lon="13.006033108859654"><ele>984.0000000000001</ele><time>2026-04-12T15:56:04Z</time></trkpt><trkpt lat="42.546506804253426" lon="13.006165727229066"><ele>984.0</ele><time>2026-04-12T15:56:05Z</time></trkpt><trkpt lat="42.546522361427584" lon="13.006275847740248"><ele>984.0</ele><time>2026-04-12T15:56:06Z</time></trkpt><trkpt lat="42.54653501955101" lon="13.006441801140014"><ele>984.0</ele><time>2026-04-12T15:56:08Z</time></trkpt><trkpt lat="42.54648175176397" lon="13.006602391416505"><ele>984.0</ele><time>2026-04-12T15:56:10Z</time></trkpt><trkpt lat="42.546413987566346" lon="13.006682129808151"><ele>984.0</ele><time>2026-04-12T15:56:11Z</time></trkpt><trkpt lat="42.546346854362895" lon="13.006754775562214"><ele>984.0</ele><time>2026-04-12T15:56:12Z</time></trkpt><trkpt lat="42.546281102622096" lon="13.006794646401477"><ele>984.0</ele><time>2026-04-12T15:56:13Z</time></trkpt><trkpt lat="42.54621261587895" lon="13.006821005698106"><ele>984.0</ele><time>2026-04-12T15:56:14Z</time></trkpt><trkpt lat="42.54613737309767" lon="13.006829097715883"><ele>988.0</ele><time>2026-04-12T15:56:15Z</time></trkpt><trkpt lat="42.54605469579569" lon="13.006820697014692"><ele>992.0000000000001</ele><time>2026-04-12T15:56:16Z</time></trkpt><trkpt lat="42.545968268969396" lon="13.00682053319421"><ele>996.0000000000001</ele><time>2026-04-12T15:56:17Z</time></trkpt><trkpt lat="42.545886803092834" lon="13.006862496964839"><ele>1000.0</ele><time>2026-04-12T15:56:18Z</time></trkpt><trkpt lat="42.545801374097046" lon="13.006933423962757"><ele>1004.0</ele><time>2026-04-12T15:56:19Z</time></trkpt><trkpt lat="42.545715766570375" lon="13.007022840754145"><ele>1004.0</ele><time>2026-04-12T15:56:20Z</time></trkpt><trkpt lat="42.54564459617965" lon="13.007122997459916"><ele>1004.0000000000001</ele><time>2026-04-12T15:56:21Z</time></trkpt><trkpt lat="42.545593129674465" lon="13.00723646589173"><ele>1004.0000000000001</ele><time>2026-04-12T15:56:22Z</time></trkpt><trkpt lat="42.545558900708826" lon="13.007341191638575"><ele>1004.0</ele><time>2026-04-12T15:56:23Z</time></trkpt><trkpt lat="42.54554191441659" lon="13.007451790684145"><ele>1004.0</ele><time>2026-04-12T15:56:24Z</time></trkpt><trkpt lat="42.54553628575476" lon="13.007567363857458"><ele>1002.4000000000001</ele><time>2026-04-12T15:56:25Z</time></trkpt><trkpt lat="42.54554715360475" lon="13.007692688794178"><ele>1000.8000000000001</ele><time>2026-04-12T15:56:26Z</time></trkpt><trkpt lat="42.54553787382062" lon="13.00782623113821"><ele>999.1999999999999</ele><time>2026-04-12T15:56:27Z</time></trkpt><trkpt lat="42.545531191340864" lon="13.007949314254905"><ele>997.5999999999999</ele><time>2026-04-12T15:56:28Z</time></trkpt><trkpt lat="42.54550574785611" lon="13.008070349637622"><ele>996.0</ele><time>2026-04-12T15:56:29Z</time></trkpt><trkpt lat="42.54548351019831" lon="13.00819493466761"><ele>996.0</ele><time>2026-04-12T15:56:30Z</time></trkpt><trkpt lat="42.545472395469744" lon="13.008322957766092"><ele>995.9999999999999</ele><time>2026-04-12T15:56:31Z</time></trkpt><trkpt lat="42.54545355631017" lon="13.008455942946194"><ele>995.9999999999999</ele><time>2026-04-12T15:56:32Z</time></trkpt><trkpt lat="42.545400423763446" lon="13.00856988181629"><ele>996.0</ele><time>2026-04-12T15:56:33Z</time></trkpt><trkpt lat="42.545337912120324" lon="13.008663805765762"><ele>996.0</ele><time>2026-04-12T15:56:34Z</time></trkpt><trkpt lat="42.545262960391796" lon="13.008759930621826"><ele>998.1999999999999</ele><time>2026-04-12T15:56:35Z</time></trkpt><trkpt lat="42.545174853990744" lon="13.008846905498864"><ele>1000.3999999999999</ele><time>2026-04-12T15:56:36Z</time></trkpt><trkpt lat="42.54509921214903" lon="13.008922753876707"><ele>1002.6</ele><time>2026-04-12T15:56:37Z</time></trkpt><trkpt lat="42.54501623273761" lon="13.009025937669314"><ele>1004.8</ele><time>2026-04-12T15:56:38Z</time></trkpt><trkpt lat="42.544951831512215" lon="13.009107120943714"><ele>1007.0</ele><time>2026-04-12T15:56:39Z</time></trkpt><trkpt lat="42.54490291227333" lon="13.009197775147362"><ele>1007.0</ele><time>2026-04-12T15:56:40Z</time></trkpt><trkpt lat="42.544867502970696" lon="13.00930092769925"><ele>1007.0</ele><time>2026-04-12T15:56:41Z</time></trkpt><trkpt lat="42.54481363675501" lon="13.009408869764506"><ele>1007.0</ele><time>2026-04-12T15:56:42Z</time></trkpt><trkpt lat="42.5447755495164" lon="13.009512053721904"><ele>1007.0</ele><time>2026-04-12T15:56:43Z</time></trkpt><trkpt lat="42.544758077897825" lon="13.009610962097184"><ele>1007.0</ele><time>2026-04-12T15:56:44Z</time></trkpt><trkpt lat="42.54476778769025" lon="13.009764707478476"><ele>1007.0000000000001</ele><time>2026-04-12T15:56:46Z</time></trkpt><trkpt lat="42.54473624244211" lon="13.009850356685345"><ele>1007.0</ele><time>2026-04-12T15:56:47Z</time></trkpt><trkpt lat="42.54468224773539" lon="13.009902747618687"><ele>1007.0</ele><time>2026-04-12T15:56:48Z</time></trkpt><trkpt lat="42.54462071153227" lon="13.009928341848882"><ele>1007.0</ele><time>2026-04-12T15:56:49Z</time></trkpt><trkpt lat="42.54454889848918" lon="13.00993725040528"><ele>1007.0000000000001</ele><time>2026-04-12T15:56:50Z</time></trkpt><trkpt lat="42.544469763317615" lon="13.010018039618796"><ele>1007.0</ele><time>2026-04-12T15:56:52Z</time></trkpt><trkpt lat="42.54442083803259" lon="13.010169449304243"><ele>1008.3333333333334</ele><time>2026-04-12T15:56:54Z</time></trkpt><trkpt lat="42.54439791148203" lon="13.01026634416083"><ele>1009.6666666666667</ele><time>2026-04-12T15:56:55Z</time></trkpt><trkpt lat="42.54436380734129" lon="13.010364233504225"><ele>1011.0</ele><time>2026-04-12T15:56:56.001Z</time></trkpt><trkpt lat="42.54432712676952" lon="13.010456152067126"><ele>1012.3333333333333</ele><time>2026-04-12T15:56:57.001Z</time></trkpt><trkpt lat="42.544298002548345" lon="13.010543627864378"><ele>1013.6666666666666</ele><time>2026-04-12T15:56:58.001Z</time></trkpt><trkpt lat="42.54424391555332" lon="13.01063888823493"><ele>1015.0</ele><time>2026-04-12T15:56:59.001Z</time></trkpt><trkpt lat="42.54418906822011" lon="13.010730698343904"><ele>1014.9999999999999</ele><time>2026-04-12T15:57:00.001Z</time></trkpt><trkpt lat="42.54413352759698" lon="13.010819871376192"><ele>1015.0</ele><time>2026-04-12T15:57:01.001Z</time></trkpt><trkpt lat="42.54408477766048" lon="13.01089749748523"><ele>1015.0</ele><time>2026-04-12T15:57:02.001Z</time></trkpt><trkpt lat="42.54403917734214" lon="13.010961326880551"><ele>1015.0</ele><time>2026-04-12T15:57:03Z</time></trkpt><trkpt lat="42.54398717227979" lon="13.01104364560839"><ele>1014.9999999999999</ele><time>2026-04-12T15:57:04Z</time></trkpt><trkpt lat="42.54392997278529" lon="13.011107663334146"><ele>1015.0</ele><time>2026-04-12T15:57:05Z</time></trkpt><trkpt lat="42.54385934114893" lon="13.01117531406148"><ele>1014.3333333333333</ele><time>2026-04-12T15:57:06Z</time></trkpt><trkpt lat="42.54379038388793" lon="13.011223170368352"><ele>1013.6666666666666</ele><time>2026-04-12T15:57:07Z</time></trkpt><trkpt lat="42.543690852154185" lon="13.011262296882373"><ele>1013.0</ele><time>2026-04-12T15:57:09Z</time></trkpt><trkpt lat="42.54361920696937" lon="13.011220531253935"><ele>1012.3333333333333</ele><time>2026-04-12T15:57:11Z</time></trkpt><trkpt lat="42.54355452276571" lon="13.01115985866435"><ele>1011.6666666666666</ele><time>2026-04-12T15:57:13Z</time></trkpt><trkpt lat="42.54347435020139" lon="13.011122665707832"><ele>1011.0</ele><time>2026-04-12T15:57:15Z</time></trkpt><trkpt lat="42.54340491037507" lon="13.011194170835621"><ele>1011.4</ele><time>2026-04-12T15:57:17Z</time></trkpt><trkpt lat="42.54336774456138" lon="13.011332928044476"><ele>1011.8</ele><time>2026-04-12T15:57:19Z</time></trkpt><trkpt lat="42.54334934088209" lon="13.01142133888032"><ele>1012.1999999999999</ele><time>2026-04-12T15:57:20Z</time></trkpt><trkpt lat="42.5433254053534" lon="13.011524219814524"><ele>1012.5999999999999</ele><time>2026-04-12T15:57:21Z</time></trkpt><trkpt lat="42.543259568070525" lon="13.01166225413398"><ele>1013.0</ele><time>2026-04-12T15:57:23Z</time></trkpt><trkpt lat="42.54317419904594" lon="13.011809231769998"><ele>1013.0</ele><time>2026-04-12T15:57:25Z</time></trkpt><trkpt lat="42.54312105196284" lon="13.011883086205442"><ele>1013.0000000000001</ele><time>2026-04-12T15:57:26Z</time></trkpt><trkpt lat="42.54306006212022" lon="13.011948314693436"><ele>1013.0</ele><time>2026-04-12T15:57:27Z</time></trkpt><trkpt lat="42.54299018308469" lon="13.012006326418017"><ele>1013.0</ele><time>2026-04-12T15:57:28Z</time></trkpt><trkpt lat="42.542934998875005" lon="13.012050218102344"><ele>1013.0000000000001</ele><time>2026-04-12T15:57:29Z</time></trkpt><trkpt lat="42.54286985954916" lon="13.012103147153844"><ele>1013.0</ele><time>2026-04-12T15:57:30Z</time></trkpt><trkpt lat="42.542809144797154" lon="13.012159395298028"><ele>1013.0</ele><time>2026-04-12T15:57:31Z</time></trkpt><trkpt lat="42.54274749734715" lon="13.012196212119836"><ele>1012.6666666666667</ele><time>2026-04-12T15:57:32Z</time></trkpt><trkpt lat="42.542672380835924" lon="13.012269704100751"><ele>1012.3333333333334</ele><time>2026-04-12T15:57:33Z</time></trkpt><trkpt lat="42.5426028957557" lon="13.012329150396106"><ele>1012.0</ele><time>2026-04-12T15:57:34Z</time></trkpt><trkpt lat="42.54254057395317" lon="13.01237542137051"><ele>1011.6666666666667</ele><time>2026-04-12T15:57:35Z</time></trkpt><trkpt lat="42.542469002598196" lon="13.012442310504856"><ele>1011.3333333333334</ele><time>2026-04-12T15:57:36Z</time></trkpt><trkpt lat="42.54240001289511" lon="13.012497774862485"><ele>1011.0</ele><time>2026-04-12T15:57:37Z</time></trkpt><trkpt lat="42.54232580781073" lon="13.012517187740873"><ele>1011.0</ele><time>2026-04-12T15:57:38Z</time></trkpt><trkpt lat="42.542255522358865" lon="13.012535161073506"><ele>1011.0</ele><time>2026-04-12T15:57:39Z</time></trkpt><trkpt lat="42.54214289552227" lon="13.012548346379715"><ele>1011.0</ele><time>2026-04-12T15:57:41Z</time></trkpt><trkpt lat="42.54207785022223" lon="13.012554286823834"><ele>1011.0</ele><time>2026-04-12T15:57:42Z</time></trkpt><trkpt lat="42.541997794938716" lon="13.012551352387224"><ele>1011.0</ele><time>2026-04-12T15:57:43Z</time></trkpt><trkpt lat="42.54192271029871" lon="13.012533590864255"><ele>1011.0</ele><time>2026-04-12T15:57:44Z</time></trkpt><trkpt lat="42.54182823308198" lon="13.01251679308811"><ele>1010.5999999999999</ele><time>2026-04-12T15:57:45Z</time></trkpt><trkpt lat="42.54173415938549" lon="13.012514874441317"><ele>1010.1999999999999</ele><time>2026-04-12T15:57:46Z</time></trkpt><trkpt lat="42.54163863634601" lon="13.01254427506589"><ele>1009.8000000000001</ele><time>2026-04-12T15:57:47Z</time></trkpt><trkpt lat="42.541560832450855" lon="13.012593167401466"><ele>1009.4000000000001</ele><time>2026-04-12T15:57:48Z</time></trkpt><trkpt lat="42.54147873001546" lon="13.012659300063774"><ele>1009.0</ele><time>2026-04-12T15:57:49Z</time></trkpt><trkpt lat="42.541395638014215" lon="13.012721238032912"><ele>1009.0</ele><time>2026-04-12T15:57:50Z</time></trkpt><trkpt lat="42.54131396354967" lon="13.01278000633532"><ele>1009.0000000000001</ele><time>2026-04-12T15:57:51Z</time></trkpt><trkpt lat="42.54125823495304" lon="13.01285823461892"><ele>1009.0000000000001</ele><time>2026-04-12T15:57:52Z</time></trkpt><trkpt lat="42.54121186584259" lon="13.012972845451635"><ele>1009.0</ele><time>2026-04-12T15:57:53Z</time></trkpt><trkpt lat="42.54120815745528" lon="13.013068198513219"><ele>1009.0</ele><time>2026-04-12T15:57:54Z</time></trkpt><trkpt lat="42.54115903541159" lon="13.013227859148504"><ele>1009.0</ele><time>2026-04-12T15:57:56Z</time></trkpt><trkpt lat="42.541077025464446" lon="13.013318533591226"><ele>1009.0000000000001</ele><time>2026-04-12T15:57:57Z</time></trkpt><trkpt lat="42.540994827964994" lon="13.013418813916923"><ele>1009.0000000000001</ele><time>2026-04-12T15:57:58Z</time></trkpt><trkpt lat="42.54092492250525" lon="13.013500633290723"><ele>1009.0</ele><time>2026-04-12T15:57:59Z</time></trkpt><trkpt lat="42.54086439893895" lon="13.013593488480435"><ele>1009.0</ele><time>2026-04-12T15:58:00Z</time></trkpt><trkpt lat="42.5408066846628" lon="13.013687163792907"><ele>1008.9999999999999</ele><time>2026-04-12T15:58:01Z</time></trkpt><trkpt lat="42.54075985638617" lon="13.01379149234137"><ele>1009.0</ele><time>2026-04-12T15:58:02Z</time></trkpt><trkpt lat="42.54071660963163" lon="13.013889087141377"><ele>1009.0</ele><time>2026-04-12T15:58:03Z</time></trkpt><trkpt lat="42.54066538594922" lon="13.013988063207474"><ele>1009.0</ele><time>2026-04-12T15:58:04Z</time></trkpt><trkpt lat="42.54060524294058" lon="13.01405708298714"><ele>1008.9999999999999</ele><time>2026-04-12T15:58:05Z</time></trkpt><trkpt lat="42.540555947302614" lon="13.01413185701412"><ele>1009.0</ele><time>2026-04-12T15:58:06Z</time></trkpt><trkpt lat="42.54050757730606" lon="13.014225647156342"><ele>1008.8571428571429</ele><time>2026-04-12T15:58:07Z</time></trkpt><trkpt lat="42.54045819401463" lon="13.014307667280171"><ele>1008.7142857142857</ele><time>2026-04-12T15:58:08Z</time></trkpt><trkpt lat="42.54042121063249" lon="13.014387466529493"><ele>1008.5714285714286</ele><time>2026-04-12T15:58:09Z</time></trkpt><trkpt lat="42.54036656739348" lon="13.014453633759203"><ele>1008.4285714285714</ele><time>2026-04-12T15:58:10Z</time></trkpt><trkpt lat="42.54030598456548" lon="13.01448428225138"><ele>1008.2857142857142</ele><time>2026-04-12T15:58:11Z</time></trkpt><trkpt lat="42.54022736891115" lon="13.014490535448399"><ele>1008.1428571428571</ele><time>2026-04-12T15:58:12Z</time></trkpt><trkpt lat="42.54016190263247" lon="13.01448633269719"><ele>1008.0</ele><time>2026-04-12T15:58:13Z</time></trkpt><trkpt lat="42.54006110966145" lon="13.014513377497117"><ele>1008.0</ele><time>2026-04-12T15:58:15Z</time></trkpt><trkpt lat="42.54001376162018" lon="13.014595934348435"><ele>1008.0</ele><time>2026-04-12T15:58:16Z</time></trkpt><trkpt lat="42.53998254464401" lon="13.01469920973503"><ele>1008.0</ele><time>2026-04-12T15:58:17Z</time></trkpt><trkpt lat="42.5399733875192" lon="13.014804664532504"><ele>1008.0</ele><time>2026-04-12T15:58:18Z</time></trkpt><trkpt lat="42.53997644817872" lon="13.014906215934158"><ele>1008.0</ele><time>2026-04-12T15:58:19Z</time></trkpt><trkpt lat="42.539996387497446" lon="13.015006200610262"><ele>1008.0</ele><time>2026-04-12T15:58:20Z</time></trkpt><trkpt lat="42.54002277828992" lon="13.015102453938828"><ele>1007.2</ele><time>2026-04-12T15:58:21Z</time></trkpt><trkpt lat="42.54002612425817" lon="13.015238534541586"><ele>1006.4</ele><time>2026-04-12T15:58:23Z</time></trkpt><trkpt lat="42.53996351966455" lon="13.015370659539117"><ele>1005.6000000000001</ele><time>2026-04-12T15:58:25Z</time></trkpt><trkpt lat="42.53991656317517" lon="13.015453617802866"><ele>1004.8000000000001</ele><time>2026-04-12T15:58:26Z</time></trkpt><trkpt lat="42.53986644914906" lon="13.015538776174449"><ele>1004.0</ele><time>2026-04-12T15:58:27Z</time></trkpt><trkpt lat="42.539808808172396" lon="13.015612033573644"><ele>1004.0</ele><time>2026-04-12T15:58:28Z</time></trkpt><trkpt lat="42.539753378127344" lon="13.015673381140347"><ele>1004.0000000000001</ele><time>2026-04-12T15:58:29Z</time></trkpt><trkpt lat="42.53970354421114" lon="13.015730243730316"><ele>1004.0000000000001</ele><time>2026-04-12T15:58:30Z</time></trkpt><trkpt lat="42.53962962868131" lon="13.015845011795133"><ele>1004.0</ele><time>2026-04-12T15:58:32Z</time></trkpt><trkpt lat="42.53962319740025" lon="13.016022106671308"><ele>1004.0</ele><time>2026-04-12T15:58:34Z</time></trkpt><trkpt lat="42.53962537888868" lon="13.016118319729193"><ele>1003.6666666666667</ele><time>2026-04-12T15:58:35Z</time></trkpt><trkpt lat="42.53961763756556" lon="13.016280033611741"><ele>1003.3333333333334</ele><time>2026-04-12T15:58:37Z</time></trkpt><trkpt lat="42.53961722003405" lon="13.01638676740442"><ele>1003.0</ele><time>2026-04-12T15:58:38Z</time></trkpt><trkpt lat="42.53961695045695" lon="13.016498595345851"><ele>1002.6666666666667</ele><time>2026-04-12T15:58:39Z</time></trkpt><trkpt lat="42.53961796399754" lon="13.016605763680769"><ele>1002.3333333333334</ele><time>2026-04-12T15:58:40Z</time></trkpt><trkpt lat="42.539595304622864" lon="13.016701407677228"><ele>1002.0</ele><time>2026-04-12T15:58:41Z</time></trkpt><trkpt lat="42.53956936421376" lon="13.016784068811507"><ele>1003.8</ele><time>2026-04-12T15:58:42Z</time></trkpt><trkpt lat="42.53951772602959" lon="13.016903215708073"><ele>1005.6</ele><time>2026-04-12T15:58:44Z</time></trkpt><trkpt lat="42.5394485050014" lon="13.017009415329806"><ele>1007.3999999999999</ele><time>2026-04-12T15:58:46Z</time></trkpt><trkpt lat="42.539400955049196" lon="13.017103147677284"><ele>1009.1999999999999</ele><time>2026-04-12T15:58:47Z</time></trkpt><trkpt lat="42.539343985766926" lon="13.017179183809237"><ele>1011.0</ele><time>2026-04-12T15:58:48.001Z</time></trkpt><trkpt lat="42.53928669373156" lon="13.017277156828508"><ele>1011.0</ele><time>2026-04-12T15:58:49.001Z</time></trkpt><trkpt lat="42.53924542809759" lon="13.01739133607721"><ele>1010.9999999999999</ele><time>2026-04-12T15:58:50.001Z</time></trkpt><trkpt lat="42.539232640197774" lon="13.017529168845828"><ele>1010.9999999999999</ele><time>2026-04-12T15:58:51.001Z</time></trkpt><trkpt lat="42.5392523941648" lon="13.017677455842039"><ele>1011.0</ele><time>2026-04-12T15:58:52.001Z</time></trkpt><trkpt lat="42.539262634997314" lon="13.017770542857031"><ele>1011.0</ele><time>2026-04-12T15:58:53.001Z</time></trkpt><trkpt lat="42.53926353979677" lon="13.017870271852045"><ele>1011.1666666666666</ele><time>2026-04-12T15:58:54.001Z</time></trkpt><trkpt lat="42.53924653210137" lon="13.017954473985363"><ele>1011.3333333333333</ele><time>2026-04-12T15:58:55.001Z</time></trkpt><trkpt lat="42.53921855964323" lon="13.01811973221302"><ele>1011.5</ele><time>2026-04-12T15:58:57.001Z</time></trkpt><trkpt lat="42.539196925950925" lon="13.018221170147015"><ele>1011.6666666666666</ele><time>2026-04-12T15:58:58.001Z</time></trkpt><trkpt lat="42.53915670245585" lon="13.018316852562993"><ele>1011.8333333333333</ele><time>2026-04-12T15:58:59.001Z</time></trkpt><trkpt lat="42.539123389027885" lon="13.01843370393944"><ele>1012.0</ele><time>2026-04-12T15:59:00.001Z</time></trkpt><trkpt lat="42.53908379504184" lon="13.018550162901738"><ele>1011.6666666666666</ele><time>2026-04-12T15:59:01.001Z</time></trkpt><trkpt lat="42.53903832260276" lon="13.018642776435854"><ele>1011.3333333333333</ele><time>2026-04-12T15:59:02.001Z</time></trkpt><trkpt lat="42.53899384828864" lon="13.01874644284914"><ele>1011.0</ele><time>2026-04-12T15:59:03.001Z</time></trkpt><trkpt lat="42.538947413943454" lon="13.018832907253966"><ele>1010.6666666666667</ele><time>2026-04-12T15:59:04.001Z</time></trkpt><trkpt lat="42.538900825745586" lon="13.018901073205392"><ele>1010.3333333333334</ele><time>2026-04-12T15:59:05.001Z</time></trkpt><trkpt lat="42.53882594175658" lon="13.019029068761537"><ele>1010.0</ele><time>2026-04-12T15:59:07.001Z</time></trkpt><trkpt lat="42.538776116048744" lon="13.019088567686472"><ele>1008.8</ele><time>2026-04-12T15:59:08.001Z</time></trkpt><trkpt lat="42.53872300706619" lon="13.019223201602935"><ele>1007.6</ele><time>2026-04-12T15:59:10Z</time></trkpt><trkpt lat="42.53868052157633" lon="13.019372800590796"><ele>1006.4000000000001</ele><time>2026-04-12T15:59:12Z</time></trkpt><trkpt lat="42.53867772369391" lon="13.019476832750174"><ele>1005.2</ele><time>2026-04-12T15:59:13Z</time></trkpt><trkpt lat="42.538697570463" lon="13.01958278738654"><ele>1004.0</ele><time>2026-04-12T15:59:14Z</time></trkpt><trkpt lat="42.53870173087584" lon="13.019711950340513"><ele>1003.9999999999999</ele><time>2026-04-12T15:59:15Z</time></trkpt><trkpt lat="42.5387166686129" lon="13.019799657758552"><ele>1004.0</ele><time>2026-04-12T15:59:16Z</time></trkpt><trkpt lat="42.538718473493745" lon="13.019909561723804"><ele>1003.9999999999999</ele><time>2026-04-12T15:59:17Z</time></trkpt><trkpt lat="42.53870223027029" lon="13.02001348830524"><ele>1003.9999999999999</ele><time>2026-04-12T15:59:18Z</time></trkpt><trkpt lat="42.538698609223864" lon="13.020116980351732"><ele>1004.0</ele><time>2026-04-12T15:59:19Z</time></trkpt><trkpt lat="42.53867780841668" lon="13.02020042882758"><ele>1003.9999999999999</ele><time>2026-04-12T15:59:20Z</time></trkpt><trkpt lat="42.53866460008356" lon="13.020293519626728"><ele>1003.9999999999999</ele><time>2026-04-12T15:59:21Z</time></trkpt><trkpt lat="42.53863707068579" lon="13.020382468131517"><ele>1005.8333333333334</ele><time>2026-04-12T15:59:22Z</time></trkpt><trkpt lat="42.53859528208321" lon="13.020468318761758"><ele>1007.6666666666667</ele><time>2026-04-12T15:59:23Z</time></trkpt><trkpt lat="42.5385609773627" lon="13.020546775730516"><ele>1009.5</ele><time>2026-04-12T15:59:24Z</time></trkpt><trkpt lat="42.538516280968736" lon="13.020610040680305"><ele>1011.3333333333333</ele><time>2026-04-12T15:59:25Z</time></trkpt><trkpt lat="42.53845032776821" lon="13.020659205206497"><ele>1013.1666666666666</ele><time>2026-04-12T15:59:26Z</time></trkpt><trkpt lat="42.538382368250986" lon="13.020712902117635"><ele>1015.0</ele><time>2026-04-12T15:59:27Z</time></trkpt><trkpt lat="42.5382873773126" lon="13.02079745548934"><ele>1013.9999999999999</ele><time>2026-04-12T15:59:29Z</time></trkpt><trkpt lat="42.53821312054506" lon="13.020933994177664"><ele>1013.0</ele><time>2026-04-12T15:59:31Z</time></trkpt><trkpt lat="42.53820129569793" lon="13.021082248002536"><ele>1012.0</ele><time>2026-04-12T15:59:33Z</time></trkpt><trkpt lat="42.538177908521995" lon="13.02116686187596"><ele>1011.0</ele><time>2026-04-12T15:59:34Z</time></trkpt><trkpt lat="42.53816558536789" lon="13.02126119655078"><ele>1009.9999999999999</ele><time>2026-04-12T15:59:35Z</time></trkpt><trkpt lat="42.53818257529534" lon="13.021346142077535"><ele>1009.0</ele><time>2026-04-12T15:59:36Z</time></trkpt><trkpt lat="42.53818908021192" lon="13.021435015904766"><ele>1009.0</ele><time>2026-04-12T15:59:37Z</time></trkpt><trkpt lat="42.53819653840592" lon="13.021608419273287"><ele>1009.0</ele><time>2026-04-12T15:59:39Z</time></trkpt><trkpt lat="42.53818987458065" lon="13.021774036114758"><ele>1009.0</ele><time>2026-04-12T15:59:41Z</time></trkpt><trkpt lat="42.53813317572375" lon="13.021934441999795"><ele>1009.0</ele><time>2026-04-12T15:59:43Z</time></trkpt><trkpt lat="42.53799912850242" lon="13.022000247188904"><ele>1009.4999999999999</ele><time>2026-04-12T15:59:45Z</time></trkpt><trkpt lat="42.53789956209855" lon="13.022021820015183"><ele>1010.0</ele><time>2026-04-12T15:59:46Z</time></trkpt><trkpt lat="42.53781013735563" lon="13.022093289921164"><ele>1010.5</ele><time>2026-04-12T15:59:47Z</time></trkpt><trkpt lat="42.53773856220812" lon="13.022148772167487"><ele>1011.0</ele><time>2026-04-12T15:59:48Z</time></trkpt><trkpt lat="42.53767614545431" lon="13.02219071356668"><ele>1011.4999999999999</ele><time>2026-04-12T15:59:49Z</time></trkpt><trkpt lat="42.537615937348335" lon="13.02223001132449"><ele>1012.0</ele><time>2026-04-12T15:59:50Z</time></trkpt><trkpt lat="42.537549150541366" lon="13.022263837640496"><ele>1011.4000000000001</ele><time>2026-04-12T15:59:51Z</time></trkpt><trkpt lat="42.53749208041414" lon="13.022327728202944"><ele>1010.8000000000001</ele><time>2026-04-12T15:59:52Z</time></trkpt><trkpt lat="42.53737632160961" lon="13.022393667700117"><ele>1010.2</ele><time>2026-04-12T15:59:54Z</time></trkpt><trkpt lat="42.537295464318824" lon="13.02247798115801"><ele>1009.6</ele><time>2026-04-12T15:59:56Z</time></trkpt><trkpt lat="42.53723450139707" lon="13.022579962280071"><ele>1009.0</ele><time>2026-04-12T15:59:58Z</time></trkpt><trkpt lat="42.537227099961676" lon="13.022731816782025"><ele>1008.9999999999999</ele><time>2026-04-12T16:00:00Z</time></trkpt><trkpt lat="42.53723987420868" lon="13.02283014565829"><ele>1009.0</ele><time>2026-04-12T16:00:01Z</time></trkpt><trkpt lat="42.537252403594586" lon="13.02292383017717"><ele>1009.0</ele><time>2026-04-12T16:00:02Z</time></trkpt><trkpt lat="42.53725921109783" lon="13.023019563193094"><ele>1009.0</ele><time>2026-04-12T16:00:03Z</time></trkpt><trkpt lat="42.53724572037488" lon="13.023176470993263"><ele>1008.9999999999999</ele><time>2026-04-12T16:00:05Z</time></trkpt><trkpt lat="42.53721556923173" lon="13.023258511198108"><ele>1009.0</ele><time>2026-04-12T16:00:06Z</time></trkpt><trkpt lat="42.53717227302392" lon="13.023350071695802"><ele>1009.5</ele><time>2026-04-12T16:00:07Z</time></trkpt><trkpt lat="42.53709399673095" lon="13.023493335768388"><ele>1010.0</ele><time>2026-04-12T16:00:08Z</time></trkpt><trkpt lat="42.53700909186265" lon="13.023582133632196"><ele>1010.5</ele><time>2026-04-12T16:00:10Z</time></trkpt><trkpt lat="42.536877327189536" lon="13.023666712996935"><ele>1011.0</ele><time>2026-04-12T16:00:12Z</time></trkpt><trkpt lat="42.53679919928547" lon="13.023688130974737"><ele>1011.0</ele><time>2026-04-12T16:00:14Z</time></trkpt><trkpt lat="42.536730884369994" lon="13.0237091171259"><ele>1011.0</ele><time>2026-04-12T16:00:16Z</time></trkpt><trkpt lat="42.53664986217874" lon="13.023721425618309"><ele>1011.0</ele><time>2026-04-12T16:00:18Z</time></trkpt><trkpt lat="42.53657716776739" lon="13.023743472353802"><ele>1011.0</ele><time>2026-04-12T16:00:19Z</time></trkpt><trkpt lat="42.536504214484786" lon="13.023769753043977"><ele>1011.0</ele><time>2026-04-12T16:00:20Z</time></trkpt><trkpt lat="42.536444383681214" lon="13.023803775074374"><ele>1011.0</ele><time>2026-04-12T16:00:21Z</time></trkpt><trkpt lat="42.536387217286176" lon="13.023972896590408"><ele>1011.0</ele><time>2026-04-12T16:00:23Z</time></trkpt><trkpt lat="42.53636749350999" lon="13.024102383634151"><ele>1010.9999999999999</ele><time>2026-04-12T16:00:24Z</time></trkpt><trkpt lat="42.5363483055048" lon="13.024265026823052"><ele>1010.9999999999999</ele><time>2026-04-12T16:00:25Z</time></trkpt><trkpt lat="42.5363305815332" lon="13.024386895010325"><ele>1011.0</ele><time>2026-04-12T16:00:26Z</time></trkpt><trkpt lat="42.53631891693678" lon="13.02449049740498"><ele>1011.0</ele><time>2026-04-12T16:00:27Z</time></trkpt><trkpt lat="42.53634113698195" lon="13.024602123598555"><ele>1010.4</ele><time>2026-04-12T16:00:28Z</time></trkpt><trkpt lat="42.53635361170817" lon="13.024726467280558"><ele>1009.8</ele><time>2026-04-12T16:00:29Z</time></trkpt><trkpt lat="42.53638278255939" lon="13.024809574406518"><ele>1009.1999999999999</ele><time>2026-04-12T16:00:30Z</time></trkpt><trkpt lat="42.53639328699152" lon="13.024962014751857"><ele>1008.5999999999999</ele><time>2026-04-12T16:00:32Z</time></trkpt><trkpt lat="42.53639816380206" lon="13.025068108119207"><ele>1008.0</ele><time>2026-04-12T16:00:33Z</time></trkpt><trkpt lat="42.536360399853905" lon="13.025235435414336"><ele>1008.0</ele><time>2026-04-12T16:00:35Z</time></trkpt><trkpt lat="42.53633567661896" lon="13.025326957103161"><ele>1008.0</ele><time>2026-04-12T16:00:36Z</time></trkpt><trkpt lat="42.53630749273824" lon="13.02540758296906"><ele>1008.0</ele><time>2026-04-12T16:00:37Z</time></trkpt><trkpt lat="42.536253238994476" lon="13.025534244649291"><ele>1008.0</ele><time>2026-04-12T16:00:39Z</time></trkpt><trkpt lat="42.536246039884176" lon="13.025645896238695"><ele>1008.0</ele><time>2026-04-12T16:00:41Z</time></trkpt><trkpt lat="42.5363010679747" lon="13.025770191940401"><ele>1008.0</ele><time>2026-04-12T16:00:43Z</time></trkpt><trkpt lat="42.536402939214476" lon="13.025880143272746"><ele>1009.1666666666666</ele><time>2026-04-12T16:00:45Z</time></trkpt><trkpt lat="42.53647253584181" lon="13.025918530281823"><ele>1010.3333333333333</ele><time>2026-04-12T16:00:46Z</time></trkpt><trkpt lat="42.53655063745888" lon="13.025938197063214"><ele>1011.5</ele><time>2026-04-12T16:00:48Z</time></trkpt><trkpt lat="42.53662310328454" lon="13.025932635521798"><ele>1012.6666666666666</ele><time>2026-04-12T16:00:50Z</time></trkpt><trkpt lat="42.5366987055554" lon="13.025991025907812"><ele>1013.8333333333333</ele><time>2026-04-12T16:00:52.001Z</time></trkpt><trkpt lat="42.53672699456057" lon="13.026109843733828"><ele>1015.0</ele><time>2026-04-12T16:00:54.001Z</time></trkpt><trkpt lat="42.536720443592415" lon="13.026233949481203"><ele>1015.0</ele><time>2026-04-12T16:00:56.001Z</time></trkpt><trkpt lat="42.53670118597387" lon="13.026378052666065"><ele>1015.0</ele><time>2026-04-12T16:00:58.001Z</time></trkpt><trkpt lat="42.536708896399915" lon="13.026495065631687"><ele>1015.0</ele><time>2026-04-12T16:01:00.001Z</time></trkpt><trkpt lat="42.53672025825194" lon="13.026598193115277"><ele>1015.0</ele><time>2026-04-12T16:01:01.001Z</time></trkpt><trkpt lat="42.53669766780163" lon="13.026766778985259"><ele>1015.0</ele><time>2026-04-12T16:01:03.001Z</time></trkpt><trkpt lat="42.53667326196292" lon="13.026852708464919"><ele>1014.9999999999999</ele><time>2026-04-12T16:01:04.001Z</time></trkpt><trkpt lat="42.53664193414896" lon="13.026930678150025"><ele>1015.0</ele><time>2026-04-12T16:01:05.001Z</time></trkpt><trkpt lat="42.53660216972552" lon="13.027002851625202"><ele>1015.0</ele><time>2026-04-12T16:01:07.001Z</time></trkpt><trkpt lat="42.536546641863936" lon="13.027088908215621"><ele>1015.0</ele><time>2026-04-12T16:01:10.001Z</time></trkpt><trkpt lat="42.53648682356658" lon="13.027172628479763"><ele>1014.9999999999999</ele><time>2026-04-12T16:01:13.001Z</time></trkpt><trkpt lat="42.53645495863455" lon="13.027291141008854"><ele>1015.0</ele><time>2026-04-12T16:01:15Z</time></trkpt><trkpt lat="42.53645005928073" lon="13.027452126276849"><ele>1014.2</ele><time>2026-04-12T16:01:17Z</time></trkpt><trkpt lat="42.53646834908443" lon="13.02762816852979"><ele>1013.4</ele><time>2026-04-12T16:01:19Z</time></trkpt><trkpt lat="42.53645887791828" lon="13.02773279356299"><ele>1012.5999999999999</ele><time>2026-04-12T16:01:20Z</time></trkpt><trkpt lat="42.536448659032814" lon="13.027837811542678"><ele>1011.8</ele><time>2026-04-12T16:01:21Z</time></trkpt><trkpt lat="42.53643129107441" lon="13.027955168978723"><ele>1011.0</ele><time>2026-04-12T16:01:22Z</time></trkpt><trkpt lat="42.53640168153801" lon="13.028070427132752"><ele>1011.0</ele><time>2026-04-12T16:01:23Z</time></trkpt><trkpt lat="42.53635703591322" lon="13.028167104722229"><ele>1011.0</ele><time>2026-04-12T16:01:24Z</time></trkpt><trkpt lat="42.53629309474069" lon="13.028251393746725"><ele>1011.0</ele><time>2026-04-12T16:01:25Z</time></trkpt><trkpt lat="42.53623076083914" lon="13.02832818805601"><ele>1011.0</ele><time>2026-04-12T16:01:26Z</time></trkpt><trkpt lat="42.53616744992993" lon="13.028393084166032"><ele>1011.0</ele><time>2026-04-12T16:01:27Z</time></trkpt><trkpt lat="42.53610138291063" lon="13.02847221228207"><ele>1011.0</ele><time>2026-04-12T16:01:28Z</time></trkpt><trkpt lat="42.536021885038316" lon="13.028570158986467"><ele>1011.0</ele><time>2026-04-12T16:01:29Z</time></trkpt><trkpt lat="42.53595544568502" lon="13.028661133344293"><ele>1011.0</ele><time>2026-04-12T16:01:30Z</time></trkpt><trkpt lat="42.53592089978265" lon="13.02874607052207"><ele>1011.0</ele><time>2026-04-12T16:01:31Z</time></trkpt><trkpt lat="42.535893336247874" lon="13.028842708213707"><ele>1011.0</ele><time>2026-04-12T16:01:32Z</time></trkpt><trkpt lat="42.53587600321131" lon="13.028957440573208"><ele>1011.0</ele><time>2026-04-12T16:01:33Z</time></trkpt><trkpt lat="42.535877607051006" lon="13.029083397166115"><ele>1011.0</ele><time>2026-04-12T16:01:34Z</time></trkpt><trkpt lat="42.53589712276942" lon="13.02922414214562"><ele>1011.0</ele><time>2026-04-12T16:01:35Z</time></trkpt><trkpt lat="42.535922236434914" lon="13.029360822502452"><ele>1010.9999999999999</ele><time>2026-04-12T16:01:36Z</time></trkpt><trkpt lat="42.535945038448745" lon="13.029497108085256"><ele>1010.9999999999999</ele><time>2026-04-12T16:01:37Z</time></trkpt><trkpt lat="42.53596457072996" lon="13.029603694024546"><ele>1011.0</ele><time>2026-04-12T16:01:38Z</time></trkpt><trkpt lat="42.53597072123359" lon="13.02968874391913"><ele>1011.0</ele><time>2026-04-12T16:01:39Z</time></trkpt><trkpt lat="42.53597394918874" lon="13.029841443406948"><ele>1011.5</ele><time>2026-04-12T16:01:41Z</time></trkpt><trkpt lat="42.53596012146808" lon="13.029989005522424"><ele>1012.0</ele><time>2026-04-12T16:01:43Z</time></trkpt><trkpt lat="42.5359436519235" lon="13.030076610658506"><ele>1012.5</ele><time>2026-04-12T16:01:44Z</time></trkpt><trkpt lat="42.53591780292012" lon="13.030172833954916"><ele>1013.0</ele><time>2026-04-12T16:01:45Z</time></trkpt><trkpt lat="42.53588957100146" lon="13.030274429784134"><ele>1013.5</ele><time>2026-04-12T16:01:46Z</time></trkpt><trkpt lat="42.53583959975181" lon="13.030369349204454"><ele>1014.0</ele><time>2026-04-12T16:01:47Z</time></trkpt><trkpt lat="42.535796862152395" lon="13.030474549887506"><ele>1014.0</ele><time>2026-04-12T16:01:48Z</time></trkpt><trkpt lat="42.53575606845334" lon="13.030581575141312"><ele>1014.0</ele><time>2026-04-12T16:01:49Z</time></trkpt><trkpt lat="42.535723530485015" lon="13.030691363619757"><ele>1014.0</ele><time>2026-04-12T16:01:50Z</time></trkpt><trkpt lat="42.53569397346838" lon="13.030787769762743"><ele>1014.0</ele><time>2026-04-12T16:01:51Z</time></trkpt><trkpt lat="42.53565573656222" lon="13.030892208991576"><ele>1014.0</ele><time>2026-04-12T16:01:52Z</time></trkpt><trkpt lat="42.535606102400855" lon="13.03100138638579"><ele>1014.0</ele><time>2026-04-12T16:01:53Z</time></trkpt><trkpt lat="42.5355593881895" lon="13.031106722788369"><ele>1013.4000000000001</ele><time>2026-04-12T16:01:54Z</time></trkpt><trkpt lat="42.53551828865773" lon="13.031211315406425"><ele>1012.8000000000001</ele><time>2026-04-12T16:01:55Z</time></trkpt><trkpt lat="42.535481430683916" lon="13.031325691938193"><ele>1012.1999999999999</ele><time>2026-04-12T16:01:56Z</time></trkpt><trkpt lat="42.53545102173987" lon="13.031432998354004"><ele>1011.5999999999999</ele><time>2026-04-12T16:01:57Z</time></trkpt><trkpt lat="42.53542960100428" lon="13.031560305873612"><ele>1011.0</ele><time>2026-04-12T16:01:58Z</time></trkpt><trkpt lat="42.53541371190186" lon="13.031686926335428"><ele>1010.8333333333334</ele><time>2026-04-12T16:01:59Z</time></trkpt><trkpt lat="42.53538842511266" lon="13.031803601895364"><ele>1010.6666666666667</ele><time>2026-04-12T16:02:00Z</time></trkpt><trkpt lat="42.535370222724445" lon="13.031923997915849"><ele>1010.5</ele><time>2026-04-12T16:02:01Z</time></trkpt><trkpt lat="42.53535169060905" lon="13.032039069600144"><ele>1010.3333333333334</ele><time>2026-04-12T16:02:02Z</time></trkpt><trkpt lat="42.535335909469424" lon="13.032143314727277"><ele>1010.1666666666667</ele><time>2026-04-12T16:02:03Z</time></trkpt><trkpt lat="42.53533475687358" lon="13.032252046555236"><ele>1010.0</ele><time>2026-04-12T16:02:04Z</time></trkpt><trkpt lat="42.53534131854251" lon="13.032369605391828"><ele>1010.8333333333334</ele><time>2026-04-12T16:02:05Z</time></trkpt><trkpt lat="42.53535306332402" lon="13.032475428724142"><ele>1011.6666666666667</ele><time>2026-04-12T16:02:06Z</time></trkpt><trkpt lat="42.5353655733492" lon="13.032575980093435"><ele>1012.5</ele><time>2026-04-12T16:02:07Z</time></trkpt><trkpt lat="42.53536554348384" lon="13.03267279003103"><ele>1013.3333333333333</ele><time>2026-04-12T16:02:08Z</time></trkpt><trkpt lat="42.535370395002445" lon="13.032780065882138"><ele>1014.1666666666666</ele><time>2026-04-12T16:02:09Z</time></trkpt><trkpt lat="42.53536058760191" lon="13.032896896928252"><ele>1015.0</ele><time>2026-04-12T16:02:10Z</time></trkpt><trkpt lat="42.5353465663615" lon="13.03300260373645"><ele>1014.9999999999999</ele><time>2026-04-12T16:02:11Z</time></trkpt><trkpt lat="42.53534131766507" lon="13.033111586592973"><ele>1015.0</ele><time>2026-04-12T16:02:12Z</time></trkpt><trkpt lat="42.535330268984694" lon="13.033219137087812"><ele>1015.0</ele><time>2026-04-12T16:02:13Z</time></trkpt><trkpt lat="42.53531223609953" lon="13.033326980134165"><ele>1015.0</ele><time>2026-04-12T16:02:14Z</time></trkpt><trkpt lat="42.535276957425346" lon="13.033435748484669"><ele>1014.9999999999999</ele><time>2026-04-12T16:02:15Z</time></trkpt><trkpt lat="42.535236745044294" lon="13.033539035483182"><ele>1015.0</ele><time>2026-04-12T16:02:16Z</time></trkpt><trkpt lat="42.535195893708995" lon="13.033643773589322"><ele>1014.4</ele><time>2026-04-12T16:02:17Z</time></trkpt><trkpt lat="42.53514425544981" lon="13.033760784013575"><ele>1013.8</ele><time>2026-04-12T16:02:18Z</time></trkpt><trkpt lat="42.53509246939823" lon="13.033864896442362"><ele>1013.2</ele><time>2026-04-12T16:02:19Z</time></trkpt><trkpt lat="42.535034524036185" lon="13.033961476089793"><ele>1012.6</ele><time>2026-04-12T16:02:20Z</time></trkpt><trkpt lat="42.53498297453322" lon="13.034066560193803"><ele>1012.0</ele><time>2026-04-12T16:02:21Z</time></trkpt><trkpt lat="42.53494504215451" lon="13.03415818462027"><ele>1011.4999999999999</ele><time>2026-04-12T16:02:22Z</time></trkpt><trkpt lat="42.534908894017754" lon="13.034255814413843"><ele>1011.0</ele><time>2026-04-12T16:02:23Z</time></trkpt><trkpt lat="42.5348605341358" lon="13.034351302203595"><ele>1010.5</ele><time>2026-04-12T16:02:24Z</time></trkpt><trkpt lat="42.53481439616112" lon="13.034459566868728"><ele>1010.0</ele><time>2026-04-12T16:02:25Z</time></trkpt><trkpt lat="42.5347712055518" lon="13.034568853221979"><ele>1009.4999999999999</ele><time>2026-04-12T16:02:26Z</time></trkpt><trkpt lat="42.53473335064084" lon="13.034687049296029"><ele>1009.0</ele><time>2026-04-12T16:02:27Z</time></trkpt><trkpt lat="42.5347060161842" lon="13.034801130412184"><ele>1009.0</ele><time>2026-04-12T16:02:28Z</time></trkpt><trkpt lat="42.53468001716121" lon="13.034900663077892"><ele>1009.0000000000001</ele><time>2026-04-12T16:02:29Z</time></trkpt><trkpt lat="42.53465523429298" lon="13.03500240786727"><ele>1009.0000000000001</ele><time>2026-04-12T16:02:30Z</time></trkpt><trkpt lat="42.53463872508994" lon="13.035137617169475"><ele>1009.0</ele><time>2026-04-12T16:02:32Z</time></trkpt><trkpt lat="42.534633407528304" lon="13.035280811700089"><ele>1009.0</ele><time>2026-04-12T16:02:34Z</time></trkpt><trkpt lat="42.53458449440513" lon="13.035460248826645"><ele>1008.8000000000001</ele><time>2026-04-12T16:02:36Z</time></trkpt><trkpt lat="42.53457231719381" lon="13.035564929640266"><ele>1008.6000000000001</ele><time>2026-04-12T16:02:37.001Z</time></trkpt><trkpt lat="42.53454393057125" lon="13.035737066101607"><ele>1008.4</ele><time>2026-04-12T16:02:39.001Z</time></trkpt><trkpt lat="42.53453954556344" lon="13.035864176829135"><ele>1008.2</ele><time>2026-04-12T16:02:40.001Z</time></trkpt><trkpt lat="42.53453576664721" lon="13.035994548429066"><ele>1008.0</ele><time>2026-04-12T16:02:41.001Z</time></trkpt><trkpt lat="42.534542011286305" lon="13.036116047059062"><ele>1008.2</ele><time>2026-04-12T16:02:42.001Z</time></trkpt><trkpt lat="42.53455083286294" lon="13.036222109431213"><ele>1008.4</ele><time>2026-04-12T16:02:43.001Z</time></trkpt><trkpt lat="42.53455607347205" lon="13.036326432157058"><ele>1008.6000000000001</ele><time>2026-04-12T16:02:44.001Z</time></trkpt><trkpt lat="42.5345739776083" lon="13.036508308920796"><ele>1008.8000000000001</ele><time>2026-04-12T16:02:46.001Z</time></trkpt><trkpt lat="42.534592296447364" lon="13.036619249476622"><ele>1009.0</ele><time>2026-04-12T16:02:47.001Z</time></trkpt><trkpt lat="42.534606999124" lon="13.036725812407601"><ele>1009.4999999999999</ele><time>2026-04-12T16:02:48.001Z</time></trkpt><trkpt lat="42.534620977312855" lon="13.036816171066484"><ele>1010.0</ele><time>2026-04-12T16:02:49.001Z</time></trkpt><trkpt lat="42.534645255356125" lon="13.036911072373686"><ele>1010.5</ele><time>2026-04-12T16:02:50.001Z</time></trkpt><trkpt lat="42.534671596475945" lon="13.037001488700648"><ele>1011.0</ele><time>2026-04-12T16:02:51.001Z</time></trkpt><trkpt lat="42.534695571155794" lon="13.037116987225101"><ele>1011.4999999999999</ele><time>2026-04-12T16:02:52.001Z</time></trkpt><trkpt lat="42.53472061345518" lon="13.037225010060812"><ele>1012.0</ele><time>2026-04-12T16:02:53.001Z</time></trkpt><trkpt lat="42.534747480919144" lon="13.037330508580943"><ele>1011.9999999999999</ele><time>2026-04-12T16:02:54.001Z</time></trkpt><trkpt lat="42.5347798636824" lon="13.037421068466468"><ele>1012.0</ele><time>2026-04-12T16:02:55.001Z</time></trkpt><trkpt lat="42.53481978689971" lon="13.037507440619235"><ele>1012.0</ele><time>2026-04-12T16:02:56.001Z</time></trkpt><trkpt lat="42.53486771886754" lon="13.037585519234991"><ele>1012.0</ele><time>2026-04-12T16:02:57.001Z</time></trkpt><trkpt lat="42.53492150327842" lon="13.037658531737767"><ele>1011.9999999999999</ele><time>2026-04-12T16:02:58.001Z</time></trkpt><trkpt lat="42.53496345120509" lon="13.0377354220102"><ele>1012.0</ele><time>2026-04-12T16:02:59.001Z</time></trkpt><trkpt lat="42.535005463616955" lon="13.03782668448178"><ele>1012.4999999999999</ele><time>2026-04-12T16:03:00.001Z</time></trkpt><trkpt lat="42.53503804586406" lon="13.037923391447427"><ele>1013.0</ele><time>2026-04-12T16:03:01.001Z</time></trkpt><trkpt lat="42.53505798485787" lon="13.038024659357115"><ele>1013.5</ele><time>2026-04-12T16:03:02.001Z</time></trkpt><trkpt lat="42.53506458217846" lon="13.03813325958405"><ele>1014.0</ele><time>2026-04-12T16:03:03.001Z</time></trkpt><trkpt lat="42.535065331801256" lon="13.038236877347437"><ele>1014.4999999999999</ele><time>2026-04-12T16:03:04.001Z</time></trkpt><trkpt lat="42.535071199899114" lon="13.038337667768225"><ele>1015.0</ele><time>2026-04-12T16:03:05.001Z</time></trkpt><trkpt lat="42.535076229176184" lon="13.038432557067198"><ele>1015.8</ele><time>2026-04-12T16:03:06.001Z</time></trkpt><trkpt lat="42.535099851958776" lon="13.038612168896472"><ele>1016.6</ele><time>2026-04-12T16:03:08.001Z</time></trkpt><trkpt lat="42.535123149060546" lon="13.038707865613857"><ele>1017.4000000000001</ele><time>2026-04-12T16:03:09.001Z</time></trkpt><trkpt lat="42.53516154916861" lon="13.038849567450443"><ele>1018.2</ele><time>2026-04-12T16:03:11.001Z</time></trkpt><trkpt lat="42.53517751263529" lon="13.039006264451718"><ele>1019.0</ele><time>2026-04-12T16:03:13.001Z</time></trkpt><trkpt lat="42.535181227865785" lon="13.039177621803098"><ele>1019.5000000000001</ele><time>2026-04-12T16:03:15.001Z</time></trkpt><trkpt lat="42.53518568896764" lon="13.039274821039347"><ele>1020.0</ele><time>2026-04-12T16:03:16.001Z</time></trkpt><trkpt lat="42.53518522492223" lon="13.039416600176226"><ele>1020.5</ele><time>2026-04-12T16:03:18.001Z</time></trkpt><trkpt lat="42.535153038303385" lon="13.03956881165465"><ele>1021.0</ele><time>2026-04-12T16:03:20.001Z</time></trkpt><trkpt lat="42.53514515023145" lon="13.039659157678063"><ele>1021.5000000000001</ele><time>2026-04-12T16:03:21Z</time></trkpt><trkpt lat="42.535137514325974" lon="13.03975308596271"><ele>1022.0</ele><time>2026-04-12T16:03:22Z</time></trkpt><trkpt lat="42.535101149396425" lon="13.03991137907959"><ele>1022.3333333333334</ele><time>2026-04-12T16:03:24Z</time></trkpt><trkpt lat="42.535085584995045" lon="13.040008650279972"><ele>1022.6666666666667</ele><time>2026-04-12T16:03:25Z</time></trkpt><trkpt lat="42.5350702896675" lon="13.040102746387564"><ele>1023.0</ele><time>2026-04-12T16:03:26Z</time></trkpt><trkpt lat="42.53503996284167" lon="13.04026120293599"><ele>1023.3333333333333</ele><time>2026-04-12T16:03:28Z</time></trkpt><trkpt lat="42.53501204703861" lon="13.04034025193442"><ele>1023.6666666666666</ele><time>2026-04-12T16:03:29Z</time></trkpt><trkpt lat="42.53497489347477" lon="13.040419841133655"><ele>1024.0</ele><time>2026-04-12T16:03:30Z</time></trkpt><trkpt lat="42.53493277556139" lon="13.04048707604527"><ele>1024.0</ele><time>2026-04-12T16:03:31Z</time></trkpt><trkpt lat="42.53490072274749" lon="13.040576219366043"><ele>1024.0</ele><time>2026-04-12T16:03:32Z</time></trkpt><trkpt lat="42.53489104746801" lon="13.04066991961113"><ele>1024.0</ele><time>2026-04-12T16:03:33Z</time></trkpt><trkpt lat="42.5348995294483" lon="13.04084793371908"><ele>1024.0</ele><time>2026-04-12T16:03:35Z</time></trkpt><trkpt lat="42.53490634943051" lon="13.040949912389072"><ele>1024.0</ele><time>2026-04-12T16:03:36Z</time></trkpt><trkpt lat="42.5349264359725" lon="13.041113857401426"><ele>1024.2</ele><time>2026-04-12T16:03:38Z</time></trkpt><trkpt lat="42.53495491547697" lon="13.041253149877067"><ele>1024.4</ele><time>2026-04-12T16:03:40Z</time></trkpt><trkpt lat="42.534996030904296" lon="13.041338359164378"><ele>1024.6</ele><time>2026-04-12T16:03:41Z</time></trkpt><trkpt lat="42.53502897586545" lon="13.041448165663898"><ele>1024.8</ele><time>2026-04-12T16:03:42Z</time></trkpt><trkpt lat="42.53505536629123" lon="13.041602708063055"><ele>1025.0</ele><time>2026-04-12T16:03:43Z</time></trkpt><trkpt lat="42.535073373743494" lon="13.041737381390899"><ele>1025.2</ele><time>2026-04-12T16:03:44Z</time></trkpt><trkpt lat="42.53511173602313" lon="13.041843817452886"><ele>1025.4</ele><time>2026-04-12T16:03:45Z</time></trkpt><trkpt lat="42.535158976808106" lon="13.041936129774571"><ele>1025.6</ele><time>2026-04-12T16:03:46Z</time></trkpt><trkpt lat="42.53520580117903" lon="13.042024845034076"><ele>1025.8</ele><time>2026-04-12T16:03:47Z</time></trkpt><trkpt lat="42.535266297237605" lon="13.042176379976711"><ele>1026.0</ele><time>2026-04-12T16:03:49Z</time></trkpt><trkpt lat="42.53529625301132" lon="13.042268994149675"><ele>1026.0</ele><time>2026-04-12T16:03:50Z</time></trkpt><trkpt lat="42.53532284048251" lon="13.042422950856288"><ele>1026.0</ele><time>2026-04-12T16:03:52Z</time></trkpt><trkpt lat="42.53531209038763" lon="13.042579550852464"><ele>1026.0</ele><time>2026-04-12T16:03:54Z</time></trkpt><trkpt lat="42.53528610301154" lon="13.042730274081107"><ele>1026.0</ele><time>2026-04-12T16:03:56Z</time></trkpt><trkpt lat="42.53525327519401" lon="13.042867429493933"><ele>1026.3333333333333</ele><time>2026-04-12T16:03:58Z</time></trkpt><trkpt lat="42.53523784196674" lon="13.042953533768934"><ele>1026.6666666666667</ele><time>2026-04-12T16:03:59Z</time></trkpt><trkpt lat="42.5352363322809" lon="13.043047821597499"><ele>1027.0</ele><time>2026-04-12T16:04:00Z</time></trkpt><trkpt lat="42.53524168506392" lon="13.043138975014385"><ele>1027.3333333333335</ele><time>2026-04-12T16:04:01Z</time></trkpt><trkpt lat="42.5352507475186" lon="13.043227869092776"><ele>1027.6666666666667</ele><time>2026-04-12T16:04:02Z</time></trkpt><trkpt lat="42.53525836609143" lon="13.043389273541731"><ele>1028.0</ele><time>2026-04-12T16:04:04Z</time></trkpt><trkpt lat="42.53524711221794" lon="13.043476789461728"><ele>1028.4</ele><time>2026-04-12T16:04:05Z</time></trkpt><trkpt lat="42.53523808202998" lon="13.043568967833478"><ele>1028.8</ele><time>2026-04-12T16:04:06Z</time></trkpt><trkpt lat="42.53521878326516" lon="13.043654325667301"><ele>1029.2</ele><time>2026-04-12T16:04:07Z</time></trkpt><trkpt lat="42.53517211779874" lon="13.043821752665018"><ele>1029.6</ele><time>2026-04-12T16:04:09Z</time></trkpt><trkpt lat="42.53512793831163" lon="13.043967960246235"><ele>1030.0</ele><time>2026-04-12T16:04:11Z</time></trkpt><trkpt lat="42.53507767700968" lon="13.044146550205335"><ele>1030.1666666666665</ele><time>2026-04-12T16:04:13Z</time></trkpt><trkpt lat="42.53504753140305" lon="13.04424811317938"><ele>1030.3333333333333</ele><time>2026-04-12T16:04:14Z</time></trkpt><trkpt lat="42.535021280098604" lon="13.044356411044024"><ele>1030.5</ele><time>2026-04-12T16:04:15Z</time></trkpt><trkpt lat="42.53498378701141" lon="13.044465562835152"><ele>1030.6666666666667</ele><time>2026-04-12T16:04:16Z</time></trkpt><trkpt lat="42.53494182664151" lon="13.04457850809873"><ele>1030.8333333333335</ele><time>2026-04-12T16:04:17Z</time></trkpt><trkpt lat="42.53489796310076" lon="13.044700388986488"><ele>1031.0</ele><time>2026-04-12T16:04:18Z</time></trkpt><trkpt lat="42.5348576100853" lon="13.044830500794845"><ele>1031.2</ele><time>2026-04-12T16:04:19Z</time></trkpt><trkpt lat="42.534815234173486" lon="13.044964270166638"><ele>1031.3999999999999</ele><time>2026-04-12T16:04:20Z</time></trkpt><trkpt lat="42.5347755714935" lon="13.045100163295798"><ele>1031.6</ele><time>2026-04-12T16:04:21Z</time></trkpt><trkpt lat="42.534751115717384" lon="13.045214610258526"><ele>1031.8</ele><time>2026-04-12T16:04:22Z</time></trkpt><trkpt lat="42.53472424067221" lon="13.04532778797292"><ele>1032.0</ele><time>2026-04-12T16:04:23Z</time></trkpt><trkpt lat="42.534691152601056" lon="13.045445025858532"><ele>1032.0</ele><time>2026-04-12T16:04:24Z</time></trkpt><trkpt lat="42.534656546233826" lon="13.045564660536481"><ele>1032.0</ele><time>2026-04-12T16:04:25Z</time></trkpt><trkpt lat="42.534631385672014" lon="13.045682662922468"><ele>1032.0</ele><time>2026-04-12T16:04:26Z</time></trkpt><trkpt lat="42.53458673486768" lon="13.045797892403792"><ele>1032.0</ele><time>2026-04-12T16:04:27Z</time></trkpt><trkpt lat="42.53455166071659" lon="13.045902673322702"><ele>1032.0</ele><time>2026-04-12T16:04:28Z</time></trkpt><trkpt lat="42.53450144306906" lon="13.045992498845616"><ele>1032.0</ele><time>2026-04-12T16:04:29Z</time></trkpt><trkpt lat="42.534453120462715" lon="13.046078920617598"><ele>1032.9999999999998</ele><time>2026-04-12T16:04:30Z</time></trkpt><trkpt lat="42.53440775761131" lon="13.046164856878722"><ele>1034.0</ele><time>2026-04-12T16:04:31Z</time></trkpt><trkpt lat="42.534366509701634" lon="13.046244970508615"><ele>1035.0</ele><time>2026-04-12T16:04:32Z</time></trkpt><trkpt lat="42.53432868283521" lon="13.046316176351462"><ele>1036.0</ele><time>2026-04-12T16:04:33Z</time></trkpt><trkpt lat="42.53429783078495" lon="13.046398272501627"><ele>1037.0</ele><time>2026-04-12T16:04:34Z</time></trkpt><trkpt lat="42.53426173861184" lon="13.046476053571993"><ele>1037.9999999999998</ele><time>2026-04-12T16:04:35Z</time></trkpt><trkpt lat="42.53422275814898" lon="13.046565368630192"><ele>1039.0</ele><time>2026-04-12T16:04:36Z</time></trkpt><trkpt lat="42.53419113760105" lon="13.046655659403841"><ele>1039.3333333333333</ele><time>2026-04-12T16:04:37Z</time></trkpt><trkpt lat="42.53415534198688" lon="13.04673887937679"><ele>1039.6666666666665</ele><time>2026-04-12T16:04:38Z</time></trkpt><trkpt lat="42.534113269771055" lon="13.046831971367261"><ele>1040.0</ele><time>2026-04-12T16:04:39Z</time></trkpt><trkpt lat="42.53407249585992" lon="13.04693284781145"><ele>1040.3333333333333</ele><time>2026-04-12T16:04:40.001Z</time></trkpt><trkpt lat="42.53403856763988" lon="13.047012922995815"><ele>1040.6666666666667</ele><time>2026-04-12T16:04:41.001Z</time></trkpt><trkpt lat="42.53400352701318" lon="13.047151001087729"><ele>1041.0</ele><time>2026-04-12T16:04:43.001Z</time></trkpt><trkpt lat="42.53402764651801" lon="13.047278094488023"><ele>1041.0</ele><time>2026-04-12T16:04:45.001Z</time></trkpt><trkpt lat="42.53408745608678" lon="13.047332533790724"><ele>1041.0</ele><time>2026-04-12T16:04:46.001Z</time></trkpt><trkpt lat="42.53414655025681" lon="13.047369288048886"><ele>1041.0</ele><time>2026-04-12T16:04:47.001Z</time></trkpt><trkpt lat="42.534212158655436" lon="13.04742378962027"><ele>1041.0</ele><time>2026-04-12T16:04:49.001Z</time></trkpt><trkpt lat="42.53426076272066" lon="13.047478557239005"><ele>1041.0</ele><time>2026-04-12T16:19:18Z</time></trkpt><trkpt lat="42.534262642829184" lon="13.047587868229662"><ele>1041.0</ele><time>2026-04-12T16:19:20Z</time></trkpt><trkpt lat="42.53421722444232" lon="13.047667949784794"><ele>1041.0</ele><time>2026-04-12T16:19:21Z</time></trkpt><trkpt lat="42.53415222224552" lon="13.047775873587447"><ele>1042.0</ele><time>2026-04-12T16:19:22Z</time></trkpt><trkpt lat="42.534087942550336" lon="13.047893093843092"><ele>1043.0</ele><time>2026-04-12T16:19:23Z</time></trkpt><trkpt lat="42.534023743605495" lon="13.048013787467436"><ele>1044.0</ele><time>2026-04-12T16:19:24Z</time></trkpt><trkpt lat="42.533954069632486" lon="13.048141910557042"><ele>1045.0</ele><time>2026-04-12T16:19:25Z</time></trkpt><trkpt lat="42.53388370925125" lon="13.048279469357555"><ele>1045.5</ele><time>2026-04-12T16:19:26Z</time></trkpt><trkpt lat="42.53381179080057" lon="13.04841937358329"><ele>1046.0</ele><time>2026-04-12T16:19:27Z</time></trkpt><trkpt lat="42.53373373149309" lon="13.048558656832519"><ele>1046.5</ele><time>2026-04-12T16:19:28Z</time></trkpt><trkpt lat="42.53365365906838" lon="13.048697044114679"><ele>1047.0</ele><time>2026-04-12T16:19:29Z</time></trkpt><trkpt lat="42.533570427038896" lon="13.048840829782355"><ele>1047.0</ele><time>2026-04-12T16:19:30Z</time></trkpt><trkpt lat="42.53349157784692" lon="13.048995957889993"><ele>1047.0</ele><time>2026-04-12T16:19:31Z</time></trkpt><trkpt lat="42.53340908955693" lon="13.049152758655786"><ele>1047.0</ele><time>2026-04-12T16:19:32Z</time></trkpt><trkpt lat="42.533322897648084" lon="13.049316585969438"><ele>1047.0</ele><time>2026-04-12T16:19:33Z</time></trkpt><trkpt lat="42.53323691863699" lon="13.049480796802952"><ele>1047.3333333333333</ele><time>2026-04-12T16:19:34Z</time></trkpt><trkpt lat="42.53314733229135" lon="13.049652046360588"><ele>1047.6666666666665</ele><time>2026-04-12T16:19:35Z</time></trkpt><trkpt lat="42.5330548236671" lon="13.049822968523099"><ele>1048.0</ele><time>2026-04-12T16:19:36Z</time></trkpt><trkpt lat="42.53295808281228" lon="13.049998459531079"><ele>1049.0</ele><time>2026-04-12T16:19:37Z</time></trkpt><trkpt lat="42.53286333630486" lon="13.05017967480586"><ele>1050.0</ele><time>2026-04-12T16:19:38Z</time></trkpt><trkpt lat="42.53276602663016" lon="13.05035843756681"><ele>1051.0</ele><time>2026-04-12T16:19:39Z</time></trkpt><trkpt lat="42.532662178783134" lon="13.050547732328138"><ele>1051.0</ele><time>2026-04-12T16:19:40Z</time></trkpt><trkpt lat="42.53256222435222" lon="13.05073446772489"><ele>1051.0</ele><time>2026-04-12T16:19:41Z</time></trkpt><trkpt lat="42.53245570311794" lon="13.050930417464173"><ele>1051.0</ele><time>2026-04-12T16:19:42Z</time></trkpt><trkpt lat="42.53234813634347" lon="13.051134579416566"><ele>1051.0</ele><time>2026-04-12T16:19:43Z</time></trkpt><trkpt lat="42.532233276422865" lon="13.051348526479817"><ele>1051.0</ele><time>2026-04-12T16:19:44Z</time></trkpt><trkpt lat="42.53212133945734" lon="13.05155882522956"><ele>1051.0</ele><time>2026-04-12T16:19:45Z</time></trkpt><trkpt lat="42.53200963839294" lon="13.051766853346354"><ele>1051.6666666666665</ele><time>2026-04-12T16:19:46Z</time></trkpt><trkpt lat="42.53190102700309" lon="13.051967465306541"><ele>1052.3333333333333</ele><time>2026-04-12T16:19:47Z</time></trkpt><trkpt lat="42.531784476890635" lon="13.052178795507052"><ele>1053.0</ele><time>2026-04-12T16:19:48Z</time></trkpt><trkpt lat="42.53167504414622" lon="13.052388995916486"><ele>1053.6666666666667</ele><time>2026-04-12T16:19:49Z</time></trkpt><trkpt lat="42.531565939685784" lon="13.052590193213502"><ele>1054.3333333333335</ele><time>2026-04-12T16:19:50Z</time></trkpt><trkpt lat="42.5314697317987" lon="13.05276678132663"><ele>1055.0</ele><time>2026-04-12T16:19:51Z</time></trkpt><trkpt lat="42.53137399497952" lon="13.05294122340298"><ele>1055.0</ele><time>2026-04-12T16:19:52Z</time></trkpt><trkpt lat="42.53126952725335" lon="13.053128658143711"><ele>1055.0</ele><time>2026-04-12T16:19:53Z</time></trkpt><trkpt lat="42.53116013338162" lon="13.053324439564795"><ele>1055.0</ele><time>2026-04-12T16:19:54Z</time></trkpt><trkpt lat="42.531048756858006" lon="13.053530586290258"><ele>1054.3333333333335</ele><time>2026-04-12T16:19:55Z</time></trkpt><trkpt lat="42.53093981711971" lon="13.053735841636733"><ele>1053.6666666666667</ele><time>2026-04-12T16:19:56Z</time></trkpt><trkpt lat="42.53082722122843" lon="13.053948969514465"><ele>1053.0</ele><time>2026-04-12T16:19:57Z</time></trkpt><trkpt lat="42.53071858978119" lon="13.054166512009095"><ele>1052.3333333333333</ele><time>2026-04-12T16:19:58Z</time></trkpt><trkpt lat="42.53062063964619" lon="13.054391312645867"><ele>1051.6666666666665</ele><time>2026-04-12T16:19:59Z</time></trkpt><trkpt lat="42.53053382396841" lon="13.054625141993116"><ele>1051.0</ele><time>2026-04-12T16:20:00Z</time></trkpt><trkpt lat="42.53045993101219" lon="13.05485769105207"><ele>1051.6666666666665</ele><time>2026-04-12T16:20:01Z</time></trkpt><trkpt lat="42.53039205602055" lon="13.05509493723816"><ele>1052.3333333333333</ele><time>2026-04-12T16:20:02Z</time></trkpt><trkpt lat="42.5303274359707" lon="13.055327357015598"><ele>1053.0</ele><time>2026-04-12T16:20:03Z</time></trkpt><trkpt lat="42.53026439819011" lon="13.055537228152685"><ele>1051.5</ele><time>2026-04-12T16:20:04Z</time></trkpt><trkpt lat="42.5302099833629" lon="13.055728777144466"><ele>1050.0</ele><time>2026-04-12T16:20:05Z</time></trkpt><trkpt lat="42.53015331470288" lon="13.055914457871248"><ele>1048.5</ele><time>2026-04-12T16:20:06Z</time></trkpt><trkpt lat="42.530093720801425" lon="13.056088652206013"><ele>1047.0</ele><time>2026-04-12T16:20:07Z</time></trkpt><trkpt lat="42.53003931904545" lon="13.056261525852724"><ele>1046.5</ele><time>2026-04-12T16:20:08Z</time></trkpt><trkpt lat="42.52999336786259" lon="13.056447927128687"><ele>1046.0</ele><time>2026-04-12T16:20:08.999Z</time></trkpt><trkpt lat="42.529979647540635" lon="13.05662286247907"><ele>1045.5</ele><time>2026-04-12T16:20:09.999Z</time></trkpt><trkpt lat="42.52998301575093" lon="13.056791934850333"><ele>1045.0</ele><time>2026-04-12T16:20:10.999Z</time></trkpt><trkpt lat="42.529983142313505" lon="13.05695327955073"><ele>1044.8</ele><time>2026-04-12T16:20:11.999Z</time></trkpt><trkpt lat="42.52996454965785" lon="13.057079370991078"><ele>1044.6</ele><time>2026-04-12T16:20:12.999Z</time></trkpt><trkpt lat="42.5298781414248" lon="13.057171938485698"><ele>1044.4</ele><time>2026-04-12T16:20:14Z</time></trkpt><trkpt lat="42.529762837827505" lon="13.057225934997058"><ele>1044.2</ele><time>2026-04-12T16:20:14.999Z</time></trkpt><trkpt lat="42.52964901887481" lon="13.057251993610071"><ele>1044.0</ele><time>2026-04-12T16:20:15.999Z</time></trkpt><trkpt lat="42.52957345555068" lon="13.05731624857587"><ele>1044.4</ele><time>2026-04-12T16:20:17Z</time></trkpt><trkpt lat="42.52952986780705" lon="13.057449250191764"><ele>1044.8000000000002</ele><time>2026-04-12T16:20:18Z</time></trkpt><trkpt lat="42.52954669412019" lon="13.05760664271007"><ele>1045.1999999999998</ele><time>2026-04-12T16:20:19Z</time></trkpt><trkpt lat="42.529611344382" lon="13.05772357548932"><ele>1045.6</ele><time>2026-04-12T16:20:20Z</time></trkpt><trkpt lat="42.52971308103049" lon="13.057777791739413"><ele>1046.0</ele><time>2026-04-12T16:20:21Z</time></trkpt><trkpt lat="42.5298286066652" lon="13.05778090033235"><ele>1046.0</ele><time>2026-04-12T16:20:22Z</time></trkpt><trkpt lat="42.529947744759625" lon="13.057755066206886"><ele>1046.0</ele><time>2026-04-12T16:20:23Z</time></trkpt><trkpt lat="42.53006236811293" lon="13.057765877794118"><ele>1046.0</ele><time>2026-04-12T16:20:24Z</time></trkpt><trkpt lat="42.53016439668688" lon="13.057828824697538"><ele>1046.0</ele><time>2026-04-12T16:20:25Z</time></trkpt><trkpt lat="42.530232659127435" lon="13.057959289177795"><ele>1046.0</ele><time>2026-04-12T16:20:26Z</time></trkpt><trkpt lat="42.53026176343405" lon="13.05814024837829"><ele>1046.0</ele><time>2026-04-12T16:20:27Z</time></trkpt><trkpt lat="42.530238264135" lon="13.058320824889728"><ele>1046.0</ele><time>2026-04-12T16:20:28Z</time></trkpt><trkpt lat="42.53016814378911" lon="13.058459772619353"><ele>1046.0</ele><time>2026-04-12T16:20:29Z</time></trkpt><trkpt lat="42.53006308527428" lon="13.05855185341589"><ele>1045.25</ele><time>2026-04-12T16:20:30Z</time></trkpt><trkpt lat="42.52999482532561" lon="13.058657052889698"><ele>1044.5</ele><time>2026-04-12T16:20:31Z</time></trkpt><trkpt lat="42.529989966255506" lon="13.058819324401371"><ele>1043.75</ele><time>2026-04-12T16:20:32Z</time></trkpt><trkpt lat="42.5300261654674" lon="13.05899287577098"><ele>1043.0</ele><time>2026-04-12T16:20:33Z</time></trkpt><trkpt lat="42.530117478469606" lon="13.059133156968501"><ele>1041.5</ele><time>2026-04-12T16:20:34Z</time></trkpt><trkpt lat="42.53023848535934" lon="13.059227347946733"><ele>1040.0</ele><time>2026-04-12T16:20:35Z</time></trkpt><trkpt lat="42.53037238304681" lon="13.059266906189134"><ele>1038.5</ele><time>2026-04-12T16:20:36Z</time></trkpt><trkpt lat="42.530503397901725" lon="13.059273101322525"><ele>1037.0</ele><time>2026-04-12T16:20:37Z</time></trkpt><trkpt lat="42.53062947509151" lon="13.059296898325318"><ele>1039.75</ele><time>2026-04-12T16:20:38Z</time></trkpt><trkpt lat="42.5307281845197" lon="13.059406172036054"><ele>1042.5</ele><time>2026-04-12T16:20:39Z</time></trkpt><trkpt lat="42.53078501102455" lon="13.059580264649762"><ele>1045.25</ele><time>2026-04-12T16:20:40Z</time></trkpt><trkpt lat="42.530802802131305" lon="13.059780944901988"><ele>1048.0</ele><time>2026-04-12T16:20:41Z</time></trkpt><trkpt lat="42.5307913213517" lon="13.059976899323432"><ele>1048.0</ele><time>2026-04-12T16:20:42Z</time></trkpt><trkpt lat="42.53072263511865" lon="13.06015835594043"><ele>1048.0</ele><time>2026-04-12T16:20:43Z</time></trkpt><trkpt lat="42.530593840904274" lon="13.060296438160634"><ele>1048.0</ele><time>2026-04-12T16:20:44Z</time></trkpt><trkpt lat="42.530485704706706" lon="13.060406582714736"><ele>1048.0</ele><time>2026-04-12T16:20:45Z</time></trkpt><trkpt lat="42.53042509217158" lon="13.060529133980719"><ele>1048.0</ele><time>2026-04-12T16:20:46Z</time></trkpt><trkpt lat="42.53043323896537" lon="13.060684924778826"><ele>1048.0</ele><time>2026-04-12T16:20:47Z</time></trkpt><trkpt lat="42.530501352934564" lon="13.060815764839667"><ele>1048.0</ele><time>2026-04-12T16:20:48Z</time></trkpt><trkpt lat="42.53060001952934" lon="13.060907304067289"><ele>1046.75</ele><time>2026-04-12T16:20:49Z</time></trkpt><trkpt lat="42.53071650506756" lon="13.06097491045071"><ele>1045.5</ele><time>2026-04-12T16:20:50Z</time></trkpt><trkpt lat="42.53083025291945" lon="13.061035252101204"><ele>1044.25</ele><time>2026-04-12T16:20:51Z</time></trkpt><trkpt lat="42.53093218478469" lon="13.06109646796228"><ele>1043.0</ele><time>2026-04-12T16:20:52Z</time></trkpt><trkpt lat="42.531014138952365" lon="13.061173024122857"><ele>1043.0</ele><time>2026-04-12T16:20:53Z</time></trkpt><trkpt lat="42.53106550938149" lon="13.061285453373525"><ele>1043.0</ele><time>2026-04-12T16:20:54Z</time></trkpt><trkpt lat="42.53107458455215" lon="13.061420091542562"><ele>1043.0</ele><time>2026-04-12T16:20:55Z</time></trkpt><trkpt lat="42.53101131851024" lon="13.061544272601227"><ele>1043.0</ele><time>2026-04-12T16:20:56Z</time></trkpt><trkpt lat="42.53091555472164" lon="13.061615135725157"><ele>1043.0</ele><time>2026-04-12T16:20:57Z</time></trkpt><trkpt lat="42.530793934525335" lon="13.061630024081822"><ele>1042.5</ele><time>2026-04-12T16:20:58Z</time></trkpt><trkpt lat="42.530676729881634" lon="13.061624980145435"><ele>1042.0</ele><time>2026-04-12T16:20:59Z</time></trkpt><trkpt lat="42.530557181704665" lon="13.061626849974518"><ele>1041.5</ele><time>2026-04-12T16:21:00Z</time></trkpt><trkpt lat="42.530435386562466" lon="13.061643411683823"><ele>1041.0</ele><time>2026-04-12T16:21:01Z</time></trkpt><trkpt lat="42.53031931605057" lon="13.061713902703234"><ele>1038.0</ele><time>2026-04-12T16:21:02Z</time></trkpt><trkpt lat="42.53023596796159" lon="13.061842595801705"><ele>1035.0</ele><time>2026-04-12T16:21:03Z</time></trkpt><trkpt lat="42.53018491485591" lon="13.061993774174965"><ele>1032.0</ele><time>2026-04-12T16:21:04Z</time></trkpt><trkpt lat="42.53012452057336" lon="13.062124104408166"><ele>1029.0</ele><time>2026-04-12T16:21:05Z</time></trkpt><trkpt lat="42.530022772333716" lon="13.062190819722883"><ele>1029.0</ele><time>2026-04-12T16:21:06Z</time></trkpt><trkpt lat="42.52988885513627" lon="13.062212751803978"><ele>1029.0</ele><time>2026-04-12T16:21:07Z</time></trkpt><trkpt lat="42.529750223734005" lon="13.062214361595817"><ele>1029.0</ele><time>2026-04-12T16:21:08Z</time></trkpt><trkpt lat="42.52960623774906" lon="13.06224238897603"><ele>1029.0</ele><time>2026-04-12T16:21:09Z</time></trkpt><trkpt lat="42.529453491286354" lon="13.062308390120023"><ele>1027.6666666666667</ele><time>2026-04-12T16:21:10Z</time></trkpt><trkpt lat="42.5292972027457" lon="13.062409023140551"><ele>1026.3333333333335</ele><time>2026-04-12T16:21:11Z</time></trkpt><trkpt lat="42.52914978635816" lon="13.06253702394416"><ele>1025.0</ele><time>2026-04-12T16:21:12Z</time></trkpt><trkpt lat="42.52902064875636" lon="13.06269983757443"><ele>1025.0</ele><time>2026-04-12T16:21:13Z</time></trkpt><trkpt lat="42.528916264908965" lon="13.062864701791439"><ele>1025.0</ele><time>2026-04-12T16:21:14Z</time></trkpt><trkpt lat="42.52883817499189" lon="13.063046851386494"><ele>1025.0</ele><time>2026-04-12T16:21:15Z</time></trkpt><trkpt lat="42.52877422866585" lon="13.063227173654456"><ele>1022.25</ele><time>2026-04-12T16:21:16Z</time></trkpt><trkpt lat="42.528720654896446" lon="13.063415672159492"><ele>1019.5</ele><time>2026-04-12T16:21:17Z</time></trkpt><trkpt lat="42.52868757518312" lon="13.063599239522938"><ele>1016.75</ele><time>2026-04-12T16:21:18Z</time></trkpt><trkpt lat="42.52867501097214" lon="13.063773438370731"><ele>1014.0</ele><time>2026-04-12T16:21:19Z</time></trkpt><trkpt lat="42.5286897104144" lon="13.063958874318876"><ele>1016.6666666666667</ele><time>2026-04-12T16:21:20Z</time></trkpt><trkpt lat="42.52875141542378" lon="13.064143415369022"><ele>1019.3333333333334</ele><time>2026-04-12T16:21:21Z</time></trkpt><trkpt lat="42.52885308061439" lon="13.064307886641698"><ele>1022.0</ele><time>2026-04-12T16:21:22Z</time></trkpt><trkpt lat="42.52899097412454" lon="13.064440063564275"><ele>1022.0</ele><time>2026-04-12T16:21:23Z</time></trkpt><trkpt lat="42.52915311802226" lon="13.06454037713313"><ele>1022.0</ele><time>2026-04-12T16:21:24Z</time></trkpt><trkpt lat="42.52930254479976" lon="13.064637511708778"><ele>1022.0</ele><time>2026-04-12T16:21:25Z</time></trkpt><trkpt lat="42.52942481920278" lon="13.064749991728139"><ele>1022.0</ele><time>2026-04-12T16:21:26Z</time></trkpt><trkpt lat="42.52952460602945" lon="13.064884088899428"><ele>1022.0</ele><time>2026-04-12T16:21:27Z</time></trkpt><trkpt lat="42.52960629978276" lon="13.06505474002284"><ele>1022.0</ele><time>2026-04-12T16:21:28Z</time></trkpt><trkpt lat="42.52966535103492" lon="13.06525578801964"><ele>1021.3333333333334</ele><time>2026-04-12T16:21:29Z</time></trkpt><trkpt lat="42.5297077111641" lon="13.065468957573653"><ele>1020.6666666666667</ele><time>2026-04-12T16:21:30Z</time></trkpt><trkpt lat="42.529767238646116" lon="13.065668104943287"><ele>1020.0</ele><time>2026-04-12T16:21:31Z</time></trkpt><trkpt lat="42.5298586589775" lon="13.065830182220704"><ele>1018.5</ele><time>2026-04-12T16:21:32Z</time></trkpt><trkpt lat="42.52996148888691" lon="13.065962906057804"><ele>1017.0</ele><time>2026-04-12T16:21:33Z</time></trkpt><trkpt lat="42.530057357983104" lon="13.066114117814188"><ele>1015.5</ele><time>2026-04-12T16:21:34Z</time></trkpt><trkpt lat="42.530106167016015" lon="13.066283545927538"><ele>1014.0</ele><time>2026-04-12T16:21:35Z</time></trkpt><trkpt lat="42.53011407694709" lon="13.066475629556003"><ele>1015.5</ele><time>2026-04-12T16:21:36Z</time></trkpt><trkpt lat="42.530155976557346" lon="13.066633441307562"><ele>1017.0</ele><time>2026-04-12T16:21:37Z</time></trkpt><trkpt lat="42.53021644804337" lon="13.06677123420379"><ele>1018.5</ele><time>2026-04-12T16:21:38Z</time></trkpt><trkpt lat="42.53033811095283" lon="13.06684488937685"><ele>1020.0</ele><time>2026-04-12T16:21:39Z</time></trkpt><trkpt lat="42.53046057532231" lon="13.066880840763337"><ele>1020.0</ele><time>2026-04-12T16:21:40Z</time></trkpt><trkpt lat="42.53057300962682" lon="13.066949632551157"><ele>1020.0</ele><time>2026-04-12T16:21:41Z</time></trkpt><trkpt lat="42.530645747760644" lon="13.067113736212084"><ele>1020.0</ele><time>2026-04-12T16:21:42Z</time></trkpt><trkpt lat="42.530696437815855" lon="13.06728651365555"><ele>1020.0</ele><time>2026-04-12T16:21:43Z</time></trkpt><trkpt lat="42.530752076899034" lon="13.067450666566133"><ele>1016.2</ele><time>2026-04-12T16:21:44Z</time></trkpt><trkpt lat="42.53080340377657" lon="13.067601084614752"><ele>1012.4</ele><time>2026-04-12T16:21:45Z</time></trkpt><trkpt lat="42.530896027874064" lon="13.067711026708437"><ele>1008.5999999999999</ele><time>2026-04-12T16:21:46Z</time></trkpt><trkpt lat="42.530991133501175" lon="13.067772452681787"><ele>1004.8</ele><time>2026-04-12T16:21:47Z</time></trkpt><trkpt lat="42.531073979132906" lon="13.067797296811815"><ele>1001.0</ele><time>2026-04-12T16:21:48Z</time></trkpt><trkpt lat="42.53114075136307" lon="13.067812121518532"><ele>1001.0</ele><time>2026-04-12T16:21:49Z</time></trkpt><trkpt lat="42.53119717707945" lon="13.067927036907916"><ele>1000.9999999999999</ele><time>2026-04-12T16:21:51Z</time></trkpt><trkpt lat="42.53108793785745" lon="13.067984946195473"><ele>1000.9999999999999</ele><time>2026-04-12T16:21:53Z</time></trkpt><trkpt lat="42.53098906893354" lon="13.0679686348087"><ele>1001.0</ele><time>2026-04-12T16:21:54Z</time></trkpt><trkpt lat="42.53087185220365" lon="13.067935489965631"><ele>1001.0</ele><time>2026-04-12T16:21:55Z</time></trkpt><trkpt lat="42.53076744350631" lon="13.067868626499465"><ele>1001.0</ele><time>2026-04-12T16:21:56Z</time></trkpt><trkpt lat="42.53069585694199" lon="13.067742033212454"><ele>1000.9999999999999</ele><time>2026-04-12T16:21:57Z</time></trkpt><trkpt lat="42.53065302064466" lon="13.067592606106194"><ele>1000.9999999999999</ele><time>2026-04-12T16:21:58Z</time></trkpt><trkpt lat="42.53061036301748" lon="13.067458991670799"><ele>1001.0</ele><time>2026-04-12T16:21:59Z</time></trkpt><trkpt lat="42.53055338628545" lon="13.067340762186227"><ele>1001.0</ele><time>2026-04-12T16:22:00Z</time></trkpt><trkpt lat="42.53048689654142" lon="13.0672369606184"><ele>1001.25</ele><time>2026-04-12T16:22:01Z</time></trkpt><trkpt lat="42.53039759731727" lon="13.067144551105972"><ele>1001.5</ele><time>2026-04-12T16:22:02Z</time></trkpt><trkpt lat="42.530276398449644" lon="13.067092640587793"><ele>1001.75</ele><time>2026-04-12T16:22:03Z</time></trkpt><trkpt lat="42.53014678866584" lon="13.067102222273899"><ele>1002.0</ele><time>2026-04-12T16:22:04Z</time></trkpt><trkpt lat="42.53001955998731" lon="13.06715793549526"><ele>1002.0</ele><time>2026-04-12T16:22:05Z</time></trkpt><trkpt lat="42.52991435234833" lon="13.067242354788341"><ele>1002.0</ele><time>2026-04-12T16:22:06Z</time></trkpt><trkpt lat="42.52983443628669" lon="13.067343135073004"><ele>1002.0</ele><time>2026-04-12T16:22:07Z</time></trkpt><trkpt lat="42.529757614672" lon="13.067398404958467"><ele>1002.0</ele><time>2026-04-12T16:22:08Z</time></trkpt><trkpt lat="42.52967369284141" lon="13.067414926162186"><ele>1002.0</ele><time>2026-04-12T16:22:09Z</time></trkpt><trkpt lat="42.529594058271506" lon="13.067383461244106"><ele>997.25</ele><time>2026-04-12T16:22:10Z</time></trkpt><trkpt lat="42.529525527963095" lon="13.067292578997623"><ele>992.5</ele><time>2026-04-12T16:22:11Z</time></trkpt><trkpt lat="42.52948655410652" lon="13.067122955435984"><ele>987.75</ele><time>2026-04-12T16:22:12Z</time></trkpt><trkpt lat="42.52944538662957" lon="13.066956243562048"><ele>983.0</ele><time>2026-04-12T16:22:13Z</time></trkpt><trkpt lat="42.52941086147994" lon="13.066807715714143"><ele>983.0</ele><time>2026-04-12T16:22:14Z</time></trkpt><trkpt lat="42.52935173267567" lon="13.066720414787937"><ele>983.0</ele><time>2026-04-12T16:22:14.999Z</time></trkpt><trkpt lat="42.52925871986155" lon="13.066695015166657"><ele>983.0</ele><time>2026-04-12T16:22:15.999Z</time></trkpt><trkpt lat="42.529160918678954" lon="13.066763868179734"><ele>983.0</ele><time>2026-04-12T16:22:16.999Z</time></trkpt><trkpt lat="42.529092688314414" lon="13.066879019741648"><ele>983.0</ele><time>2026-04-12T16:22:17.999Z</time></trkpt><trkpt lat="42.52905077536473" lon="13.06702005113143"><ele>983.0</ele><time>2026-04-12T16:22:18.999Z</time></trkpt><trkpt lat="42.52899153886715" lon="13.067156357631925"><ele>983.0</ele><time>2026-04-12T16:22:19.999Z</time></trkpt><trkpt lat="42.52887730799596" lon="13.067220227775033"><ele>983.0</ele><time>2026-04-12T16:22:20.999Z</time></trkpt><trkpt lat="42.52876438829015" lon="13.067273817396853"><ele>983.0</ele><time>2026-04-12T16:22:21.999Z</time></trkpt><trkpt lat="42.52865846877929" lon="13.06730093060285"><ele>980.0</ele><time>2026-04-12T16:22:22.999Z</time></trkpt><trkpt lat="42.52856405398163" lon="13.06730920585635"><ele>977.0</ele><time>2026-04-12T16:22:23.999Z</time></trkpt><trkpt lat="42.52849012136928" lon="13.06720058623738"><ele>974.0</ele><time>2026-04-12T16:22:24.999Z</time></trkpt><trkpt lat="42.52845586843986" lon="13.067057928689929"><ele>971.0</ele><time>2026-04-12T16:22:25.999Z</time></trkpt><trkpt lat="42.52843821810972" lon="13.066909068182943"><ele>968.0</ele><time>2026-04-12T16:22:26.999Z</time></trkpt><trkpt lat="42.52842306401639" lon="13.066768697955252"><ele>968.0000000000001</ele><time>2026-04-12T16:22:27.999Z</time></trkpt><trkpt lat="42.52840105492762" lon="13.066653999246642"><ele>968.0</ele><time>2026-04-12T16:22:28.999Z</time></trkpt><trkpt lat="42.52834204827909" lon="13.066584747330726"><ele>968.0</ele><time>2026-04-12T16:22:29.999Z</time></trkpt><trkpt lat="42.52826182337707" lon="13.066588594857015"><ele>968.0</ele><time>2026-04-12T16:22:30.999Z</time></trkpt><trkpt lat="42.528199424285646" lon="13.066639427619124"><ele>968.0000000000001</ele><time>2026-04-12T16:22:31.999Z</time></trkpt><trkpt lat="42.528174474737156" lon="13.066760926803498"><ele>968.0</ele><time>2026-04-12T16:22:32.999Z</time></trkpt><trkpt lat="42.528224786412686" lon="13.066897679098242"><ele>968.0</ele><time>2026-04-12T16:22:33.999Z</time></trkpt><trkpt lat="42.52826441924838" lon="13.067024220304383"><ele>968.0</ele><time>2026-04-12T16:22:34.999Z</time></trkpt><trkpt lat="42.52830922808119" lon="13.06715020288672"><ele>968.0</ele><time>2026-04-12T16:22:35.999Z</time></trkpt><trkpt lat="42.52836514641168" lon="13.06727812492571"><ele>968.0</ele><time>2026-04-12T16:22:36.999Z</time></trkpt><trkpt lat="42.52842624957018" lon="13.067408580519306"><ele>968.0</ele><time>2026-04-12T16:22:37.999Z</time></trkpt><trkpt lat="42.52849973607989" lon="13.067526457325217"><ele>968.0</ele><time>2026-04-12T16:22:38.999Z</time></trkpt><trkpt lat="42.528604263344796" lon="13.067607620760349"><ele>968.0</ele><time>2026-04-12T16:22:39.999Z</time></trkpt><trkpt lat="42.52873670928029" lon="13.067614157050107"><ele>968.0</ele><time>2026-04-12T16:22:40.999Z</time></trkpt><trkpt lat="42.52885637145246" lon="13.067565059905794"><ele>968.0</ele><time>2026-04-12T16:22:41.999Z</time></trkpt><trkpt lat="42.52896347574697" lon="13.067532492885826"><ele>968.0</ele><time>2026-04-12T16:22:42.999Z</time></trkpt><trkpt lat="42.52906680762264" lon="13.067541174305783"><ele>968.0</ele><time>2026-04-12T16:22:43.999Z</time></trkpt><trkpt lat="42.52916332399818" lon="13.067622195902057"><ele>968.0</ele><time>2026-04-12T16:22:45Z</time></trkpt><trkpt lat="42.52919457654237" lon="13.06778039179714"><ele>968.0</ele><time>2026-04-12T16:22:46Z</time></trkpt><trkpt lat="42.52924474192055" lon="13.067931149762035"><ele>968.0</ele><time>2026-04-12T16:22:47Z</time></trkpt><trkpt lat="42.52928429483598" lon="13.068083423863104"><ele>968.0</ele><time>2026-04-12T16:22:48Z</time></trkpt><trkpt lat="42.52933148021694" lon="13.068235645929645"><ele>968.0</ele><time>2026-04-12T16:22:49Z</time></trkpt><trkpt lat="42.52939491617129" lon="13.06839042545484"><ele>968.0</ele><time>2026-04-12T16:22:50Z</time></trkpt><trkpt lat="42.529465410260045" lon="13.068523186506381"><ele>966.75</ele><time>2026-04-12T16:22:51Z</time></trkpt><trkpt lat="42.529561062749984" lon="13.068624980412856"><ele>965.5</ele><time>2026-04-12T16:22:52Z</time></trkpt><trkpt lat="42.52967764985943" lon="13.0686925276181"><ele>964.25</ele><time>2026-04-12T16:22:53Z</time></trkpt><trkpt lat="42.52979491744447" lon="13.068737512347353"><ele>963.0</ele><time>2026-04-12T16:22:54Z</time></trkpt><trkpt lat="42.52992755513853" lon="13.068760295512595"><ele>963.0</ele><time>2026-04-12T16:22:55Z</time></trkpt><trkpt lat="42.53006227916385" lon="13.068772326701021"><ele>963.0</ele><time>2026-04-12T16:22:56Z</time></trkpt><trkpt lat="42.530187492793694" lon="13.068781047370354"><ele>963.0</ele><time>2026-04-12T16:22:57Z</time></trkpt><trkpt lat="42.530312158298194" lon="13.068777065589918"><ele>963.0</ele><time>2026-04-12T16:22:58Z</time></trkpt><trkpt lat="42.53043308281543" lon="13.068818748533342"><ele>967.6666666666667</ele><time>2026-04-12T16:22:59Z</time></trkpt><trkpt lat="42.530543239697245" lon="13.06894060866209"><ele>972.3333333333334</ele><time>2026-04-12T16:23:00Z</time></trkpt><trkpt lat="42.53060318019119" lon="13.069134017586611"><ele>977.0</ele><time>2026-04-12T16:23:01Z</time></trkpt><trkpt lat="42.530682225247496" lon="13.069328771064049"><ele>967.6666666666667</ele><time>2026-04-12T16:23:02Z</time></trkpt><trkpt lat="42.53071642872211" lon="13.069554996922816"><ele>958.3333333333333</ele><time>2026-04-12T16:23:03Z</time></trkpt><trkpt lat="42.53073855710632" lon="13.069766192985362"><ele>949.0</ele><time>2026-04-12T16:23:04Z</time></trkpt><trkpt lat="42.53072597190422" lon="13.069959789809792"><ele>945.5</ele><time>2026-04-12T16:23:05Z</time></trkpt><trkpt lat="42.53068537080349" lon="13.070119184055487"><ele>942.0</ele><time>2026-04-12T16:23:06Z</time></trkpt><trkpt lat="42.530614569171085" lon="13.070243096669637"><ele>938.5</ele><time>2026-04-12T16:23:07Z</time></trkpt><trkpt lat="42.53049853702191" lon="13.070332092555638"><ele>935.0</ele><time>2026-04-12T16:23:08Z</time></trkpt><trkpt lat="42.53036530810056" lon="13.070461523762706"><ele>934.25</ele><time>2026-04-12T16:23:09Z</time></trkpt><trkpt lat="42.53022336075403" lon="13.070571197164695"><ele>933.5</ele><time>2026-04-12T16:23:10Z</time></trkpt><trkpt lat="42.53009771079086" lon="13.070672944984155"><ele>932.75</ele><time>2026-04-12T16:23:11Z</time></trkpt><trkpt lat="42.53001990912146" lon="13.070813781630434"><ele>932.0</ele><time>2026-04-12T16:23:12Z</time></trkpt><trkpt lat="42.529928286845774" lon="13.07092045634875"><ele>932.0</ele><time>2026-04-12T16:23:13Z</time></trkpt><trkpt lat="42.52982922018504" lon="13.070998276026526"><ele>932.0</ele><time>2026-04-12T16:23:14Z</time></trkpt><trkpt lat="42.52971181375136" lon="13.070966429789438"><ele>932.0</ele><time>2026-04-12T16:23:15Z</time></trkpt><trkpt lat="42.52957159600774" lon="13.070939967031979"><ele>932.0</ele><time>2026-04-12T16:23:16Z</time></trkpt><trkpt lat="42.529435597260765" lon="13.070941819233257"><ele>929.0</ele><time>2026-04-12T16:23:17Z</time></trkpt><trkpt lat="42.52929292373213" lon="13.070942454672258"><ele>926.0</ele><time>2026-04-12T16:23:18Z</time></trkpt><trkpt lat="42.52916238774666" lon="13.070946635754447"><ele>923.0</ele><time>2026-04-12T16:23:19Z</time></trkpt><trkpt lat="42.529040268787305" lon="13.070941638361951"><ele>920.0</ele><time>2026-04-12T16:23:20Z</time></trkpt><trkpt lat="42.5289265894764" lon="13.070939333268003"><ele>920.0</ele><time>2026-04-12T16:23:21Z</time></trkpt><trkpt lat="42.528827548448376" lon="13.070998070437648"><ele>920.0</ele><time>2026-04-12T16:23:22Z</time></trkpt><trkpt lat="42.52874582438981" lon="13.071094807437792"><ele>920.0</ele><time>2026-04-12T16:23:23Z</time></trkpt><trkpt lat="42.52869679049035" lon="13.071247370197982"><ele>920.0</ele><time>2026-04-12T16:23:24Z</time></trkpt><trkpt lat="42.52869782926806" lon="13.07142868981555"><ele>921.5</ele><time>2026-04-12T16:23:25Z</time></trkpt><trkpt lat="42.52871727585556" lon="13.07162167155289"><ele>923.0</ele><time>2026-04-12T16:23:26Z</time></trkpt><trkpt lat="42.52875388914278" lon="13.071810861615434"><ele>924.5</ele><time>2026-04-12T16:23:27Z</time></trkpt><trkpt lat="42.528801375123614" lon="13.071976407804875"><ele>926.0</ele><time>2026-04-12T16:23:28Z</time></trkpt><trkpt lat="42.528899540693985" lon="13.072121532203202"><ele>926.0</ele><time>2026-04-12T16:23:29Z</time></trkpt><trkpt lat="42.529031314446414" lon="13.072233542589608"><ele>926.0</ele><time>2026-04-12T16:23:30Z</time></trkpt><trkpt lat="42.52918283920046" lon="13.072314481201293"><ele>926.0</ele><time>2026-04-12T16:23:31Z</time></trkpt><trkpt lat="42.52930489250088" lon="13.072461214094306"><ele>926.6666666666667</ele><time>2026-04-12T16:23:32Z</time></trkpt><trkpt lat="42.52942910255408" lon="13.072596425264033"><ele>927.3333333333333</ele><time>2026-04-12T16:23:33Z</time></trkpt><trkpt lat="42.52954546863707" lon="13.072737560512431"><ele>928.0</ele><time>2026-04-12T16:23:34Z</time></trkpt><trkpt lat="42.52965184845459" lon="13.072873582632646"><ele>928.0</ele><time>2026-04-12T16:23:35Z</time></trkpt><trkpt lat="42.52975371107345" lon="13.073015459929616"><ele>928.0</ele><time>2026-04-12T16:23:36Z</time></trkpt><trkpt lat="42.529848922198646" lon="13.07314486485077"><ele>928.0</ele><time>2026-04-12T16:23:37Z</time></trkpt><trkpt lat="42.52994381445009" lon="13.073271635470528"><ele>928.0</ele><time>2026-04-12T16:23:38Z</time></trkpt><trkpt lat="42.53005110369587" lon="13.073362980710856"><ele>924.0</ele><time>2026-04-12T16:23:39Z</time></trkpt><trkpt lat="42.530172068333826" lon="13.073424379133835"><ele>920.0</ele><time>2026-04-12T16:23:40Z</time></trkpt><trkpt lat="42.53029137810908" lon="13.073456648734732"><ele>916.0</ele><time>2026-04-12T16:23:41Z</time></trkpt><trkpt lat="42.530404800928096" lon="13.07351155898896"><ele>912.0</ele><time>2026-04-12T16:23:42Z</time></trkpt><trkpt lat="42.5305198855741" lon="13.073536550025484"><ele>911.0</ele><time>2026-04-12T16:23:43Z</time></trkpt><trkpt lat="42.53060652286235" lon="13.073555854117409"><ele>910.0</ele><time>2026-04-12T16:23:44Z</time></trkpt><trkpt lat="42.53069279320085" lon="13.073521102527991"><ele>909.0</ele><time>2026-04-12T16:23:45Z</time></trkpt><trkpt lat="42.5307530786592" lon="13.073428336460806"><ele>908.0</ele><time>2026-04-12T16:23:46Z</time></trkpt><trkpt lat="42.53076015416303" lon="13.073289260174677"><ele>907.0</ele><time>2026-04-12T16:23:47Z</time></trkpt><trkpt lat="42.53074158646134" lon="13.073143115084477"><ele>909.8</ele><time>2026-04-12T16:23:48Z</time></trkpt><trkpt lat="42.53071066507914" lon="13.073014643207799"><ele>912.6</ele><time>2026-04-12T16:23:49Z</time></trkpt><trkpt lat="42.53068769956056" lon="13.07288028944109"><ele>915.3999999999999</ele><time>2026-04-12T16:23:50Z</time></trkpt><trkpt lat="42.53069318332048" lon="13.072756885144889"><ele>918.1999999999999</ele><time>2026-04-12T16:23:51Z</time></trkpt><trkpt lat="42.53072457742891" lon="13.07263617564221"><ele>921.0</ele><time>2026-04-12T16:23:52Z</time></trkpt><trkpt lat="42.53085269551038" lon="13.072612629059712"><ele>921.0</ele><time>2026-04-12T16:23:53Z</time></trkpt><trkpt lat="42.53097294258983" lon="13.072595174586557"><ele>921.0</ele><time>2026-04-12T16:23:54Z</time></trkpt><trkpt lat="42.53110201468778" lon="13.072596374440884"><ele>921.0</ele><time>2026-04-12T16:23:55Z</time></trkpt><trkpt lat="42.53124406489202" lon="13.07257019734481"><ele>921.0</ele><time>2026-04-12T16:23:56Z</time></trkpt><trkpt lat="42.53140260306072" lon="13.072545779151143"><ele>918.6666666666667</ele><time>2026-04-12T16:23:57Z</time></trkpt><trkpt lat="42.53155064799814" lon="13.072421516353158"><ele>916.3333333333334</ele><time>2026-04-12T16:23:58Z</time></trkpt><trkpt lat="42.53165305542246" lon="13.072242243248066"><ele>914.0</ele><time>2026-04-12T16:23:59Z</time></trkpt><trkpt lat="42.53172143448918" lon="13.072032955816105"><ele>914.0</ele><time>2026-04-12T16:24:00Z</time></trkpt><trkpt lat="42.531779288819074" lon="13.071806192786738"><ele>914.0</ele><time>2026-04-12T16:24:01Z</time></trkpt><trkpt lat="42.531858235805416" lon="13.071594892645118"><ele>914.0</ele><time>2026-04-12T16:24:02Z</time></trkpt><trkpt lat="42.53195206397303" lon="13.07140558745014"><ele>916.0</ele><time>2026-04-12T16:24:03Z</time></trkpt><trkpt lat="42.53202948086453" lon="13.071231800051638"><ele>918.0</ele><time>2026-04-12T16:24:04Z</time></trkpt><trkpt lat="42.532097676704154" lon="13.071065470680868"><ele>920.0</ele><time>2026-04-12T16:24:05Z</time></trkpt><trkpt lat="42.532162383214185" lon="13.070914532694246"><ele>922.0</ele><time>2026-04-12T16:24:06Z</time></trkpt><trkpt lat="42.53223693182888" lon="13.07077787960605"><ele>921.2</ele><time>2026-04-12T16:24:07Z</time></trkpt><trkpt lat="42.53233345881612" lon="13.070693745421021"><ele>920.4000000000001</ele><time>2026-04-12T16:24:08Z</time></trkpt><trkpt lat="42.532438554962546" lon="13.070633477356496"><ele>919.5999999999999</ele><time>2026-04-12T16:24:09Z</time></trkpt><trkpt lat="42.53253990586838" lon="13.070596940109997"><ele>918.8</ele><time>2026-04-12T16:24:10Z</time></trkpt><trkpt lat="42.53264721633717" lon="13.070582756065619"><ele>918.0</ele><time>2026-04-12T16:24:11Z</time></trkpt><trkpt lat="42.53271475804997" lon="13.070677183166763"><ele>912.75</ele><time>2026-04-12T16:24:12Z</time></trkpt><trkpt lat="42.53274941613728" lon="13.070823125341724"><ele>907.5</ele><time>2026-04-12T16:24:13Z</time></trkpt><trkpt lat="42.53272907705366" lon="13.071009321799503"><ele>902.25</ele><time>2026-04-12T16:24:14Z</time></trkpt><trkpt lat="42.53265013767714" lon="13.071193114365064"><ele>897.0</ele><time>2026-04-12T16:24:15Z</time></trkpt><trkpt lat="42.532591360915916" lon="13.071404978618473"><ele>895.3333333333333</ele><time>2026-04-12T16:24:16.001Z</time></trkpt><trkpt lat="42.5325483163259" lon="13.071612119881195"><ele>893.6666666666666</ele><time>2026-04-12T16:24:17.001Z</time></trkpt><trkpt lat="42.53252218731115" lon="13.071822432167236"><ele>892.0</ele><time>2026-04-12T16:24:18.001Z</time></trkpt><trkpt lat="42.532530174423314" lon="13.072042754830086"><ele>892.0</ele><time>2026-04-12T16:24:19.001Z</time></trkpt><trkpt lat="42.532533762071196" lon="13.072263750047048"><ele>892.0</ele><time>2026-04-12T16:24:20.001Z</time></trkpt><trkpt lat="42.532548252531264" lon="13.07248205838804"><ele>892.0</ele><time>2026-04-12T16:24:20.999Z</time></trkpt><trkpt lat="42.53254961305089" lon="13.072673590943637"><ele>889.75</ele><time>2026-04-12T16:24:21.999Z</time></trkpt><trkpt lat="42.53255261005194" lon="13.072857231834634"><ele>887.5</ele><time>2026-04-12T16:24:22.999Z</time></trkpt><trkpt lat="42.532555909857145" lon="13.073033700124347"><ele>885.25</ele><time>2026-04-12T16:24:23.999Z</time></trkpt><trkpt lat="42.53255457624383" lon="13.073193867622974"><ele>883.0</ele><time>2026-04-12T16:24:24.999Z</time></trkpt><trkpt lat="42.53253577580099" lon="13.07335381471794"><ele>880.8</ele><time>2026-04-12T16:24:25.999Z</time></trkpt><trkpt lat="42.53251882026643" lon="13.073502875349174"><ele>878.5999999999999</ele><time>2026-04-12T16:24:26.999Z</time></trkpt><trkpt lat="42.53254101850459" lon="13.073644768847162"><ele>876.4000000000001</ele><time>2026-04-12T16:24:27.999Z</time></trkpt><trkpt lat="42.53261819928077" lon="13.073763435615737"><ele>874.2</ele><time>2026-04-12T16:24:28.999Z</time></trkpt><trkpt lat="42.53272528222842" lon="13.073803903384363"><ele>872.0</ele><time>2026-04-12T16:24:29.999Z</time></trkpt><trkpt lat="42.53283587199274" lon="13.07377136603602"><ele>877.0</ele><time>2026-04-12T16:24:30.999Z</time></trkpt><trkpt lat="42.532935996156965" lon="13.073720455428374"><ele>882.0</ele><time>2026-04-12T16:24:31.999Z</time></trkpt><trkpt lat="42.53303136128876" lon="13.073694781897416"><ele>887.0</ele><time>2026-04-12T16:24:32.999Z</time></trkpt><trkpt lat="42.533120428372555" lon="13.073733303738228"><ele>892.0</ele><time>2026-04-12T16:24:33.999Z</time></trkpt><trkpt lat="42.533151417846184" lon="13.073861003256967"><ele>897.0</ele><time>2026-04-12T16:24:35Z</time></trkpt><trkpt lat="42.5331222398563" lon="13.074031191032693"><ele>894.0</ele><time>2026-04-12T16:24:36Z</time></trkpt><trkpt lat="42.53307712535546" lon="13.074157753245958"><ele>891.0</ele><time>2026-04-12T16:24:37Z</time></trkpt><trkpt lat="42.53294588283462" lon="13.074211659567665"><ele>888.0</ele><time>2026-04-12T16:24:38Z</time></trkpt><trkpt lat="42.53285124216175" lon="13.074309909541686"><ele>885.0</ele><time>2026-04-12T16:24:39Z</time></trkpt><trkpt lat="42.53277221074245" lon="13.0744144703876"><ele>878.75</ele><time>2026-04-12T16:24:40Z</time></trkpt><trkpt lat="42.5327058415998" lon="13.074549429733011"><ele>872.5</ele><time>2026-04-12T16:24:41Z</time></trkpt><trkpt lat="42.53264679664408" lon="13.074712957719989"><ele>866.25</ele><time>2026-04-12T16:24:42Z</time></trkpt><trkpt lat="42.53258314314381" lon="13.074885813411319"><ele>860.0</ele><time>2026-04-12T16:24:43Z</time></trkpt><trkpt lat="42.532514182822396" lon="13.075053616027125"><ele>859.5</ele><time>2026-04-12T16:24:44Z</time></trkpt><trkpt lat="42.53243332388674" lon="13.075208820697883"><ele>859.0</ele><time>2026-04-12T16:24:45Z</time></trkpt><trkpt lat="42.53235536726036" lon="13.075371596497959"><ele>858.5</ele><time>2026-04-12T16:24:46Z</time></trkpt><trkpt lat="42.53231590203831" lon="13.075544595476048"><ele>858.0</ele><time>2026-04-12T16:24:47Z</time></trkpt><trkpt lat="42.53229351941851" lon="13.075733634725063"><ele>859.0</ele><time>2026-04-12T16:24:48Z</time></trkpt><trkpt lat="42.53227245699272" lon="13.075903625006339"><ele>860.0</ele><time>2026-04-12T16:24:49Z</time></trkpt><trkpt lat="42.532242686394746" lon="13.076059782479943"><ele>861.0</ele><time>2026-04-12T16:24:50Z</time></trkpt><trkpt lat="42.532232851145714" lon="13.076220218091253"><ele>862.0</ele><time>2026-04-12T16:24:51Z</time></trkpt><trkpt lat="42.53226605553976" lon="13.076376960113553"><ele>862.0</ele><time>2026-04-12T16:24:52Z</time></trkpt><trkpt lat="42.5323114878263" lon="13.076530387749399"><ele>862.0</ele><time>2026-04-12T16:24:53Z</time></trkpt><trkpt lat="42.532351869125" lon="13.076681690572537"><ele>862.0</ele><time>2026-04-12T16:24:54Z</time></trkpt><trkpt lat="42.532395013794996" lon="13.076822965666008"><ele>862.0</ele><time>2026-04-12T16:24:55Z</time></trkpt><trkpt lat="42.53244442276226" lon="13.07694896195428"><ele>860.9999999999999</ele><time>2026-04-12T16:24:56Z</time></trkpt><trkpt lat="42.53250413801989" lon="13.077054363933936"><ele>860.0</ele><time>2026-04-12T16:24:57Z</time></trkpt><trkpt lat="42.53257082523148" lon="13.077137358046592"><ele>859.0</ele><time>2026-04-12T16:24:58Z</time></trkpt><trkpt lat="42.53264765994919" lon="13.077188508001372"><ele>858.0</ele><time>2026-04-12T16:24:59Z</time></trkpt><trkpt lat="42.53271814993797" lon="13.077231750082115"><ele>856.9999999999999</ele><time>2026-04-12T16:25:00Z</time></trkpt><trkpt lat="42.53276218285686" lon="13.077293489733153"><ele>856.0</ele><time>2026-04-12T16:25:01Z</time></trkpt><trkpt lat="42.53275545277961" lon="13.077389300370209"><ele>855.0</ele><time>2026-04-12T16:25:02Z</time></trkpt><trkpt lat="42.53269736415599" lon="13.077462142032635"><ele>853.9999999999999</ele><time>2026-04-12T16:25:03Z</time></trkpt><trkpt lat="42.53261561999936" lon="13.077496730485576"><ele>853.0</ele><time>2026-04-12T16:25:04Z</time></trkpt><trkpt lat="42.53250736263757" lon="13.077489948635606"><ele>852.0</ele><time>2026-04-12T16:25:05Z</time></trkpt><trkpt lat="42.532393921557755" lon="13.07753941494343"><ele>851.0</ele><time>2026-04-12T16:25:06Z</time></trkpt><trkpt lat="42.53227305946004" lon="13.077561394887153"><ele>851.0</ele><time>2026-04-12T16:25:07Z</time></trkpt><trkpt lat="42.532144243330514" lon="13.077569783535601"><ele>851.0</ele><time>2026-04-12T16:25:08Z</time></trkpt><trkpt lat="42.53203002897555" lon="13.077522347987426"><ele>851.0</ele><time>2026-04-12T16:25:09Z</time></trkpt><trkpt lat="42.53193006816187" lon="13.077505826240097"><ele>851.0</ele><time>2026-04-12T16:25:10Z</time></trkpt><trkpt lat="42.53182438997734" lon="13.077509793536972"><ele>847.75</ele><time>2026-04-12T16:25:11Z</time></trkpt><trkpt lat="42.53172184074461" lon="13.077579503586687"><ele>844.5</ele><time>2026-04-12T16:25:12Z</time></trkpt><trkpt lat="42.531627563545044" lon="13.077712924099316"><ele>841.25</ele><time>2026-04-12T16:25:13Z</time></trkpt><trkpt lat="42.53155107582169" lon="13.077873341880158"><ele>838.0</ele><time>2026-04-12T16:25:14Z</time></trkpt><trkpt lat="42.53146469219936" lon="13.078023793331884"><ele>838.0</ele><time>2026-04-12T16:25:15Z</time></trkpt><trkpt lat="42.53135457910459" lon="13.07814587908454"><ele>838.0</ele><time>2026-04-12T16:25:16Z</time></trkpt><trkpt lat="42.53123389443731" lon="13.078264977713044"><ele>838.0</ele><time>2026-04-12T16:25:17Z</time></trkpt><trkpt lat="42.531121786971056" lon="13.078382139998388"><ele>838.0</ele><time>2026-04-12T16:25:18Z</time></trkpt><trkpt lat="42.53102294781743" lon="13.078492448033545"><ele>834.75</ele><time>2026-04-12T16:25:19Z</time></trkpt><trkpt lat="42.530935367240346" lon="13.078607507574139"><ele>831.5</ele><time>2026-04-12T16:25:20Z</time></trkpt><trkpt lat="42.530872406361794" lon="13.078742999955798"><ele>828.25</ele><time>2026-04-12T16:25:21Z</time></trkpt><trkpt lat="42.53084258951432" lon="13.078897767074949"><ele>825.0</ele><time>2026-04-12T16:25:22Z</time></trkpt><trkpt lat="42.53083382482917" lon="13.079044134214124"><ele>827.25</ele><time>2026-04-12T16:25:23Z</time></trkpt><trkpt lat="42.53076384505692" lon="13.079136719115366"><ele>829.5</ele><time>2026-04-12T16:25:24Z</time></trkpt><trkpt lat="42.53065632547322" lon="13.079192878160299"><ele>831.75</ele><time>2026-04-12T16:25:25Z</time></trkpt><trkpt lat="42.53053320581527" lon="13.079171378212154"><ele>834.0</ele><time>2026-04-12T16:25:26Z</time></trkpt><trkpt lat="42.530404933971646" lon="13.079122807821427"><ele>829.75</ele><time>2026-04-12T16:25:27Z</time></trkpt><trkpt lat="42.530268246351426" lon="13.079124312816187"><ele>825.5</ele><time>2026-04-12T16:25:28Z</time></trkpt><trkpt lat="42.530140061772734" lon="13.079159100399425"><ele>821.25</ele><time>2026-04-12T16:25:29Z</time></trkpt><trkpt lat="42.5300313873417" lon="13.079260237457992"><ele>817.0</ele><time>2026-04-12T16:25:30Z</time></trkpt><trkpt lat="42.529931567212735" lon="13.079362634956341"><ele>817.0</ele><time>2026-04-12T16:25:31Z</time></trkpt><trkpt lat="42.529821185019344" lon="13.07942484020522"><ele>817.0</ele><time>2026-04-12T16:25:32Z</time></trkpt><trkpt lat="42.52971245026187" lon="13.079466016022995"><ele>817.0</ele><time>2026-04-12T16:25:33Z</time></trkpt><trkpt lat="42.52960047724437" lon="13.07949717956471"><ele>817.0</ele><time>2026-04-12T16:25:34Z</time></trkpt><trkpt lat="42.52949566957136" lon="13.079556619445952"><ele>816.75</ele><time>2026-04-12T16:25:35Z</time></trkpt><trkpt lat="42.529395798067966" lon="13.079614667023685"><ele>816.5</ele><time>2026-04-12T16:25:36Z</time></trkpt><trkpt lat="42.52930237560648" lon="13.079713270011535"><ele>816.25</ele><time>2026-04-12T16:25:37Z</time></trkpt><trkpt lat="42.529220827758024" lon="13.079850982276547"><ele>816.0</ele><time>2026-04-12T16:25:38Z</time></trkpt><trkpt lat="42.52914831081269" lon="13.080002120422655"><ele>816.0</ele><time>2026-04-12T16:25:39Z</time></trkpt><trkpt lat="42.52906419035811" lon="13.080158379631515"><ele>816.0</ele><time>2026-04-12T16:25:40Z</time></trkpt><trkpt lat="42.528991040907464" lon="13.080317750330678"><ele>816.0</ele><time>2026-04-12T16:25:41Z</time></trkpt><trkpt lat="42.528939345593244" lon="13.080486636331086"><ele>816.0</ele><time>2026-04-12T16:25:42.001Z</time></trkpt><trkpt lat="42.52891264745084" lon="13.080671516654967"><ele>817.25</ele><time>2026-04-12T16:25:43.001Z</time></trkpt><trkpt lat="42.528891399813936" lon="13.080858153459394"><ele>818.5</ele><time>2026-04-12T16:25:44.001Z</time></trkpt><trkpt lat="42.528874317922295" lon="13.081042936649197"><ele>819.75</ele><time>2026-04-12T16:25:45.001Z</time></trkpt><trkpt lat="42.52886259896731" lon="13.08122663813184"><ele>821.0</ele><time>2026-04-12T16:25:46.001Z</time></trkpt><trkpt lat="42.52886025539443" lon="13.08140458287186"><ele>821.0</ele><time>2026-04-12T16:25:47.001Z</time></trkpt><trkpt lat="42.52888563521347" lon="13.081564985674413"><ele>821.0</ele><time>2026-04-12T16:25:48.001Z</time></trkpt><trkpt lat="42.528949707502655" lon="13.081709525221003"><ele>821.0</ele><time>2026-04-12T16:25:49.001Z</time></trkpt><trkpt lat="42.52904368213932" lon="13.081826362794594"><ele>821.0</ele><time>2026-04-12T16:25:50.001Z</time></trkpt><trkpt lat="42.52914704717975" lon="13.081925081439785"><ele>820.0</ele><time>2026-04-12T16:25:51.001Z</time></trkpt><trkpt lat="42.52926870686971" lon="13.082005970881555"><ele>819.0</ele><time>2026-04-12T16:25:52.001Z</time></trkpt><trkpt lat="42.52940361541349" lon="13.08208300733663"><ele>818.0</ele><time>2026-04-12T16:25:53.001Z</time></trkpt><trkpt lat="42.52953347818329" lon="13.082176982731154"><ele>817.0</ele><time>2026-04-12T16:25:54.001Z</time></trkpt><trkpt lat="42.52966361312778" lon="13.082252094686169"><ele>817.0</ele><time>2026-04-12T16:25:55.001Z</time></trkpt><trkpt lat="42.529789903118875" lon="13.082283333231077"><ele>817.0</ele><time>2026-04-12T16:25:56.001Z</time></trkpt><trkpt lat="42.529915278882434" lon="13.082260264792108"><ele>817.0</ele><time>2026-04-12T16:25:57.001Z</time></trkpt><trkpt lat="42.53003468985019" lon="13.082210250313636"><ele>817.0</ele><time>2026-04-12T16:25:58.001Z</time></trkpt><trkpt lat="42.530160075936884" lon="13.082159424069973"><ele>817.0</ele><time>2026-04-12T16:25:59.001Z</time></trkpt><trkpt lat="42.53028614359475" lon="13.082172114164145"><ele>817.0</ele><time>2026-04-12T16:26:00.001Z</time></trkpt><trkpt lat="42.53039935651204" lon="13.08220336636062"><ele>817.0</ele><time>2026-04-12T16:26:01.001Z</time></trkpt><trkpt lat="42.530479676574615" lon="13.082294980635794"><ele>817.0</ele><time>2026-04-12T16:26:02.001Z</time></trkpt><trkpt lat="42.530522144671245" lon="13.08242750010218"><ele>816.5</ele><time>2026-04-12T16:26:03.001Z</time></trkpt><trkpt lat="42.53057843998914" lon="13.082560000912565"><ele>816.0</ele><time>2026-04-12T16:26:04.001Z</time></trkpt><trkpt lat="42.53058921521738" lon="13.082717139234001"><ele>815.5</ele><time>2026-04-12T16:26:05.001Z</time></trkpt><trkpt lat="42.530526311393075" lon="13.082866760423055"><ele>815.0</ele><time>2026-04-12T16:26:06.001Z</time></trkpt><trkpt lat="42.53046315932684" lon="13.083067857981503"><ele>819.0</ele><time>2026-04-12T16:26:07.001Z</time></trkpt><trkpt lat="42.53040986532777" lon="13.083278866367376"><ele>823.0</ele><time>2026-04-12T16:26:08.001Z</time></trkpt><trkpt lat="42.530323940299695" lon="13.083478995029218"><ele>827.0</ele><time>2026-04-12T16:26:09.001Z</time></trkpt><trkpt lat="42.5302100678961" lon="13.083651737631543"><ele>817.6666666666667</ele><time>2026-04-12T16:26:10.001Z</time></trkpt><trkpt lat="42.530093395890574" lon="13.083801434216783"><ele>808.3333333333333</ele><time>2026-04-12T16:26:11.001Z</time></trkpt><trkpt lat="42.5299725560189" lon="13.083917072650653"><ele>799.0</ele><time>2026-04-12T16:26:12.001Z</time></trkpt><trkpt lat="42.529837575439664" lon="13.084016153676954"><ele>802.3333333333333</ele><time>2026-04-12T16:26:13.001Z</time></trkpt><trkpt lat="42.529692032566444" lon="13.084117843494967"><ele>805.6666666666667</ele><time>2026-04-12T16:26:14.001Z</time></trkpt><trkpt lat="42.52953240929895" lon="13.084164626038513"><ele>809.0</ele><time>2026-04-12T16:26:15.001Z</time></trkpt><trkpt lat="42.5293683839172" lon="13.084187633112125"><ele>802.3333333333334</ele><time>2026-04-12T16:26:16.001Z</time></trkpt><trkpt lat="42.529212585278884" lon="13.084210707924315"><ele>795.6666666666667</ele><time>2026-04-12T16:26:17.001Z</time></trkpt><trkpt lat="42.5290634159904" lon="13.084264367941977"><ele>789.0</ele><time>2026-04-12T16:26:18.001Z</time></trkpt><trkpt lat="42.52893532779211" lon="13.08434433254515"><ele>789.0</ele><time>2026-04-12T16:26:19.001Z</time></trkpt><trkpt lat="42.528819001759985" lon="13.084434477476739"><ele>789.0</ele><time>2026-04-12T16:26:20.001Z</time></trkpt><trkpt lat="42.52871192021626" lon="13.084523433937424"><ele>789.0</ele><time>2026-04-12T16:26:21.001Z</time></trkpt><trkpt lat="42.52861457996107" lon="13.08461468575388"><ele>789.0</ele><time>2026-04-12T16:26:22.001Z</time></trkpt><trkpt lat="42.52853819563389" lon="13.084712929907568"><ele>788.2</ele><time>2026-04-12T16:26:23.001Z</time></trkpt><trkpt lat="42.52847127774712" lon="13.084831181466171"><ele>787.4000000000001</ele><time>2026-04-12T16:26:24.001Z</time></trkpt><trkpt lat="42.5284482259543" lon="13.084961914951512"><ele>786.6</ele><time>2026-04-12T16:26:25.001Z</time></trkpt><trkpt lat="42.528451859485436" lon="13.08508487300388"><ele>785.8</ele><time>2026-04-12T16:26:26.001Z</time></trkpt><trkpt lat="42.52848211787136" lon="13.08520799362164"><ele>785.0</ele><time>2026-04-12T16:26:27Z</time></trkpt><trkpt lat="42.528516125530516" lon="13.08534248629146"><ele>785.0</ele><time>2026-04-12T16:26:28Z</time></trkpt><trkpt lat="42.5285389766362" lon="13.085492548370196"><ele>785.0</ele><time>2026-04-12T16:26:29Z</time></trkpt><trkpt lat="42.52856114086463" lon="13.085635417861312"><ele>785.0</ele><time>2026-04-12T16:26:30Z</time></trkpt><trkpt lat="42.52858811420694" lon="13.085790410905393"><ele>785.0</ele><time>2026-04-12T16:26:31Z</time></trkpt><trkpt lat="42.528616968547986" lon="13.085945141454435"><ele>783.8</ele><time>2026-04-12T16:26:32Z</time></trkpt><trkpt lat="42.52863329674864" lon="13.086088813652294"><ele>782.6</ele><time>2026-04-12T16:26:33Z</time></trkpt><trkpt lat="42.528639831642955" lon="13.086214907825056"><ele>781.4000000000001</ele><time>2026-04-12T16:26:34Z</time></trkpt><trkpt lat="42.52861897026932" lon="13.086320831108894"><ele>780.2</ele><time>2026-04-12T16:26:35Z</time></trkpt><trkpt lat="42.528560141799076" lon="13.086385924962924"><ele>779.0</ele><time>2026-04-12T16:26:36Z</time></trkpt><trkpt lat="42.52845072882732" lon="13.086352713525521"><ele>779.0</ele><time>2026-04-12T16:26:37Z</time></trkpt><trkpt lat="42.52834499433497" lon="13.086343461170177"><ele>779.0</ele><time>2026-04-12T16:26:38Z</time></trkpt><trkpt lat="42.52823263510421" lon="13.086349200985731"><ele>779.0</ele><time>2026-04-12T16:26:39Z</time></trkpt><trkpt lat="42.528122397456386" lon="13.086361871174592"><ele>779.0</ele><time>2026-04-12T16:26:40Z</time></trkpt><trkpt lat="42.52800694646817" lon="13.086379658940327"><ele>779.0</ele><time>2026-04-12T16:26:41Z</time></trkpt><trkpt lat="42.52789408996212" lon="13.086409261841286"><ele>775.25</ele><time>2026-04-12T16:26:42Z</time></trkpt><trkpt lat="42.527796993327854" lon="13.086459892055737"><ele>771.5</ele><time>2026-04-12T16:26:43Z</time></trkpt><trkpt lat="42.52772659901373" lon="13.08657708970954"><ele>767.75</ele><time>2026-04-12T16:26:44Z</time></trkpt><trkpt lat="42.52769833012152" lon="13.086749778724739"><ele>764.0</ele><time>2026-04-12T16:26:45Z</time></trkpt><trkpt lat="42.52771187370936" lon="13.086940792913289"><ele>763.3333333333333</ele><time>2026-04-12T16:26:46Z</time></trkpt><trkpt lat="42.527742488875894" lon="13.087141488970891"><ele>762.6666666666666</ele><time>2026-04-12T16:26:47Z</time></trkpt><trkpt lat="42.52774880946961" lon="13.087353655823547"><ele>762.0</ele><time>2026-04-12T16:26:48Z</time></trkpt><trkpt lat="42.52776230594944" lon="13.087570280160143"><ele>762.0</ele><time>2026-04-12T16:26:49Z</time></trkpt><trkpt lat="42.5277844710159" lon="13.087779601656715"><ele>762.0</ele><time>2026-04-12T16:26:50Z</time></trkpt><trkpt lat="42.527810034136444" lon="13.08796473205569"><ele>762.0</ele><time>2026-04-12T16:26:51Z</time></trkpt><trkpt lat="42.527765165977506" lon="13.088141230640623"><ele>762.0</ele><time>2026-04-12T16:26:52Z</time></trkpt><trkpt lat="42.52765802320316" lon="13.088261925305824"><ele>762.3333333333334</ele><time>2026-04-12T16:26:53Z</time></trkpt><trkpt lat="42.527587448130504" lon="13.08844641667455"><ele>762.6666666666667</ele><time>2026-04-12T16:26:54Z</time></trkpt><trkpt lat="42.52749992556781" lon="13.088637862997828"><ele>763.0</ele><time>2026-04-12T16:26:55Z</time></trkpt><trkpt lat="42.52743332952347" lon="13.088846453731634"><ele>763.0</ele><time>2026-04-12T16:26:56Z</time></trkpt><trkpt lat="42.527393858003855" lon="13.08903443945042"><ele>763.0</ele><time>2026-04-12T16:26:57Z</time></trkpt><trkpt lat="42.52739426882255" lon="13.089203335678217"><ele>763.0</ele><time>2026-04-12T16:26:58Z</time></trkpt><trkpt lat="42.52744374102169" lon="13.08934760575374"><ele>763.0</ele><time>2026-04-12T16:26:59Z</time></trkpt><trkpt lat="42.527529200763574" lon="13.08944617813702"><ele>762.8</ele><time>2026-04-12T16:27:00Z</time></trkpt><trkpt lat="42.52763470778815" lon="13.089481609558066"><ele>762.5999999999999</ele><time>2026-04-12T16:27:01Z</time></trkpt><trkpt lat="42.52773379328667" lon="13.089545107334743"><ele>762.4000000000001</ele><time>2026-04-12T16:27:02Z</time></trkpt><trkpt lat="42.527811778777725" lon="13.08962131860178"><ele>762.2</ele><time>2026-04-12T16:27:03Z</time></trkpt><trkpt lat="42.527844082675514" lon="13.089709680790023"><ele>762.0</ele><time>2026-04-12T16:27:04Z</time></trkpt><trkpt lat="42.527820264604415" lon="13.089826362833845"><ele>762.0</ele><time>2026-04-12T16:27:05Z</time></trkpt><trkpt lat="42.527714504842606" lon="13.0899456186685"><ele>762.0</ele><time>2026-04-12T16:27:06Z</time></trkpt><trkpt lat="42.5275885190428" lon="13.090037963160063"><ele>762.0</ele><time>2026-04-12T16:27:07Z</time></trkpt><trkpt lat="42.5274654626649" lon="13.09016962706865"><ele>762.0</ele><time>2026-04-12T16:27:08Z</time></trkpt><trkpt lat="42.52734196918171" lon="13.090290570127786"><ele>762.0</ele><time>2026-04-12T16:27:09Z</time></trkpt><trkpt lat="42.52724068082568" lon="13.09045276077127"><ele>762.0</ele><time>2026-04-12T16:27:10Z</time></trkpt><trkpt lat="42.52717964823386" lon="13.0906588245059"><ele>762.0</ele><time>2026-04-12T16:27:11Z</time></trkpt><trkpt lat="42.52714451774852" lon="13.090881894832432"><ele>763.6666666666666</ele><time>2026-04-12T16:27:12Z</time></trkpt><trkpt lat="42.52713449710469" lon="13.09113552061502"><ele>765.3333333333333</ele><time>2026-04-12T16:27:13Z</time></trkpt><trkpt lat="42.52712811055261" lon="13.09137570761259"><ele>767.0</ele><time>2026-04-12T16:27:14Z</time></trkpt><trkpt lat="42.527109221684086" lon="13.091596072649024"><ele>767.0</ele><time>2026-04-12T16:27:15Z</time></trkpt><trkpt lat="42.52709006877042" lon="13.091803288624813"><ele>767.0</ele><time>2026-04-12T16:27:16Z</time></trkpt><trkpt lat="42.527085900326064" lon="13.091999390137918"><ele>767.0</ele><time>2026-04-12T16:27:17Z</time></trkpt><trkpt lat="42.527107796195985" lon="13.092183307057333"><ele>767.0</ele><time>2026-04-12T16:27:18Z</time></trkpt><trkpt lat="42.527145557113954" lon="13.092357087371676"><ele>765.75</ele><time>2026-04-12T16:27:19Z</time></trkpt><trkpt lat="42.527163414380006" lon="13.092511913862053"><ele>764.5</ele><time>2026-04-12T16:27:20Z</time></trkpt><trkpt lat="42.527125391514836" lon="13.092675786902156"><ele>763.25</ele><time>2026-04-12T16:27:21Z</time></trkpt><trkpt lat="42.52711812132075" lon="13.092833710077409"><ele>762.0</ele><time>2026-04-12T16:27:22Z</time></trkpt><trkpt lat="42.5271244186841" lon="13.092984196967997"><ele>762.0</ele><time>2026-04-12T16:27:23Z</time></trkpt><trkpt lat="42.52716052717635" lon="13.093142194058688"><ele>762.0</ele><time>2026-04-12T16:27:24Z</time></trkpt><trkpt lat="42.527210761012704" lon="13.093297711338133"><ele>762.0</ele><time>2026-04-12T16:27:25Z</time></trkpt><trkpt lat="42.52720138183375" lon="13.093454660590456"><ele>762.0</ele><time>2026-04-12T16:27:26Z</time></trkpt><trkpt lat="42.52710562214251" lon="13.093570885204468"><ele>755.5</ele><time>2026-04-12T16:27:27Z</time></trkpt><trkpt lat="42.526982634298584" lon="13.093656048105816"><ele>749.0</ele><time>2026-04-12T16:27:28.001Z</time></trkpt><trkpt lat="42.52687743663216" lon="13.093770806111884"><ele>742.5</ele><time>2026-04-12T16:27:29.001Z</time></trkpt><trkpt lat="42.526773481220786" lon="13.09389091134577"><ele>736.0</ele><time>2026-04-12T16:27:30.001Z</time></trkpt><trkpt lat="42.52671073152772" lon="13.094067126190446"><ele>736.5</ele><time>2026-04-12T16:27:31.001Z</time></trkpt><trkpt lat="42.52667999607815" lon="13.094267517832648"><ele>737.0</ele><time>2026-04-12T16:27:32.001Z</time></trkpt><trkpt lat="42.52664428009267" lon="13.094467709436621"><ele>737.5</ele><time>2026-04-12T16:27:33.001Z</time></trkpt><trkpt lat="42.52659587983991" lon="13.094648571631302"><ele>738.0</ele><time>2026-04-12T16:27:34.001Z</time></trkpt><trkpt lat="42.526543433885" lon="13.094814447689824"><ele>739.75</ele><time>2026-04-12T16:27:35.001Z</time></trkpt><trkpt lat="42.52649940609781" lon="13.094969128171954"><ele>741.5</ele><time>2026-04-12T16:27:36.001Z</time></trkpt><trkpt lat="42.526465848885245" lon="13.095133168293055"><ele>743.25</ele><time>2026-04-12T16:27:37.001Z</time></trkpt><trkpt lat="42.526445732545525" lon="13.095314280841443"><ele>745.0</ele><time>2026-04-12T16:27:38.001Z</time></trkpt><trkpt lat="42.52643650976249" lon="13.095505499201986"><ele>745.0</ele><time>2026-04-12T16:27:39.001Z</time></trkpt><trkpt lat="42.52645095255106" lon="13.095699290281091"><ele>745.0</ele><time>2026-04-12T16:27:40.001Z</time></trkpt><trkpt lat="42.52648948545574" lon="13.095897698470221"><ele>745.0</ele><time>2026-04-12T16:27:41.001Z</time></trkpt><trkpt lat="42.526534610272996" lon="13.096097521691604"><ele>745.0</ele><time>2026-04-12T16:27:42.001Z</time></trkpt><trkpt lat="42.526568464548085" lon="13.096302345902373"><ele>745.0</ele><time>2026-04-12T16:27:43.001Z</time></trkpt><trkpt lat="42.52657347347107" lon="13.09652127957262"><ele>745.0</ele><time>2026-04-12T16:27:44.001Z</time></trkpt><trkpt lat="42.52659548664121" lon="13.09672597389515"><ele>745.0</ele><time>2026-04-12T16:27:45.001Z</time></trkpt><trkpt lat="42.526636536502146" lon="13.096910434444526"><ele>742.75</ele><time>2026-04-12T16:27:46.001Z</time></trkpt><trkpt lat="42.52665583179317" lon="13.097082579911257"><ele>740.5</ele><time>2026-04-12T16:27:47.001Z</time></trkpt><trkpt lat="42.52668850952727" lon="13.097239182790725"><ele>738.25</ele><time>2026-04-12T16:27:48.001Z</time></trkpt><trkpt lat="42.52670289381566" lon="13.097403186882966"><ele>736.0</ele><time>2026-04-12T16:27:49.001Z</time></trkpt><trkpt lat="42.52669744965476" lon="13.097561361817709"><ele>733.8</ele><time>2026-04-12T16:27:50.001Z</time></trkpt><trkpt lat="42.526645049207644" lon="13.097697041580679"><ele>731.5999999999999</ele><time>2026-04-12T16:27:51.001Z</time></trkpt><trkpt lat="42.52662164180739" lon="13.097834749240068"><ele>729.4</ele><time>2026-04-12T16:27:52.001Z</time></trkpt><trkpt lat="42.52658678922129" lon="13.097962072592317"><ele>727.2</ele><time>2026-04-12T16:27:53.001Z</time></trkpt><trkpt lat="42.52654647026304" lon="13.098079545422868"><ele>725.0</ele><time>2026-04-12T16:27:54.001Z</time></trkpt><trkpt lat="42.52651164969354" lon="13.098184802544766"><ele>724.5</ele><time>2026-04-12T16:27:55.001Z</time></trkpt><trkpt lat="42.526486802299104" lon="13.098289788370971"><ele>724.0</ele><time>2026-04-12T16:27:56.001Z</time></trkpt><trkpt lat="42.5264518360541" lon="13.098383871093672"><ele>723.5</ele><time>2026-04-12T16:27:57.001Z</time></trkpt><trkpt lat="42.5264188204365" lon="13.098471108435833"><ele>723.0</ele><time>2026-04-12T16:27:58.001Z</time></trkpt><trkpt lat="42.526385501530626" lon="13.098552563224182"><ele>722.5</ele><time>2026-04-12T16:27:59.001Z</time></trkpt><trkpt lat="42.526325865699434" lon="13.098687659893818"><ele>722.0</ele><time>2026-04-12T16:28:01.001Z</time></trkpt><trkpt lat="42.52629734238475" lon="13.098813613578773"><ele>722.0</ele><time>2026-04-12T16:28:03.001Z</time></trkpt><trkpt lat="42.52633314245967" lon="13.09892318109051"><ele>722.0</ele><time>2026-04-12T16:28:05.001Z</time></trkpt><trkpt lat="42.526394222611" lon="13.098980747806968"><ele>722.0</ele><time>2026-04-12T16:28:06.001Z</time></trkpt><trkpt lat="42.52647677225199" lon="13.099014873709562"><ele>722.0</ele><time>2026-04-12T16:28:07.001Z</time></trkpt><trkpt lat="42.526570599088274" lon="13.09903448611796"><ele>722.0</ele><time>2026-04-12T16:28:08.001Z</time></trkpt><trkpt lat="42.52668192960714" lon="13.099061627239951"><ele>721.5</ele><time>2026-04-12T16:28:09.001Z</time></trkpt><trkpt lat="42.52680186823266" lon="13.099096040977235"><ele>721.0</ele><time>2026-04-12T16:28:10.001Z</time></trkpt><trkpt lat="42.52693497195354" lon="13.09913278199318"><ele>720.5</ele><time>2026-04-12T16:28:11.001Z</time></trkpt><trkpt lat="42.52709245758749" lon="13.099171486568746"><ele>720.0</ele><time>2026-04-12T16:28:12.001Z</time></trkpt><trkpt lat="42.5272708370639" lon="13.099217892969568"><ele>719.6666666666666</ele><time>2026-04-12T16:28:13.001Z</time></trkpt><trkpt lat="42.52746226530544" lon="13.099269463736839"><ele>719.3333333333333</ele><time>2026-04-12T16:28:14.001Z</time></trkpt><trkpt lat="42.5276356359403" lon="13.099313393353924"><ele>719.0</ele><time>2026-04-12T16:28:15.001Z</time></trkpt><trkpt lat="42.5277883416771" lon="13.09935815241253"><ele>719.75</ele><time>2026-04-12T16:28:16.001Z</time></trkpt><trkpt lat="42.527931883382884" lon="13.09940445141263"><ele>720.5</ele><time>2026-04-12T16:28:17.001Z</time></trkpt><trkpt lat="42.52806563592734" lon="13.099457763108543"><ele>721.25</ele><time>2026-04-12T16:28:18.001Z</time></trkpt><trkpt lat="42.52819649053125" lon="13.099508779686591"><ele>722.0</ele><time>2026-04-12T16:28:19.001Z</time></trkpt><trkpt lat="42.528317364886576" lon="13.099558947453696"><ele>722.0</ele><time>2026-04-12T16:28:20.001Z</time></trkpt><trkpt lat="42.52843063676821" lon="13.09961052196443"><ele>722.0</ele><time>2026-04-12T16:28:21.001Z</time></trkpt><trkpt lat="42.52853842894902" lon="13.099661865094141"><ele>722.0</ele><time>2026-04-12T16:28:22.001Z</time></trkpt><trkpt lat="42.52864168527655" lon="13.099717680498447"><ele>722.0</ele><time>2026-04-12T16:28:23.001Z</time></trkpt><trkpt lat="42.52873651846424" lon="13.09977119848648"><ele>722.0</ele><time>2026-04-12T16:28:24.001Z</time></trkpt><trkpt lat="42.52882837451612" lon="13.0998224778301"><ele>722.1666666666666</ele><time>2026-04-12T16:28:25.001Z</time></trkpt><trkpt lat="42.52891149321942" lon="13.099870304917655"><ele>722.3333333333333</ele><time>2026-04-12T16:28:26.001Z</time></trkpt><trkpt lat="42.52898641245483" lon="13.099917252702397"><ele>722.5</ele><time>2026-04-12T16:28:27.001Z</time></trkpt><trkpt lat="42.5290426165603" lon="13.099957987761616"><ele>722.6666666666666</ele><time>2026-04-12T16:28:28.001Z</time></trkpt><trkpt lat="42.52912428874469" lon="13.100032473045996"><ele>722.8333333333334</ele><time>2026-04-12T16:28:30.001Z</time></trkpt><trkpt lat="42.52918201688852" lon="13.100102664041573"><ele>723.0</ele><time>2026-04-12T16:28:32.001Z</time></trkpt><trkpt lat="42.5292311133762" lon="13.10017578155349"><ele>723.0000000000001</ele><time>2026-04-12T16:28:34Z</time></trkpt><trkpt lat="42.52925120470279" lon="13.10025972005751"><ele>723.0</ele><time>2026-04-12T16:28:37Z</time></trkpt><trkpt lat="42.529275751776936" lon="13.100338769084246"><ele>723.0</ele><time>2026-04-12T16:28:40Z</time></trkpt><trkpt lat="42.52936309010113" lon="13.100349347591257"><ele>723.0</ele><time>2026-04-12T16:28:44Z</time></trkpt><trkpt lat="42.5294354552992" lon="13.100319408891753"><ele>723.0</ele><time>2026-04-12T16:28:47Z</time></trkpt><trkpt lat="42.52949661495556" lon="13.100298683156577"><ele>723.0000000000001</ele><time>2026-04-12T16:29:05Z</time></trkpt><trkpt lat="42.529442085494416" lon="13.100237817259183"><ele>723.0</ele><time>2026-04-12T16:29:11Z</time></trkpt><trkpt lat="42.5293721232219" lon="13.100251688643333"><ele>723.0000000000001</ele><time>2026-04-12T16:29:14Z</time></trkpt><trkpt lat="42.52930881777521" lon="13.100285287904404"><ele>723.0</ele><time>2026-04-12T16:31:18.001Z</time></trkpt><trkpt lat="42.52923416163774" lon="13.10025661537052"><ele>723.0</ele><time>2026-04-12T16:31:21.001Z</time></trkpt><trkpt lat="42.52918550818251" lon="13.100184194637045"><ele>723.0</ele><time>2026-04-12T16:31:24.001Z</time></trkpt><trkpt lat="42.52926118325669" lon="13.100179275228951"><ele>723.0</ele><time>2026-04-12T16:31:30.001Z</time></trkpt><trkpt lat="42.529320310395676" lon="13.100214289028221"><ele>723.0000000000001</ele><time>2026-04-12T16:31:34.001Z</time></trkpt><trkpt lat="42.5294108979793" lon="13.100222783819955"><ele>723.0</ele><time>2026-04-12T16:38:42.001Z</time></trkpt><trkpt lat="42.52945553811363" lon="13.100308411934872"><ele>723.0</ele><time>2026-04-12T16:39:19Z</time></trkpt><trkpt lat="42.52939870120062" lon="13.100369292518309"><ele>723.0</ele><time>2026-04-12T16:39:21Z</time></trkpt><trkpt lat="42.529334661865455" lon="13.100328907939025"><ele>723.0</ele><time>2026-04-12T16:39:23Z</time></trkpt><trkpt lat="42.52928458797013" lon="13.100244205395832"><ele>723.0</ele><time>2026-04-12T16:39:25Z</time></trkpt><trkpt lat="42.529214009884335" lon="13.100193365242884"><ele>723.0</ele><time>2026-04-12T16:39:28Z</time></trkpt><trkpt lat="42.52928527320279" lon="13.100146872120414"><ele>723.0</ele><time>2026-04-12T16:39:32Z</time></trkpt><trkpt lat="42.529213332415665" lon="13.100108286872917"><ele>723.0</ele><time>2026-04-12T16:39:33Z</time></trkpt><trkpt lat="42.529361828885946" lon="13.100238232839919"><ele>723.0</ele><time>2026-04-12T16:39:34Z</time></trkpt><trkpt lat="42.52945393875772" lon="13.10027630647508"><ele>723.0</ele><time>2026-04-12T16:39:38Z</time></trkpt><trkpt lat="42.52952065239044" lon="13.100294966888512"><ele>723.0</ele><time>2026-04-12T16:39:43Z</time></trkpt><trkpt lat="42.5296026724178" lon="13.100291359653166"><ele>723.0</ele><time>2026-04-12T16:39:45Z</time></trkpt><trkpt lat="42.529724302495104" lon="13.100354464810875"><ele>723.6666666666666</ele><time>2026-04-12T16:39:47Z</time></trkpt><trkpt lat="42.52980317230329" lon="13.10041554650972"><ele>724.3333333333334</ele><time>2026-04-12T16:39:49Z</time></trkpt><trkpt lat="42.529868022690685" lon="13.100462955757424"><ele>725.0</ele><time>2026-04-12T16:39:52Z</time></trkpt><trkpt lat="42.52997123392494" lon="13.100523739373962"><ele>725.6666666666667</ele><time>2026-04-12T16:39:55Z</time></trkpt><trkpt lat="42.53002882235547" lon="13.100568175710498"><ele>726.3333333333334</ele><time>2026-04-12T16:39:57Z</time></trkpt><trkpt lat="42.53009980890467" lon="13.10062266737968"><ele>727.0</ele><time>2026-04-12T16:39:59Z</time></trkpt><trkpt lat="42.53016280315896" lon="13.100659946053895"><ele>727.0</ele><time>2026-04-12T16:40:01Z</time></trkpt><trkpt lat="42.53023087668099" lon="13.100702142374786"><ele>727.0</ele><time>2026-04-12T16:40:03Z</time></trkpt><trkpt lat="42.5302931147942" lon="13.10074811862661"><ele>727.0</ele><time>2026-04-12T16:40:05Z</time></trkpt><trkpt lat="42.5304121474054" lon="13.100791520317529"><ele>727.0</ele><time>2026-04-12T16:40:08Z</time></trkpt><trkpt lat="42.53047487755709" lon="13.100863282449815"><ele>727.0</ele><time>2026-04-12T16:40:10Z</time></trkpt><trkpt lat="42.530563946492116" lon="13.100925522775192"><ele>727.2</ele><time>2026-04-12T16:40:12Z</time></trkpt><trkpt lat="42.53064534146712" lon="13.100996588606204"><ele>727.4000000000001</ele><time>2026-04-12T16:40:14Z</time></trkpt><trkpt lat="42.53069933075857" lon="13.101042768796994"><ele>727.5999999999999</ele><time>2026-04-12T16:40:15Z</time></trkpt><trkpt lat="42.53076784414016" lon="13.101104831065504"><ele>727.8</ele><time>2026-04-12T16:40:16Z</time></trkpt><trkpt lat="42.5308647567116" lon="13.10118736668382"><ele>728.0</ele><time>2026-04-12T16:40:17Z</time></trkpt><trkpt lat="42.53096803885857" lon="13.101281155221564"><ele>728.0</ele><time>2026-04-12T16:40:18Z</time></trkpt><trkpt lat="42.53107946465459" lon="13.101378371454398"><ele>728.0</ele><time>2026-04-12T16:40:19Z</time></trkpt><trkpt lat="42.53118981286701" lon="13.101483446943174"><ele>728.0</ele><time>2026-04-12T16:40:20Z</time></trkpt><trkpt lat="42.531302662222515" lon="13.101586553131268"><ele>728.0</ele><time>2026-04-12T16:40:21Z</time></trkpt><trkpt lat="42.531416053853235" lon="13.101689749573353"><ele>729.0</ele><time>2026-04-12T16:40:22Z</time></trkpt><trkpt lat="42.5315277538418" lon="13.101795568647983"><ele>730.0</ele><time>2026-04-12T16:40:23Z</time></trkpt><trkpt lat="42.531639230650605" lon="13.101902909105636"><ele>731.0</ele><time>2026-04-12T16:40:24Z</time></trkpt><trkpt lat="42.53175671704263" lon="13.10201556297383"><ele>732.0</ele><time>2026-04-12T16:40:25Z</time></trkpt><trkpt lat="42.531873432589784" lon="13.102126288694873"><ele>732.0</ele><time>2026-04-12T16:40:26Z</time></trkpt><trkpt lat="42.531992480254345" lon="13.102239295364521"><ele>732.0</ele><time>2026-04-12T16:40:27Z</time></trkpt><trkpt lat="42.53211316142535" lon="13.102355816062406"><ele>732.0</ele><time>2026-04-12T16:40:28Z</time></trkpt><trkpt lat="42.53224063934676" lon="13.102475597101009"><ele>732.0</ele><time>2026-04-12T16:40:29Z</time></trkpt><trkpt lat="42.53237232004239" lon="13.102597752107815"><ele>732.3333333333334</ele><time>2026-04-12T16:40:30Z</time></trkpt><trkpt lat="42.53251732249092" lon="13.102729191923574"><ele>732.6666666666667</ele><time>2026-04-12T16:40:31Z</time></trkpt><trkpt lat="42.532670137759446" lon="13.102874890794364"><ele>733.0</ele><time>2026-04-12T16:40:32Z</time></trkpt><trkpt lat="42.532817606437106" lon="13.103011995398763"><ele>730.6666666666667</ele><time>2026-04-12T16:40:33Z</time></trkpt><trkpt lat="42.53295771672806" lon="13.10314668825218"><ele>728.3333333333334</ele><time>2026-04-12T16:40:34Z</time></trkpt><trkpt lat="42.53310124688944" lon="13.103286795092757"><ele>726.0</ele><time>2026-04-12T16:40:35Z</time></trkpt><trkpt lat="42.5332498375187" lon="13.103434083454529"><ele>726.0</ele><time>2026-04-12T16:40:36Z</time></trkpt><trkpt lat="42.53339837668395" lon="13.103584164913686"><ele>726.0</ele><time>2026-04-12T16:40:37Z</time></trkpt><trkpt lat="42.53354518026678" lon="13.103729595158214"><ele>726.0</ele><time>2026-04-12T16:40:38Z</time></trkpt><trkpt lat="42.53368734076106" lon="13.103878017842648"><ele>725.6666666666666</ele><time>2026-04-12T16:40:39Z</time></trkpt><trkpt lat="42.53383133414125" lon="13.104026857954336"><ele>725.3333333333333</ele><time>2026-04-12T16:40:40Z</time></trkpt><trkpt lat="42.53396837101139" lon="13.104178346989665"><ele>725.0</ele><time>2026-04-12T16:40:41Z</time></trkpt><trkpt lat="42.53409764325086" lon="13.10434068548577"><ele>725.0</ele><time>2026-04-12T16:40:42Z</time></trkpt><trkpt lat="42.53422942337406" lon="13.104515504361185"><ele>725.0</ele><time>2026-04-12T16:40:43Z</time></trkpt><trkpt lat="42.53434940869049" lon="13.104698710663643"><ele>725.0</ele><time>2026-04-12T16:40:44Z</time></trkpt><trkpt lat="42.53446961102825" lon="13.104895126257734"><ele>726.0</ele><time>2026-04-12T16:40:45Z</time></trkpt><trkpt lat="42.5345801602282" lon="13.105093319252488"><ele>727.0</ele><time>2026-04-12T16:40:46Z</time></trkpt><trkpt lat="42.53468793564304" lon="13.10529856888462"><ele>728.0</ele><time>2026-04-12T16:40:47Z</time></trkpt><trkpt lat="42.53478869292383" lon="13.105506728120657"><ele>728.0</ele><time>2026-04-12T16:40:48Z</time></trkpt><trkpt lat="42.53488328652297" lon="13.105726271439963"><ele>728.0</ele><time>2026-04-12T16:40:49Z</time></trkpt><trkpt lat="42.534968201714506" lon="13.105954966529548"><ele>728.0</ele><time>2026-04-12T16:40:50Z</time></trkpt><trkpt lat="42.53504628939211" lon="13.106190284424727"><ele>728.0</ele><time>2026-04-12T16:40:51Z</time></trkpt><trkpt lat="42.53511424241809" lon="13.106434467913337"><ele>728.0</ele><time>2026-04-12T16:40:52Z</time></trkpt><trkpt lat="42.53518106627176" lon="13.106682554942658"><ele>728.0</ele><time>2026-04-12T16:40:53Z</time></trkpt><trkpt lat="42.535239922871824" lon="13.106932382299918"><ele>728.0</ele><time>2026-04-12T16:40:54Z</time></trkpt><trkpt lat="42.535293198049224" lon="13.107180585220613"><ele>728.0</ele><time>2026-04-12T16:40:55Z</time></trkpt><trkpt lat="42.5353374110736" lon="13.107430787023496"><ele>728.0</ele><time>2026-04-12T16:40:56Z</time></trkpt><trkpt lat="42.53537177930475" lon="13.10767503332964"><ele>730.6666666666666</ele><time>2026-04-12T16:40:57Z</time></trkpt><trkpt lat="42.53539628501678" lon="13.107923849454057"><ele>733.3333333333334</ele><time>2026-04-12T16:40:58Z</time></trkpt><trkpt lat="42.53541946701764" lon="13.10817017090676"><ele>736.0</ele><time>2026-04-12T16:40:59Z</time></trkpt><trkpt lat="42.535439358149134" lon="13.108421427111278"><ele>739.6666666666667</ele><time>2026-04-12T16:41:00Z</time></trkpt><trkpt lat="42.535457956380526" lon="13.10867719314104"><ele>743.3333333333334</ele><time>2026-04-12T16:41:01Z</time></trkpt><trkpt lat="42.535478266548644" lon="13.108933088487877"><ele>747.0</ele><time>2026-04-12T16:41:02Z</time></trkpt><trkpt lat="42.53549984624207" lon="13.109191735560952"><ele>747.6666666666666</ele><time>2026-04-12T16:41:03Z</time></trkpt><trkpt lat="42.53552018851121" lon="13.10944477666396"><ele>748.3333333333333</ele><time>2026-04-12T16:41:04Z</time></trkpt><trkpt lat="42.53554062852507" lon="13.109694341612368"><ele>749.0</ele><time>2026-04-12T16:41:05Z</time></trkpt><trkpt lat="42.53555951920456" lon="13.10994928033379"><ele>749.0</ele><time>2026-04-12T16:41:06Z</time></trkpt><trkpt lat="42.535580123706126" lon="13.110212895140325"><ele>749.0</ele><time>2026-04-12T16:41:07Z</time></trkpt><trkpt lat="42.5356070524835" lon="13.11048330976097"><ele>749.0</ele><time>2026-04-12T16:41:08Z</time></trkpt><trkpt lat="42.53563539218354" lon="13.110766828697015"><ele>747.3333333333333</ele><time>2026-04-12T16:41:09.026Z</time></trkpt><trkpt lat="42.53566298778723" lon="13.111042161923882"><ele>745.6666666666666</ele><time>2026-04-12T16:41:10.024Z</time></trkpt><trkpt lat="42.53572183270272" lon="13.11128579514439"><ele>744.0</ele><time>2026-04-12T16:41:11Z</time></trkpt><trkpt lat="42.5357450043118" lon="13.111534165977794"><ele>742.6666666666666</ele><time>2026-04-12T16:41:11.999Z</time></trkpt><trkpt lat="42.535801866259725" lon="13.111793138328952"><ele>741.3333333333333</ele><time>2026-04-12T16:41:12.999Z</time></trkpt><trkpt lat="42.53586011884004" lon="13.112065451309558"><ele>740.0</ele><time>2026-04-12T16:41:13.999Z</time></trkpt><trkpt lat="42.53593014878859" lon="13.112323058682003"><ele>737.6666666666666</ele><time>2026-04-12T16:41:14.999Z</time></trkpt><trkpt lat="42.536006302160764" lon="13.112578672890086"><ele>735.3333333333334</ele><time>2026-04-12T16:41:15.999Z</time></trkpt><trkpt lat="42.536084320188095" lon="13.112838598754646"><ele>733.0</ele><time>2026-04-12T16:41:16.999Z</time></trkpt><trkpt lat="42.53616769081344" lon="13.113096040379926"><ele>731.6666666666667</ele><time>2026-04-12T16:41:17.999Z</time></trkpt><trkpt lat="42.53625466148919" lon="13.113344100674047"><ele>730.3333333333334</ele><time>2026-04-12T16:41:18.999Z</time></trkpt><trkpt lat="42.536344069061755" lon="13.113575209159665"><ele>729.0</ele><time>2026-04-12T16:41:19.999Z</time></trkpt><trkpt lat="42.53643836624708" lon="13.113803929132752"><ele>729.0</ele><time>2026-04-12T16:41:20.999Z</time></trkpt><trkpt lat="42.536538267983175" lon="13.11403706813579"><ele>729.0</ele><time>2026-04-12T16:41:21.999Z</time></trkpt><trkpt lat="42.53665099912429" lon="13.114281218010209"><ele>729.0</ele><time>2026-04-12T16:41:22.999Z</time></trkpt><trkpt lat="42.53676003568216" lon="13.114504026538086"><ele>729.0</ele><time>2026-04-12T16:41:23.999Z</time></trkpt><trkpt lat="42.5368764395589" lon="13.114730895862653"><ele>729.0</ele><time>2026-04-12T16:41:24.999Z</time></trkpt><trkpt lat="42.53699484560364" lon="13.114949405121502"><ele>729.0</ele><time>2026-04-12T16:41:25.999Z</time></trkpt><trkpt lat="42.5371175295251" lon="13.115172642767744"><ele>729.0</ele><time>2026-04-12T16:41:26.999Z</time></trkpt><trkpt lat="42.53723698990558" lon="13.115386710875896"><ele>729.0</ele><time>2026-04-12T16:41:27.999Z</time></trkpt><trkpt lat="42.53736051672742" lon="13.115606144706923"><ele>729.0</ele><time>2026-04-12T16:41:28.999Z</time></trkpt><trkpt lat="42.53748495305633" lon="13.115827706492295"><ele>729.6666666666666</ele><time>2026-04-12T16:41:29.999Z</time></trkpt><trkpt lat="42.53760780820013" lon="13.116047367977682"><ele>730.3333333333333</ele><time>2026-04-12T16:41:30.999Z</time></trkpt><trkpt lat="42.53773079249037" lon="13.11627021922714"><ele>731.0</ele><time>2026-04-12T16:41:31.999Z</time></trkpt><trkpt lat="42.53785390155296" lon="13.11649620812185"><ele>730.6666666666666</ele><time>2026-04-12T16:41:32.999Z</time></trkpt><trkpt lat="42.537979834303" lon="13.116722657903859"><ele>730.3333333333334</ele><time>2026-04-12T16:41:34Z</time></trkpt><trkpt lat="42.53810556262588" lon="13.116948690163841"><ele>730.0</ele><time>2026-04-12T16:41:35Z</time></trkpt><trkpt lat="42.53823400006217" lon="13.117177873752953"><ele>731.0</ele><time>2026-04-12T16:41:36Z</time></trkpt><trkpt lat="42.538362611851376" lon="13.117407736717288"><ele>732.0</ele><time>2026-04-12T16:41:37Z</time></trkpt><trkpt lat="42.53849301626866" lon="13.117641643352712"><ele>733.0</ele><time>2026-04-12T16:41:38Z</time></trkpt><trkpt lat="42.53862186515956" lon="13.117874431116597"><ele>732.3333333333334</ele><time>2026-04-12T16:41:39Z</time></trkpt><trkpt lat="42.53874877159897" lon="13.118105101802794"><ele>731.6666666666666</ele><time>2026-04-12T16:41:40Z</time></trkpt><trkpt lat="42.53887874592227" lon="13.11833940548612"><ele>731.0</ele><time>2026-04-12T16:41:41Z</time></trkpt><trkpt lat="42.53900830561281" lon="13.118570856916397"><ele>730.3333333333333</ele><time>2026-04-12T16:41:42Z</time></trkpt><trkpt lat="42.539139223550144" lon="13.118803607081324"><ele>729.6666666666666</ele><time>2026-04-12T16:41:43Z</time></trkpt><trkpt lat="42.539267184457074" lon="13.119031555246847"><ele>729.0</ele><time>2026-04-12T16:41:44Z</time></trkpt><trkpt lat="42.53939790908254" lon="13.119268012530476"><ele>728.6666666666666</ele><time>2026-04-12T16:41:45Z</time></trkpt><trkpt lat="42.53952609343592" lon="13.11949963468586"><ele>728.3333333333333</ele><time>2026-04-12T16:41:46Z</time></trkpt><trkpt lat="42.53965717158399" lon="13.119737242447986"><ele>728.0</ele><time>2026-04-12T16:41:47Z</time></trkpt><trkpt lat="42.5397874212138" lon="13.119970018174257"><ele>728.6666666666666</ele><time>2026-04-12T16:41:48Z</time></trkpt><trkpt lat="42.5399165776702" lon="13.12020216553966"><ele>729.3333333333334</ele><time>2026-04-12T16:41:49Z</time></trkpt><trkpt lat="42.540045037170465" lon="13.120433918405084"><ele>730.0</ele><time>2026-04-12T16:41:50Z</time></trkpt><trkpt lat="42.54017535888636" lon="13.120666553327302"><ele>730.0</ele><time>2026-04-12T16:41:51Z</time></trkpt><trkpt lat="42.54030771575003" lon="13.120906556692429"><ele>730.0</ele><time>2026-04-12T16:41:52Z</time></trkpt><trkpt lat="42.54043688758214" lon="13.121138947151971"><ele>730.0</ele><time>2026-04-12T16:41:53Z</time></trkpt><trkpt lat="42.5405647419268" lon="13.12136923237566"><ele>730.3333333333334</ele><time>2026-04-12T16:41:54Z</time></trkpt><trkpt lat="42.54069893059241" lon="13.121605015463745"><ele>730.6666666666666</ele><time>2026-04-12T16:41:55Z</time></trkpt><trkpt lat="42.54083468018486" lon="13.121843462208295"><ele>731.0</ele><time>2026-04-12T16:41:56Z</time></trkpt><trkpt lat="42.54096954242971" lon="13.122084588374323"><ele>731.0</ele><time>2026-04-12T16:41:57Z</time></trkpt><trkpt lat="42.541104866936486" lon="13.122329487715024"><ele>731.0</ele><time>2026-04-12T16:41:58Z</time></trkpt><trkpt lat="42.54124239384409" lon="13.122576501095955"><ele>731.0</ele><time>2026-04-12T16:41:59Z</time></trkpt><trkpt lat="42.54137839762046" lon="13.122820588683464"><ele>731.0</ele><time>2026-04-12T16:42:00Z</time></trkpt><trkpt lat="42.541516349338416" lon="13.123070236175097"><ele>731.6666666666666</ele><time>2026-04-12T16:42:01Z</time></trkpt><trkpt lat="42.541649162372046" lon="13.123308879004481"><ele>732.3333333333334</ele><time>2026-04-12T16:42:02Z</time></trkpt><trkpt lat="42.54177841975186" lon="13.123543243829335"><ele>733.0</ele><time>2026-04-12T16:42:03Z</time></trkpt><trkpt lat="42.541907315572686" lon="13.123777326011155"><ele>733.0</ele><time>2026-04-12T16:42:04Z</time></trkpt><trkpt lat="42.542034732136834" lon="13.124010983549478"><ele>733.0</ele><time>2026-04-12T16:42:05Z</time></trkpt><trkpt lat="42.54216157317559" lon="13.12424141174185"><ele>733.0</ele><time>2026-04-12T16:42:06Z</time></trkpt><trkpt lat="42.54228955237134" lon="13.124472377679943"><ele>733.3333333333334</ele><time>2026-04-12T16:42:07Z</time></trkpt><trkpt lat="42.54242239053494" lon="13.12470731870579"><ele>733.6666666666666</ele><time>2026-04-12T16:42:08Z</time></trkpt><trkpt lat="42.54255486408998" lon="13.124941777161238"><ele>734.0</ele><time>2026-04-12T16:42:09Z</time></trkpt><trkpt lat="42.542688087733495" lon="13.125181449074374"><ele>734.0</ele><time>2026-04-12T16:42:10Z</time></trkpt><trkpt lat="42.542820675181076" lon="13.125419043531119"><ele>734.0</ele><time>2026-04-12T16:42:11Z</time></trkpt><trkpt lat="42.54295256530572" lon="13.125662525763854"><ele>732.0</ele><time>2026-04-12T16:42:12Z</time></trkpt></trkseg></trk></gpx>